<?xml version="1.0" encoding="UTF-8" standalone="no" ?>
<gpx xmlns="http://www.topografix.com/GPX/1/1" xmlns:xsi="http://www.w3.org/2001/XMLSchema-instance" xsi:schemaLocation="http://www.topografix.com/GPX/1/1 http://www.topografix.com/GPX/1/1/gpx.xsd" version="1.1" creator="VisuGPX - https://www.visugpx.com">
  <metadata>
    <name>Lyon - St Etienne via St Martin en Haut</name>
    <desc><![CDATA[parcours sur bitume en privilégiant les routes à faible trafic]]></desc>
  </metadata>
  <trk>
    <name><![CDATA[Lyon St Etienne route]]></name>
    <cmt><![CDATA[pas beaucoup de jus -  soleil douceur - vent défavorable (sud) mais visi excellente sur le  Pilat et les Alpes -]]></cmt>
    <trkseg>
      <trkpt lat="45.75551" lon="4.86148">
        <ele>176.05859375</ele>
        <time>2010-11-13T08:00:57Z</time>
      </trkpt>
      <trkpt lat="45.75559" lon="4.86143">
        <ele>184.22985839844</ele>
        <time>2010-11-13T08:00:58Z</time>
      </trkpt>
      <trkpt lat="45.75563" lon="4.8614">
        <ele>183.7490234375</ele>
        <time>2010-11-13T08:00:59Z</time>
      </trkpt>
      <trkpt lat="45.75597" lon="4.86126">
        <ele>183.7490234375</ele>
        <time>2010-11-13T08:01:06Z</time>
      </trkpt>
      <trkpt lat="45.75642" lon="4.86114">
        <ele>183.7490234375</ele>
        <time>2010-11-13T08:01:14Z</time>
      </trkpt>
      <trkpt lat="45.75665" lon="4.86108">
        <ele>183.7490234375</ele>
        <time>2010-11-13T08:01:18Z</time>
      </trkpt>
      <trkpt lat="45.75692" lon="4.86113">
        <ele>183.7490234375</ele>
        <time>2010-11-13T08:01:23Z</time>
      </trkpt>
      <trkpt lat="45.75706" lon="4.86127">
        <ele>183.26843261719</ele>
        <time>2010-11-13T08:01:27Z</time>
      </trkpt>
      <trkpt lat="45.75709" lon="4.86129">
        <ele>183.26843261719</ele>
        <time>2010-11-13T08:01:29Z</time>
      </trkpt>
      <trkpt lat="45.75716" lon="4.86129">
        <ele>183.26843261719</ele>
        <time>2010-11-13T08:01:32Z</time>
      </trkpt>
      <trkpt lat="45.75737" lon="4.86145">
        <ele>183.26843261719</ele>
        <time>2010-11-13T08:01:37Z</time>
      </trkpt>
      <trkpt lat="45.75742" lon="4.86144">
        <ele>184.22985839844</ele>
        <time>2010-11-13T08:01:38Z</time>
      </trkpt>
      <trkpt lat="45.75754" lon="4.86143">
        <ele>183.7490234375</ele>
        <time>2010-11-13T08:01:40Z</time>
      </trkpt>
      <trkpt lat="45.75763" lon="4.86148">
        <ele>183.7490234375</ele>
        <time>2010-11-13T08:01:42Z</time>
      </trkpt>
      <trkpt lat="45.75781" lon="4.86164">
        <ele>184.22985839844</ele>
        <time>2010-11-13T08:01:47Z</time>
      </trkpt>
      <trkpt lat="45.75802" lon="4.86169">
        <ele>184.22985839844</ele>
        <time>2010-11-13T08:01:51Z</time>
      </trkpt>
      <trkpt lat="45.75821" lon="4.86187">
        <ele>184.71057128906</ele>
        <time>2010-11-13T08:01:57Z</time>
      </trkpt>
      <trkpt lat="45.7583" lon="4.86194">
        <ele>184.71057128906</ele>
        <time>2010-11-13T08:02:00Z</time>
      </trkpt>
      <trkpt lat="45.75846" lon="4.86194">
        <ele>184.71057128906</ele>
        <time>2010-11-13T08:02:03Z</time>
      </trkpt>
      <trkpt lat="45.75869" lon="4.86177">
        <ele>184.71057128906</ele>
        <time>2010-11-13T08:02:07Z</time>
      </trkpt>
      <trkpt lat="45.75895" lon="4.86138">
        <ele>183.7490234375</ele>
        <time>2010-11-13T08:02:12Z</time>
      </trkpt>
      <trkpt lat="45.75897" lon="4.86119">
        <ele>183.7490234375</ele>
        <time>2010-11-13T08:02:14Z</time>
      </trkpt>
      <trkpt lat="45.7589" lon="4.86096">
        <ele>183.7490234375</ele>
        <time>2010-11-13T08:02:18Z</time>
      </trkpt>
      <trkpt lat="45.75905" lon="4.86099">
        <ele>184.22985839844</ele>
        <time>2010-11-13T08:02:22Z</time>
      </trkpt>
      <trkpt lat="45.75907" lon="4.86099">
        <ele>183.7490234375</ele>
        <time>2010-11-13T08:02:23Z</time>
      </trkpt>
      <trkpt lat="45.75938" lon="4.86094">
        <ele>183.7490234375</ele>
        <time>2010-11-13T08:02:31Z</time>
      </trkpt>
      <trkpt lat="45.75914" lon="4.85967">
        <ele>184.22985839844</ele>
        <time>2010-11-13T08:02:34Z</time>
      </trkpt>
      <trkpt lat="45.75891" lon="4.85905">
        <ele>184.71057128906</ele>
        <time>2010-11-13T08:02:39Z</time>
      </trkpt>
      <trkpt lat="45.75886" lon="4.85886">
        <ele>185.19116210938</ele>
        <time>2010-11-13T08:02:42Z</time>
      </trkpt>
      <trkpt lat="45.75888" lon="4.85876">
        <ele>185.19116210938</ele>
        <time>2010-11-13T08:02:46Z</time>
      </trkpt>
      <trkpt lat="45.75898" lon="4.85872">
        <ele>185.67175292969</ele>
        <time>2010-11-13T08:02:50Z</time>
      </trkpt>
      <trkpt lat="45.75915" lon="4.85855">
        <ele>186.15246582031</ele>
        <time>2010-11-13T08:02:55Z</time>
      </trkpt>
      <trkpt lat="45.75956" lon="4.85847">
        <ele>186.15246582031</ele>
        <time>2010-11-13T08:03:04Z</time>
      </trkpt>
      <trkpt lat="45.75975" lon="4.85843">
        <ele>185.67175292969</ele>
        <time>2010-11-13T08:03:08Z</time>
      </trkpt>
      <trkpt lat="45.76002" lon="4.85838">
        <ele>185.67175292969</ele>
        <time>2010-11-13T08:03:15Z</time>
      </trkpt>
      <trkpt lat="45.76006" lon="4.85828">
        <ele>185.67175292969</ele>
        <time>2010-11-13T08:03:19Z</time>
      </trkpt>
      <trkpt lat="45.76004" lon="4.85807">
        <ele>185.67175292969</ele>
        <time>2010-11-13T08:03:23Z</time>
      </trkpt>
      <trkpt lat="45.76003" lon="4.85796">
        <ele>185.67175292969</ele>
        <time>2010-11-13T08:03:25Z</time>
      </trkpt>
      <trkpt lat="45.76001" lon="4.85778">
        <ele>186.15246582031</ele>
        <time>2010-11-13T08:03:28Z</time>
      </trkpt>
      <trkpt lat="45.75994" lon="4.85726">
        <ele>186.15246582031</ele>
        <time>2010-11-13T08:03:36Z</time>
      </trkpt>
      <trkpt lat="45.75991" lon="4.85704">
        <ele>186.63317871094</ele>
        <time>2010-11-13T08:03:39Z</time>
      </trkpt>
      <trkpt lat="45.75986" lon="4.85652">
        <ele>186.63317871094</ele>
        <time>2010-11-13T08:03:46Z</time>
      </trkpt>
      <trkpt lat="45.75977" lon="4.85626">
        <ele>186.15246582031</ele>
        <time>2010-11-13T08:03:50Z</time>
      </trkpt>
      <trkpt lat="45.75965" lon="4.85602">
        <ele>185.67175292969</ele>
        <time>2010-11-13T08:03:54Z</time>
      </trkpt>
      <trkpt lat="45.75961" lon="4.85582">
        <ele>186.15246582031</ele>
        <time>2010-11-13T08:03:57Z</time>
      </trkpt>
      <trkpt lat="45.75956" lon="4.85528">
        <ele>185.67175292969</ele>
        <time>2010-11-13T08:04:04Z</time>
      </trkpt>
      <trkpt lat="45.75951" lon="4.85466">
        <ele>185.19116210938</ele>
        <time>2010-11-13T08:04:12Z</time>
      </trkpt>
      <trkpt lat="45.75951" lon="4.8545">
        <ele>185.19116210938</ele>
        <time>2010-11-13T08:04:14Z</time>
      </trkpt>
      <trkpt lat="45.7595" lon="4.85424">
        <ele>185.19116210938</ele>
        <time>2010-11-13T08:04:18Z</time>
      </trkpt>
      <trkpt lat="45.75945" lon="4.85348">
        <ele>185.19116210938</ele>
        <time>2010-11-13T08:04:27Z</time>
      </trkpt>
      <trkpt lat="45.75935" lon="4.85278">
        <ele>185.19116210938</ele>
        <time>2010-11-13T08:04:35Z</time>
      </trkpt>
      <trkpt lat="45.75936" lon="4.85253">
        <ele>184.71057128906</ele>
        <time>2010-11-13T08:04:39Z</time>
      </trkpt>
      <trkpt lat="45.75934" lon="4.85224">
        <ele>184.71057128906</ele>
        <time>2010-11-13T08:04:45Z</time>
      </trkpt>
      <trkpt lat="45.75935" lon="4.85213">
        <ele>184.71057128906</ele>
        <time>2010-11-13T08:04:47Z</time>
      </trkpt>
      <trkpt lat="45.75945" lon="4.85208">
        <ele>184.71057128906</ele>
        <time>2010-11-13T08:04:51Z</time>
      </trkpt>
      <trkpt lat="45.75979" lon="4.85203">
        <ele>185.19116210938</ele>
        <time>2010-11-13T08:04:58Z</time>
      </trkpt>
      <trkpt lat="45.75996" lon="4.85188">
        <ele>184.71057128906</ele>
        <time>2010-11-13T08:05:02Z</time>
      </trkpt>
      <trkpt lat="45.75998" lon="4.85168">
        <ele>184.22985839844</ele>
        <time>2010-11-13T08:05:05Z</time>
      </trkpt>
      <trkpt lat="45.75998" lon="4.85162">
        <ele>184.71057128906</ele>
        <time>2010-11-13T08:05:06Z</time>
      </trkpt>
      <trkpt lat="45.75993" lon="4.85097">
        <ele>184.22985839844</ele>
        <time>2010-11-13T08:05:15Z</time>
      </trkpt>
      <trkpt lat="45.75991" lon="4.85088">
        <ele>184.71057128906</ele>
        <time>2010-11-13T08:05:18Z</time>
      </trkpt>
      <trkpt lat="45.75988" lon="4.8507">
        <ele>184.71057128906</ele>
        <time>2010-11-13T08:05:22Z</time>
      </trkpt>
      <trkpt lat="45.75975" lon="4.85021">
        <ele>184.71057128906</ele>
        <time>2010-11-13T08:05:29Z</time>
      </trkpt>
      <trkpt lat="45.75975" lon="4.85006">
        <ele>185.19116210938</ele>
        <time>2010-11-13T08:05:31Z</time>
      </trkpt>
      <trkpt lat="45.75973" lon="4.8495">
        <ele>184.71057128906</ele>
        <time>2010-11-13T08:05:38Z</time>
      </trkpt>
      <trkpt lat="45.75967" lon="4.84907">
        <ele>184.22985839844</ele>
        <time>2010-11-13T08:05:44Z</time>
      </trkpt>
      <trkpt lat="45.75969" lon="4.84848">
        <ele>184.71057128906</ele>
        <time>2010-11-13T08:05:51Z</time>
      </trkpt>
      <trkpt lat="45.75964" lon="4.84794">
        <ele>184.22985839844</ele>
        <time>2010-11-13T08:05:58Z</time>
      </trkpt>
      <trkpt lat="45.75962" lon="4.84767">
        <ele>184.71057128906</ele>
        <time>2010-11-13T08:06:02Z</time>
      </trkpt>
      <trkpt lat="45.75961" lon="4.84731">
        <ele>184.71057128906</ele>
        <time>2010-11-13T08:06:07Z</time>
      </trkpt>
      <trkpt lat="45.7596" lon="4.8471">
        <ele>184.71057128906</ele>
        <time>2010-11-13T08:06:11Z</time>
      </trkpt>
      <trkpt lat="45.75957" lon="4.84695">
        <ele>185.19116210938</ele>
        <time>2010-11-13T08:06:15Z</time>
      </trkpt>
      <trkpt lat="45.75958" lon="4.8468">
        <ele>184.71057128906</ele>
        <time>2010-11-13T08:06:17Z</time>
      </trkpt>
      <trkpt lat="45.75949" lon="4.84617">
        <ele>185.19116210938</ele>
        <time>2010-11-13T08:06:26Z</time>
      </trkpt>
      <trkpt lat="45.75958" lon="4.84597">
        <ele>185.19116210938</ele>
        <time>2010-11-13T08:06:28Z</time>
      </trkpt>
      <trkpt lat="45.75959" lon="4.84553">
        <ele>185.19116210938</ele>
        <time>2010-11-13T08:06:34Z</time>
      </trkpt>
      <trkpt lat="45.75948" lon="4.84505">
        <ele>184.71057128906</ele>
        <time>2010-11-13T08:06:39Z</time>
      </trkpt>
      <trkpt lat="45.75946" lon="4.8448">
        <ele>184.71057128906</ele>
        <time>2010-11-13T08:06:42Z</time>
      </trkpt>
      <trkpt lat="45.75942" lon="4.84432">
        <ele>184.71057128906</ele>
        <time>2010-11-13T08:06:48Z</time>
      </trkpt>
      <trkpt lat="45.75937" lon="4.84375">
        <ele>185.19116210938</ele>
        <time>2010-11-13T08:06:55Z</time>
      </trkpt>
      <trkpt lat="45.75936" lon="4.84319">
        <ele>185.19116210938</ele>
        <time>2010-11-13T08:07:02Z</time>
      </trkpt>
      <trkpt lat="45.75933" lon="4.84287">
        <ele>185.19116210938</ele>
        <time>2010-11-13T08:07:07Z</time>
      </trkpt>
      <trkpt lat="45.75935" lon="4.8427">
        <ele>185.19116210938</ele>
        <time>2010-11-13T08:07:12Z</time>
      </trkpt>
      <trkpt lat="45.75935" lon="4.84269">
        <ele>185.19116210938</ele>
        <time>2010-11-13T08:07:13Z</time>
      </trkpt>
      <trkpt lat="45.75932" lon="4.84251">
        <ele>185.19116210938</ele>
        <time>2010-11-13T08:07:18Z</time>
      </trkpt>
      <trkpt lat="45.75922" lon="4.84197">
        <ele>186.15246582031</ele>
        <time>2010-11-13T08:07:27Z</time>
      </trkpt>
      <trkpt lat="45.75911" lon="4.84155">
        <ele>186.63317871094</ele>
        <time>2010-11-13T08:07:34Z</time>
      </trkpt>
      <trkpt lat="45.75912" lon="4.8412">
        <ele>187.11376953125</ele>
        <time>2010-11-13T08:07:40Z</time>
      </trkpt>
      <trkpt lat="45.75916" lon="4.84111">
        <ele>186.63317871094</ele>
        <time>2010-11-13T08:07:43Z</time>
      </trkpt>
      <trkpt lat="45.7592" lon="4.84093">
        <ele>187.11376953125</ele>
        <time>2010-11-13T08:07:48Z</time>
      </trkpt>
      <trkpt lat="45.75928" lon="4.84087">
        <ele>187.59436035156</ele>
        <time>2010-11-13T08:07:52Z</time>
      </trkpt>
      <trkpt lat="45.75934" lon="4.84086">
        <ele>187.59436035156</ele>
        <time>2010-11-13T08:07:54Z</time>
      </trkpt>
      <trkpt lat="45.75937" lon="4.84079">
        <ele>187.59436035156</ele>
        <time>2010-11-13T08:07:58Z</time>
      </trkpt>
      <trkpt lat="45.75933" lon="4.84075">
        <ele>187.59436035156</ele>
        <time>2010-11-13T08:08:02Z</time>
      </trkpt>
      <trkpt lat="45.75927" lon="4.8408">
        <ele>187.11376953125</ele>
        <time>2010-11-13T08:08:06Z</time>
      </trkpt>
      <trkpt lat="45.75918" lon="4.8408">
        <ele>187.11376953125</ele>
        <time>2010-11-13T08:08:10Z</time>
      </trkpt>
      <trkpt lat="45.75904" lon="4.84079">
        <ele>187.11376953125</ele>
        <time>2010-11-13T08:08:16Z</time>
      </trkpt>
      <trkpt lat="45.75895" lon="4.84078">
        <ele>187.11376953125</ele>
        <time>2010-11-13T08:08:21Z</time>
      </trkpt>
      <trkpt lat="45.75884" lon="4.84077">
        <ele>187.11376953125</ele>
        <time>2010-11-13T08:08:26Z</time>
      </trkpt>
      <trkpt lat="45.75872" lon="4.84076">
        <ele>186.63317871094</ele>
        <time>2010-11-13T08:08:31Z</time>
      </trkpt>
      <trkpt lat="45.75867" lon="4.84075">
        <ele>186.63317871094</ele>
        <time>2010-11-13T08:08:35Z</time>
      </trkpt>
      <trkpt lat="45.75863" lon="4.84076">
        <ele>186.63317871094</ele>
        <time>2010-11-13T08:08:39Z</time>
      </trkpt>
      <trkpt lat="45.75853" lon="4.84075">
        <ele>186.63317871094</ele>
        <time>2010-11-13T08:08:44Z</time>
      </trkpt>
      <trkpt lat="45.75848" lon="4.84071">
        <ele>186.15246582031</ele>
        <time>2010-11-13T08:08:47Z</time>
      </trkpt>
      <trkpt lat="45.75851" lon="4.84061">
        <ele>186.63317871094</ele>
        <time>2010-11-13T08:08:52Z</time>
      </trkpt>
      <trkpt lat="45.7586" lon="4.84063">
        <ele>186.63317871094</ele>
        <time>2010-11-13T08:08:55Z</time>
      </trkpt>
      <trkpt lat="45.75893" lon="4.84063">
        <ele>185.67175292969</ele>
        <time>2010-11-13T08:09:02Z</time>
      </trkpt>
      <trkpt lat="45.75935" lon="4.84062">
        <ele>184.22985839844</ele>
        <time>2010-11-13T08:09:09Z</time>
      </trkpt>
      <trkpt lat="45.75959" lon="4.84063">
        <ele>184.22985839844</ele>
        <time>2010-11-13T08:09:14Z</time>
      </trkpt>
      <trkpt lat="45.75993" lon="4.84061">
        <ele>183.26843261719</ele>
        <time>2010-11-13T08:09:21Z</time>
      </trkpt>
      <trkpt lat="45.75997" lon="4.84071">
        <ele>183.26843261719</ele>
        <time>2010-11-13T08:09:23Z</time>
      </trkpt>
      <trkpt lat="45.76034" lon="4.84067">
        <ele>183.7490234375</ele>
        <time>2010-11-13T08:09:28Z</time>
      </trkpt>
      <trkpt lat="45.76083" lon="4.84071">
        <ele>183.7490234375</ele>
        <time>2010-11-13T08:09:37Z</time>
      </trkpt>
      <trkpt lat="45.76135" lon="4.84075">
        <ele>183.7490234375</ele>
        <time>2010-11-13T08:09:46Z</time>
      </trkpt>
      <trkpt lat="45.76199" lon="4.84082">
        <ele>183.26843261719</ele>
        <time>2010-11-13T08:09:57Z</time>
      </trkpt>
      <trkpt lat="45.76237" lon="4.84087">
        <ele>183.7490234375</ele>
        <time>2010-11-13T08:10:04Z</time>
      </trkpt>
      <trkpt lat="45.76291" lon="4.84092">
        <ele>183.26843261719</ele>
        <time>2010-11-13T08:10:13Z</time>
      </trkpt>
      <trkpt lat="45.76341" lon="4.84095">
        <ele>182.78784179688</ele>
        <time>2010-11-13T08:10:21Z</time>
      </trkpt>
      <trkpt lat="45.7635" lon="4.84095">
        <ele>182.78784179688</ele>
        <time>2010-11-13T08:10:23Z</time>
      </trkpt>
      <trkpt lat="45.76366" lon="4.84083">
        <ele>182.30712890625</ele>
        <time>2010-11-13T08:10:25Z</time>
      </trkpt>
      <trkpt lat="45.76422" lon="4.84106">
        <ele>183.26843261719</ele>
        <time>2010-11-13T08:10:33Z</time>
      </trkpt>
      <trkpt lat="45.76472" lon="4.84109">
        <ele>183.26843261719</ele>
        <time>2010-11-13T08:10:41Z</time>
      </trkpt>
      <trkpt lat="45.7654" lon="4.84103">
        <ele>182.78784179688</ele>
        <time>2010-11-13T08:10:52Z</time>
      </trkpt>
      <trkpt lat="45.76595" lon="4.84096">
        <ele>182.78784179688</ele>
        <time>2010-11-13T08:11:01Z</time>
      </trkpt>
      <trkpt lat="45.76633" lon="4.84096">
        <ele>182.30712890625</ele>
        <time>2010-11-13T08:11:08Z</time>
      </trkpt>
      <trkpt lat="45.7666" lon="4.84093">
        <ele>182.78784179688</ele>
        <time>2010-11-13T08:11:14Z</time>
      </trkpt>
      <trkpt lat="45.76693" lon="4.84088">
        <ele>182.78784179688</ele>
        <time>2010-11-13T08:11:21Z</time>
      </trkpt>
      <trkpt lat="45.76743" lon="4.8408">
        <ele>182.30712890625</ele>
        <time>2010-11-13T08:11:31Z</time>
      </trkpt>
      <trkpt lat="45.76748" lon="4.84088">
        <ele>182.78784179688</ele>
        <time>2010-11-13T08:11:35Z</time>
      </trkpt>
      <trkpt lat="45.76743" lon="4.8409">
        <ele>182.78784179688</ele>
        <time>2010-11-13T08:11:37Z</time>
      </trkpt>
      <trkpt lat="45.76724" lon="4.84092">
        <ele>184.71057128906</ele>
        <time>2010-11-13T08:11:43Z</time>
      </trkpt>
      <trkpt lat="45.76707" lon="4.841">
        <ele>186.15246582031</ele>
        <time>2010-11-13T08:11:49Z</time>
      </trkpt>
      <trkpt lat="45.76691" lon="4.84107">
        <ele>186.15246582031</ele>
        <time>2010-11-13T08:11:54Z</time>
      </trkpt>
      <trkpt lat="45.76678" lon="4.84108">
        <ele>185.67175292969</ele>
        <time>2010-11-13T08:11:57Z</time>
      </trkpt>
      <trkpt lat="45.76645" lon="4.84118">
        <ele>186.15246582031</ele>
        <time>2010-11-13T08:12:04Z</time>
      </trkpt>
      <trkpt lat="45.76635" lon="4.8412">
        <ele>186.63317871094</ele>
        <time>2010-11-13T08:12:06Z</time>
      </trkpt>
      <trkpt lat="45.76611" lon="4.84122">
        <ele>185.67175292969</ele>
        <time>2010-11-13T08:12:11Z</time>
      </trkpt>
      <trkpt lat="45.76588" lon="4.84126">
        <ele>186.15246582031</ele>
        <time>2010-11-13T08:12:16Z</time>
      </trkpt>
      <trkpt lat="45.76575" lon="4.84118">
        <ele>186.15246582031</ele>
        <time>2010-11-13T08:12:20Z</time>
      </trkpt>
      <trkpt lat="45.76573" lon="4.84101">
        <ele>186.63317871094</ele>
        <time>2010-11-13T08:12:23Z</time>
      </trkpt>
      <trkpt lat="45.76569" lon="4.84059">
        <ele>188.07507324219</ele>
        <time>2010-11-13T08:12:30Z</time>
      </trkpt>
      <trkpt lat="45.76566" lon="4.84027">
        <ele>188.55578613281</ele>
        <time>2010-11-13T08:12:35Z</time>
      </trkpt>
      <trkpt lat="45.7656" lon="4.83974">
        <ele>189.03637695312</ele>
        <time>2010-11-13T08:12:43Z</time>
      </trkpt>
      <trkpt lat="45.76557" lon="4.83928">
        <ele>188.07507324219</ele>
        <time>2010-11-13T08:12:50Z</time>
      </trkpt>
      <trkpt lat="45.76556" lon="4.83915">
        <ele>188.07507324219</ele>
        <time>2010-11-13T08:12:52Z</time>
      </trkpt>
      <trkpt lat="45.76553" lon="4.83874">
        <ele>187.59436035156</ele>
        <time>2010-11-13T08:12:59Z</time>
      </trkpt>
      <trkpt lat="45.7655" lon="4.83849">
        <ele>186.15246582031</ele>
        <time>2010-11-13T08:13:04Z</time>
      </trkpt>
      <trkpt lat="45.76549" lon="4.83845">
        <ele>186.63317871094</ele>
        <time>2010-11-13T08:13:09Z</time>
      </trkpt>
      <trkpt lat="45.76548" lon="4.83836">
        <ele>186.15246582031</ele>
        <time>2010-11-13T08:13:15Z</time>
      </trkpt>
      <trkpt lat="45.76543" lon="4.83824">
        <ele>185.67175292969</ele>
        <time>2010-11-13T08:13:21Z</time>
      </trkpt>
      <trkpt lat="45.76544" lon="4.83819">
        <ele>185.19116210938</ele>
        <time>2010-11-13T08:13:28Z</time>
      </trkpt>
      <trkpt lat="45.76544" lon="4.83817">
        <ele>185.19116210938</ele>
        <time>2010-11-13T08:13:31Z</time>
      </trkpt>
      <trkpt lat="45.76543" lon="4.83804">
        <ele>185.19116210938</ele>
        <time>2010-11-13T08:13:36Z</time>
      </trkpt>
      <trkpt lat="45.76541" lon="4.83801">
        <ele>184.22985839844</ele>
        <time>2010-11-13T08:13:39Z</time>
      </trkpt>
      <trkpt lat="45.76544" lon="4.83775">
        <ele>184.71057128906</ele>
        <time>2010-11-13T08:13:43Z</time>
      </trkpt>
      <trkpt lat="45.76539" lon="4.83736">
        <ele>185.19116210938</ele>
        <time>2010-11-13T08:13:47Z</time>
      </trkpt>
      <trkpt lat="45.7654" lon="4.83704">
        <ele>184.71057128906</ele>
        <time>2010-11-13T08:13:53Z</time>
      </trkpt>
      <trkpt lat="45.76539" lon="4.83687">
        <ele>185.19116210938</ele>
        <time>2010-11-13T08:13:57Z</time>
      </trkpt>
      <trkpt lat="45.76546" lon="4.83684">
        <ele>185.67175292969</ele>
        <time>2010-11-13T08:14:00Z</time>
      </trkpt>
      <trkpt lat="45.7655" lon="4.83683">
        <ele>184.71057128906</ele>
        <time>2010-11-13T08:14:01Z</time>
      </trkpt>
      <trkpt lat="45.76587" lon="4.83675">
        <ele>185.19116210938</ele>
        <time>2010-11-13T08:14:09Z</time>
      </trkpt>
      <trkpt lat="45.766" lon="4.83672">
        <ele>185.19116210938</ele>
        <time>2010-11-13T08:14:12Z</time>
      </trkpt>
      <trkpt lat="45.76608" lon="4.83657">
        <ele>184.71057128906</ele>
        <time>2010-11-13T08:14:16Z</time>
      </trkpt>
      <trkpt lat="45.76607" lon="4.83637">
        <ele>185.19116210938</ele>
        <time>2010-11-13T08:14:20Z</time>
      </trkpt>
      <trkpt lat="45.76611" lon="4.83605">
        <ele>185.19116210938</ele>
        <time>2010-11-13T08:14:26Z</time>
      </trkpt>
      <trkpt lat="45.76612" lon="4.83597">
        <ele>185.19116210938</ele>
        <time>2010-11-13T08:14:28Z</time>
      </trkpt>
      <trkpt lat="45.76609" lon="4.83572">
        <ele>185.67175292969</ele>
        <time>2010-11-13T08:14:33Z</time>
      </trkpt>
      <trkpt lat="45.76603" lon="4.83533">
        <ele>185.67175292969</ele>
        <time>2010-11-13T08:14:40Z</time>
      </trkpt>
      <trkpt lat="45.76602" lon="4.83515">
        <ele>185.67175292969</ele>
        <time>2010-11-13T08:14:43Z</time>
      </trkpt>
      <trkpt lat="45.76604" lon="4.83477">
        <ele>185.67175292969</ele>
        <time>2010-11-13T08:14:50Z</time>
      </trkpt>
      <trkpt lat="45.76607" lon="4.83467">
        <ele>185.67175292969</ele>
        <time>2010-11-13T08:14:53Z</time>
      </trkpt>
      <trkpt lat="45.76606" lon="4.83445">
        <ele>186.15246582031</ele>
        <time>2010-11-13T08:14:58Z</time>
      </trkpt>
      <trkpt lat="45.76607" lon="4.83438">
        <ele>185.67175292969</ele>
        <time>2010-11-13T08:14:59Z</time>
      </trkpt>
      <trkpt lat="45.76614" lon="4.83387">
        <ele>186.15246582031</ele>
        <time>2010-11-13T08:15:06Z</time>
      </trkpt>
      <trkpt lat="45.76613" lon="4.83366">
        <ele>186.63317871094</ele>
        <time>2010-11-13T08:15:09Z</time>
      </trkpt>
      <trkpt lat="45.76613" lon="4.83346">
        <ele>186.15246582031</ele>
        <time>2010-11-13T08:15:12Z</time>
      </trkpt>
      <trkpt lat="45.76618" lon="4.83316">
        <ele>186.63317871094</ele>
        <time>2010-11-13T08:15:17Z</time>
      </trkpt>
      <trkpt lat="45.76618" lon="4.83312">
        <ele>186.15246582031</ele>
        <time>2010-11-13T08:15:18Z</time>
      </trkpt>
      <trkpt lat="45.76623" lon="4.83299">
        <ele>186.63317871094</ele>
        <time>2010-11-13T08:15:22Z</time>
      </trkpt>
      <trkpt lat="45.76622" lon="4.8328">
        <ele>187.11376953125</ele>
        <time>2010-11-13T08:15:25Z</time>
      </trkpt>
      <trkpt lat="45.7662" lon="4.83248">
        <ele>187.11376953125</ele>
        <time>2010-11-13T08:15:30Z</time>
      </trkpt>
      <trkpt lat="45.76612" lon="4.83219">
        <ele>187.11376953125</ele>
        <time>2010-11-13T08:15:35Z</time>
      </trkpt>
      <trkpt lat="45.76611" lon="4.83191">
        <ele>187.11376953125</ele>
        <time>2010-11-13T08:15:39Z</time>
      </trkpt>
      <trkpt lat="45.76609" lon="4.83133">
        <ele>185.67175292969</ele>
        <time>2010-11-13T08:15:46Z</time>
      </trkpt>
      <trkpt lat="45.76599" lon="4.83092">
        <ele>185.19116210938</ele>
        <time>2010-11-13T08:15:51Z</time>
      </trkpt>
      <trkpt lat="45.76597" lon="4.83086">
        <ele>185.19116210938</ele>
        <time>2010-11-13T08:15:52Z</time>
      </trkpt>
      <trkpt lat="45.76603" lon="4.83071">
        <ele>185.67175292969</ele>
        <time>2010-11-13T08:15:56Z</time>
      </trkpt>
      <trkpt lat="45.76607" lon="4.83069">
        <ele>185.19116210938</ele>
        <time>2010-11-13T08:15:57Z</time>
      </trkpt>
      <trkpt lat="45.76629" lon="4.83052">
        <ele>185.19116210938</ele>
        <time>2010-11-13T08:16:04Z</time>
      </trkpt>
      <trkpt lat="45.76637" lon="4.83044">
        <ele>185.19116210938</ele>
        <time>2010-11-13T08:16:10Z</time>
      </trkpt>
      <trkpt lat="45.76648" lon="4.83033">
        <ele>186.15246582031</ele>
        <time>2010-11-13T08:16:15Z</time>
      </trkpt>
      <trkpt lat="45.76662" lon="4.83021">
        <ele>186.63317871094</ele>
        <time>2010-11-13T08:16:20Z</time>
      </trkpt>
      <trkpt lat="45.76675" lon="4.83">
        <ele>187.11376953125</ele>
        <time>2010-11-13T08:16:26Z</time>
      </trkpt>
      <trkpt lat="45.76674" lon="4.82978">
        <ele>187.59436035156</ele>
        <time>2010-11-13T08:16:30Z</time>
      </trkpt>
      <trkpt lat="45.76652" lon="4.82917">
        <ele>188.55578613281</ele>
        <time>2010-11-13T08:16:41Z</time>
      </trkpt>
      <trkpt lat="45.76644" lon="4.82894">
        <ele>187.59436035156</ele>
        <time>2010-11-13T08:16:45Z</time>
      </trkpt>
      <trkpt lat="45.76647" lon="4.82864">
        <ele>186.63317871094</ele>
        <time>2010-11-13T08:16:50Z</time>
      </trkpt>
      <trkpt lat="45.76651" lon="4.82859">
        <ele>186.63317871094</ele>
        <time>2010-11-13T08:16:51Z</time>
      </trkpt>
      <trkpt lat="45.76677" lon="4.82824">
        <ele>185.19116210938</ele>
        <time>2010-11-13T08:16:58Z</time>
      </trkpt>
      <trkpt lat="45.76706" lon="4.8278">
        <ele>184.71057128906</ele>
        <time>2010-11-13T08:17:06Z</time>
      </trkpt>
      <trkpt lat="45.76721" lon="4.82756">
        <ele>184.71057128906</ele>
        <time>2010-11-13T08:17:10Z</time>
      </trkpt>
      <trkpt lat="45.76738" lon="4.82707">
        <ele>184.71057128906</ele>
        <time>2010-11-13T08:17:17Z</time>
      </trkpt>
      <trkpt lat="45.76747" lon="4.82657">
        <ele>185.19116210938</ele>
        <time>2010-11-13T08:17:24Z</time>
      </trkpt>
      <trkpt lat="45.76752" lon="4.82634">
        <ele>185.19116210938</ele>
        <time>2010-11-13T08:17:27Z</time>
      </trkpt>
      <trkpt lat="45.76753" lon="4.82577">
        <ele>185.19116210938</ele>
        <time>2010-11-13T08:17:34Z</time>
      </trkpt>
      <trkpt lat="45.7675" lon="4.82492">
        <ele>185.67175292969</ele>
        <time>2010-11-13T08:17:45Z</time>
      </trkpt>
      <trkpt lat="45.76748" lon="4.8243">
        <ele>186.15246582031</ele>
        <time>2010-11-13T08:17:53Z</time>
      </trkpt>
      <trkpt lat="45.76746" lon="4.82358">
        <ele>185.67175292969</ele>
        <time>2010-11-13T08:18:02Z</time>
      </trkpt>
      <trkpt lat="45.76746" lon="4.82334">
        <ele>186.15246582031</ele>
        <time>2010-11-13T08:18:05Z</time>
      </trkpt>
      <trkpt lat="45.76744" lon="4.82318">
        <ele>186.15246582031</ele>
        <time>2010-11-13T08:18:07Z</time>
      </trkpt>
      <trkpt lat="45.76739" lon="4.82252">
        <ele>185.67175292969</ele>
        <time>2010-11-13T08:18:15Z</time>
      </trkpt>
      <trkpt lat="45.76735" lon="4.82237">
        <ele>186.15246582031</ele>
        <time>2010-11-13T08:18:17Z</time>
      </trkpt>
      <trkpt lat="45.76715" lon="4.82169">
        <ele>186.15246582031</ele>
        <time>2010-11-13T08:18:26Z</time>
      </trkpt>
      <trkpt lat="45.76694" lon="4.82093">
        <ele>186.15246582031</ele>
        <time>2010-11-13T08:18:36Z</time>
      </trkpt>
      <trkpt lat="45.76678" lon="4.82024">
        <ele>186.15246582031</ele>
        <time>2010-11-13T08:18:45Z</time>
      </trkpt>
      <trkpt lat="45.76664" lon="4.81973">
        <ele>186.63317871094</ele>
        <time>2010-11-13T08:18:52Z</time>
      </trkpt>
      <trkpt lat="45.76653" lon="4.81901">
        <ele>186.63317871094</ele>
        <time>2010-11-13T08:19:01Z</time>
      </trkpt>
      <trkpt lat="45.76651" lon="4.81826">
        <ele>185.67175292969</ele>
        <time>2010-11-13T08:19:10Z</time>
      </trkpt>
      <trkpt lat="45.76657" lon="4.81758">
        <ele>185.67175292969</ele>
        <time>2010-11-13T08:19:18Z</time>
      </trkpt>
      <trkpt lat="45.76671" lon="4.81684">
        <ele>185.19116210938</ele>
        <time>2010-11-13T08:19:27Z</time>
      </trkpt>
      <trkpt lat="45.76688" lon="4.81598">
        <ele>184.71057128906</ele>
        <time>2010-11-13T08:19:37Z</time>
      </trkpt>
      <trkpt lat="45.76704" lon="4.81548">
        <ele>184.71057128906</ele>
        <time>2010-11-13T08:19:43Z</time>
      </trkpt>
      <trkpt lat="45.76728" lon="4.81481">
        <ele>184.71057128906</ele>
        <time>2010-11-13T08:19:51Z</time>
      </trkpt>
      <trkpt lat="45.76749" lon="4.81421">
        <ele>184.22985839844</ele>
        <time>2010-11-13T08:19:58Z</time>
      </trkpt>
      <trkpt lat="45.76772" lon="4.81361">
        <ele>184.71057128906</ele>
        <time>2010-11-13T08:20:05Z</time>
      </trkpt>
      <trkpt lat="45.76804" lon="4.81315">
        <ele>184.71057128906</ele>
        <time>2010-11-13T08:20:12Z</time>
      </trkpt>
      <trkpt lat="45.7684" lon="4.81289">
        <ele>184.71057128906</ele>
        <time>2010-11-13T08:20:18Z</time>
      </trkpt>
      <trkpt lat="45.76876" lon="4.81275">
        <ele>184.22985839844</ele>
        <time>2010-11-13T08:20:24Z</time>
      </trkpt>
      <trkpt lat="45.76919" lon="4.81269">
        <ele>184.71057128906</ele>
        <time>2010-11-13T08:20:31Z</time>
      </trkpt>
      <trkpt lat="45.76957" lon="4.81264">
        <ele>186.15246582031</ele>
        <time>2010-11-13T08:20:38Z</time>
      </trkpt>
      <trkpt lat="45.76984" lon="4.8126">
        <ele>186.63317871094</ele>
        <time>2010-11-13T08:20:44Z</time>
      </trkpt>
      <trkpt lat="45.76999" lon="4.81256">
        <ele>186.15246582031</ele>
        <time>2010-11-13T08:20:49Z</time>
      </trkpt>
      <trkpt lat="45.77016" lon="4.81246">
        <ele>186.15246582031</ele>
        <time>2010-11-13T08:20:53Z</time>
      </trkpt>
      <trkpt lat="45.77057" lon="4.81227">
        <ele>185.67175292969</ele>
        <time>2010-11-13T08:21:00Z</time>
      </trkpt>
      <trkpt lat="45.77104" lon="4.81206">
        <ele>185.67175292969</ele>
        <time>2010-11-13T08:21:08Z</time>
      </trkpt>
      <trkpt lat="45.77154" lon="4.81182">
        <ele>185.19116210938</ele>
        <time>2010-11-13T08:21:17Z</time>
      </trkpt>
      <trkpt lat="45.77172" lon="4.81176">
        <ele>185.19116210938</ele>
        <time>2010-11-13T08:21:20Z</time>
      </trkpt>
      <trkpt lat="45.77196" lon="4.81156">
        <ele>184.71057128906</ele>
        <time>2010-11-13T08:21:25Z</time>
      </trkpt>
      <trkpt lat="45.77231" lon="4.8112">
        <ele>185.19116210938</ele>
        <time>2010-11-13T08:21:32Z</time>
      </trkpt>
      <trkpt lat="45.77264" lon="4.8108">
        <ele>185.67175292969</ele>
        <time>2010-11-13T08:21:39Z</time>
      </trkpt>
      <trkpt lat="45.77299" lon="4.81034">
        <ele>185.67175292969</ele>
        <time>2010-11-13T08:21:47Z</time>
      </trkpt>
      <trkpt lat="45.77326" lon="4.81003">
        <ele>185.67175292969</ele>
        <time>2010-11-13T08:21:53Z</time>
      </trkpt>
      <trkpt lat="45.7734" lon="4.80987">
        <ele>185.67175292969</ele>
        <time>2010-11-13T08:21:57Z</time>
      </trkpt>
      <trkpt lat="45.77346" lon="4.80981">
        <ele>185.19116210938</ele>
        <time>2010-11-13T08:21:59Z</time>
      </trkpt>
      <trkpt lat="45.77361" lon="4.80962">
        <ele>185.19116210938</ele>
        <time>2010-11-13T08:22:03Z</time>
      </trkpt>
      <trkpt lat="45.77374" lon="4.80946">
        <ele>184.71057128906</ele>
        <time>2010-11-13T08:22:06Z</time>
      </trkpt>
      <trkpt lat="45.77392" lon="4.8093">
        <ele>184.71057128906</ele>
        <time>2010-11-13T08:22:11Z</time>
      </trkpt>
      <trkpt lat="45.77392" lon="4.80923">
        <ele>184.22985839844</ele>
        <time>2010-11-13T08:22:13Z</time>
      </trkpt>
      <trkpt lat="45.77392" lon="4.80917">
        <ele>184.71057128906</ele>
        <time>2010-11-13T08:22:15Z</time>
      </trkpt>
      <trkpt lat="45.77397" lon="4.80892">
        <ele>183.7490234375</ele>
        <time>2010-11-13T08:22:21Z</time>
      </trkpt>
      <trkpt lat="45.77392" lon="4.80874">
        <ele>184.22985839844</ele>
        <time>2010-11-13T08:22:24Z</time>
      </trkpt>
      <trkpt lat="45.77367" lon="4.80832">
        <ele>184.22985839844</ele>
        <time>2010-11-13T08:22:31Z</time>
      </trkpt>
      <trkpt lat="45.77351" lon="4.80817">
        <ele>184.71057128906</ele>
        <time>2010-11-13T08:22:34Z</time>
      </trkpt>
      <trkpt lat="45.77338" lon="4.80802">
        <ele>184.71057128906</ele>
        <time>2010-11-13T08:22:37Z</time>
      </trkpt>
      <trkpt lat="45.77321" lon="4.80771">
        <ele>184.71057128906</ele>
        <time>2010-11-13T08:22:43Z</time>
      </trkpt>
      <trkpt lat="45.7731" lon="4.80766">
        <ele>184.71057128906</ele>
        <time>2010-11-13T08:22:46Z</time>
      </trkpt>
      <trkpt lat="45.77282" lon="4.80785">
        <ele>186.15246582031</ele>
        <time>2010-11-13T08:22:53Z</time>
      </trkpt>
      <trkpt lat="45.77245" lon="4.80799">
        <ele>187.59436035156</ele>
        <time>2010-11-13T08:23:02Z</time>
      </trkpt>
      <trkpt lat="45.77238" lon="4.80801">
        <ele>187.59436035156</ele>
        <time>2010-11-13T08:23:04Z</time>
      </trkpt>
      <trkpt lat="45.77222" lon="4.80795">
        <ele>187.59436035156</ele>
        <time>2010-11-13T08:23:08Z</time>
      </trkpt>
      <trkpt lat="45.77217" lon="4.80783">
        <ele>187.59436035156</ele>
        <time>2010-11-13T08:23:10Z</time>
      </trkpt>
      <trkpt lat="45.77207" lon="4.80755">
        <ele>186.63317871094</ele>
        <time>2010-11-13T08:23:14Z</time>
      </trkpt>
      <trkpt lat="45.77192" lon="4.80729">
        <ele>186.15246582031</ele>
        <time>2010-11-13T08:23:18Z</time>
      </trkpt>
      <trkpt lat="45.77184" lon="4.80702">
        <ele>186.15246582031</ele>
        <time>2010-11-13T08:23:22Z</time>
      </trkpt>
      <trkpt lat="45.77172" lon="4.80674">
        <ele>186.63317871094</ele>
        <time>2010-11-13T08:23:28Z</time>
      </trkpt>
      <trkpt lat="45.77169" lon="4.80657">
        <ele>186.63317871094</ele>
        <time>2010-11-13T08:23:32Z</time>
      </trkpt>
      <trkpt lat="45.77166" lon="4.80638">
        <ele>187.11376953125</ele>
        <time>2010-11-13T08:23:37Z</time>
      </trkpt>
      <trkpt lat="45.77162" lon="4.80623">
        <ele>187.11376953125</ele>
        <time>2010-11-13T08:23:41Z</time>
      </trkpt>
      <trkpt lat="45.77155" lon="4.80612">
        <ele>187.59436035156</ele>
        <time>2010-11-13T08:23:46Z</time>
      </trkpt>
      <trkpt lat="45.77152" lon="4.80605">
        <ele>187.59436035156</ele>
        <time>2010-11-13T08:23:48Z</time>
      </trkpt>
      <trkpt lat="45.77141" lon="4.80584">
        <ele>188.07507324219</ele>
        <time>2010-11-13T08:23:53Z</time>
      </trkpt>
      <trkpt lat="45.77127" lon="4.8055">
        <ele>188.55578613281</ele>
        <time>2010-11-13T08:23:59Z</time>
      </trkpt>
      <trkpt lat="45.77116" lon="4.80549">
        <ele>188.07507324219</ele>
        <time>2010-11-13T08:24:02Z</time>
      </trkpt>
      <trkpt lat="45.77094" lon="4.80542">
        <ele>189.03637695312</ele>
        <time>2010-11-13T08:24:09Z</time>
      </trkpt>
      <trkpt lat="45.7709" lon="4.80541">
        <ele>189.03637695312</ele>
        <time>2010-11-13T08:24:10Z</time>
      </trkpt>
      <trkpt lat="45.77077" lon="4.80542">
        <ele>189.99768066406</ele>
        <time>2010-11-13T08:24:15Z</time>
      </trkpt>
      <trkpt lat="45.77065" lon="4.80539">
        <ele>190.47839355469</ele>
        <time>2010-11-13T08:24:18Z</time>
      </trkpt>
      <trkpt lat="45.77047" lon="4.80541">
        <ele>190.958984375</ele>
        <time>2010-11-13T08:24:23Z</time>
      </trkpt>
      <trkpt lat="45.77047" lon="4.80543">
        <ele>190.47839355469</ele>
        <time>2010-11-13T08:24:26Z</time>
      </trkpt>
      <trkpt lat="45.77042" lon="4.80539">
        <ele>190.958984375</ele>
        <time>2010-11-13T08:24:28Z</time>
      </trkpt>
      <trkpt lat="45.77034" lon="4.80506">
        <ele>190.47839355469</ele>
        <time>2010-11-13T08:24:37Z</time>
      </trkpt>
      <trkpt lat="45.77018" lon="4.80459">
        <ele>191.43957519531</ele>
        <time>2010-11-13T08:24:43Z</time>
      </trkpt>
      <trkpt lat="45.77002" lon="4.8039">
        <ele>191.43957519531</ele>
        <time>2010-11-13T08:24:51Z</time>
      </trkpt>
      <trkpt lat="45.76995" lon="4.80363">
        <ele>191.43957519531</ele>
        <time>2010-11-13T08:24:54Z</time>
      </trkpt>
      <trkpt lat="45.76972" lon="4.80277">
        <ele>191.43957519531</ele>
        <time>2010-11-13T08:25:03Z</time>
      </trkpt>
      <trkpt lat="45.76966" lon="4.80218">
        <ele>191.43957519531</ele>
        <time>2010-11-13T08:25:11Z</time>
      </trkpt>
      <trkpt lat="45.76955" lon="4.80149">
        <ele>191.92028808594</ele>
        <time>2010-11-13T08:25:20Z</time>
      </trkpt>
      <trkpt lat="45.7695" lon="4.80124">
        <ele>190.958984375</ele>
        <time>2010-11-13T08:25:25Z</time>
      </trkpt>
      <trkpt lat="45.76948" lon="4.80101">
        <ele>190.47839355469</ele>
        <time>2010-11-13T08:25:30Z</time>
      </trkpt>
      <trkpt lat="45.76942" lon="4.80058">
        <ele>190.958984375</ele>
        <time>2010-11-13T08:25:36Z</time>
      </trkpt>
      <trkpt lat="45.76929" lon="4.79999">
        <ele>190.47839355469</ele>
        <time>2010-11-13T08:25:43Z</time>
      </trkpt>
      <trkpt lat="45.76922" lon="4.79935">
        <ele>189.99768066406</ele>
        <time>2010-11-13T08:25:50Z</time>
      </trkpt>
      <trkpt lat="45.76921" lon="4.79878">
        <ele>189.99768066406</ele>
        <time>2010-11-13T08:25:57Z</time>
      </trkpt>
      <trkpt lat="45.76923" lon="4.79844">
        <ele>190.47839355469</ele>
        <time>2010-11-13T08:26:01Z</time>
      </trkpt>
      <trkpt lat="45.76918" lon="4.79812">
        <ele>190.47839355469</ele>
        <time>2010-11-13T08:26:06Z</time>
      </trkpt>
      <trkpt lat="45.7692" lon="4.79795">
        <ele>189.99768066406</ele>
        <time>2010-11-13T08:26:09Z</time>
      </trkpt>
      <trkpt lat="45.76921" lon="4.79783">
        <ele>189.99768066406</ele>
        <time>2010-11-13T08:26:13Z</time>
      </trkpt>
      <trkpt lat="45.76922" lon="4.79778">
        <ele>190.47839355469</ele>
        <time>2010-11-13T08:26:14Z</time>
      </trkpt>
      <trkpt lat="45.76926" lon="4.7975">
        <ele>190.47839355469</ele>
        <time>2010-11-13T08:26:18Z</time>
      </trkpt>
      <trkpt lat="45.76925" lon="4.79722">
        <ele>190.47839355469</ele>
        <time>2010-11-13T08:26:22Z</time>
      </trkpt>
      <trkpt lat="45.76917" lon="4.79681">
        <ele>189.99768066406</ele>
        <time>2010-11-13T08:26:29Z</time>
      </trkpt>
      <trkpt lat="45.76907" lon="4.79645">
        <ele>190.47839355469</ele>
        <time>2010-11-13T08:26:36Z</time>
      </trkpt>
      <trkpt lat="45.76899" lon="4.7961">
        <ele>190.958984375</ele>
        <time>2010-11-13T08:26:43Z</time>
      </trkpt>
      <trkpt lat="45.76897" lon="4.79598">
        <ele>190.958984375</ele>
        <time>2010-11-13T08:26:45Z</time>
      </trkpt>
      <trkpt lat="45.76897" lon="4.79585">
        <ele>190.47839355469</ele>
        <time>2010-11-13T08:26:47Z</time>
      </trkpt>
      <trkpt lat="45.769" lon="4.79538">
        <ele>191.43957519531</ele>
        <time>2010-11-13T08:26:54Z</time>
      </trkpt>
      <trkpt lat="45.76901" lon="4.79507">
        <ele>191.92028808594</ele>
        <time>2010-11-13T08:26:59Z</time>
      </trkpt>
      <trkpt lat="45.76912" lon="4.7947">
        <ele>192.40112304688</ele>
        <time>2010-11-13T08:27:06Z</time>
      </trkpt>
      <trkpt lat="45.76925" lon="4.7944">
        <ele>193.3623046875</ele>
        <time>2010-11-13T08:27:13Z</time>
      </trkpt>
      <trkpt lat="45.76936" lon="4.79423">
        <ele>193.84301757812</ele>
        <time>2010-11-13T08:27:18Z</time>
      </trkpt>
      <trkpt lat="45.76945" lon="4.79407">
        <ele>194.32373046875</ele>
        <time>2010-11-13T08:27:24Z</time>
      </trkpt>
      <trkpt lat="45.76944" lon="4.79397">
        <ele>195.28491210938</ele>
        <time>2010-11-13T08:27:29Z</time>
      </trkpt>
      <trkpt lat="45.76938" lon="4.79386">
        <ele>197.20751953125</ele>
        <time>2010-11-13T08:27:37Z</time>
      </trkpt>
      <trkpt lat="45.76933" lon="4.79376">
        <ele>200.09167480469</ele>
        <time>2010-11-13T08:27:45Z</time>
      </trkpt>
      <trkpt lat="45.76933" lon="4.79375">
        <ele>200.572265625</ele>
        <time>2010-11-13T08:27:48Z</time>
      </trkpt>
      <trkpt lat="45.76933" lon="4.79373">
        <ele>201.53356933594</ele>
        <time>2010-11-13T08:27:50Z</time>
      </trkpt>
      <trkpt lat="45.76931" lon="4.79369">
        <ele>202.49487304688</ele>
        <time>2010-11-13T08:27:52Z</time>
      </trkpt>
      <trkpt lat="45.76923" lon="4.79362">
        <ele>203.93688964844</ele>
        <time>2010-11-13T08:27:59Z</time>
      </trkpt>
      <trkpt lat="45.76917" lon="4.7936">
        <ele>205.85949707031</ele>
        <time>2010-11-13T08:28:05Z</time>
      </trkpt>
      <trkpt lat="45.76904" lon="4.79362">
        <ele>208.26281738281</ele>
        <time>2010-11-13T08:28:14Z</time>
      </trkpt>
      <trkpt lat="45.76892" lon="4.79365">
        <ele>210.666015625</ele>
        <time>2010-11-13T08:28:24Z</time>
      </trkpt>
      <trkpt lat="45.76886" lon="4.79365">
        <ele>212.10803222656</ele>
        <time>2010-11-13T08:28:28Z</time>
      </trkpt>
      <trkpt lat="45.76875" lon="4.79369">
        <ele>214.99194335938</ele>
        <time>2010-11-13T08:28:39Z</time>
      </trkpt>
      <trkpt lat="45.76867" lon="4.79373">
        <ele>217.39538574219</ele>
        <time>2010-11-13T08:28:48Z</time>
      </trkpt>
      <trkpt lat="45.7686" lon="4.79379">
        <ele>219.79858398438</ele>
        <time>2010-11-13T08:28:56Z</time>
      </trkpt>
      <trkpt lat="45.76851" lon="4.79381">
        <ele>222.20178222656</ele>
        <time>2010-11-13T08:29:04Z</time>
      </trkpt>
      <trkpt lat="45.76841" lon="4.79384">
        <ele>223.64379882812</ele>
        <time>2010-11-13T08:29:12Z</time>
      </trkpt>
      <trkpt lat="45.7683" lon="4.79387">
        <ele>226.04711914062</ele>
        <time>2010-11-13T08:29:21Z</time>
      </trkpt>
      <trkpt lat="45.76821" lon="4.79386">
        <ele>228.45043945312</ele>
        <time>2010-11-13T08:29:28Z</time>
      </trkpt>
      <trkpt lat="45.76811" lon="4.79386">
        <ele>229.89233398438</ele>
        <time>2010-11-13T08:29:37Z</time>
      </trkpt>
      <trkpt lat="45.76804" lon="4.79387">
        <ele>231.33435058594</ele>
        <time>2010-11-13T08:29:44Z</time>
      </trkpt>
      <trkpt lat="45.76795" lon="4.79387">
        <ele>232.77648925781</ele>
        <time>2010-11-13T08:29:51Z</time>
      </trkpt>
      <trkpt lat="45.76785" lon="4.79387">
        <ele>234.69909667969</ele>
        <time>2010-11-13T08:29:59Z</time>
      </trkpt>
      <trkpt lat="45.76777" lon="4.79388">
        <ele>236.14099121094</ele>
        <time>2010-11-13T08:30:06Z</time>
      </trkpt>
      <trkpt lat="45.76764" lon="4.79387">
        <ele>237.58288574219</ele>
        <time>2010-11-13T08:30:13Z</time>
      </trkpt>
      <trkpt lat="45.76754" lon="4.79388">
        <ele>239.50549316406</ele>
        <time>2010-11-13T08:30:20Z</time>
      </trkpt>
      <trkpt lat="45.76738" lon="4.79388">
        <ele>241.90893554688</ele>
        <time>2010-11-13T08:30:29Z</time>
      </trkpt>
      <trkpt lat="45.7673" lon="4.79387">
        <ele>242.87023925781</ele>
        <time>2010-11-13T08:30:35Z</time>
      </trkpt>
      <trkpt lat="45.76721" lon="4.79386">
        <ele>244.31225585938</ele>
        <time>2010-11-13T08:30:41Z</time>
      </trkpt>
      <trkpt lat="45.76712" lon="4.79387">
        <ele>245.75415039062</ele>
        <time>2010-11-13T08:30:47Z</time>
      </trkpt>
      <trkpt lat="45.76711" lon="4.79387">
        <ele>246.23486328125</ele>
        <time>2010-11-13T08:30:48Z</time>
      </trkpt>
      <trkpt lat="45.76709" lon="4.79386">
        <ele>246.71545410156</ele>
        <time>2010-11-13T08:30:50Z</time>
      </trkpt>
      <trkpt lat="45.76709" lon="4.79382">
        <ele>246.71545410156</ele>
        <time>2010-11-13T08:30:52Z</time>
      </trkpt>
      <trkpt lat="45.76711" lon="4.79362">
        <ele>247.19604492188</ele>
        <time>2010-11-13T08:30:59Z</time>
      </trkpt>
      <trkpt lat="45.76714" lon="4.7933">
        <ele>247.6767578125</ele>
        <time>2010-11-13T08:31:06Z</time>
      </trkpt>
      <trkpt lat="45.76718" lon="4.79307">
        <ele>247.19604492188</ele>
        <time>2010-11-13T08:31:11Z</time>
      </trkpt>
      <trkpt lat="45.76722" lon="4.79265">
        <ele>247.19604492188</ele>
        <time>2010-11-13T08:31:19Z</time>
      </trkpt>
      <trkpt lat="45.76724" lon="4.79226">
        <ele>246.71545410156</ele>
        <time>2010-11-13T08:31:26Z</time>
      </trkpt>
      <trkpt lat="45.76725" lon="4.79175">
        <ele>245.2734375</ele>
        <time>2010-11-13T08:31:34Z</time>
      </trkpt>
      <trkpt lat="45.76725" lon="4.79145">
        <ele>244.79284667969</ele>
        <time>2010-11-13T08:31:38Z</time>
      </trkpt>
      <trkpt lat="45.76723" lon="4.7913">
        <ele>245.2734375</ele>
        <time>2010-11-13T08:31:40Z</time>
      </trkpt>
      <trkpt lat="45.76723" lon="4.79093">
        <ele>244.31225585938</ele>
        <time>2010-11-13T08:31:45Z</time>
      </trkpt>
      <trkpt lat="45.76721" lon="4.79085">
        <ele>243.83154296875</ele>
        <time>2010-11-13T08:31:46Z</time>
      </trkpt>
      <trkpt lat="45.76698" lon="4.79024">
        <ele>242.87023925781</ele>
        <time>2010-11-13T08:31:54Z</time>
      </trkpt>
      <trkpt lat="45.76669" lon="4.78951">
        <ele>240.46704101562</ele>
        <time>2010-11-13T08:32:03Z</time>
      </trkpt>
      <trkpt lat="45.76657" lon="4.78917">
        <ele>239.50549316406</ele>
        <time>2010-11-13T08:32:07Z</time>
      </trkpt>
      <trkpt lat="45.76633" lon="4.78854">
        <ele>239.50549316406</ele>
        <time>2010-11-13T08:32:15Z</time>
      </trkpt>
      <trkpt lat="45.7661" lon="4.78797">
        <ele>239.50549316406</ele>
        <time>2010-11-13T08:32:23Z</time>
      </trkpt>
      <trkpt lat="45.76587" lon="4.78733">
        <ele>239.98620605469</ele>
        <time>2010-11-13T08:32:32Z</time>
      </trkpt>
      <trkpt lat="45.76558" lon="4.78666">
        <ele>240.46704101562</ele>
        <time>2010-11-13T08:32:42Z</time>
      </trkpt>
      <trkpt lat="45.76532" lon="4.78625">
        <ele>240.94763183594</ele>
        <time>2010-11-13T08:32:49Z</time>
      </trkpt>
      <trkpt lat="45.76509" lon="4.78595">
        <ele>241.42822265625</ele>
        <time>2010-11-13T08:32:55Z</time>
      </trkpt>
      <trkpt lat="45.76502" lon="4.78572">
        <ele>241.42822265625</ele>
        <time>2010-11-13T08:32:59Z</time>
      </trkpt>
      <trkpt lat="45.76498" lon="4.7855">
        <ele>240.94763183594</ele>
        <time>2010-11-13T08:33:03Z</time>
      </trkpt>
      <trkpt lat="45.76487" lon="4.78536">
        <ele>240.94763183594</ele>
        <time>2010-11-13T08:33:07Z</time>
      </trkpt>
      <trkpt lat="45.76483" lon="4.78535">
        <ele>240.94763183594</ele>
        <time>2010-11-13T08:33:08Z</time>
      </trkpt>
      <trkpt lat="45.7646" lon="4.78521">
        <ele>241.42822265625</ele>
        <time>2010-11-13T08:33:15Z</time>
      </trkpt>
      <trkpt lat="45.76453" lon="4.78514">
        <ele>241.42822265625</ele>
        <time>2010-11-13T08:33:17Z</time>
      </trkpt>
      <trkpt lat="45.76439" lon="4.78489">
        <ele>241.42822265625</ele>
        <time>2010-11-13T08:33:22Z</time>
      </trkpt>
      <trkpt lat="45.76434" lon="4.78472">
        <ele>240.94763183594</ele>
        <time>2010-11-13T08:33:25Z</time>
      </trkpt>
      <trkpt lat="45.76433" lon="4.78451">
        <ele>240.46704101562</ele>
        <time>2010-11-13T08:33:29Z</time>
      </trkpt>
      <trkpt lat="45.76428" lon="4.78413">
        <ele>240.94763183594</ele>
        <time>2010-11-13T08:33:36Z</time>
      </trkpt>
      <trkpt lat="45.76421" lon="4.78378">
        <ele>240.46704101562</ele>
        <time>2010-11-13T08:33:41Z</time>
      </trkpt>
      <trkpt lat="45.76419" lon="4.7837">
        <ele>239.98620605469</ele>
        <time>2010-11-13T08:33:42Z</time>
      </trkpt>
      <trkpt lat="45.76414" lon="4.78338">
        <ele>240.46704101562</ele>
        <time>2010-11-13T08:33:46Z</time>
      </trkpt>
      <trkpt lat="45.7641" lon="4.78266">
        <ele>239.02490234375</ele>
        <time>2010-11-13T08:33:54Z</time>
      </trkpt>
      <trkpt lat="45.76406" lon="4.78202">
        <ele>238.06359863281</ele>
        <time>2010-11-13T08:34:02Z</time>
      </trkpt>
      <trkpt lat="45.76405" lon="4.78185">
        <ele>237.58288574219</ele>
        <time>2010-11-13T08:34:06Z</time>
      </trkpt>
      <trkpt lat="45.76404" lon="4.78184">
        <ele>237.58288574219</ele>
        <time>2010-11-13T08:34:07Z</time>
      </trkpt>
      <trkpt lat="45.76397" lon="4.78186">
        <ele>237.58288574219</ele>
        <time>2010-11-13T08:34:12Z</time>
      </trkpt>
      <trkpt lat="45.76397" lon="4.78181">
        <ele>238.06359863281</ele>
        <time>2010-11-13T08:34:15Z</time>
      </trkpt>
      <trkpt lat="45.76399" lon="4.78168">
        <ele>238.06359863281</ele>
        <time>2010-11-13T08:34:21Z</time>
      </trkpt>
      <trkpt lat="45.764" lon="4.78148">
        <ele>237.58288574219</ele>
        <time>2010-11-13T08:34:26Z</time>
      </trkpt>
      <trkpt lat="45.76398" lon="4.7813">
        <ele>237.58288574219</ele>
        <time>2010-11-13T08:34:31Z</time>
      </trkpt>
      <trkpt lat="45.76399" lon="4.78129">
        <ele>237.58288574219</ele>
        <time>2010-11-13T08:34:35Z</time>
      </trkpt>
      <trkpt lat="45.764" lon="4.78125">
        <ele>237.58288574219</ele>
        <time>2010-11-13T08:34:39Z</time>
      </trkpt>
      <trkpt lat="45.76402" lon="4.78122">
        <ele>237.58288574219</ele>
        <time>2010-11-13T08:34:43Z</time>
      </trkpt>
      <trkpt lat="45.76411" lon="4.78113">
        <ele>237.58288574219</ele>
        <time>2010-11-13T08:34:48Z</time>
      </trkpt>
      <trkpt lat="45.76412" lon="4.78102">
        <ele>237.58288574219</ele>
        <time>2010-11-13T08:34:50Z</time>
      </trkpt>
      <trkpt lat="45.76404" lon="4.78058">
        <ele>237.10229492188</ele>
        <time>2010-11-13T08:34:56Z</time>
      </trkpt>
      <trkpt lat="45.76397" lon="4.77993">
        <ele>237.10229492188</ele>
        <time>2010-11-13T08:35:04Z</time>
      </trkpt>
      <trkpt lat="45.76395" lon="4.77939">
        <ele>236.62170410156</ele>
        <time>2010-11-13T08:35:11Z</time>
      </trkpt>
      <trkpt lat="45.76394" lon="4.77924">
        <ele>236.62170410156</ele>
        <time>2010-11-13T08:35:13Z</time>
      </trkpt>
      <trkpt lat="45.76387" lon="4.77879">
        <ele>236.62170410156</ele>
        <time>2010-11-13T08:35:19Z</time>
      </trkpt>
      <trkpt lat="45.76378" lon="4.77866">
        <ele>236.14099121094</ele>
        <time>2010-11-13T08:35:23Z</time>
      </trkpt>
      <trkpt lat="45.7634" lon="4.77865">
        <ele>236.62170410156</ele>
        <time>2010-11-13T08:35:31Z</time>
      </trkpt>
      <trkpt lat="45.76306" lon="4.77864">
        <ele>237.10229492188</ele>
        <time>2010-11-13T08:35:38Z</time>
      </trkpt>
      <trkpt lat="45.76263" lon="4.77861">
        <ele>237.10229492188</ele>
        <time>2010-11-13T08:35:46Z</time>
      </trkpt>
      <trkpt lat="45.762" lon="4.77857">
        <ele>237.10229492188</ele>
        <time>2010-11-13T08:35:58Z</time>
      </trkpt>
      <trkpt lat="45.76189" lon="4.77856">
        <ele>236.62170410156</ele>
        <time>2010-11-13T08:36:01Z</time>
      </trkpt>
      <trkpt lat="45.76184" lon="4.77845">
        <ele>236.62170410156</ele>
        <time>2010-11-13T08:36:06Z</time>
      </trkpt>
      <trkpt lat="45.76179" lon="4.77818">
        <ele>237.10229492188</ele>
        <time>2010-11-13T08:36:11Z</time>
      </trkpt>
      <trkpt lat="45.76182" lon="4.77758">
        <ele>237.10229492188</ele>
        <time>2010-11-13T08:36:19Z</time>
      </trkpt>
      <trkpt lat="45.76182" lon="4.77725">
        <ele>236.62170410156</ele>
        <time>2010-11-13T08:36:24Z</time>
      </trkpt>
      <trkpt lat="45.76179" lon="4.77709">
        <ele>236.62170410156</ele>
        <time>2010-11-13T08:36:30Z</time>
      </trkpt>
      <trkpt lat="45.76181" lon="4.77705">
        <ele>236.62170410156</ele>
        <time>2010-11-13T08:36:35Z</time>
      </trkpt>
      <trkpt lat="45.76183" lon="4.77699">
        <ele>236.62170410156</ele>
        <time>2010-11-13T08:36:43Z</time>
      </trkpt>
      <trkpt lat="45.76184" lon="4.77693">
        <ele>236.14099121094</ele>
        <time>2010-11-13T08:36:49Z</time>
      </trkpt>
      <trkpt lat="45.76182" lon="4.77676">
        <ele>236.14099121094</ele>
        <time>2010-11-13T08:36:53Z</time>
      </trkpt>
      <trkpt lat="45.76181" lon="4.77671">
        <ele>236.14099121094</ele>
        <time>2010-11-13T08:36:54Z</time>
      </trkpt>
      <trkpt lat="45.76173" lon="4.77647">
        <ele>235.66027832031</ele>
        <time>2010-11-13T08:36:58Z</time>
      </trkpt>
      <trkpt lat="45.76153" lon="4.77591">
        <ele>235.1796875</ele>
        <time>2010-11-13T08:37:06Z</time>
      </trkpt>
      <trkpt lat="45.76135" lon="4.77545">
        <ele>235.66027832031</ele>
        <time>2010-11-13T08:37:12Z</time>
      </trkpt>
      <trkpt lat="45.76115" lon="4.77493">
        <ele>234.69909667969</ele>
        <time>2010-11-13T08:37:19Z</time>
      </trkpt>
      <trkpt lat="45.76085" lon="4.77428">
        <ele>234.21838378906</ele>
        <time>2010-11-13T08:37:28Z</time>
      </trkpt>
      <trkpt lat="45.76068" lon="4.77386">
        <ele>234.69909667969</ele>
        <time>2010-11-13T08:37:34Z</time>
      </trkpt>
      <trkpt lat="45.7606" lon="4.77357">
        <ele>234.69909667969</ele>
        <time>2010-11-13T08:37:39Z</time>
      </trkpt>
      <trkpt lat="45.76057" lon="4.7735">
        <ele>234.69909667969</ele>
        <time>2010-11-13T08:37:45Z</time>
      </trkpt>
      <trkpt lat="45.76054" lon="4.77348">
        <ele>234.69909667969</ele>
        <time>2010-11-13T08:37:52Z</time>
      </trkpt>
      <trkpt lat="45.76052" lon="4.77342">
        <ele>234.69909667969</ele>
        <time>2010-11-13T08:37:59Z</time>
      </trkpt>
      <trkpt lat="45.76045" lon="4.77324">
        <ele>234.69909667969</ele>
        <time>2010-11-13T08:38:03Z</time>
      </trkpt>
      <trkpt lat="45.76041" lon="4.77289">
        <ele>235.1796875</ele>
        <time>2010-11-13T08:38:08Z</time>
      </trkpt>
      <trkpt lat="45.76041" lon="4.77217">
        <ele>234.69909667969</ele>
        <time>2010-11-13T08:38:17Z</time>
      </trkpt>
      <trkpt lat="45.76043" lon="4.77154">
        <ele>234.21838378906</ele>
        <time>2010-11-13T08:38:25Z</time>
      </trkpt>
      <trkpt lat="45.76044" lon="4.77089">
        <ele>233.25708007812</ele>
        <time>2010-11-13T08:38:33Z</time>
      </trkpt>
      <trkpt lat="45.76045" lon="4.77041">
        <ele>233.25708007812</ele>
        <time>2010-11-13T08:38:39Z</time>
      </trkpt>
      <trkpt lat="45.76047" lon="4.77012">
        <ele>233.25708007812</ele>
        <time>2010-11-13T08:38:44Z</time>
      </trkpt>
      <trkpt lat="45.76049" lon="4.76988">
        <ele>233.25708007812</ele>
        <time>2010-11-13T08:38:49Z</time>
      </trkpt>
      <trkpt lat="45.76051" lon="4.76972">
        <ele>233.73767089844</ele>
        <time>2010-11-13T08:38:52Z</time>
      </trkpt>
      <trkpt lat="45.76059" lon="4.76927">
        <ele>233.73767089844</ele>
        <time>2010-11-13T08:38:59Z</time>
      </trkpt>
      <trkpt lat="45.76066" lon="4.76881">
        <ele>234.21838378906</ele>
        <time>2010-11-13T08:39:06Z</time>
      </trkpt>
      <trkpt lat="45.7607" lon="4.76828">
        <ele>234.69909667969</ele>
        <time>2010-11-13T08:39:15Z</time>
      </trkpt>
      <trkpt lat="45.7607" lon="4.76789">
        <ele>235.66027832031</ele>
        <time>2010-11-13T08:39:22Z</time>
      </trkpt>
      <trkpt lat="45.76071" lon="4.76756">
        <ele>236.14099121094</ele>
        <time>2010-11-13T08:39:29Z</time>
      </trkpt>
      <trkpt lat="45.76071" lon="4.76727">
        <ele>237.58288574219</ele>
        <time>2010-11-13T08:39:35Z</time>
      </trkpt>
      <trkpt lat="45.76076" lon="4.76683">
        <ele>239.02490234375</ele>
        <time>2010-11-13T08:39:44Z</time>
      </trkpt>
      <trkpt lat="45.7608" lon="4.76654">
        <ele>239.98620605469</ele>
        <time>2010-11-13T08:39:50Z</time>
      </trkpt>
      <trkpt lat="45.76087" lon="4.76615">
        <ele>241.42822265625</ele>
        <time>2010-11-13T08:39:58Z</time>
      </trkpt>
      <trkpt lat="45.76094" lon="4.76577">
        <ele>242.87023925781</ele>
        <time>2010-11-13T08:40:06Z</time>
      </trkpt>
      <trkpt lat="45.76096" lon="4.76547">
        <ele>243.35083007812</ele>
        <time>2010-11-13T08:40:12Z</time>
      </trkpt>
      <trkpt lat="45.76098" lon="4.76516">
        <ele>244.79284667969</ele>
        <time>2010-11-13T08:40:18Z</time>
      </trkpt>
      <trkpt lat="45.76098" lon="4.76483">
        <ele>244.79284667969</ele>
        <time>2010-11-13T08:40:24Z</time>
      </trkpt>
      <trkpt lat="45.76099" lon="4.76448">
        <ele>244.79284667969</ele>
        <time>2010-11-13T08:40:30Z</time>
      </trkpt>
      <trkpt lat="45.76098" lon="4.76418">
        <ele>245.2734375</ele>
        <time>2010-11-13T08:40:35Z</time>
      </trkpt>
      <trkpt lat="45.761" lon="4.76381">
        <ele>245.2734375</ele>
        <time>2010-11-13T08:40:41Z</time>
      </trkpt>
      <trkpt lat="45.76101" lon="4.76345">
        <ele>245.75415039062</ele>
        <time>2010-11-13T08:40:47Z</time>
      </trkpt>
      <trkpt lat="45.76105" lon="4.7631">
        <ele>246.23486328125</ele>
        <time>2010-11-13T08:40:53Z</time>
      </trkpt>
      <trkpt lat="45.76105" lon="4.76291">
        <ele>246.23486328125</ele>
        <time>2010-11-13T08:40:56Z</time>
      </trkpt>
      <trkpt lat="45.76105" lon="4.76259">
        <ele>245.75415039062</ele>
        <time>2010-11-13T08:41:01Z</time>
      </trkpt>
      <trkpt lat="45.76106" lon="4.7621">
        <ele>246.23486328125</ele>
        <time>2010-11-13T08:41:09Z</time>
      </trkpt>
      <trkpt lat="45.76105" lon="4.7618">
        <ele>246.23486328125</ele>
        <time>2010-11-13T08:41:14Z</time>
      </trkpt>
      <trkpt lat="45.76106" lon="4.76155">
        <ele>246.23486328125</ele>
        <time>2010-11-13T08:41:18Z</time>
      </trkpt>
      <trkpt lat="45.76105" lon="4.76098">
        <ele>246.23486328125</ele>
        <time>2010-11-13T08:41:28Z</time>
      </trkpt>
      <trkpt lat="45.76108" lon="4.76074">
        <ele>246.71545410156</ele>
        <time>2010-11-13T08:41:34Z</time>
      </trkpt>
      <trkpt lat="45.76108" lon="4.76045">
        <ele>246.71545410156</ele>
        <time>2010-11-13T08:41:40Z</time>
      </trkpt>
      <trkpt lat="45.76114" lon="4.76011">
        <ele>246.71545410156</ele>
        <time>2010-11-13T08:41:47Z</time>
      </trkpt>
      <trkpt lat="45.76116" lon="4.75984">
        <ele>247.6767578125</ele>
        <time>2010-11-13T08:41:52Z</time>
      </trkpt>
      <trkpt lat="45.76115" lon="4.75963">
        <ele>248.15759277344</ele>
        <time>2010-11-13T08:41:56Z</time>
      </trkpt>
      <trkpt lat="45.76109" lon="4.75928">
        <ele>247.6767578125</ele>
        <time>2010-11-13T08:42:02Z</time>
      </trkpt>
      <trkpt lat="45.76106" lon="4.75909">
        <ele>248.63818359375</ele>
        <time>2010-11-13T08:42:05Z</time>
      </trkpt>
      <trkpt lat="45.76105" lon="4.75875">
        <ele>248.15759277344</ele>
        <time>2010-11-13T08:42:11Z</time>
      </trkpt>
      <trkpt lat="45.76104" lon="4.75854">
        <ele>247.6767578125</ele>
        <time>2010-11-13T08:42:14Z</time>
      </trkpt>
      <trkpt lat="45.76099" lon="4.75811">
        <ele>247.19604492188</ele>
        <time>2010-11-13T08:42:20Z</time>
      </trkpt>
      <trkpt lat="45.76085" lon="4.75794">
        <ele>246.71545410156</ele>
        <time>2010-11-13T08:42:24Z</time>
      </trkpt>
      <trkpt lat="45.76074" lon="4.75792">
        <ele>246.71545410156</ele>
        <time>2010-11-13T08:42:26Z</time>
      </trkpt>
      <trkpt lat="45.76038" lon="4.75791">
        <ele>245.75415039062</ele>
        <time>2010-11-13T08:42:32Z</time>
      </trkpt>
      <trkpt lat="45.76011" lon="4.75791">
        <ele>244.31225585938</ele>
        <time>2010-11-13T08:42:36Z</time>
      </trkpt>
      <trkpt lat="45.75988" lon="4.7578">
        <ele>243.83154296875</ele>
        <time>2010-11-13T08:42:40Z</time>
      </trkpt>
      <trkpt lat="45.75978" lon="4.75755">
        <ele>243.35083007812</ele>
        <time>2010-11-13T08:42:43Z</time>
      </trkpt>
      <trkpt lat="45.75976" lon="4.75745">
        <ele>242.3896484375</ele>
        <time>2010-11-13T08:42:44Z</time>
      </trkpt>
      <trkpt lat="45.75974" lon="4.75725">
        <ele>241.42822265625</ele>
        <time>2010-11-13T08:42:46Z</time>
      </trkpt>
      <trkpt lat="45.75954" lon="4.75683">
        <ele>236.14099121094</ele>
        <time>2010-11-13T08:42:51Z</time>
      </trkpt>
      <trkpt lat="45.75948" lon="4.75677">
        <ele>235.66027832031</ele>
        <time>2010-11-13T08:42:52Z</time>
      </trkpt>
      <trkpt lat="45.75934" lon="4.75665">
        <ele>233.73767089844</ele>
        <time>2010-11-13T08:42:54Z</time>
      </trkpt>
      <trkpt lat="45.75918" lon="4.7563">
        <ele>228.93115234375</ele>
        <time>2010-11-13T08:42:58Z</time>
      </trkpt>
      <trkpt lat="45.75916" lon="4.75609">
        <ele>227.48913574219</ele>
        <time>2010-11-13T08:43:00Z</time>
      </trkpt>
      <trkpt lat="45.75909" lon="4.75587">
        <ele>225.56652832031</ele>
        <time>2010-11-13T08:43:03Z</time>
      </trkpt>
      <trkpt lat="45.75903" lon="4.75572">
        <ele>225.0859375</ele>
        <time>2010-11-13T08:43:05Z</time>
      </trkpt>
      <trkpt lat="45.75879" lon="4.75538">
        <ele>223.16320800781</ele>
        <time>2010-11-13T08:43:10Z</time>
      </trkpt>
      <trkpt lat="45.75867" lon="4.75525">
        <ele>221.72119140625</ele>
        <time>2010-11-13T08:43:12Z</time>
      </trkpt>
      <trkpt lat="45.75848" lon="4.75481">
        <ele>220.75988769531</ele>
        <time>2010-11-13T08:43:17Z</time>
      </trkpt>
      <trkpt lat="45.75846" lon="4.75472">
        <ele>219.79858398438</ele>
        <time>2010-11-13T08:43:18Z</time>
      </trkpt>
      <trkpt lat="45.75835" lon="4.75444">
        <ele>220.27917480469</ele>
        <time>2010-11-13T08:43:21Z</time>
      </trkpt>
      <trkpt lat="45.75833" lon="4.75424">
        <ele>219.79858398438</ele>
        <time>2010-11-13T08:43:23Z</time>
      </trkpt>
      <trkpt lat="45.7584" lon="4.75371">
        <ele>218.35656738281</ele>
        <time>2010-11-13T08:43:28Z</time>
      </trkpt>
      <trkpt lat="45.75848" lon="4.75308">
        <ele>217.8759765625</ele>
        <time>2010-11-13T08:43:34Z</time>
      </trkpt>
      <trkpt lat="45.75852" lon="4.75251">
        <ele>217.8759765625</ele>
        <time>2010-11-13T08:43:40Z</time>
      </trkpt>
      <trkpt lat="45.75851" lon="4.75226">
        <ele>217.8759765625</ele>
        <time>2010-11-13T08:43:43Z</time>
      </trkpt>
      <trkpt lat="45.75841" lon="4.75195">
        <ele>217.8759765625</ele>
        <time>2010-11-13T08:43:47Z</time>
      </trkpt>
      <trkpt lat="45.7583" lon="4.75178">
        <ele>218.35656738281</ele>
        <time>2010-11-13T08:43:50Z</time>
      </trkpt>
      <trkpt lat="45.7581" lon="4.7517">
        <ele>217.8759765625</ele>
        <time>2010-11-13T08:43:54Z</time>
      </trkpt>
      <trkpt lat="45.75768" lon="4.75165">
        <ele>218.83728027344</ele>
        <time>2010-11-13T08:44:02Z</time>
      </trkpt>
      <trkpt lat="45.75717" lon="4.7516">
        <ele>219.31799316406</ele>
        <time>2010-11-13T08:44:12Z</time>
      </trkpt>
      <trkpt lat="45.757" lon="4.75158">
        <ele>221.24060058594</ele>
        <time>2010-11-13T08:44:16Z</time>
      </trkpt>
      <trkpt lat="45.7567" lon="4.75155">
        <ele>223.16320800781</ele>
        <time>2010-11-13T08:44:24Z</time>
      </trkpt>
      <trkpt lat="45.75645" lon="4.75153">
        <ele>225.0859375</ele>
        <time>2010-11-13T08:44:31Z</time>
      </trkpt>
      <trkpt lat="45.75611" lon="4.7515">
        <ele>226.52783203125</ele>
        <time>2010-11-13T08:44:40Z</time>
      </trkpt>
      <trkpt lat="45.75574" lon="4.75143">
        <ele>227.00854492188</ele>
        <time>2010-11-13T08:44:49Z</time>
      </trkpt>
      <trkpt lat="45.7555" lon="4.75134">
        <ele>227.48913574219</ele>
        <time>2010-11-13T08:44:55Z</time>
      </trkpt>
      <trkpt lat="45.75538" lon="4.75115">
        <ele>227.48913574219</ele>
        <time>2010-11-13T08:44:59Z</time>
      </trkpt>
      <trkpt lat="45.75523" lon="4.75068">
        <ele>228.45043945312</ele>
        <time>2010-11-13T08:45:07Z</time>
      </trkpt>
      <trkpt lat="45.75508" lon="4.7505">
        <ele>229.89233398438</ele>
        <time>2010-11-13T08:45:12Z</time>
      </trkpt>
      <trkpt lat="45.75479" lon="4.75041">
        <ele>230.373046875</ele>
        <time>2010-11-13T08:45:20Z</time>
      </trkpt>
      <trkpt lat="45.75456" lon="4.75041">
        <ele>231.81494140625</ele>
        <time>2010-11-13T08:45:27Z</time>
      </trkpt>
      <trkpt lat="45.75438" lon="4.7504">
        <ele>232.77648925781</ele>
        <time>2010-11-13T08:45:33Z</time>
      </trkpt>
      <trkpt lat="45.7543" lon="4.75028">
        <ele>233.73767089844</ele>
        <time>2010-11-13T08:45:37Z</time>
      </trkpt>
      <trkpt lat="45.75418" lon="4.74996">
        <ele>236.14099121094</ele>
        <time>2010-11-13T08:45:46Z</time>
      </trkpt>
      <trkpt lat="45.75407" lon="4.74964">
        <ele>239.50549316406</ele>
        <time>2010-11-13T08:45:56Z</time>
      </trkpt>
      <trkpt lat="45.75406" lon="4.74961">
        <ele>239.50549316406</ele>
        <time>2010-11-13T08:45:57Z</time>
      </trkpt>
      <trkpt lat="45.75396" lon="4.74935">
        <ele>241.42822265625</ele>
        <time>2010-11-13T08:46:06Z</time>
      </trkpt>
      <trkpt lat="45.75392" lon="4.74919">
        <ele>242.87023925781</ele>
        <time>2010-11-13T08:46:12Z</time>
      </trkpt>
      <trkpt lat="45.75385" lon="4.749">
        <ele>245.2734375</ele>
        <time>2010-11-13T08:46:19Z</time>
      </trkpt>
      <trkpt lat="45.75377" lon="4.74879">
        <ele>247.19604492188</ele>
        <time>2010-11-13T08:46:27Z</time>
      </trkpt>
      <trkpt lat="45.75373" lon="4.74867">
        <ele>249.11877441406</ele>
        <time>2010-11-13T08:46:32Z</time>
      </trkpt>
      <trkpt lat="45.75368" lon="4.74851">
        <ele>250.08020019531</ele>
        <time>2010-11-13T08:46:38Z</time>
      </trkpt>
      <trkpt lat="45.75361" lon="4.74834">
        <ele>252.00280761719</ele>
        <time>2010-11-13T08:46:45Z</time>
      </trkpt>
      <trkpt lat="45.75351" lon="4.74813">
        <ele>253.92541503906</ele>
        <time>2010-11-13T08:46:54Z</time>
      </trkpt>
      <trkpt lat="45.75343" lon="4.74795">
        <ele>256.80932617188</ele>
        <time>2010-11-13T08:47:02Z</time>
      </trkpt>
      <trkpt lat="45.75341" lon="4.74793">
        <ele>257.2900390625</ele>
        <time>2010-11-13T08:47:03Z</time>
      </trkpt>
      <trkpt lat="45.75335" lon="4.74777">
        <ele>258.73193359375</ele>
        <time>2010-11-13T08:47:10Z</time>
      </trkpt>
      <trkpt lat="45.7533" lon="4.74764">
        <ele>259.693359375</ele>
        <time>2010-11-13T08:47:16Z</time>
      </trkpt>
      <trkpt lat="45.75325" lon="4.74748">
        <ele>261.61596679688</ele>
        <time>2010-11-13T08:47:23Z</time>
      </trkpt>
      <trkpt lat="45.7532" lon="4.74737">
        <ele>263.05786132812</ele>
        <time>2010-11-13T08:47:28Z</time>
      </trkpt>
      <trkpt lat="45.75309" lon="4.74715">
        <ele>265.46130371094</ele>
        <time>2010-11-13T08:47:37Z</time>
      </trkpt>
      <trkpt lat="45.75303" lon="4.74696">
        <ele>268.34509277344</ele>
        <time>2010-11-13T08:47:45Z</time>
      </trkpt>
      <trkpt lat="45.75298" lon="4.7468">
        <ele>270.26770019531</ele>
        <time>2010-11-13T08:47:51Z</time>
      </trkpt>
      <trkpt lat="45.75287" lon="4.74658">
        <ele>271.70971679688</ele>
        <time>2010-11-13T08:47:59Z</time>
      </trkpt>
      <trkpt lat="45.75275" lon="4.74634">
        <ele>273.15185546875</ele>
        <time>2010-11-13T08:48:07Z</time>
      </trkpt>
      <trkpt lat="45.75265" lon="4.74616">
        <ele>274.59375</ele>
        <time>2010-11-13T08:48:14Z</time>
      </trkpt>
      <trkpt lat="45.75252" lon="4.74601">
        <ele>274.59375</ele>
        <time>2010-11-13T08:48:20Z</time>
      </trkpt>
      <trkpt lat="45.75229" lon="4.74584">
        <ele>274.59375</ele>
        <time>2010-11-13T08:48:27Z</time>
      </trkpt>
      <trkpt lat="45.75199" lon="4.74566">
        <ele>274.59375</ele>
        <time>2010-11-13T08:48:35Z</time>
      </trkpt>
      <trkpt lat="45.75165" lon="4.74541">
        <ele>274.59375</ele>
        <time>2010-11-13T08:48:43Z</time>
      </trkpt>
      <trkpt lat="45.75141" lon="4.74517">
        <ele>274.11303710938</ele>
        <time>2010-11-13T08:48:49Z</time>
      </trkpt>
      <trkpt lat="45.7511" lon="4.74486">
        <ele>273.63244628906</ele>
        <time>2010-11-13T08:48:58Z</time>
      </trkpt>
      <trkpt lat="45.75106" lon="4.74468">
        <ele>273.63244628906</ele>
        <time>2010-11-13T08:49:02Z</time>
      </trkpt>
      <trkpt lat="45.75105" lon="4.74431">
        <ele>272.67114257812</ele>
        <time>2010-11-13T08:49:08Z</time>
      </trkpt>
      <trkpt lat="45.75103" lon="4.74363">
        <ele>272.1904296875</ele>
        <time>2010-11-13T08:49:17Z</time>
      </trkpt>
      <trkpt lat="45.75101" lon="4.74316">
        <ele>272.1904296875</ele>
        <time>2010-11-13T08:49:24Z</time>
      </trkpt>
      <trkpt lat="45.751" lon="4.74277">
        <ele>274.11303710938</ele>
        <time>2010-11-13T08:49:31Z</time>
      </trkpt>
      <trkpt lat="45.75096" lon="4.74238">
        <ele>274.11303710938</ele>
        <time>2010-11-13T08:49:38Z</time>
      </trkpt>
      <trkpt lat="45.7509" lon="4.74181">
        <ele>274.59375</ele>
        <time>2010-11-13T08:49:47Z</time>
      </trkpt>
      <trkpt lat="45.75083" lon="4.74117">
        <ele>274.11303710938</ele>
        <time>2010-11-13T08:49:56Z</time>
      </trkpt>
      <trkpt lat="45.75076" lon="4.74046">
        <ele>273.63244628906</ele>
        <time>2010-11-13T08:50:05Z</time>
      </trkpt>
      <trkpt lat="45.75063" lon="4.73944">
        <ele>274.11303710938</ele>
        <time>2010-11-13T08:50:18Z</time>
      </trkpt>
      <trkpt lat="45.75056" lon="4.73889">
        <ele>275.07446289062</ele>
        <time>2010-11-13T08:50:26Z</time>
      </trkpt>
      <trkpt lat="45.75056" lon="4.73868">
        <ele>275.07446289062</ele>
        <time>2010-11-13T08:50:29Z</time>
      </trkpt>
      <trkpt lat="45.75048" lon="4.73851">
        <ele>275.07446289062</ele>
        <time>2010-11-13T08:50:33Z</time>
      </trkpt>
      <trkpt lat="45.7503" lon="4.7385">
        <ele>275.07446289062</ele>
        <time>2010-11-13T08:50:37Z</time>
      </trkpt>
      <trkpt lat="45.75026" lon="4.73847">
        <ele>275.55505371094</ele>
        <time>2010-11-13T08:50:38Z</time>
      </trkpt>
      <trkpt lat="45.74999" lon="4.73821">
        <ele>276.03564453125</ele>
        <time>2010-11-13T08:50:46Z</time>
      </trkpt>
      <trkpt lat="45.74976" lon="4.73807">
        <ele>277.47766113281</ele>
        <time>2010-11-13T08:50:53Z</time>
      </trkpt>
      <trkpt lat="45.74954" lon="4.73796">
        <ele>278.43896484375</ele>
        <time>2010-11-13T08:51:00Z</time>
      </trkpt>
      <trkpt lat="45.7493" lon="4.73786">
        <ele>279.40026855469</ele>
        <time>2010-11-13T08:51:07Z</time>
      </trkpt>
      <trkpt lat="45.74912" lon="4.73778">
        <ele>280.84240722656</ele>
        <time>2010-11-13T08:51:13Z</time>
      </trkpt>
      <trkpt lat="45.74892" lon="4.73767">
        <ele>282.76501464844</ele>
        <time>2010-11-13T08:51:20Z</time>
      </trkpt>
      <trkpt lat="45.74871" lon="4.7375">
        <ele>284.20690917969</ele>
        <time>2010-11-13T08:51:29Z</time>
      </trkpt>
      <trkpt lat="45.74853" lon="4.73731">
        <ele>286.12951660156</ele>
        <time>2010-11-13T08:51:37Z</time>
      </trkpt>
      <trkpt lat="45.74834" lon="4.73708">
        <ele>286.61022949219</ele>
        <time>2010-11-13T08:51:45Z</time>
      </trkpt>
      <trkpt lat="45.74814" lon="4.73685">
        <ele>288.05224609375</ele>
        <time>2010-11-13T08:51:52Z</time>
      </trkpt>
      <trkpt lat="45.74789" lon="4.73654">
        <ele>287.57141113281</ele>
        <time>2010-11-13T08:52:01Z</time>
      </trkpt>
      <trkpt lat="45.74788" lon="4.73652">
        <ele>288.05224609375</ele>
        <time>2010-11-13T08:52:02Z</time>
      </trkpt>
      <trkpt lat="45.74777" lon="4.7364">
        <ele>288.05224609375</ele>
        <time>2010-11-13T08:52:07Z</time>
      </trkpt>
      <trkpt lat="45.74764" lon="4.73619">
        <ele>287.0908203125</ele>
        <time>2010-11-13T08:52:12Z</time>
      </trkpt>
      <trkpt lat="45.74762" lon="4.73614">
        <ele>287.57141113281</ele>
        <time>2010-11-13T08:52:13Z</time>
      </trkpt>
      <trkpt lat="45.74757" lon="4.73595">
        <ele>286.12951660156</ele>
        <time>2010-11-13T08:52:16Z</time>
      </trkpt>
      <trkpt lat="45.74752" lon="4.73574">
        <ele>284.68762207031</ele>
        <time>2010-11-13T08:52:19Z</time>
      </trkpt>
      <trkpt lat="45.74738" lon="4.73551">
        <ele>283.72619628906</ele>
        <time>2010-11-13T08:52:23Z</time>
      </trkpt>
      <trkpt lat="45.74737" lon="4.73536">
        <ele>283.72619628906</ele>
        <time>2010-11-13T08:52:25Z</time>
      </trkpt>
      <trkpt lat="45.74739" lon="4.7348">
        <ele>283.24560546875</ele>
        <time>2010-11-13T08:52:33Z</time>
      </trkpt>
      <trkpt lat="45.7474" lon="4.73424">
        <ele>282.76501464844</ele>
        <time>2010-11-13T08:52:40Z</time>
      </trkpt>
      <trkpt lat="45.7474" lon="4.73356">
        <ele>283.24560546875</ele>
        <time>2010-11-13T08:52:48Z</time>
      </trkpt>
      <trkpt lat="45.74738" lon="4.73309">
        <ele>282.28430175781</ele>
        <time>2010-11-13T08:52:54Z</time>
      </trkpt>
      <trkpt lat="45.74739" lon="4.733">
        <ele>282.28430175781</ele>
        <time>2010-11-13T08:52:55Z</time>
      </trkpt>
      <trkpt lat="45.74735" lon="4.73246">
        <ele>282.76501464844</ele>
        <time>2010-11-13T08:53:02Z</time>
      </trkpt>
      <trkpt lat="45.74733" lon="4.73231">
        <ele>283.24560546875</ele>
        <time>2010-11-13T08:53:04Z</time>
      </trkpt>
      <trkpt lat="45.74721" lon="4.73211">
        <ele>282.76501464844</ele>
        <time>2010-11-13T08:53:08Z</time>
      </trkpt>
      <trkpt lat="45.74715" lon="4.7321">
        <ele>282.76501464844</ele>
        <time>2010-11-13T08:53:09Z</time>
      </trkpt>
      <trkpt lat="45.74688" lon="4.73196">
        <ele>281.32299804688</ele>
        <time>2010-11-13T08:53:14Z</time>
      </trkpt>
      <trkpt lat="45.74637" lon="4.73132">
        <ele>281.32299804688</ele>
        <time>2010-11-13T08:53:25Z</time>
      </trkpt>
      <trkpt lat="45.74601" lon="4.73086">
        <ele>280.84240722656</ele>
        <time>2010-11-13T08:53:33Z</time>
      </trkpt>
      <trkpt lat="45.74571" lon="4.73046">
        <ele>282.28430175781</ele>
        <time>2010-11-13T08:53:41Z</time>
      </trkpt>
      <trkpt lat="45.74564" lon="4.73037">
        <ele>282.76501464844</ele>
        <time>2010-11-13T08:53:43Z</time>
      </trkpt>
      <trkpt lat="45.74533" lon="4.72996">
        <ele>284.68762207031</ele>
        <time>2010-11-13T08:53:52Z</time>
      </trkpt>
      <trkpt lat="45.74504" lon="4.72954">
        <ele>286.12951660156</ele>
        <time>2010-11-13T08:54:01Z</time>
      </trkpt>
      <trkpt lat="45.74471" lon="4.72892">
        <ele>286.12951660156</ele>
        <time>2010-11-13T08:54:12Z</time>
      </trkpt>
      <trkpt lat="45.74442" lon="4.72839">
        <ele>286.61022949219</ele>
        <time>2010-11-13T08:54:21Z</time>
      </trkpt>
      <trkpt lat="45.74409" lon="4.7278">
        <ele>287.57141113281</ele>
        <time>2010-11-13T08:54:31Z</time>
      </trkpt>
      <trkpt lat="45.74379" lon="4.72725">
        <ele>288.05224609375</ele>
        <time>2010-11-13T08:54:41Z</time>
      </trkpt>
      <trkpt lat="45.74352" lon="4.72685">
        <ele>288.53295898438</ele>
        <time>2010-11-13T08:54:49Z</time>
      </trkpt>
      <trkpt lat="45.74315" lon="4.72625">
        <ele>289.01354980469</ele>
        <time>2010-11-13T08:55:00Z</time>
      </trkpt>
      <trkpt lat="45.74284" lon="4.72563">
        <ele>289.01354980469</ele>
        <time>2010-11-13T08:55:10Z</time>
      </trkpt>
      <trkpt lat="45.74257" lon="4.7251">
        <ele>289.494140625</ele>
        <time>2010-11-13T08:55:19Z</time>
      </trkpt>
      <trkpt lat="45.74248" lon="4.72494">
        <ele>289.494140625</ele>
        <time>2010-11-13T08:55:22Z</time>
      </trkpt>
      <trkpt lat="45.74238" lon="4.72475">
        <ele>289.494140625</ele>
        <time>2010-11-13T08:55:26Z</time>
      </trkpt>
      <trkpt lat="45.74213" lon="4.72443">
        <ele>289.01354980469</ele>
        <time>2010-11-13T08:55:34Z</time>
      </trkpt>
      <trkpt lat="45.74215" lon="4.72416">
        <ele>289.01354980469</ele>
        <time>2010-11-13T08:55:39Z</time>
      </trkpt>
      <trkpt lat="45.74217" lon="4.72412">
        <ele>289.97485351562</ele>
        <time>2010-11-13T08:55:40Z</time>
      </trkpt>
      <trkpt lat="45.74237" lon="4.72377">
        <ele>290.93615722656</ele>
        <time>2010-11-13T08:55:48Z</time>
      </trkpt>
      <trkpt lat="45.74262" lon="4.72334">
        <ele>292.37817382812</ele>
        <time>2010-11-13T08:55:58Z</time>
      </trkpt>
      <trkpt lat="45.7428" lon="4.72299">
        <ele>294.30078125</ele>
        <time>2010-11-13T08:56:06Z</time>
      </trkpt>
      <trkpt lat="45.74278" lon="4.72284">
        <ele>294.30078125</ele>
        <time>2010-11-13T08:56:09Z</time>
      </trkpt>
      <trkpt lat="45.74272" lon="4.72266">
        <ele>294.30078125</ele>
        <time>2010-11-13T08:56:13Z</time>
      </trkpt>
      <trkpt lat="45.74265" lon="4.72251">
        <ele>293.82006835938</ele>
        <time>2010-11-13T08:56:16Z</time>
      </trkpt>
      <trkpt lat="45.74261" lon="4.72221">
        <ele>292.85876464844</ele>
        <time>2010-11-13T08:56:20Z</time>
      </trkpt>
      <trkpt lat="45.74266" lon="4.72154">
        <ele>292.85876464844</ele>
        <time>2010-11-13T08:56:28Z</time>
      </trkpt>
      <trkpt lat="45.74268" lon="4.72131">
        <ele>293.33935546875</ele>
        <time>2010-11-13T08:56:31Z</time>
      </trkpt>
      <trkpt lat="45.74271" lon="4.72081">
        <ele>294.78137207031</ele>
        <time>2010-11-13T08:56:38Z</time>
      </trkpt>
      <trkpt lat="45.74274" lon="4.72031">
        <ele>294.78137207031</ele>
        <time>2010-11-13T08:56:46Z</time>
      </trkpt>
      <trkpt lat="45.74274" lon="4.71998">
        <ele>295.74267578125</ele>
        <time>2010-11-13T08:56:51Z</time>
      </trkpt>
      <trkpt lat="45.74277" lon="4.71947">
        <ele>296.22351074219</ele>
        <time>2010-11-13T08:56:59Z</time>
      </trkpt>
      <trkpt lat="45.74281" lon="4.71901">
        <ele>297.18469238281</ele>
        <time>2010-11-13T08:57:06Z</time>
      </trkpt>
      <trkpt lat="45.74286" lon="4.71834">
        <ele>297.18469238281</ele>
        <time>2010-11-13T08:57:16Z</time>
      </trkpt>
      <trkpt lat="45.74289" lon="4.71789">
        <ele>297.66540527344</ele>
        <time>2010-11-13T08:57:23Z</time>
      </trkpt>
      <trkpt lat="45.74295" lon="4.71743">
        <ele>298.14611816406</ele>
        <time>2010-11-13T08:57:30Z</time>
      </trkpt>
      <trkpt lat="45.74313" lon="4.71677">
        <ele>298.62670898438</ele>
        <time>2010-11-13T08:57:40Z</time>
      </trkpt>
      <trkpt lat="45.74329" lon="4.71626">
        <ele>298.14611816406</ele>
        <time>2010-11-13T08:57:48Z</time>
      </trkpt>
      <trkpt lat="45.74345" lon="4.7158">
        <ele>299.58801269531</ele>
        <time>2010-11-13T08:57:56Z</time>
      </trkpt>
      <trkpt lat="45.74347" lon="4.71574">
        <ele>299.58801269531</ele>
        <time>2010-11-13T08:57:57Z</time>
      </trkpt>
      <trkpt lat="45.74357" lon="4.71536">
        <ele>299.58801269531</ele>
        <time>2010-11-13T08:58:04Z</time>
      </trkpt>
      <trkpt lat="45.74348" lon="4.71519">
        <ele>298.62670898438</ele>
        <time>2010-11-13T08:58:08Z</time>
      </trkpt>
      <trkpt lat="45.74345" lon="4.71514">
        <ele>298.62670898438</ele>
        <time>2010-11-13T08:58:09Z</time>
      </trkpt>
      <trkpt lat="45.74312" lon="4.71464">
        <ele>298.62670898438</ele>
        <time>2010-11-13T08:58:19Z</time>
      </trkpt>
      <trkpt lat="45.74289" lon="4.71413">
        <ele>299.10729980469</ele>
        <time>2010-11-13T08:58:28Z</time>
      </trkpt>
      <trkpt lat="45.74274" lon="4.71353">
        <ele>301.02990722656</ele>
        <time>2010-11-13T08:58:38Z</time>
      </trkpt>
      <trkpt lat="45.74265" lon="4.71286">
        <ele>301.99133300781</ele>
        <time>2010-11-13T08:58:49Z</time>
      </trkpt>
      <trkpt lat="45.74262" lon="4.71242">
        <ele>302.95251464844</ele>
        <time>2010-11-13T08:58:56Z</time>
      </trkpt>
      <trkpt lat="45.7426" lon="4.71193">
        <ele>304.39465332031</ele>
        <time>2010-11-13T08:59:04Z</time>
      </trkpt>
      <trkpt lat="45.74266" lon="4.71185">
        <ele>304.87524414062</ele>
        <time>2010-11-13T08:59:07Z</time>
      </trkpt>
      <trkpt lat="45.74265" lon="4.71175">
        <ele>305.35595703125</ele>
        <time>2010-11-13T08:59:11Z</time>
      </trkpt>
      <trkpt lat="45.74263" lon="4.71176">
        <ele>304.87524414062</ele>
        <time>2010-11-13T08:59:14Z</time>
      </trkpt>
      <trkpt lat="45.74263" lon="4.71178">
        <ele>304.39465332031</ele>
        <time>2010-11-13T08:59:19Z</time>
      </trkpt>
      <trkpt lat="45.74263" lon="4.71181">
        <ele>304.87524414062</ele>
        <time>2010-11-13T08:59:31Z</time>
      </trkpt>
      <trkpt lat="45.74262" lon="4.7118">
        <ele>304.87524414062</ele>
        <time>2010-11-13T09:00:17Z</time>
      </trkpt>
      <trkpt lat="45.74263" lon="4.71181">
        <ele>304.87524414062</ele>
        <time>2010-11-13T09:00:18Z</time>
      </trkpt>
      <trkpt lat="45.74269" lon="4.71186">
        <ele>304.87524414062</ele>
        <time>2010-11-13T09:00:23Z</time>
      </trkpt>
      <trkpt lat="45.74269" lon="4.71189">
        <ele>304.87524414062</ele>
        <time>2010-11-13T09:00:24Z</time>
      </trkpt>
      <trkpt lat="45.74273" lon="4.71202">
        <ele>305.35595703125</ele>
        <time>2010-11-13T09:00:30Z</time>
      </trkpt>
      <trkpt lat="45.74277" lon="4.71201">
        <ele>304.39465332031</ele>
        <time>2010-11-13T09:00:33Z</time>
      </trkpt>
      <trkpt lat="45.74277" lon="4.712">
        <ele>305.35595703125</ele>
        <time>2010-11-13T09:00:39Z</time>
      </trkpt>
      <trkpt lat="45.74276" lon="4.71199">
        <ele>304.39465332031</ele>
        <time>2010-11-13T09:01:02Z</time>
      </trkpt>
      <trkpt lat="45.74276" lon="4.71198">
        <ele>304.87524414062</ele>
        <time>2010-11-13T09:01:25Z</time>
      </trkpt>
      <trkpt lat="45.74279" lon="4.71201">
        <ele>304.39465332031</ele>
        <time>2010-11-13T09:03:54Z</time>
      </trkpt>
      <trkpt lat="45.74278" lon="4.712">
        <ele>304.39465332031</ele>
        <time>2010-11-13T09:04:04Z</time>
      </trkpt>
      <trkpt lat="45.74268" lon="4.71194">
        <ele>304.39465332031</ele>
        <time>2010-11-13T09:04:10Z</time>
      </trkpt>
      <trkpt lat="45.74259" lon="4.71184">
        <ele>304.39465332031</ele>
        <time>2010-11-13T09:04:15Z</time>
      </trkpt>
      <trkpt lat="45.74258" lon="4.71161">
        <ele>304.87524414062</ele>
        <time>2010-11-13T09:04:20Z</time>
      </trkpt>
      <trkpt lat="45.74259" lon="4.71104">
        <ele>305.83666992188</ele>
        <time>2010-11-13T09:04:30Z</time>
      </trkpt>
      <trkpt lat="45.7426" lon="4.71066">
        <ele>306.31726074219</ele>
        <time>2010-11-13T09:04:37Z</time>
      </trkpt>
      <trkpt lat="45.7426" lon="4.71023">
        <ele>306.7978515625</ele>
        <time>2010-11-13T09:04:45Z</time>
      </trkpt>
      <trkpt lat="45.74261" lon="4.70965">
        <ele>307.27856445312</ele>
        <time>2010-11-13T09:04:55Z</time>
      </trkpt>
      <trkpt lat="45.7426" lon="4.70912">
        <ele>308.72045898438</ele>
        <time>2010-11-13T09:05:04Z</time>
      </trkpt>
      <trkpt lat="45.74261" lon="4.70855">
        <ele>308.72045898438</ele>
        <time>2010-11-13T09:05:13Z</time>
      </trkpt>
      <trkpt lat="45.7426" lon="4.70814">
        <ele>307.75927734375</ele>
        <time>2010-11-13T09:05:19Z</time>
      </trkpt>
      <trkpt lat="45.7426" lon="4.70743">
        <ele>306.7978515625</ele>
        <time>2010-11-13T09:05:28Z</time>
      </trkpt>
      <trkpt lat="45.74269" lon="4.70678">
        <ele>306.31726074219</ele>
        <time>2010-11-13T09:05:36Z</time>
      </trkpt>
      <trkpt lat="45.74273" lon="4.70655">
        <ele>306.31726074219</ele>
        <time>2010-11-13T09:05:39Z</time>
      </trkpt>
      <trkpt lat="45.74273" lon="4.70639">
        <ele>306.31726074219</ele>
        <time>2010-11-13T09:05:41Z</time>
      </trkpt>
      <trkpt lat="45.74266" lon="4.70592">
        <ele>306.31726074219</ele>
        <time>2010-11-13T09:05:47Z</time>
      </trkpt>
      <trkpt lat="45.74262" lon="4.70579">
        <ele>306.7978515625</ele>
        <time>2010-11-13T09:05:49Z</time>
      </trkpt>
      <trkpt lat="45.74257" lon="4.70559">
        <ele>307.75927734375</ele>
        <time>2010-11-13T09:05:52Z</time>
      </trkpt>
      <trkpt lat="45.74246" lon="4.70505">
        <ele>308.72045898438</ele>
        <time>2010-11-13T09:06:01Z</time>
      </trkpt>
      <trkpt lat="45.7424" lon="4.70462">
        <ele>309.201171875</ele>
        <time>2010-11-13T09:06:09Z</time>
      </trkpt>
      <trkpt lat="45.74237" lon="4.70429">
        <ele>310.16247558594</ele>
        <time>2010-11-13T09:06:15Z</time>
      </trkpt>
      <trkpt lat="45.74237" lon="4.70397">
        <ele>311.12377929688</ele>
        <time>2010-11-13T09:06:21Z</time>
      </trkpt>
      <trkpt lat="45.7424" lon="4.70353">
        <ele>311.6044921875</ele>
        <time>2010-11-13T09:06:29Z</time>
      </trkpt>
      <trkpt lat="45.74245" lon="4.70322">
        <ele>312.08520507812</ele>
        <time>2010-11-13T09:06:35Z</time>
      </trkpt>
      <trkpt lat="45.74247" lon="4.70308">
        <ele>312.56579589844</ele>
        <time>2010-11-13T09:06:38Z</time>
      </trkpt>
      <trkpt lat="45.74248" lon="4.70287">
        <ele>313.04650878906</ele>
        <time>2010-11-13T09:06:43Z</time>
      </trkpt>
      <trkpt lat="45.74253" lon="4.70245">
        <ele>313.04650878906</ele>
        <time>2010-11-13T09:06:50Z</time>
      </trkpt>
      <trkpt lat="45.74263" lon="4.70187">
        <ele>313.04650878906</ele>
        <time>2010-11-13T09:06:59Z</time>
      </trkpt>
      <trkpt lat="45.74274" lon="4.70135">
        <ele>311.6044921875</ele>
        <time>2010-11-13T09:07:07Z</time>
      </trkpt>
      <trkpt lat="45.74285" lon="4.70087">
        <ele>311.12377929688</ele>
        <time>2010-11-13T09:07:15Z</time>
      </trkpt>
      <trkpt lat="45.74302" lon="4.70049">
        <ele>311.6044921875</ele>
        <time>2010-11-13T09:07:22Z</time>
      </trkpt>
      <trkpt lat="45.74325" lon="4.70008">
        <ele>311.6044921875</ele>
        <time>2010-11-13T09:07:30Z</time>
      </trkpt>
      <trkpt lat="45.74328" lon="4.70003">
        <ele>312.56579589844</ele>
        <time>2010-11-13T09:07:31Z</time>
      </trkpt>
      <trkpt lat="45.74329" lon="4.6998">
        <ele>312.08520507812</ele>
        <time>2010-11-13T09:07:35Z</time>
      </trkpt>
      <trkpt lat="45.74311" lon="4.69929">
        <ele>311.6044921875</ele>
        <time>2010-11-13T09:07:43Z</time>
      </trkpt>
      <trkpt lat="45.74295" lon="4.69874">
        <ele>311.12377929688</ele>
        <time>2010-11-13T09:07:51Z</time>
      </trkpt>
      <trkpt lat="45.74285" lon="4.69823">
        <ele>311.12377929688</ele>
        <time>2010-11-13T09:07:58Z</time>
      </trkpt>
      <trkpt lat="45.74278" lon="4.6977">
        <ele>310.16247558594</ele>
        <time>2010-11-13T09:08:05Z</time>
      </trkpt>
      <trkpt lat="45.74273" lon="4.69727">
        <ele>309.68188476562</ele>
        <time>2010-11-13T09:08:11Z</time>
      </trkpt>
      <trkpt lat="45.74274" lon="4.69678">
        <ele>308.72045898438</ele>
        <time>2010-11-13T09:08:17Z</time>
      </trkpt>
      <trkpt lat="45.74276" lon="4.69642">
        <ele>310.64306640625</ele>
        <time>2010-11-13T09:08:23Z</time>
      </trkpt>
      <trkpt lat="45.74271" lon="4.6963">
        <ele>311.12377929688</ele>
        <time>2010-11-13T09:08:28Z</time>
      </trkpt>
      <trkpt lat="45.74269" lon="4.69629">
        <ele>311.12377929688</ele>
        <time>2010-11-13T09:08:33Z</time>
      </trkpt>
      <trkpt lat="45.7427" lon="4.69629">
        <ele>311.12377929688</ele>
        <time>2010-11-13T09:08:38Z</time>
      </trkpt>
      <trkpt lat="45.74273" lon="4.69622">
        <ele>311.12377929688</ele>
        <time>2010-11-13T09:08:42Z</time>
      </trkpt>
      <trkpt lat="45.74272" lon="4.69618">
        <ele>311.12377929688</ele>
        <time>2010-11-13T09:08:43Z</time>
      </trkpt>
      <trkpt lat="45.74252" lon="4.69577">
        <ele>313.04650878906</ele>
        <time>2010-11-13T09:08:51Z</time>
      </trkpt>
      <trkpt lat="45.74231" lon="4.69532">
        <ele>313.52722167969</ele>
        <time>2010-11-13T09:08:59Z</time>
      </trkpt>
      <trkpt lat="45.74207" lon="4.69484">
        <ele>314.48840332031</ele>
        <time>2010-11-13T09:09:08Z</time>
      </trkpt>
      <trkpt lat="45.74186" lon="4.69438">
        <ele>316.89172363281</ele>
        <time>2010-11-13T09:09:17Z</time>
      </trkpt>
      <trkpt lat="45.74165" lon="4.69397">
        <ele>318.81433105469</ele>
        <time>2010-11-13T09:09:26Z</time>
      </trkpt>
      <trkpt lat="45.74146" lon="4.69355">
        <ele>320.73706054688</ele>
        <time>2010-11-13T09:09:35Z</time>
      </trkpt>
      <trkpt lat="45.74123" lon="4.69307">
        <ele>323.14038085938</ele>
        <time>2010-11-13T09:09:45Z</time>
      </trkpt>
      <trkpt lat="45.741" lon="4.6926">
        <ele>324.58227539062</ele>
        <time>2010-11-13T09:09:55Z</time>
      </trkpt>
      <trkpt lat="45.74079" lon="4.69213">
        <ele>326.02416992188</ele>
        <time>2010-11-13T09:10:05Z</time>
      </trkpt>
      <trkpt lat="45.74061" lon="4.69174">
        <ele>326.98559570312</ele>
        <time>2010-11-13T09:10:13Z</time>
      </trkpt>
      <trkpt lat="45.74043" lon="4.69134">
        <ele>327.94677734375</ele>
        <time>2010-11-13T09:10:21Z</time>
      </trkpt>
      <trkpt lat="45.74028" lon="4.69096">
        <ele>328.90832519531</ele>
        <time>2010-11-13T09:10:29Z</time>
      </trkpt>
      <trkpt lat="45.74024" lon="4.69086">
        <ele>328.90832519531</ele>
        <time>2010-11-13T09:10:31Z</time>
      </trkpt>
      <trkpt lat="45.74013" lon="4.69068">
        <ele>329.86950683594</ele>
        <time>2010-11-13T09:10:35Z</time>
      </trkpt>
      <trkpt lat="45.73989" lon="4.6902">
        <ele>330.83093261719</ele>
        <time>2010-11-13T09:10:44Z</time>
      </trkpt>
      <trkpt lat="45.73957" lon="4.68951">
        <ele>331.79211425781</ele>
        <time>2010-11-13T09:10:55Z</time>
      </trkpt>
      <trkpt lat="45.73927" lon="4.68888">
        <ele>333.23413085938</ele>
        <time>2010-11-13T09:11:05Z</time>
      </trkpt>
      <trkpt lat="45.73896" lon="4.68821">
        <ele>334.19543457031</ele>
        <time>2010-11-13T09:11:16Z</time>
      </trkpt>
      <trkpt lat="45.7388" lon="4.68784">
        <ele>334.67614746094</ele>
        <time>2010-11-13T09:11:22Z</time>
      </trkpt>
      <trkpt lat="45.73855" lon="4.68728">
        <ele>335.63732910156</ele>
        <time>2010-11-13T09:11:31Z</time>
      </trkpt>
      <trkpt lat="45.73826" lon="4.68667">
        <ele>336.59887695312</ele>
        <time>2010-11-13T09:11:41Z</time>
      </trkpt>
      <trkpt lat="45.73801" lon="4.68615">
        <ele>338.04077148438</ele>
        <time>2010-11-13T09:11:50Z</time>
      </trkpt>
      <trkpt lat="45.73783" lon="4.68577">
        <ele>339.00207519531</ele>
        <time>2010-11-13T09:11:57Z</time>
      </trkpt>
      <trkpt lat="45.73767" lon="4.68547">
        <ele>340.92468261719</ele>
        <time>2010-11-13T09:12:03Z</time>
      </trkpt>
      <trkpt lat="45.73745" lon="4.68498">
        <ele>342.36669921875</ele>
        <time>2010-11-13T09:12:13Z</time>
      </trkpt>
      <trkpt lat="45.73728" lon="4.68462">
        <ele>344.77001953125</ele>
        <time>2010-11-13T09:12:21Z</time>
      </trkpt>
      <trkpt lat="45.73711" lon="4.68425">
        <ele>345.73132324219</ele>
        <time>2010-11-13T09:12:29Z</time>
      </trkpt>
      <trkpt lat="45.73687" lon="4.68372">
        <ele>348.13464355469</ele>
        <time>2010-11-13T09:12:40Z</time>
      </trkpt>
      <trkpt lat="45.73663" lon="4.68322">
        <ele>349.09582519531</ele>
        <time>2010-11-13T09:12:50Z</time>
      </trkpt>
      <trkpt lat="45.7364" lon="4.68271">
        <ele>351.97985839844</ele>
        <time>2010-11-13T09:13:00Z</time>
      </trkpt>
      <trkpt lat="45.73616" lon="4.68219">
        <ele>353.90258789062</ele>
        <time>2010-11-13T09:13:10Z</time>
      </trkpt>
      <trkpt lat="45.73603" lon="4.68192">
        <ele>354.38317871094</ele>
        <time>2010-11-13T09:13:15Z</time>
      </trkpt>
      <trkpt lat="45.73581" lon="4.68143">
        <ele>355.34448242188</ele>
        <time>2010-11-13T09:13:24Z</time>
      </trkpt>
      <trkpt lat="45.73555" lon="4.68089">
        <ele>355.8251953125</ele>
        <time>2010-11-13T09:13:33Z</time>
      </trkpt>
      <trkpt lat="45.73526" lon="4.68029">
        <ele>355.34448242188</ele>
        <time>2010-11-13T09:13:42Z</time>
      </trkpt>
      <trkpt lat="45.73499" lon="4.6797">
        <ele>355.34448242188</ele>
        <time>2010-11-13T09:13:50Z</time>
      </trkpt>
      <trkpt lat="45.73472" lon="4.67912">
        <ele>354.86376953125</ele>
        <time>2010-11-13T09:13:58Z</time>
      </trkpt>
      <trkpt lat="45.73453" lon="4.67871">
        <ele>356.30578613281</ele>
        <time>2010-11-13T09:14:04Z</time>
      </trkpt>
      <trkpt lat="45.73441" lon="4.67848">
        <ele>356.30578613281</ele>
        <time>2010-11-13T09:14:08Z</time>
      </trkpt>
      <trkpt lat="45.7342" lon="4.67803">
        <ele>358.708984375</ele>
        <time>2010-11-13T09:14:17Z</time>
      </trkpt>
      <trkpt lat="45.73399" lon="4.67758">
        <ele>361.11242675781</ele>
        <time>2010-11-13T09:14:26Z</time>
      </trkpt>
      <trkpt lat="45.73376" lon="4.67708">
        <ele>363.03503417969</ele>
        <time>2010-11-13T09:14:36Z</time>
      </trkpt>
      <trkpt lat="45.73354" lon="4.67663">
        <ele>366.39953613281</ele>
        <time>2010-11-13T09:14:45Z</time>
      </trkpt>
      <trkpt lat="45.73352" lon="4.67658">
        <ele>366.39953613281</ele>
        <time>2010-11-13T09:14:46Z</time>
      </trkpt>
      <trkpt lat="45.73332" lon="4.67614">
        <ele>368.322265625</ele>
        <time>2010-11-13T09:14:55Z</time>
      </trkpt>
      <trkpt lat="45.73328" lon="4.67605">
        <ele>369.28369140625</ele>
        <time>2010-11-13T09:14:57Z</time>
      </trkpt>
      <trkpt lat="45.73307" lon="4.67561">
        <ele>371.20629882812</ele>
        <time>2010-11-13T09:15:07Z</time>
      </trkpt>
      <trkpt lat="45.73286" lon="4.67514">
        <ele>372.64819335938</ele>
        <time>2010-11-13T09:15:17Z</time>
      </trkpt>
      <trkpt lat="45.73268" lon="4.67459">
        <ele>374.09008789062</ele>
        <time>2010-11-13T09:15:27Z</time>
      </trkpt>
      <trkpt lat="45.73265" lon="4.67409">
        <ele>374.09008789062</ele>
        <time>2010-11-13T09:15:34Z</time>
      </trkpt>
      <trkpt lat="45.73268" lon="4.67341">
        <ele>373.12890625</ele>
        <time>2010-11-13T09:15:42Z</time>
      </trkpt>
      <trkpt lat="45.73273" lon="4.67257">
        <ele>371.68688964844</ele>
        <time>2010-11-13T09:15:52Z</time>
      </trkpt>
      <trkpt lat="45.73276" lon="4.67211">
        <ele>371.68688964844</ele>
        <time>2010-11-13T09:15:57Z</time>
      </trkpt>
      <trkpt lat="45.73277" lon="4.67155">
        <ele>370.7255859375</ele>
        <time>2010-11-13T09:16:03Z</time>
      </trkpt>
      <trkpt lat="45.73266" lon="4.67109">
        <ele>370.7255859375</ele>
        <time>2010-11-13T09:16:08Z</time>
      </trkpt>
      <trkpt lat="45.73242" lon="4.67055">
        <ele>370.7255859375</ele>
        <time>2010-11-13T09:16:15Z</time>
      </trkpt>
      <trkpt lat="45.73232" lon="4.67032">
        <ele>370.7255859375</ele>
        <time>2010-11-13T09:16:18Z</time>
      </trkpt>
      <trkpt lat="45.73213" lon="4.66995">
        <ele>370.24487304688</ele>
        <time>2010-11-13T09:16:23Z</time>
      </trkpt>
      <trkpt lat="45.73185" lon="4.66938">
        <ele>371.20629882812</ele>
        <time>2010-11-13T09:16:32Z</time>
      </trkpt>
      <trkpt lat="45.73162" lon="4.66891">
        <ele>370.7255859375</ele>
        <time>2010-11-13T09:16:39Z</time>
      </trkpt>
      <trkpt lat="45.7313" lon="4.66828">
        <ele>370.24487304688</ele>
        <time>2010-11-13T09:16:47Z</time>
      </trkpt>
      <trkpt lat="45.73108" lon="4.66785">
        <ele>370.24487304688</ele>
        <time>2010-11-13T09:16:53Z</time>
      </trkpt>
      <trkpt lat="45.73085" lon="4.66737">
        <ele>371.68688964844</ele>
        <time>2010-11-13T09:17:01Z</time>
      </trkpt>
      <trkpt lat="45.73063" lon="4.66687">
        <ele>372.16748046875</ele>
        <time>2010-11-13T09:17:10Z</time>
      </trkpt>
      <trkpt lat="45.73046" lon="4.66639">
        <ele>372.64819335938</ele>
        <time>2010-11-13T09:17:18Z</time>
      </trkpt>
      <trkpt lat="45.73037" lon="4.66582">
        <ele>373.12890625</ele>
        <time>2010-11-13T09:17:26Z</time>
      </trkpt>
      <trkpt lat="45.73028" lon="4.66511">
        <ele>372.16748046875</ele>
        <time>2010-11-13T09:17:35Z</time>
      </trkpt>
      <trkpt lat="45.7302" lon="4.66456">
        <ele>372.16748046875</ele>
        <time>2010-11-13T09:17:42Z</time>
      </trkpt>
      <trkpt lat="45.73009" lon="4.66375">
        <ele>372.64819335938</ele>
        <time>2010-11-13T09:17:52Z</time>
      </trkpt>
      <trkpt lat="45.73009" lon="4.66367">
        <ele>372.16748046875</ele>
        <time>2010-11-13T09:17:53Z</time>
      </trkpt>
      <trkpt lat="45.73013" lon="4.66332">
        <ele>372.16748046875</ele>
        <time>2010-11-13T09:17:57Z</time>
      </trkpt>
      <trkpt lat="45.73018" lon="4.66314">
        <ele>372.16748046875</ele>
        <time>2010-11-13T09:17:59Z</time>
      </trkpt>
      <trkpt lat="45.73042" lon="4.66269">
        <ele>371.68688964844</ele>
        <time>2010-11-13T09:18:05Z</time>
      </trkpt>
      <trkpt lat="45.73051" lon="4.66255">
        <ele>371.68688964844</ele>
        <time>2010-11-13T09:18:07Z</time>
      </trkpt>
      <trkpt lat="45.73072" lon="4.66195">
        <ele>371.20629882812</ele>
        <time>2010-11-13T09:18:14Z</time>
      </trkpt>
      <trkpt lat="45.73084" lon="4.66147">
        <ele>370.7255859375</ele>
        <time>2010-11-13T09:18:19Z</time>
      </trkpt>
      <trkpt lat="45.73093" lon="4.66121">
        <ele>369.76428222656</ele>
        <time>2010-11-13T09:18:22Z</time>
      </trkpt>
      <trkpt lat="45.73131" lon="4.66066">
        <ele>369.76428222656</ele>
        <time>2010-11-13T09:18:30Z</time>
      </trkpt>
      <trkpt lat="45.73146" lon="4.66028">
        <ele>369.28369140625</ele>
        <time>2010-11-13T09:18:35Z</time>
      </trkpt>
      <trkpt lat="45.73148" lon="4.66019">
        <ele>368.80297851562</ele>
        <time>2010-11-13T09:18:36Z</time>
      </trkpt>
      <trkpt lat="45.73154" lon="4.65941">
        <ele>368.322265625</ele>
        <time>2010-11-13T09:18:44Z</time>
      </trkpt>
      <trkpt lat="45.73161" lon="4.6591">
        <ele>367.84155273438</ele>
        <time>2010-11-13T09:18:47Z</time>
      </trkpt>
      <trkpt lat="45.73175" lon="4.65874">
        <ele>367.36096191406</ele>
        <time>2010-11-13T09:18:51Z</time>
      </trkpt>
      <trkpt lat="45.7321" lon="4.65811">
        <ele>366.39953613281</ele>
        <time>2010-11-13T09:18:59Z</time>
      </trkpt>
      <trkpt lat="45.73226" lon="4.65758">
        <ele>365.9189453125</ele>
        <time>2010-11-13T09:19:05Z</time>
      </trkpt>
      <trkpt lat="45.73228" lon="4.65741">
        <ele>365.43835449219</ele>
        <time>2010-11-13T09:19:07Z</time>
      </trkpt>
      <trkpt lat="45.7322" lon="4.65704">
        <ele>365.43835449219</ele>
        <time>2010-11-13T09:19:12Z</time>
      </trkpt>
      <trkpt lat="45.73206" lon="4.65697">
        <ele>365.43835449219</ele>
        <time>2010-11-13T09:19:15Z</time>
      </trkpt>
      <trkpt lat="45.73193" lon="4.65703">
        <ele>365.43835449219</ele>
        <time>2010-11-13T09:19:18Z</time>
      </trkpt>
      <trkpt lat="45.73162" lon="4.65729">
        <ele>366.88024902344</ele>
        <time>2010-11-13T09:19:27Z</time>
      </trkpt>
      <trkpt lat="45.73135" lon="4.65747">
        <ele>368.322265625</ele>
        <time>2010-11-13T09:19:36Z</time>
      </trkpt>
      <trkpt lat="45.7311" lon="4.6576">
        <ele>369.28369140625</ele>
        <time>2010-11-13T09:19:44Z</time>
      </trkpt>
      <trkpt lat="45.73088" lon="4.65767">
        <ele>371.20629882812</ele>
        <time>2010-11-13T09:19:51Z</time>
      </trkpt>
      <trkpt lat="45.73063" lon="4.65773">
        <ele>372.64819335938</ele>
        <time>2010-11-13T09:19:59Z</time>
      </trkpt>
      <trkpt lat="45.73037" lon="4.65774">
        <ele>373.60949707031</ele>
        <time>2010-11-13T09:20:07Z</time>
      </trkpt>
      <trkpt lat="45.73012" lon="4.65768">
        <ele>374.09008789062</ele>
        <time>2010-11-13T09:20:15Z</time>
      </trkpt>
      <trkpt lat="45.72992" lon="4.65756">
        <ele>374.57080078125</ele>
        <time>2010-11-13T09:20:21Z</time>
      </trkpt>
      <trkpt lat="45.72956" lon="4.65731">
        <ele>377.45483398438</ele>
        <time>2010-11-13T09:20:31Z</time>
      </trkpt>
      <trkpt lat="45.72929" lon="4.65716">
        <ele>378.89685058594</ele>
        <time>2010-11-13T09:20:38Z</time>
      </trkpt>
      <trkpt lat="45.72894" lon="4.65699">
        <ele>379.85803222656</ele>
        <time>2010-11-13T09:20:47Z</time>
      </trkpt>
      <trkpt lat="45.72862" lon="4.6568">
        <ele>381.78063964844</ele>
        <time>2010-11-13T09:20:56Z</time>
      </trkpt>
      <trkpt lat="45.72828" lon="4.65656">
        <ele>383.70324707031</ele>
        <time>2010-11-13T09:21:07Z</time>
      </trkpt>
      <trkpt lat="45.728" lon="4.65634">
        <ele>384.66479492188</ele>
        <time>2010-11-13T09:21:16Z</time>
      </trkpt>
      <trkpt lat="45.72763" lon="4.65603">
        <ele>387.06799316406</ele>
        <time>2010-11-13T09:21:28Z</time>
      </trkpt>
      <trkpt lat="45.72734" lon="4.65579">
        <ele>388.99060058594</ele>
        <time>2010-11-13T09:21:38Z</time>
      </trkpt>
      <trkpt lat="45.72707" lon="4.65561">
        <ele>390.4326171875</ele>
        <time>2010-11-13T09:21:47Z</time>
      </trkpt>
      <trkpt lat="45.72685" lon="4.65544">
        <ele>391.39379882812</ele>
        <time>2010-11-13T09:21:55Z</time>
      </trkpt>
      <trkpt lat="45.72673" lon="4.65539">
        <ele>391.39379882812</ele>
        <time>2010-11-13T09:21:59Z</time>
      </trkpt>
      <trkpt lat="45.72648" lon="4.65512">
        <ele>389.95190429688</ele>
        <time>2010-11-13T09:22:05Z</time>
      </trkpt>
      <trkpt lat="45.72636" lon="4.65493">
        <ele>389.47119140625</ele>
        <time>2010-11-13T09:22:08Z</time>
      </trkpt>
      <trkpt lat="45.72627" lon="4.65467">
        <ele>388.51000976562</ele>
        <time>2010-11-13T09:22:11Z</time>
      </trkpt>
      <trkpt lat="45.72622" lon="4.65448">
        <ele>387.54858398438</ele>
        <time>2010-11-13T09:22:13Z</time>
      </trkpt>
      <trkpt lat="45.72604" lon="4.6542">
        <ele>387.54858398438</ele>
        <time>2010-11-13T09:22:17Z</time>
      </trkpt>
      <trkpt lat="45.72591" lon="4.65414">
        <ele>387.54858398438</ele>
        <time>2010-11-13T09:22:19Z</time>
      </trkpt>
      <trkpt lat="45.72562" lon="4.654">
        <ele>388.51000976562</ele>
        <time>2010-11-13T09:22:25Z</time>
      </trkpt>
      <trkpt lat="45.72522" lon="4.65373">
        <ele>389.47119140625</ele>
        <time>2010-11-13T09:22:35Z</time>
      </trkpt>
      <trkpt lat="45.72495" lon="4.65353">
        <ele>390.91320800781</ele>
        <time>2010-11-13T09:22:43Z</time>
      </trkpt>
      <trkpt lat="45.72469" lon="4.65336">
        <ele>389.95190429688</ele>
        <time>2010-11-13T09:22:50Z</time>
      </trkpt>
      <trkpt lat="45.72446" lon="4.65324">
        <ele>388.99060058594</ele>
        <time>2010-11-13T09:22:55Z</time>
      </trkpt>
      <trkpt lat="45.72421" lon="4.65295">
        <ele>388.51000976562</ele>
        <time>2010-11-13T09:23:01Z</time>
      </trkpt>
      <trkpt lat="45.72409" lon="4.65276">
        <ele>387.54858398438</ele>
        <time>2010-11-13T09:23:04Z</time>
      </trkpt>
      <trkpt lat="45.72395" lon="4.65244">
        <ele>386.10668945312</ele>
        <time>2010-11-13T09:23:08Z</time>
      </trkpt>
      <trkpt lat="45.72382" lon="4.65187">
        <ele>385.14538574219</ele>
        <time>2010-11-13T09:23:14Z</time>
      </trkpt>
      <trkpt lat="45.72372" lon="4.65129">
        <ele>384.18408203125</ele>
        <time>2010-11-13T09:23:20Z</time>
      </trkpt>
      <trkpt lat="45.72372" lon="4.65047">
        <ele>382.74206542969</ele>
        <time>2010-11-13T09:23:28Z</time>
      </trkpt>
      <trkpt lat="45.72373" lon="4.64995">
        <ele>381.78063964844</ele>
        <time>2010-11-13T09:23:33Z</time>
      </trkpt>
      <trkpt lat="45.72364" lon="4.64958">
        <ele>381.78063964844</ele>
        <time>2010-11-13T09:23:37Z</time>
      </trkpt>
      <trkpt lat="45.72349" lon="4.64947">
        <ele>382.26135253906</ele>
        <time>2010-11-13T09:23:40Z</time>
      </trkpt>
      <trkpt lat="45.72334" lon="4.64947">
        <ele>382.26135253906</ele>
        <time>2010-11-13T09:23:43Z</time>
      </trkpt>
      <trkpt lat="45.72292" lon="4.64961">
        <ele>383.70324707031</ele>
        <time>2010-11-13T09:23:52Z</time>
      </trkpt>
      <trkpt lat="45.72265" lon="4.64961">
        <ele>384.66479492188</ele>
        <time>2010-11-13T09:23:58Z</time>
      </trkpt>
      <trkpt lat="45.72245" lon="4.6495">
        <ele>385.14538574219</ele>
        <time>2010-11-13T09:24:03Z</time>
      </trkpt>
      <trkpt lat="45.72221" lon="4.64916">
        <ele>386.10668945312</ele>
        <time>2010-11-13T09:24:11Z</time>
      </trkpt>
      <trkpt lat="45.72202" lon="4.64875">
        <ele>385.14538574219</ele>
        <time>2010-11-13T09:24:18Z</time>
      </trkpt>
      <trkpt lat="45.72187" lon="4.64825">
        <ele>384.18408203125</ele>
        <time>2010-11-13T09:24:25Z</time>
      </trkpt>
      <trkpt lat="45.72171" lon="4.64773">
        <ele>383.22265625</ele>
        <time>2010-11-13T09:24:32Z</time>
      </trkpt>
      <trkpt lat="45.72149" lon="4.64699">
        <ele>380.81945800781</ele>
        <time>2010-11-13T09:24:41Z</time>
      </trkpt>
      <trkpt lat="45.72126" lon="4.64644">
        <ele>378.89685058594</ele>
        <time>2010-11-13T09:24:47Z</time>
      </trkpt>
      <trkpt lat="45.72102" lon="4.6459">
        <ele>376.01281738281</ele>
        <time>2010-11-13T09:24:52Z</time>
      </trkpt>
      <trkpt lat="45.72061" lon="4.64498">
        <ele>373.12890625</ele>
        <time>2010-11-13T09:25:00Z</time>
      </trkpt>
      <trkpt lat="45.72039" lon="4.64452">
        <ele>374.09008789062</ele>
        <time>2010-11-13T09:25:05Z</time>
      </trkpt>
      <trkpt lat="45.72016" lon="4.64396">
        <ele>373.60949707031</ele>
        <time>2010-11-13T09:25:12Z</time>
      </trkpt>
      <trkpt lat="45.72008" lon="4.64361">
        <ele>373.60949707031</ele>
        <time>2010-11-13T09:25:16Z</time>
      </trkpt>
      <trkpt lat="45.72003" lon="4.64303">
        <ele>373.60949707031</ele>
        <time>2010-11-13T09:25:23Z</time>
      </trkpt>
      <trkpt lat="45.72" lon="4.6426">
        <ele>374.57080078125</ele>
        <time>2010-11-13T09:25:29Z</time>
      </trkpt>
      <trkpt lat="45.71997" lon="4.64197">
        <ele>375.05151367188</ele>
        <time>2010-11-13T09:25:38Z</time>
      </trkpt>
      <trkpt lat="45.71996" lon="4.64147">
        <ele>376.49353027344</ele>
        <time>2010-11-13T09:25:46Z</time>
      </trkpt>
      <trkpt lat="45.71994" lon="4.64135">
        <ele>376.49353027344</ele>
        <time>2010-11-13T09:25:48Z</time>
      </trkpt>
      <trkpt lat="45.71985" lon="4.64067">
        <ele>377.93542480469</ele>
        <time>2010-11-13T09:26:00Z</time>
      </trkpt>
      <trkpt lat="45.71971" lon="4.64025">
        <ele>378.89685058594</ele>
        <time>2010-11-13T09:26:08Z</time>
      </trkpt>
      <trkpt lat="45.71951" lon="4.63997">
        <ele>379.37744140625</ele>
        <time>2010-11-13T09:26:15Z</time>
      </trkpt>
      <trkpt lat="45.71925" lon="4.6397">
        <ele>379.85803222656</ele>
        <time>2010-11-13T09:26:22Z</time>
      </trkpt>
      <trkpt lat="45.71891" lon="4.63932">
        <ele>380.33874511719</ele>
        <time>2010-11-13T09:26:31Z</time>
      </trkpt>
      <trkpt lat="45.71863" lon="4.63884">
        <ele>380.33874511719</ele>
        <time>2010-11-13T09:26:40Z</time>
      </trkpt>
      <trkpt lat="45.71844" lon="4.63839">
        <ele>381.30004882812</ele>
        <time>2010-11-13T09:26:48Z</time>
      </trkpt>
      <trkpt lat="45.71838" lon="4.63815">
        <ele>381.30004882812</ele>
        <time>2010-11-13T09:26:52Z</time>
      </trkpt>
      <trkpt lat="45.71834" lon="4.63773">
        <ele>381.78063964844</ele>
        <time>2010-11-13T09:26:59Z</time>
      </trkpt>
      <trkpt lat="45.71832" lon="4.63745">
        <ele>382.74206542969</ele>
        <time>2010-11-13T09:27:04Z</time>
      </trkpt>
      <trkpt lat="45.71829" lon="4.63717">
        <ele>383.22265625</ele>
        <time>2010-11-13T09:27:09Z</time>
      </trkpt>
      <trkpt lat="45.71825" lon="4.63678">
        <ele>382.74206542969</ele>
        <time>2010-11-13T09:27:16Z</time>
      </trkpt>
      <trkpt lat="45.71824" lon="4.63652">
        <ele>383.70324707031</ele>
        <time>2010-11-13T09:27:21Z</time>
      </trkpt>
      <trkpt lat="45.71822" lon="4.63618">
        <ele>384.18408203125</ele>
        <time>2010-11-13T09:27:27Z</time>
      </trkpt>
      <trkpt lat="45.71816" lon="4.6358">
        <ele>385.14538574219</ele>
        <time>2010-11-13T09:27:34Z</time>
      </trkpt>
      <trkpt lat="45.71807" lon="4.63543">
        <ele>386.58740234375</ele>
        <time>2010-11-13T09:27:42Z</time>
      </trkpt>
      <trkpt lat="45.71795" lon="4.63511">
        <ele>387.06799316406</ele>
        <time>2010-11-13T09:27:50Z</time>
      </trkpt>
      <trkpt lat="45.71791" lon="4.63486">
        <ele>388.029296875</ele>
        <time>2010-11-13T09:27:56Z</time>
      </trkpt>
      <trkpt lat="45.71786" lon="4.63457">
        <ele>388.029296875</ele>
        <time>2010-11-13T09:28:02Z</time>
      </trkpt>
      <trkpt lat="45.71785" lon="4.63422">
        <ele>388.51000976562</ele>
        <time>2010-11-13T09:28:09Z</time>
      </trkpt>
      <trkpt lat="45.7179" lon="4.63378">
        <ele>388.029296875</ele>
        <time>2010-11-13T09:28:17Z</time>
      </trkpt>
      <trkpt lat="45.71795" lon="4.63329">
        <ele>388.51000976562</ele>
        <time>2010-11-13T09:28:26Z</time>
      </trkpt>
      <trkpt lat="45.71797" lon="4.63269">
        <ele>389.47119140625</ele>
        <time>2010-11-13T09:28:36Z</time>
      </trkpt>
      <trkpt lat="45.71797" lon="4.63243">
        <ele>389.47119140625</ele>
        <time>2010-11-13T09:28:41Z</time>
      </trkpt>
      <trkpt lat="45.71795" lon="4.6322">
        <ele>389.95190429688</ele>
        <time>2010-11-13T09:28:46Z</time>
      </trkpt>
      <trkpt lat="45.71788" lon="4.63197">
        <ele>390.4326171875</ele>
        <time>2010-11-13T09:28:52Z</time>
      </trkpt>
      <trkpt lat="45.71775" lon="4.63173">
        <ele>390.91320800781</ele>
        <time>2010-11-13T09:28:59Z</time>
      </trkpt>
      <trkpt lat="45.71766" lon="4.63149">
        <ele>392.35534667969</ele>
        <time>2010-11-13T09:29:06Z</time>
      </trkpt>
      <trkpt lat="45.71759" lon="4.63131">
        <ele>393.79724121094</ele>
        <time>2010-11-13T09:29:13Z</time>
      </trkpt>
      <trkpt lat="45.71754" lon="4.63112">
        <ele>393.79724121094</ele>
        <time>2010-11-13T09:29:19Z</time>
      </trkpt>
      <trkpt lat="45.71752" lon="4.63094">
        <ele>394.27795410156</ele>
        <time>2010-11-13T09:29:24Z</time>
      </trkpt>
      <trkpt lat="45.71749" lon="4.63073">
        <ele>394.75854492188</ele>
        <time>2010-11-13T09:29:30Z</time>
      </trkpt>
      <trkpt lat="45.71747" lon="4.63056">
        <ele>396.20056152344</ele>
        <time>2010-11-13T09:29:35Z</time>
      </trkpt>
      <trkpt lat="45.71747" lon="4.63033">
        <ele>397.64245605469</ele>
        <time>2010-11-13T09:29:41Z</time>
      </trkpt>
      <trkpt lat="45.71747" lon="4.6301">
        <ele>398.60375976562</ele>
        <time>2010-11-13T09:29:47Z</time>
      </trkpt>
      <trkpt lat="45.71745" lon="4.62985">
        <ele>399.56506347656</ele>
        <time>2010-11-13T09:29:54Z</time>
      </trkpt>
      <trkpt lat="45.71742" lon="4.62963">
        <ele>401.48779296875</ele>
        <time>2010-11-13T09:30:00Z</time>
      </trkpt>
      <trkpt lat="45.71735" lon="4.62936">
        <ele>402.9296875</ele>
        <time>2010-11-13T09:30:08Z</time>
      </trkpt>
      <trkpt lat="45.71725" lon="4.62906">
        <ele>403.41040039062</ele>
        <time>2010-11-13T09:30:17Z</time>
      </trkpt>
      <trkpt lat="45.71717" lon="4.62881">
        <ele>403.89111328125</ele>
        <time>2010-11-13T09:30:24Z</time>
      </trkpt>
      <trkpt lat="45.7171" lon="4.6286">
        <ele>404.85229492188</ele>
        <time>2010-11-13T09:30:30Z</time>
      </trkpt>
      <trkpt lat="45.71705" lon="4.62841">
        <ele>405.3330078125</ele>
        <time>2010-11-13T09:30:35Z</time>
      </trkpt>
      <trkpt lat="45.71698" lon="4.62816">
        <ele>405.3330078125</ele>
        <time>2010-11-13T09:30:41Z</time>
      </trkpt>
      <trkpt lat="45.7169" lon="4.62787">
        <ele>405.81372070312</ele>
        <time>2010-11-13T09:30:48Z</time>
      </trkpt>
      <trkpt lat="45.7168" lon="4.62759">
        <ele>406.77490234375</ele>
        <time>2010-11-13T09:30:55Z</time>
      </trkpt>
      <trkpt lat="45.71667" lon="4.62728">
        <ele>407.736328125</ele>
        <time>2010-11-13T09:31:03Z</time>
      </trkpt>
      <trkpt lat="45.71659" lon="4.62714">
        <ele>407.736328125</ele>
        <time>2010-11-13T09:31:07Z</time>
      </trkpt>
      <trkpt lat="45.7165" lon="4.62695">
        <ele>408.21704101562</ele>
        <time>2010-11-13T09:31:12Z</time>
      </trkpt>
      <trkpt lat="45.71642" lon="4.62671">
        <ele>408.69763183594</ele>
        <time>2010-11-13T09:31:17Z</time>
      </trkpt>
      <trkpt lat="45.71633" lon="4.62652">
        <ele>409.17834472656</ele>
        <time>2010-11-13T09:31:22Z</time>
      </trkpt>
      <trkpt lat="45.71619" lon="4.62625">
        <ele>410.1396484375</ele>
        <time>2010-11-13T09:31:29Z</time>
      </trkpt>
      <trkpt lat="45.71609" lon="4.62609">
        <ele>411.58166503906</ele>
        <time>2010-11-13T09:31:35Z</time>
      </trkpt>
      <trkpt lat="45.71598" lon="4.62594">
        <ele>412.06225585938</ele>
        <time>2010-11-13T09:31:41Z</time>
      </trkpt>
      <trkpt lat="45.71584" lon="4.62581">
        <ele>413.02355957031</ele>
        <time>2010-11-13T09:31:47Z</time>
      </trkpt>
      <trkpt lat="45.71569" lon="4.62577">
        <ele>412.54284667969</ele>
        <time>2010-11-13T09:31:52Z</time>
      </trkpt>
      <trkpt lat="45.71547" lon="4.62576">
        <ele>414.46545410156</ele>
        <time>2010-11-13T09:32:01Z</time>
      </trkpt>
      <trkpt lat="45.71527" lon="4.62576">
        <ele>415.90747070312</ele>
        <time>2010-11-13T09:32:09Z</time>
      </trkpt>
      <trkpt lat="45.71505" lon="4.62576">
        <ele>417.83020019531</ele>
        <time>2010-11-13T09:32:18Z</time>
      </trkpt>
      <trkpt lat="45.71484" lon="4.62566">
        <ele>419.27221679688</ele>
        <time>2010-11-13T09:32:27Z</time>
      </trkpt>
      <trkpt lat="45.71474" lon="4.62557">
        <ele>420.2333984375</ele>
        <time>2010-11-13T09:32:32Z</time>
      </trkpt>
      <trkpt lat="45.71452" lon="4.62541">
        <ele>421.67541503906</ele>
        <time>2010-11-13T09:32:42Z</time>
      </trkpt>
      <trkpt lat="45.71438" lon="4.62528">
        <ele>423.59802246094</ele>
        <time>2010-11-13T09:32:50Z</time>
      </trkpt>
      <trkpt lat="45.71429" lon="4.62514">
        <ele>425.04016113281</ele>
        <time>2010-11-13T09:32:57Z</time>
      </trkpt>
      <trkpt lat="45.71422" lon="4.62496">
        <ele>426.96276855469</ele>
        <time>2010-11-13T09:33:04Z</time>
      </trkpt>
      <trkpt lat="45.71416" lon="4.62482">
        <ele>428.88537597656</ele>
        <time>2010-11-13T09:33:10Z</time>
      </trkpt>
      <trkpt lat="45.71406" lon="4.62457">
        <ele>431.76916503906</ele>
        <time>2010-11-13T09:33:20Z</time>
      </trkpt>
      <trkpt lat="45.71397" lon="4.62439">
        <ele>433.21130371094</ele>
        <time>2010-11-13T09:33:28Z</time>
      </trkpt>
      <trkpt lat="45.71389" lon="4.62411">
        <ele>433.69189453125</ele>
        <time>2010-11-13T09:33:37Z</time>
      </trkpt>
      <trkpt lat="45.71385" lon="4.62391">
        <ele>433.69189453125</ele>
        <time>2010-11-13T09:33:43Z</time>
      </trkpt>
      <trkpt lat="45.71376" lon="4.62362">
        <ele>434.17260742188</ele>
        <time>2010-11-13T09:33:50Z</time>
      </trkpt>
      <trkpt lat="45.71363" lon="4.62326">
        <ele>434.17260742188</ele>
        <time>2010-11-13T09:33:59Z</time>
      </trkpt>
      <trkpt lat="45.71354" lon="4.62295">
        <ele>435.13391113281</ele>
        <time>2010-11-13T09:34:06Z</time>
      </trkpt>
      <trkpt lat="45.71346" lon="4.62265">
        <ele>435.61450195312</ele>
        <time>2010-11-13T09:34:13Z</time>
      </trkpt>
      <trkpt lat="45.71335" lon="4.62237">
        <ele>436.57592773438</ele>
        <time>2010-11-13T09:34:22Z</time>
      </trkpt>
      <trkpt lat="45.71322" lon="4.62219">
        <ele>438.01782226562</ele>
        <time>2010-11-13T09:34:30Z</time>
      </trkpt>
      <trkpt lat="45.71309" lon="4.62201">
        <ele>439.9404296875</ele>
        <time>2010-11-13T09:34:39Z</time>
      </trkpt>
      <trkpt lat="45.71296" lon="4.62185">
        <ele>441.38244628906</ele>
        <time>2010-11-13T09:34:48Z</time>
      </trkpt>
      <trkpt lat="45.71286" lon="4.62168">
        <ele>443.30505371094</ele>
        <time>2010-11-13T09:34:56Z</time>
      </trkpt>
      <trkpt lat="45.71284" lon="4.62166">
        <ele>443.78576660156</ele>
        <time>2010-11-13T09:34:57Z</time>
      </trkpt>
      <trkpt lat="45.71279" lon="4.62156">
        <ele>444.7470703125</ele>
        <time>2010-11-13T09:35:01Z</time>
      </trkpt>
      <trkpt lat="45.71277" lon="4.62155">
        <ele>444.7470703125</ele>
        <time>2010-11-13T09:35:02Z</time>
      </trkpt>
      <trkpt lat="45.71264" lon="4.62148">
        <ele>445.70837402344</ele>
        <time>2010-11-13T09:35:09Z</time>
      </trkpt>
      <trkpt lat="45.71254" lon="4.62141">
        <ele>446.66967773438</ele>
        <time>2010-11-13T09:35:15Z</time>
      </trkpt>
      <trkpt lat="45.71246" lon="4.62128">
        <ele>447.63098144531</ele>
        <time>2010-11-13T09:35:21Z</time>
      </trkpt>
      <trkpt lat="45.71239" lon="4.62107">
        <ele>448.59240722656</ele>
        <time>2010-11-13T09:35:28Z</time>
      </trkpt>
      <trkpt lat="45.71228" lon="4.62074">
        <ele>450.03442382812</ele>
        <time>2010-11-13T09:35:39Z</time>
      </trkpt>
      <trkpt lat="45.71215" lon="4.62047">
        <ele>450.99560546875</ele>
        <time>2010-11-13T09:35:47Z</time>
      </trkpt>
      <trkpt lat="45.71211" lon="4.62024">
        <ele>451.95703125</ele>
        <time>2010-11-13T09:35:53Z</time>
      </trkpt>
      <trkpt lat="45.71214" lon="4.61989">
        <ele>453.87963867188</ele>
        <time>2010-11-13T09:36:02Z</time>
      </trkpt>
      <trkpt lat="45.71216" lon="4.61954">
        <ele>455.32153320312</ele>
        <time>2010-11-13T09:36:11Z</time>
      </trkpt>
      <trkpt lat="45.71217" lon="4.61923">
        <ele>455.80224609375</ele>
        <time>2010-11-13T09:36:19Z</time>
      </trkpt>
      <trkpt lat="45.71216" lon="4.61893">
        <ele>457.24426269531</ele>
        <time>2010-11-13T09:36:27Z</time>
      </trkpt>
      <trkpt lat="45.71211" lon="4.61859">
        <ele>457.24426269531</ele>
        <time>2010-11-13T09:36:36Z</time>
      </trkpt>
      <trkpt lat="45.71203" lon="4.61824">
        <ele>458.68615722656</ele>
        <time>2010-11-13T09:36:46Z</time>
      </trkpt>
      <trkpt lat="45.71199" lon="4.61797">
        <ele>459.16687011719</ele>
        <time>2010-11-13T09:36:53Z</time>
      </trkpt>
      <trkpt lat="45.71197" lon="4.6177">
        <ele>459.16687011719</ele>
        <time>2010-11-13T09:36:59Z</time>
      </trkpt>
      <trkpt lat="45.71197" lon="4.61732">
        <ele>458.68615722656</ele>
        <time>2010-11-13T09:37:07Z</time>
      </trkpt>
      <trkpt lat="45.71198" lon="4.61702">
        <ele>459.16687011719</ele>
        <time>2010-11-13T09:37:14Z</time>
      </trkpt>
      <trkpt lat="45.71199" lon="4.61662">
        <ele>459.64758300781</ele>
        <time>2010-11-13T09:37:22Z</time>
      </trkpt>
      <trkpt lat="45.71202" lon="4.61625">
        <ele>459.16687011719</ele>
        <time>2010-11-13T09:37:28Z</time>
      </trkpt>
      <trkpt lat="45.7121" lon="4.61577">
        <ele>459.64758300781</ele>
        <time>2010-11-13T09:37:35Z</time>
      </trkpt>
      <trkpt lat="45.7122" lon="4.61527">
        <ele>460.12817382812</ele>
        <time>2010-11-13T09:37:43Z</time>
      </trkpt>
      <trkpt lat="45.71229" lon="4.61475">
        <ele>459.64758300781</ele>
        <time>2010-11-13T09:37:51Z</time>
      </trkpt>
      <trkpt lat="45.71235" lon="4.6141">
        <ele>460.60876464844</ele>
        <time>2010-11-13T09:38:01Z</time>
      </trkpt>
      <trkpt lat="45.71238" lon="4.61364">
        <ele>460.60876464844</ele>
        <time>2010-11-13T09:38:09Z</time>
      </trkpt>
      <trkpt lat="45.71248" lon="4.61316">
        <ele>461.57019042969</ele>
        <time>2010-11-13T09:38:18Z</time>
      </trkpt>
      <trkpt lat="45.71262" lon="4.61272">
        <ele>462.05078125</ele>
        <time>2010-11-13T09:38:27Z</time>
      </trkpt>
      <trkpt lat="45.71271" lon="4.61238">
        <ele>462.05078125</ele>
        <time>2010-11-13T09:38:35Z</time>
      </trkpt>
      <trkpt lat="45.71272" lon="4.6123">
        <ele>463.01208496094</ele>
        <time>2010-11-13T09:38:39Z</time>
      </trkpt>
      <trkpt lat="45.71273" lon="4.61216">
        <ele>465.41552734375</ele>
        <time>2010-11-13T09:38:46Z</time>
      </trkpt>
      <trkpt lat="45.71272" lon="4.61196">
        <ele>467.33813476562</ele>
        <time>2010-11-13T09:38:55Z</time>
      </trkpt>
      <trkpt lat="45.71271" lon="4.61179">
        <ele>468.29931640625</ele>
        <time>2010-11-13T09:39:02Z</time>
      </trkpt>
      <trkpt lat="45.71269" lon="4.6116">
        <ele>469.2607421875</ele>
        <time>2010-11-13T09:39:09Z</time>
      </trkpt>
      <trkpt lat="45.71271" lon="4.61144">
        <ele>470.22192382812</ele>
        <time>2010-11-13T09:39:15Z</time>
      </trkpt>
      <trkpt lat="45.71272" lon="4.61126">
        <ele>470.70263671875</ele>
        <time>2010-11-13T09:39:22Z</time>
      </trkpt>
      <trkpt lat="45.71274" lon="4.61107">
        <ele>471.66394042969</ele>
        <time>2010-11-13T09:39:28Z</time>
      </trkpt>
      <trkpt lat="45.71275" lon="4.61092">
        <ele>472.14465332031</ele>
        <time>2010-11-13T09:39:34Z</time>
      </trkpt>
      <trkpt lat="45.71274" lon="4.61076">
        <ele>474.06726074219</ele>
        <time>2010-11-13T09:39:41Z</time>
      </trkpt>
      <trkpt lat="45.71273" lon="4.61059">
        <ele>475.02868652344</ele>
        <time>2010-11-13T09:39:48Z</time>
      </trkpt>
      <trkpt lat="45.71272" lon="4.61034">
        <ele>476.47058105469</ele>
        <time>2010-11-13T09:39:58Z</time>
      </trkpt>
      <trkpt lat="45.71271" lon="4.61021">
        <ele>477.91247558594</ele>
        <time>2010-11-13T09:40:04Z</time>
      </trkpt>
      <trkpt lat="45.71271" lon="4.61006">
        <ele>480.31591796875</ele>
        <time>2010-11-13T09:40:11Z</time>
      </trkpt>
      <trkpt lat="45.71271" lon="4.61004">
        <ele>480.31591796875</ele>
        <time>2010-11-13T09:40:12Z</time>
      </trkpt>
      <trkpt lat="45.7127" lon="4.60993">
        <ele>481.7578125</ele>
        <time>2010-11-13T09:40:17Z</time>
      </trkpt>
      <trkpt lat="45.71268" lon="4.60985">
        <ele>483.19982910156</ele>
        <time>2010-11-13T09:40:20Z</time>
      </trkpt>
      <trkpt lat="45.71269" lon="4.60966">
        <ele>484.1611328125</ele>
        <time>2010-11-13T09:40:28Z</time>
      </trkpt>
      <trkpt lat="45.7127" lon="4.60948">
        <ele>485.12243652344</ele>
        <time>2010-11-13T09:40:35Z</time>
      </trkpt>
      <trkpt lat="45.71268" lon="4.60926">
        <ele>488.00646972656</ele>
        <time>2010-11-13T09:40:45Z</time>
      </trkpt>
      <trkpt lat="45.71267" lon="4.60914">
        <ele>489.44836425781</ele>
        <time>2010-11-13T09:40:51Z</time>
      </trkpt>
      <trkpt lat="45.71266" lon="4.60888">
        <ele>490.89038085938</ele>
        <time>2010-11-13T09:41:01Z</time>
      </trkpt>
      <trkpt lat="45.71267" lon="4.6087">
        <ele>491.85168457031</ele>
        <time>2010-11-13T09:41:08Z</time>
      </trkpt>
      <trkpt lat="45.71268" lon="4.60848">
        <ele>492.33239746094</ele>
        <time>2010-11-13T09:41:16Z</time>
      </trkpt>
      <trkpt lat="45.71268" lon="4.60818">
        <ele>494.25500488281</ele>
        <time>2010-11-13T09:41:27Z</time>
      </trkpt>
      <trkpt lat="45.71269" lon="4.6079">
        <ele>495.69689941406</ele>
        <time>2010-11-13T09:41:37Z</time>
      </trkpt>
      <trkpt lat="45.71268" lon="4.60765">
        <ele>497.13891601562</ele>
        <time>2010-11-13T09:41:46Z</time>
      </trkpt>
      <trkpt lat="45.71268" lon="4.60743">
        <ele>498.58093261719</ele>
        <time>2010-11-13T09:41:54Z</time>
      </trkpt>
      <trkpt lat="45.71268" lon="4.60725">
        <ele>499.0615234375</ele>
        <time>2010-11-13T09:42:01Z</time>
      </trkpt>
      <trkpt lat="45.71268" lon="4.60697">
        <ele>500.02294921875</ele>
        <time>2010-11-13T09:42:11Z</time>
      </trkpt>
      <trkpt lat="45.7127" lon="4.60671">
        <ele>501.46484375</ele>
        <time>2010-11-13T09:42:19Z</time>
      </trkpt>
      <trkpt lat="45.71273" lon="4.60635">
        <ele>502.42614746094</ele>
        <time>2010-11-13T09:42:29Z</time>
      </trkpt>
      <trkpt lat="45.71275" lon="4.60606">
        <ele>503.38745117188</ele>
        <time>2010-11-13T09:42:38Z</time>
      </trkpt>
      <trkpt lat="45.71276" lon="4.60589">
        <ele>503.8681640625</ele>
        <time>2010-11-13T09:42:44Z</time>
      </trkpt>
      <trkpt lat="45.71276" lon="4.60566">
        <ele>505.31018066406</ele>
        <time>2010-11-13T09:42:52Z</time>
      </trkpt>
      <trkpt lat="45.71278" lon="4.60537">
        <ele>506.75207519531</ele>
        <time>2010-11-13T09:43:01Z</time>
      </trkpt>
      <trkpt lat="45.71278" lon="4.60518">
        <ele>507.23278808594</ele>
        <time>2010-11-13T09:43:08Z</time>
      </trkpt>
      <trkpt lat="45.71278" lon="4.60497">
        <ele>508.67468261719</ele>
        <time>2010-11-13T09:43:16Z</time>
      </trkpt>
      <trkpt lat="45.71278" lon="4.60481">
        <ele>509.15539550781</ele>
        <time>2010-11-13T09:43:22Z</time>
      </trkpt>
      <trkpt lat="45.71279" lon="4.6046">
        <ele>510.11669921875</ele>
        <time>2010-11-13T09:43:29Z</time>
      </trkpt>
      <trkpt lat="45.71278" lon="4.6044">
        <ele>512.52001953125</ele>
        <time>2010-11-13T09:43:36Z</time>
      </trkpt>
      <trkpt lat="45.71276" lon="4.60423">
        <ele>513.96203613281</ele>
        <time>2010-11-13T09:43:42Z</time>
      </trkpt>
      <trkpt lat="45.71273" lon="4.60405">
        <ele>515.40405273438</ele>
        <time>2010-11-13T09:43:48Z</time>
      </trkpt>
      <trkpt lat="45.71268" lon="4.60382">
        <ele>516.84594726562</ele>
        <time>2010-11-13T09:43:57Z</time>
      </trkpt>
      <trkpt lat="45.71264" lon="4.60364">
        <ele>517.32666015625</ele>
        <time>2010-11-13T09:44:04Z</time>
      </trkpt>
      <trkpt lat="45.7126" lon="4.60347">
        <ele>518.28784179688</ele>
        <time>2010-11-13T09:44:10Z</time>
      </trkpt>
      <trkpt lat="45.71254" lon="4.60326">
        <ele>520.21057128906</ele>
        <time>2010-11-13T09:44:18Z</time>
      </trkpt>
      <trkpt lat="45.71247" lon="4.6031">
        <ele>521.17199707031</ele>
        <time>2010-11-13T09:44:25Z</time>
      </trkpt>
      <trkpt lat="45.71243" lon="4.60295">
        <ele>522.13317871094</ele>
        <time>2010-11-13T09:44:32Z</time>
      </trkpt>
      <trkpt lat="45.71239" lon="4.6028">
        <ele>524.05578613281</ele>
        <time>2010-11-13T09:44:39Z</time>
      </trkpt>
      <trkpt lat="45.71235" lon="4.60264">
        <ele>525.01721191406</ele>
        <time>2010-11-13T09:44:46Z</time>
      </trkpt>
      <trkpt lat="45.7123" lon="4.60246">
        <ele>526.93981933594</ele>
        <time>2010-11-13T09:44:53Z</time>
      </trkpt>
      <trkpt lat="45.71226" lon="4.6023">
        <ele>527.90100097656</ele>
        <time>2010-11-13T09:45:00Z</time>
      </trkpt>
      <trkpt lat="45.71225" lon="4.60223">
        <ele>529.34313964844</ele>
        <time>2010-11-13T09:45:03Z</time>
      </trkpt>
      <trkpt lat="45.7122" lon="4.60208">
        <ele>531.26574707031</ele>
        <time>2010-11-13T09:45:11Z</time>
      </trkpt>
      <trkpt lat="45.71214" lon="4.60195">
        <ele>532.70776367188</ele>
        <time>2010-11-13T09:45:17Z</time>
      </trkpt>
      <trkpt lat="45.71213" lon="4.60187">
        <ele>533.6689453125</ele>
        <time>2010-11-13T09:45:21Z</time>
      </trkpt>
      <trkpt lat="45.71209" lon="4.60175">
        <ele>535.59155273438</ele>
        <time>2010-11-13T09:45:28Z</time>
      </trkpt>
      <trkpt lat="45.71205" lon="4.60162">
        <ele>537.51428222656</ele>
        <time>2010-11-13T09:45:35Z</time>
      </trkpt>
      <trkpt lat="45.712" lon="4.60149">
        <ele>538.47570800781</ele>
        <time>2010-11-13T09:45:41Z</time>
      </trkpt>
      <trkpt lat="45.71191" lon="4.60131">
        <ele>539.43688964844</ele>
        <time>2010-11-13T09:45:50Z</time>
      </trkpt>
      <trkpt lat="45.71182" lon="4.60115">
        <ele>540.87890625</ele>
        <time>2010-11-13T09:45:58Z</time>
      </trkpt>
      <trkpt lat="45.7117" lon="4.60094">
        <ele>541.84020996094</ele>
        <time>2010-11-13T09:46:08Z</time>
      </trkpt>
      <trkpt lat="45.71162" lon="4.60083">
        <ele>542.80151367188</ele>
        <time>2010-11-13T09:46:15Z</time>
      </trkpt>
      <trkpt lat="45.71155" lon="4.60074">
        <ele>543.76281738281</ele>
        <time>2010-11-13T09:46:21Z</time>
      </trkpt>
      <trkpt lat="45.71148" lon="4.60066">
        <ele>544.72424316406</ele>
        <time>2010-11-13T09:46:27Z</time>
      </trkpt>
      <trkpt lat="45.7114" lon="4.60056">
        <ele>546.16625976562</ele>
        <time>2010-11-13T09:46:33Z</time>
      </trkpt>
      <trkpt lat="45.71128" lon="4.6004">
        <ele>547.12744140625</ele>
        <time>2010-11-13T09:46:41Z</time>
      </trkpt>
      <trkpt lat="45.71115" lon="4.60023">
        <ele>548.0888671875</ele>
        <time>2010-11-13T09:46:50Z</time>
      </trkpt>
      <trkpt lat="45.71106" lon="4.60013">
        <ele>549.05004882812</ele>
        <time>2010-11-13T09:46:57Z</time>
      </trkpt>
      <trkpt lat="45.71096" lon="4.60004">
        <ele>550.4921875</ele>
        <time>2010-11-13T09:47:04Z</time>
      </trkpt>
      <trkpt lat="45.71087" lon="4.59997">
        <ele>552.41455078125</ele>
        <time>2010-11-13T09:47:11Z</time>
      </trkpt>
      <trkpt lat="45.71077" lon="4.5999">
        <ele>554.33740234375</ele>
        <time>2010-11-13T09:47:18Z</time>
      </trkpt>
      <trkpt lat="45.71069" lon="4.59981">
        <ele>555.29858398438</ele>
        <time>2010-11-13T09:47:25Z</time>
      </trkpt>
      <trkpt lat="45.71061" lon="4.59971">
        <ele>556.74072265625</ele>
        <time>2010-11-13T09:47:32Z</time>
      </trkpt>
      <trkpt lat="45.71053" lon="4.5996">
        <ele>557.7021484375</ele>
        <time>2010-11-13T09:47:39Z</time>
      </trkpt>
      <trkpt lat="45.7104" lon="4.59948">
        <ele>558.66333007812</ele>
        <time>2010-11-13T09:47:48Z</time>
      </trkpt>
      <trkpt lat="45.7103" lon="4.59942">
        <ele>560.5859375</ele>
        <time>2010-11-13T09:47:55Z</time>
      </trkpt>
      <trkpt lat="45.71023" lon="4.59934">
        <ele>562.50854492188</ele>
        <time>2010-11-13T09:48:02Z</time>
      </trkpt>
      <trkpt lat="45.71014" lon="4.59926">
        <ele>563.46997070312</ele>
        <time>2010-11-13T09:48:07Z</time>
      </trkpt>
      <trkpt lat="45.71006" lon="4.59916">
        <ele>563.95043945312</ele>
        <time>2010-11-13T09:48:12Z</time>
      </trkpt>
      <trkpt lat="45.70995" lon="4.59906">
        <ele>564.43115234375</ele>
        <time>2010-11-13T09:48:19Z</time>
      </trkpt>
      <trkpt lat="45.70985" lon="4.59899">
        <ele>565.87329101562</ele>
        <time>2010-11-13T09:48:25Z</time>
      </trkpt>
      <trkpt lat="45.70974" lon="4.5989">
        <ele>567.31518554688</ele>
        <time>2010-11-13T09:48:31Z</time>
      </trkpt>
      <trkpt lat="45.70963" lon="4.59876">
        <ele>568.2763671875</ele>
        <time>2010-11-13T09:48:38Z</time>
      </trkpt>
      <trkpt lat="45.70957" lon="4.5986">
        <ele>569.23779296875</ele>
        <time>2010-11-13T09:48:45Z</time>
      </trkpt>
      <trkpt lat="45.70955" lon="4.59841">
        <ele>570.6796875</ele>
        <time>2010-11-13T09:48:53Z</time>
      </trkpt>
      <trkpt lat="45.70955" lon="4.59822">
        <ele>571.64086914062</ele>
        <time>2010-11-13T09:49:01Z</time>
      </trkpt>
      <trkpt lat="45.70953" lon="4.59807">
        <ele>572.6025390625</ele>
        <time>2010-11-13T09:49:08Z</time>
      </trkpt>
      <trkpt lat="45.70952" lon="4.59796">
        <ele>574.52514648438</ele>
        <time>2010-11-13T09:49:14Z</time>
      </trkpt>
      <trkpt lat="45.70951" lon="4.59794">
        <ele>574.52514648438</ele>
        <time>2010-11-13T09:49:24Z</time>
      </trkpt>
      <trkpt lat="45.70952" lon="4.59794">
        <ele>574.52514648438</ele>
        <time>2010-11-13T09:49:35Z</time>
      </trkpt>
      <trkpt lat="45.70951" lon="4.59793">
        <ele>574.04443359375</ele>
        <time>2010-11-13T09:50:03Z</time>
      </trkpt>
      <trkpt lat="45.7095" lon="4.59794">
        <ele>574.52514648438</ele>
        <time>2010-11-13T09:50:25Z</time>
      </trkpt>
      <trkpt lat="45.7095" lon="4.59793">
        <ele>574.52514648438</ele>
        <time>2010-11-13T09:50:34Z</time>
      </trkpt>
      <trkpt lat="45.7095" lon="4.59791">
        <ele>575.486328125</ele>
        <time>2010-11-13T09:50:40Z</time>
      </trkpt>
      <trkpt lat="45.70942" lon="4.59778">
        <ele>575.96704101562</ele>
        <time>2010-11-13T09:50:47Z</time>
      </trkpt>
      <trkpt lat="45.70942" lon="4.59776">
        <ele>576.44775390625</ele>
        <time>2010-11-13T09:50:48Z</time>
      </trkpt>
      <trkpt lat="45.70935" lon="4.59763">
        <ele>577.4091796875</ele>
        <time>2010-11-13T09:50:56Z</time>
      </trkpt>
      <trkpt lat="45.70933" lon="4.59759">
        <ele>577.8896484375</ele>
        <time>2010-11-13T09:50:59Z</time>
      </trkpt>
      <trkpt lat="45.70926" lon="4.59748">
        <ele>580.29296875</ele>
        <time>2010-11-13T09:51:07Z</time>
      </trkpt>
      <trkpt lat="45.70919" lon="4.59734">
        <ele>582.21557617188</ele>
        <time>2010-11-13T09:51:15Z</time>
      </trkpt>
      <trkpt lat="45.70916" lon="4.59729">
        <ele>583.65747070312</ele>
        <time>2010-11-13T09:51:18Z</time>
      </trkpt>
      <trkpt lat="45.70909" lon="4.59717">
        <ele>586.54150390625</ele>
        <time>2010-11-13T09:51:26Z</time>
      </trkpt>
      <trkpt lat="45.70908" lon="4.59716">
        <ele>587.02197265625</ele>
        <time>2010-11-13T09:51:27Z</time>
      </trkpt>
      <trkpt lat="45.70901" lon="4.59703">
        <ele>587.9833984375</ele>
        <time>2010-11-13T09:51:36Z</time>
      </trkpt>
      <trkpt lat="45.70895" lon="4.59688">
        <ele>589.42553710938</ele>
        <time>2010-11-13T09:51:45Z</time>
      </trkpt>
      <trkpt lat="45.70891" lon="4.59676">
        <ele>591.82885742188</ele>
        <time>2010-11-13T09:51:52Z</time>
      </trkpt>
      <trkpt lat="45.70887" lon="4.5966">
        <ele>594.23217773438</ele>
        <time>2010-11-13T09:52:01Z</time>
      </trkpt>
      <trkpt lat="45.70882" lon="4.59647">
        <ele>597.11596679688</ele>
        <time>2010-11-13T09:52:09Z</time>
      </trkpt>
      <trkpt lat="45.70876" lon="4.59637">
        <ele>598.55786132812</ele>
        <time>2010-11-13T09:52:16Z</time>
      </trkpt>
      <trkpt lat="45.70868" lon="4.59621">
        <ele>600.96118164062</ele>
        <time>2010-11-13T09:52:26Z</time>
      </trkpt>
      <trkpt lat="45.7086" lon="4.59604">
        <ele>603.36450195312</ele>
        <time>2010-11-13T09:52:36Z</time>
      </trkpt>
      <trkpt lat="45.70858" lon="4.596">
        <ele>604.326171875</ele>
        <time>2010-11-13T09:52:38Z</time>
      </trkpt>
      <trkpt lat="45.70855" lon="4.59593">
        <ele>604.326171875</ele>
        <time>2010-11-13T09:52:43Z</time>
      </trkpt>
      <trkpt lat="45.70851" lon="4.59578">
        <ele>604.806640625</ele>
        <time>2010-11-13T09:52:51Z</time>
      </trkpt>
      <trkpt lat="45.70848" lon="4.59565">
        <ele>605.76806640625</ele>
        <time>2010-11-13T09:52:58Z</time>
      </trkpt>
      <trkpt lat="45.70845" lon="4.59548">
        <ele>607.2099609375</ele>
        <time>2010-11-13T09:53:06Z</time>
      </trkpt>
      <trkpt lat="45.70848" lon="4.59528">
        <ele>608.17138671875</ele>
        <time>2010-11-13T09:53:15Z</time>
      </trkpt>
      <trkpt lat="45.70853" lon="4.59512">
        <ele>608.65185546875</ele>
        <time>2010-11-13T09:53:22Z</time>
      </trkpt>
      <trkpt lat="45.70862" lon="4.59491">
        <ele>609.13256835938</ele>
        <time>2010-11-13T09:53:30Z</time>
      </trkpt>
      <trkpt lat="45.70869" lon="4.5947">
        <ele>610.57446289062</ele>
        <time>2010-11-13T09:53:38Z</time>
      </trkpt>
      <trkpt lat="45.70878" lon="4.59449">
        <ele>611.53588867188</ele>
        <time>2010-11-13T09:53:47Z</time>
      </trkpt>
      <trkpt lat="45.70886" lon="4.59433">
        <ele>613.45849609375</ele>
        <time>2010-11-13T09:53:55Z</time>
      </trkpt>
      <trkpt lat="45.70893" lon="4.5942">
        <ele>614.41967773438</ele>
        <time>2010-11-13T09:54:03Z</time>
      </trkpt>
      <trkpt lat="45.70897" lon="4.59412">
        <ele>615.86181640625</ele>
        <time>2010-11-13T09:54:08Z</time>
      </trkpt>
      <trkpt lat="45.70904" lon="4.59397">
        <ele>618.26489257812</ele>
        <time>2010-11-13T09:54:17Z</time>
      </trkpt>
      <trkpt lat="45.70911" lon="4.59385">
        <ele>619.70703125</ele>
        <time>2010-11-13T09:54:25Z</time>
      </trkpt>
      <trkpt lat="45.7092" lon="4.59376">
        <ele>620.66845703125</ele>
        <time>2010-11-13T09:54:33Z</time>
      </trkpt>
      <trkpt lat="45.70925" lon="4.5937">
        <ele>621.14916992188</ele>
        <time>2010-11-13T09:54:38Z</time>
      </trkpt>
      <trkpt lat="45.70923" lon="4.59362">
        <ele>623.07177734375</ele>
        <time>2010-11-13T09:54:43Z</time>
      </trkpt>
      <trkpt lat="45.70918" lon="4.5936">
        <ele>623.55249023438</ele>
        <time>2010-11-13T09:54:47Z</time>
      </trkpt>
      <trkpt lat="45.70907" lon="4.59363">
        <ele>624.99438476562</ele>
        <time>2010-11-13T09:54:56Z</time>
      </trkpt>
      <trkpt lat="45.70897" lon="4.59365">
        <ele>626.43627929688</ele>
        <time>2010-11-13T09:55:04Z</time>
      </trkpt>
      <trkpt lat="45.70884" lon="4.59367">
        <ele>627.87817382812</ele>
        <time>2010-11-13T09:55:14Z</time>
      </trkpt>
      <trkpt lat="45.70882" lon="4.59367">
        <ele>627.87817382812</ele>
        <time>2010-11-13T09:55:19Z</time>
      </trkpt>
      <trkpt lat="45.70882" lon="4.59368">
        <ele>628.83959960938</ele>
        <time>2010-11-13T09:55:27Z</time>
      </trkpt>
      <trkpt lat="45.70882" lon="4.59373">
        <ele>628.83959960938</ele>
        <time>2010-11-13T09:55:32Z</time>
      </trkpt>
      <trkpt lat="45.70881" lon="4.59373">
        <ele>628.35888671875</ele>
        <time>2010-11-13T09:55:43Z</time>
      </trkpt>
      <trkpt lat="45.70881" lon="4.59375">
        <ele>628.83959960938</ele>
        <time>2010-11-13T09:58:15Z</time>
      </trkpt>
      <trkpt lat="45.70882" lon="4.59374">
        <ele>628.83959960938</ele>
        <time>2010-11-13T09:58:23Z</time>
      </trkpt>
      <trkpt lat="45.70881" lon="4.59371">
        <ele>629.32006835938</ele>
        <time>2010-11-13T09:58:26Z</time>
      </trkpt>
      <trkpt lat="45.70879" lon="4.59371">
        <ele>630.28149414062</ele>
        <time>2010-11-13T09:58:28Z</time>
      </trkpt>
      <trkpt lat="45.70877" lon="4.59372">
        <ele>630.28149414062</ele>
        <time>2010-11-13T09:58:30Z</time>
      </trkpt>
      <trkpt lat="45.70871" lon="4.5937">
        <ele>630.76220703125</ele>
        <time>2010-11-13T09:58:36Z</time>
      </trkpt>
      <trkpt lat="45.70862" lon="4.59368">
        <ele>632.68481445312</ele>
        <time>2010-11-13T09:58:44Z</time>
      </trkpt>
      <trkpt lat="45.70853" lon="4.59371">
        <ele>635.08813476562</ele>
        <time>2010-11-13T09:58:52Z</time>
      </trkpt>
      <trkpt lat="45.70847" lon="4.59368">
        <ele>636.04956054688</ele>
        <time>2010-11-13T09:58:57Z</time>
      </trkpt>
      <trkpt lat="45.7084" lon="4.59367">
        <ele>637.49145507812</ele>
        <time>2010-11-13T09:59:04Z</time>
      </trkpt>
      <trkpt lat="45.7083" lon="4.59364">
        <ele>639.89477539062</ele>
        <time>2010-11-13T09:59:13Z</time>
      </trkpt>
      <trkpt lat="45.70827" lon="4.59364">
        <ele>640.85595703125</ele>
        <time>2010-11-13T09:59:16Z</time>
      </trkpt>
      <trkpt lat="45.70815" lon="4.59365">
        <ele>643.73999023438</ele>
        <time>2010-11-13T09:59:26Z</time>
      </trkpt>
      <trkpt lat="45.70806" lon="4.59369">
        <ele>644.220703125</ele>
        <time>2010-11-13T09:59:34Z</time>
      </trkpt>
      <trkpt lat="45.70793" lon="4.59379">
        <ele>645.66259765625</ele>
        <time>2010-11-13T09:59:44Z</time>
      </trkpt>
      <trkpt lat="45.70782" lon="4.59391">
        <ele>646.6240234375</ele>
        <time>2010-11-13T09:59:53Z</time>
      </trkpt>
      <trkpt lat="45.70773" lon="4.59399">
        <ele>647.58520507812</ele>
        <time>2010-11-13T10:00:00Z</time>
      </trkpt>
      <trkpt lat="45.70761" lon="4.59411">
        <ele>649.02709960938</ele>
        <time>2010-11-13T10:00:10Z</time>
      </trkpt>
      <trkpt lat="45.70748" lon="4.59419">
        <ele>650.94970703125</ele>
        <time>2010-11-13T10:00:20Z</time>
      </trkpt>
      <trkpt lat="45.70732" lon="4.59428">
        <ele>653.35327148438</ele>
        <time>2010-11-13T10:00:33Z</time>
      </trkpt>
      <trkpt lat="45.70723" lon="4.59432">
        <ele>656.23706054688</ele>
        <time>2010-11-13T10:00:41Z</time>
      </trkpt>
      <trkpt lat="45.70712" lon="4.59436">
        <ele>658.15991210938</ele>
        <time>2010-11-13T10:00:50Z</time>
      </trkpt>
      <trkpt lat="45.70704" lon="4.5944">
        <ele>660.56298828125</ele>
        <time>2010-11-13T10:00:58Z</time>
      </trkpt>
      <trkpt lat="45.70694" lon="4.59443">
        <ele>662.96630859375</ele>
        <time>2010-11-13T10:01:07Z</time>
      </trkpt>
      <trkpt lat="45.70692" lon="4.59443">
        <ele>662.96630859375</ele>
        <time>2010-11-13T10:01:09Z</time>
      </trkpt>
      <trkpt lat="45.7069" lon="4.59432">
        <ele>664.88891601562</ele>
        <time>2010-11-13T10:01:16Z</time>
      </trkpt>
      <trkpt lat="45.7069" lon="4.59431">
        <ele>664.88891601562</ele>
        <time>2010-11-13T10:01:17Z</time>
      </trkpt>
      <trkpt lat="45.70692" lon="4.59415">
        <ele>667.77270507812</ele>
        <time>2010-11-13T10:01:26Z</time>
      </trkpt>
      <trkpt lat="45.70696" lon="4.59402">
        <ele>669.21508789062</ele>
        <time>2010-11-13T10:01:33Z</time>
      </trkpt>
      <trkpt lat="45.70702" lon="4.59385">
        <ele>671.1376953125</ele>
        <time>2010-11-13T10:01:42Z</time>
      </trkpt>
      <trkpt lat="45.70707" lon="4.59371">
        <ele>672.57958984375</ele>
        <time>2010-11-13T10:01:50Z</time>
      </trkpt>
      <trkpt lat="45.7071" lon="4.59353">
        <ele>674.021484375</ele>
        <time>2010-11-13T10:01:59Z</time>
      </trkpt>
      <trkpt lat="45.70713" lon="4.59339">
        <ele>675.46337890625</ele>
        <time>2010-11-13T10:02:06Z</time>
      </trkpt>
      <trkpt lat="45.70715" lon="4.59324">
        <ele>676.90551757812</ele>
        <time>2010-11-13T10:02:13Z</time>
      </trkpt>
      <trkpt lat="45.70719" lon="4.59304">
        <ele>677.86669921875</ele>
        <time>2010-11-13T10:02:22Z</time>
      </trkpt>
      <trkpt lat="45.70721" lon="4.59294">
        <ele>679.30859375</ele>
        <time>2010-11-13T10:02:28Z</time>
      </trkpt>
      <trkpt lat="45.70726" lon="4.59278">
        <ele>681.2314453125</ele>
        <time>2010-11-13T10:02:36Z</time>
      </trkpt>
      <trkpt lat="45.70732" lon="4.59264">
        <ele>682.67333984375</ele>
        <time>2010-11-13T10:02:43Z</time>
      </trkpt>
      <trkpt lat="45.70739" lon="4.59248">
        <ele>683.63452148438</ele>
        <time>2010-11-13T10:02:51Z</time>
      </trkpt>
      <trkpt lat="45.70745" lon="4.59231">
        <ele>686.0380859375</ele>
        <time>2010-11-13T10:03:00Z</time>
      </trkpt>
      <trkpt lat="45.70752" lon="4.59219">
        <ele>687.47998046875</ele>
        <time>2010-11-13T10:03:08Z</time>
      </trkpt>
      <trkpt lat="45.70757" lon="4.59214">
        <ele>688.44140625</ele>
        <time>2010-11-13T10:03:13Z</time>
      </trkpt>
      <trkpt lat="45.70769" lon="4.5921">
        <ele>690.36401367188</ele>
        <time>2010-11-13T10:03:22Z</time>
      </trkpt>
      <trkpt lat="45.70779" lon="4.5921">
        <ele>691.3251953125</ele>
        <time>2010-11-13T10:03:30Z</time>
      </trkpt>
      <trkpt lat="45.70793" lon="4.5921">
        <ele>693.24780273438</ele>
        <time>2010-11-13T10:03:40Z</time>
      </trkpt>
      <trkpt lat="45.70805" lon="4.59209">
        <ele>694.68969726562</ele>
        <time>2010-11-13T10:03:48Z</time>
      </trkpt>
      <trkpt lat="45.70816" lon="4.59206">
        <ele>695.65112304688</ele>
        <time>2010-11-13T10:03:56Z</time>
      </trkpt>
      <trkpt lat="45.70827" lon="4.59201">
        <ele>697.57373046875</ele>
        <time>2010-11-13T10:04:05Z</time>
      </trkpt>
      <trkpt lat="45.70839" lon="4.59195">
        <ele>698.53491210938</ele>
        <time>2010-11-13T10:04:13Z</time>
      </trkpt>
      <trkpt lat="45.70851" lon="4.5919">
        <ele>699.97705078125</ele>
        <time>2010-11-13T10:04:21Z</time>
      </trkpt>
      <trkpt lat="45.70858" lon="4.59185">
        <ele>700.4580078125</ele>
        <time>2010-11-13T10:04:26Z</time>
      </trkpt>
      <trkpt lat="45.70868" lon="4.59184">
        <ele>701.41918945312</ele>
        <time>2010-11-13T10:04:33Z</time>
      </trkpt>
      <trkpt lat="45.70877" lon="4.59176">
        <ele>702.86108398438</ele>
        <time>2010-11-13T10:04:40Z</time>
      </trkpt>
      <trkpt lat="45.70882" lon="4.59164">
        <ele>702.86108398438</ele>
        <time>2010-11-13T10:04:45Z</time>
      </trkpt>
      <trkpt lat="45.70881" lon="4.59142">
        <ele>703.341796875</ele>
        <time>2010-11-13T10:04:53Z</time>
      </trkpt>
      <trkpt lat="45.70876" lon="4.59121">
        <ele>704.30322265625</ele>
        <time>2010-11-13T10:05:00Z</time>
      </trkpt>
      <trkpt lat="45.7087" lon="4.59105">
        <ele>705.26440429688</ele>
        <time>2010-11-13T10:05:06Z</time>
      </trkpt>
      <trkpt lat="45.70868" lon="4.591">
        <ele>705.7451171875</ele>
        <time>2010-11-13T10:05:08Z</time>
      </trkpt>
      <trkpt lat="45.70861" lon="4.5909">
        <ele>705.7451171875</ele>
        <time>2010-11-13T10:05:12Z</time>
      </trkpt>
      <trkpt lat="45.70851" lon="4.59072">
        <ele>707.18701171875</ele>
        <time>2010-11-13T10:05:19Z</time>
      </trkpt>
      <trkpt lat="45.7085" lon="4.59075">
        <ele>707.66772460938</ele>
        <time>2010-11-13T10:05:24Z</time>
      </trkpt>
      <trkpt lat="45.70853" lon="4.5908">
        <ele>709.10961914062</ele>
        <time>2010-11-13T10:05:27Z</time>
      </trkpt>
      <trkpt lat="45.70855" lon="4.59085">
        <ele>710.07080078125</ele>
        <time>2010-11-13T10:05:30Z</time>
      </trkpt>
      <trkpt lat="45.70855" lon="4.59096">
        <ele>711.51293945312</ele>
        <time>2010-11-13T10:05:36Z</time>
      </trkpt>
      <trkpt lat="45.70852" lon="4.59106">
        <ele>712.47412109375</ele>
        <time>2010-11-13T10:05:41Z</time>
      </trkpt>
      <trkpt lat="45.70847" lon="4.59115">
        <ele>712.95483398438</ele>
        <time>2010-11-13T10:05:46Z</time>
      </trkpt>
      <trkpt lat="45.70842" lon="4.5913">
        <ele>713.435546875</ele>
        <time>2010-11-13T10:05:53Z</time>
      </trkpt>
      <trkpt lat="45.70844" lon="4.59143">
        <ele>713.435546875</ele>
        <time>2010-11-13T10:05:57Z</time>
      </trkpt>
      <trkpt lat="45.70847" lon="4.59165">
        <ele>712.47412109375</ele>
        <time>2010-11-13T10:06:02Z</time>
      </trkpt>
      <trkpt lat="45.70846" lon="4.59167">
        <ele>712.47412109375</ele>
        <time>2010-11-13T10:06:08Z</time>
      </trkpt>
      <trkpt lat="45.70845" lon="4.59168">
        <ele>711.99365234375</ele>
        <time>2010-11-13T10:06:14Z</time>
      </trkpt>
      <trkpt lat="45.7085" lon="4.59169">
        <ele>711.99365234375</ele>
        <time>2010-11-13T10:06:20Z</time>
      </trkpt>
      <trkpt lat="45.70851" lon="4.59171">
        <ele>711.51293945312</ele>
        <time>2010-11-13T10:06:34Z</time>
      </trkpt>
      <trkpt lat="45.7085" lon="4.59169">
        <ele>711.99365234375</ele>
        <time>2010-11-13T10:06:54Z</time>
      </trkpt>
      <trkpt lat="45.70849" lon="4.59168">
        <ele>711.99365234375</ele>
        <time>2010-11-13T10:06:55Z</time>
      </trkpt>
      <trkpt lat="45.70846" lon="4.59153">
        <ele>712.95483398438</ele>
        <time>2010-11-13T10:07:01Z</time>
      </trkpt>
      <trkpt lat="45.70842" lon="4.59133">
        <ele>714.39672851562</ele>
        <time>2010-11-13T10:07:08Z</time>
      </trkpt>
      <trkpt lat="45.70842" lon="4.5913">
        <ele>713.916015625</ele>
        <time>2010-11-13T10:07:09Z</time>
      </trkpt>
      <trkpt lat="45.70835" lon="4.59125">
        <ele>715.8388671875</ele>
        <time>2010-11-13T10:07:14Z</time>
      </trkpt>
      <trkpt lat="45.7083" lon="4.59128">
        <ele>716.31958007812</ele>
        <time>2010-11-13T10:07:17Z</time>
      </trkpt>
      <trkpt lat="45.70827" lon="4.59127">
        <ele>716.80029296875</ele>
        <time>2010-11-13T10:07:20Z</time>
      </trkpt>
      <trkpt lat="45.70826" lon="4.59125">
        <ele>716.80029296875</ele>
        <time>2010-11-13T10:07:23Z</time>
      </trkpt>
      <trkpt lat="45.70828" lon="4.59133">
        <ele>716.80029296875</ele>
        <time>2010-11-13T10:07:26Z</time>
      </trkpt>
      <trkpt lat="45.70827" lon="4.5914">
        <ele>716.80029296875</ele>
        <time>2010-11-13T10:07:28Z</time>
      </trkpt>
      <trkpt lat="45.70827" lon="4.59157">
        <ele>715.35815429688</ele>
        <time>2010-11-13T10:07:35Z</time>
      </trkpt>
      <trkpt lat="45.70825" lon="4.59156">
        <ele>714.87744140625</ele>
        <time>2010-11-13T10:07:47Z</time>
      </trkpt>
      <trkpt lat="45.70824" lon="4.59157">
        <ele>715.35815429688</ele>
        <time>2010-11-13T10:07:53Z</time>
      </trkpt>
      <trkpt lat="45.7083" lon="4.59158">
        <ele>715.35815429688</ele>
        <time>2010-11-13T10:08:37Z</time>
      </trkpt>
      <trkpt lat="45.70831" lon="4.59153">
        <ele>715.8388671875</ele>
        <time>2010-11-13T10:08:40Z</time>
      </trkpt>
      <trkpt lat="45.70832" lon="4.59149">
        <ele>715.8388671875</ele>
        <time>2010-11-13T10:08:42Z</time>
      </trkpt>
      <trkpt lat="45.70834" lon="4.59133">
        <ele>717.28100585938</ele>
        <time>2010-11-13T10:08:48Z</time>
      </trkpt>
      <trkpt lat="45.70828" lon="4.59127">
        <ele>717.76147460938</ele>
        <time>2010-11-13T10:08:52Z</time>
      </trkpt>
      <trkpt lat="45.70826" lon="4.59127">
        <ele>718.2421875</ele>
        <time>2010-11-13T10:08:53Z</time>
      </trkpt>
      <trkpt lat="45.70812" lon="4.59108">
        <ele>719.20361328125</ele>
        <time>2010-11-13T10:09:01Z</time>
      </trkpt>
      <trkpt lat="45.7081" lon="4.591">
        <ele>719.20361328125</ele>
        <time>2010-11-13T10:09:03Z</time>
      </trkpt>
      <trkpt lat="45.70799" lon="4.59084">
        <ele>718.72290039062</ele>
        <time>2010-11-13T10:09:08Z</time>
      </trkpt>
      <trkpt lat="45.70789" lon="4.59073">
        <ele>718.2421875</ele>
        <time>2010-11-13T10:09:12Z</time>
      </trkpt>
      <trkpt lat="45.70782" lon="4.59063">
        <ele>718.72290039062</ele>
        <time>2010-11-13T10:09:15Z</time>
      </trkpt>
      <trkpt lat="45.70778" lon="4.59047">
        <ele>718.2421875</ele>
        <time>2010-11-13T10:09:19Z</time>
      </trkpt>
      <trkpt lat="45.70766" lon="4.59028">
        <ele>717.76147460938</ele>
        <time>2010-11-13T10:09:24Z</time>
      </trkpt>
      <trkpt lat="45.70763" lon="4.59022">
        <ele>718.2421875</ele>
        <time>2010-11-13T10:09:26Z</time>
      </trkpt>
      <trkpt lat="45.70754" lon="4.5899">
        <ele>717.76147460938</ele>
        <time>2010-11-13T10:09:33Z</time>
      </trkpt>
      <trkpt lat="45.70744" lon="4.5895">
        <ele>716.31958007812</ele>
        <time>2010-11-13T10:09:39Z</time>
      </trkpt>
      <trkpt lat="45.7074" lon="4.58935">
        <ele>715.35815429688</ele>
        <time>2010-11-13T10:09:41Z</time>
      </trkpt>
      <trkpt lat="45.70736" lon="4.58923">
        <ele>714.87744140625</ele>
        <time>2010-11-13T10:09:43Z</time>
      </trkpt>
      <trkpt lat="45.70735" lon="4.58909">
        <ele>713.916015625</ele>
        <time>2010-11-13T10:09:48Z</time>
      </trkpt>
      <trkpt lat="45.70724" lon="4.58911">
        <ele>714.39672851562</ele>
        <time>2010-11-13T10:09:52Z</time>
      </trkpt>
      <trkpt lat="45.70714" lon="4.58904">
        <ele>714.87744140625</ele>
        <time>2010-11-13T10:09:55Z</time>
      </trkpt>
      <trkpt lat="45.70713" lon="4.58894">
        <ele>714.87744140625</ele>
        <time>2010-11-13T10:09:57Z</time>
      </trkpt>
      <trkpt lat="45.70715" lon="4.58845">
        <ele>717.28100585938</ele>
        <time>2010-11-13T10:10:07Z</time>
      </trkpt>
      <trkpt lat="45.70715" lon="4.58814">
        <ele>718.72290039062</ele>
        <time>2010-11-13T10:10:14Z</time>
      </trkpt>
      <trkpt lat="45.70713" lon="4.58762">
        <ele>720.6455078125</ele>
        <time>2010-11-13T10:10:26Z</time>
      </trkpt>
      <trkpt lat="45.70709" lon="4.58737">
        <ele>722.08740234375</ele>
        <time>2010-11-13T10:10:32Z</time>
      </trkpt>
      <trkpt lat="45.70702" lon="4.58705">
        <ele>723.52954101562</ele>
        <time>2010-11-13T10:10:40Z</time>
      </trkpt>
      <trkpt lat="45.70691" lon="4.58656">
        <ele>724.97143554688</ele>
        <time>2010-11-13T10:10:52Z</time>
      </trkpt>
      <trkpt lat="45.70687" lon="4.58628">
        <ele>725.9326171875</ele>
        <time>2010-11-13T10:10:59Z</time>
      </trkpt>
      <trkpt lat="45.70685" lon="4.5858">
        <ele>726.41333007812</ele>
        <time>2010-11-13T10:11:10Z</time>
      </trkpt>
      <trkpt lat="45.70682" lon="4.58541">
        <ele>727.37475585938</ele>
        <time>2010-11-13T10:11:19Z</time>
      </trkpt>
      <trkpt lat="45.70676" lon="4.585">
        <ele>728.3359375</ele>
        <time>2010-11-13T10:11:28Z</time>
      </trkpt>
      <trkpt lat="45.70663" lon="4.58472">
        <ele>728.3359375</ele>
        <time>2010-11-13T10:11:35Z</time>
      </trkpt>
      <trkpt lat="45.70646" lon="4.58445">
        <ele>729.29711914062</ele>
        <time>2010-11-13T10:11:43Z</time>
      </trkpt>
      <trkpt lat="45.70623" lon="4.58424">
        <ele>729.77783203125</ele>
        <time>2010-11-13T10:11:51Z</time>
      </trkpt>
      <trkpt lat="45.70597" lon="4.5841">
        <ele>730.7392578125</ele>
        <time>2010-11-13T10:11:59Z</time>
      </trkpt>
      <trkpt lat="45.70558" lon="4.58395">
        <ele>731.70043945312</ele>
        <time>2010-11-13T10:12:10Z</time>
      </trkpt>
      <trkpt lat="45.70538" lon="4.58389">
        <ele>732.18139648438</ele>
        <time>2010-11-13T10:12:16Z</time>
      </trkpt>
      <trkpt lat="45.70516" lon="4.58395">
        <ele>732.662109375</ele>
        <time>2010-11-13T10:12:22Z</time>
      </trkpt>
      <trkpt lat="45.70478" lon="4.58412">
        <ele>733.142578125</ele>
        <time>2010-11-13T10:12:32Z</time>
      </trkpt>
      <trkpt lat="45.70452" lon="4.5842">
        <ele>733.62329101562</ele>
        <time>2010-11-13T10:12:39Z</time>
      </trkpt>
      <trkpt lat="45.70417" lon="4.58421">
        <ele>733.62329101562</ele>
        <time>2010-11-13T10:12:48Z</time>
      </trkpt>
      <trkpt lat="45.70413" lon="4.58421">
        <ele>734.58471679688</ele>
        <time>2010-11-13T10:12:49Z</time>
      </trkpt>
      <trkpt lat="45.7038" lon="4.58404">
        <ele>734.58471679688</ele>
        <time>2010-11-13T10:12:58Z</time>
      </trkpt>
      <trkpt lat="45.70355" lon="4.58381">
        <ele>735.5458984375</ele>
        <time>2010-11-13T10:13:06Z</time>
      </trkpt>
      <trkpt lat="45.70338" lon="4.58356">
        <ele>736.02661132812</ele>
        <time>2010-11-13T10:13:12Z</time>
      </trkpt>
      <trkpt lat="45.70318" lon="4.5832">
        <ele>736.50732421875</ele>
        <time>2010-11-13T10:13:20Z</time>
      </trkpt>
      <trkpt lat="45.70306" lon="4.58291">
        <ele>736.98779296875</ele>
        <time>2010-11-13T10:13:26Z</time>
      </trkpt>
      <trkpt lat="45.70296" lon="4.58249">
        <ele>737.46850585938</ele>
        <time>2010-11-13T10:13:34Z</time>
      </trkpt>
      <trkpt lat="45.70296" lon="4.58222">
        <ele>737.94921875</ele>
        <time>2010-11-13T10:13:39Z</time>
      </trkpt>
      <trkpt lat="45.70303" lon="4.58188">
        <ele>738.42993164062</ele>
        <time>2010-11-13T10:13:45Z</time>
      </trkpt>
      <trkpt lat="45.7031" lon="4.58166">
        <ele>738.91064453125</ele>
        <time>2010-11-13T10:13:49Z</time>
      </trkpt>
      <trkpt lat="45.70319" lon="4.58143">
        <ele>738.91064453125</ele>
        <time>2010-11-13T10:13:53Z</time>
      </trkpt>
      <trkpt lat="45.7033" lon="4.58108">
        <ele>740.3525390625</ele>
        <time>2010-11-13T10:13:59Z</time>
      </trkpt>
      <trkpt lat="45.70332" lon="4.58091">
        <ele>739.87182617188</ele>
        <time>2010-11-13T10:14:02Z</time>
      </trkpt>
      <trkpt lat="45.70332" lon="4.58075">
        <ele>740.3525390625</ele>
        <time>2010-11-13T10:14:05Z</time>
      </trkpt>
      <trkpt lat="45.70324" lon="4.58047">
        <ele>740.8330078125</ele>
        <time>2010-11-13T10:14:10Z</time>
      </trkpt>
      <trkpt lat="45.70311" lon="4.58023">
        <ele>740.8330078125</ele>
        <time>2010-11-13T10:14:15Z</time>
      </trkpt>
      <trkpt lat="45.70295" lon="4.57975">
        <ele>741.79443359375</ele>
        <time>2010-11-13T10:14:24Z</time>
      </trkpt>
      <trkpt lat="45.70287" lon="4.57937">
        <ele>742.755859375</ele>
        <time>2010-11-13T10:14:31Z</time>
      </trkpt>
      <trkpt lat="45.70285" lon="4.57926">
        <ele>743.236328125</ele>
        <time>2010-11-13T10:14:33Z</time>
      </trkpt>
      <trkpt lat="45.70276" lon="4.57887">
        <ele>742.755859375</ele>
        <time>2010-11-13T10:14:40Z</time>
      </trkpt>
      <trkpt lat="45.70274" lon="4.57864">
        <ele>743.71704101562</ele>
        <time>2010-11-13T10:14:44Z</time>
      </trkpt>
      <trkpt lat="45.70272" lon="4.57852">
        <ele>743.71704101562</ele>
        <time>2010-11-13T10:14:46Z</time>
      </trkpt>
      <trkpt lat="45.7027" lon="4.57829">
        <ele>744.19775390625</ele>
        <time>2010-11-13T10:14:50Z</time>
      </trkpt>
      <trkpt lat="45.70273" lon="4.57783">
        <ele>745.15893554688</ele>
        <time>2010-11-13T10:14:58Z</time>
      </trkpt>
      <trkpt lat="45.70275" lon="4.57731">
        <ele>746.12036132812</ele>
        <time>2010-11-13T10:15:07Z</time>
      </trkpt>
      <trkpt lat="45.70274" lon="4.57684">
        <ele>746.60107421875</ele>
        <time>2010-11-13T10:15:15Z</time>
      </trkpt>
      <trkpt lat="45.70263" lon="4.57648">
        <ele>747.56225585938</ele>
        <time>2010-11-13T10:15:22Z</time>
      </trkpt>
      <trkpt lat="45.7024" lon="4.57599">
        <ele>748.52368164062</ele>
        <time>2010-11-13T10:15:32Z</time>
      </trkpt>
      <trkpt lat="45.70233" lon="4.57583">
        <ele>748.52368164062</ele>
        <time>2010-11-13T10:15:35Z</time>
      </trkpt>
      <trkpt lat="45.70227" lon="4.57568">
        <ele>748.52368164062</ele>
        <time>2010-11-13T10:15:38Z</time>
      </trkpt>
      <trkpt lat="45.70218" lon="4.57521">
        <ele>749.9658203125</ele>
        <time>2010-11-13T10:15:46Z</time>
      </trkpt>
      <trkpt lat="45.70218" lon="4.57493">
        <ele>750.44653320312</ele>
        <time>2010-11-13T10:15:51Z</time>
      </trkpt>
      <trkpt lat="45.70226" lon="4.57468">
        <ele>751.40771484375</ele>
        <time>2010-11-13T10:15:55Z</time>
      </trkpt>
      <trkpt lat="45.70234" lon="4.57449">
        <ele>751.40771484375</ele>
        <time>2010-11-13T10:15:58Z</time>
      </trkpt>
      <trkpt lat="45.70238" lon="4.57425">
        <ele>751.88842773438</ele>
        <time>2010-11-13T10:16:02Z</time>
      </trkpt>
      <trkpt lat="45.70238" lon="4.5737">
        <ele>753.33032226562</ele>
        <time>2010-11-13T10:16:11Z</time>
      </trkpt>
      <trkpt lat="45.70237" lon="4.57352">
        <ele>752.849609375</ele>
        <time>2010-11-13T10:16:14Z</time>
      </trkpt>
      <trkpt lat="45.70235" lon="4.5731">
        <ele>753.81103515625</ele>
        <time>2010-11-13T10:16:21Z</time>
      </trkpt>
      <trkpt lat="45.70233" lon="4.57278">
        <ele>753.81103515625</ele>
        <time>2010-11-13T10:16:26Z</time>
      </trkpt>
      <trkpt lat="45.7023" lon="4.57255">
        <ele>753.81103515625</ele>
        <time>2010-11-13T10:16:30Z</time>
      </trkpt>
      <trkpt lat="45.7023" lon="4.57224">
        <ele>753.81103515625</ele>
        <time>2010-11-13T10:16:35Z</time>
      </trkpt>
      <trkpt lat="45.70228" lon="4.57158">
        <ele>754.77221679688</ele>
        <time>2010-11-13T10:16:46Z</time>
      </trkpt>
      <trkpt lat="45.70225" lon="4.57102">
        <ele>755.73364257812</ele>
        <time>2010-11-13T10:16:55Z</time>
      </trkpt>
      <trkpt lat="45.70216" lon="4.57049">
        <ele>757.17553710938</ele>
        <time>2010-11-13T10:17:04Z</time>
      </trkpt>
      <trkpt lat="45.70205" lon="4.57007">
        <ele>757.65625</ele>
        <time>2010-11-13T10:17:11Z</time>
      </trkpt>
      <trkpt lat="45.70199" lon="4.5699">
        <ele>758.13696289062</ele>
        <time>2010-11-13T10:17:14Z</time>
      </trkpt>
      <trkpt lat="45.70193" lon="4.56978">
        <ele>758.13696289062</ele>
        <time>2010-11-13T10:17:16Z</time>
      </trkpt>
      <trkpt lat="45.70187" lon="4.56961">
        <ele>759.09814453125</ele>
        <time>2010-11-13T10:17:19Z</time>
      </trkpt>
      <trkpt lat="45.70174" lon="4.56936">
        <ele>759.57885742188</ele>
        <time>2010-11-13T10:17:24Z</time>
      </trkpt>
      <trkpt lat="45.70158" lon="4.56916">
        <ele>759.57885742188</ele>
        <time>2010-11-13T10:17:29Z</time>
      </trkpt>
      <trkpt lat="45.70139" lon="4.56912">
        <ele>760.5400390625</ele>
        <time>2010-11-13T10:17:34Z</time>
      </trkpt>
      <trkpt lat="45.70132" lon="4.56918">
        <ele>760.5400390625</ele>
        <time>2010-11-13T10:17:36Z</time>
      </trkpt>
      <trkpt lat="45.70111" lon="4.56946">
        <ele>761.50146484375</ele>
        <time>2010-11-13T10:17:43Z</time>
      </trkpt>
      <trkpt lat="45.70098" lon="4.56968">
        <ele>761.98217773438</ele>
        <time>2010-11-13T10:17:48Z</time>
      </trkpt>
      <trkpt lat="45.70078" lon="4.56993">
        <ele>762.943359375</ele>
        <time>2010-11-13T10:17:54Z</time>
      </trkpt>
      <trkpt lat="45.70058" lon="4.57017">
        <ele>763.42407226562</ele>
        <time>2010-11-13T10:18:00Z</time>
      </trkpt>
      <trkpt lat="45.70036" lon="4.57035">
        <ele>764.38549804688</ele>
        <time>2010-11-13T10:18:06Z</time>
      </trkpt>
      <trkpt lat="45.70012" lon="4.57035">
        <ele>765.34692382812</ele>
        <time>2010-11-13T10:18:12Z</time>
      </trkpt>
      <trkpt lat="45.69988" lon="4.57037">
        <ele>766.30810546875</ele>
        <time>2010-11-13T10:18:18Z</time>
      </trkpt>
      <trkpt lat="45.69972" lon="4.57044">
        <ele>766.30810546875</ele>
        <time>2010-11-13T10:18:22Z</time>
      </trkpt>
      <trkpt lat="45.69955" lon="4.57065">
        <ele>766.78881835938</ele>
        <time>2010-11-13T10:18:28Z</time>
      </trkpt>
      <trkpt lat="45.69949" lon="4.57093">
        <ele>767.26953125</ele>
        <time>2010-11-13T10:18:34Z</time>
      </trkpt>
      <trkpt lat="45.69941" lon="4.57118">
        <ele>767.75</ele>
        <time>2010-11-13T10:18:39Z</time>
      </trkpt>
      <trkpt lat="45.69934" lon="4.57133">
        <ele>768.23071289062</ele>
        <time>2010-11-13T10:18:42Z</time>
      </trkpt>
      <trkpt lat="45.6991" lon="4.57164">
        <ele>769.19213867188</ele>
        <time>2010-11-13T10:18:49Z</time>
      </trkpt>
      <trkpt lat="45.69892" lon="4.57194">
        <ele>770.63403320312</ele>
        <time>2010-11-13T10:18:55Z</time>
      </trkpt>
      <trkpt lat="45.69882" lon="4.57215">
        <ele>771.11474609375</ele>
        <time>2010-11-13T10:18:59Z</time>
      </trkpt>
      <trkpt lat="45.69871" lon="4.57232">
        <ele>772.07592773438</ele>
        <time>2010-11-13T10:19:04Z</time>
      </trkpt>
      <trkpt lat="45.69859" lon="4.5725">
        <ele>772.556640625</ele>
        <time>2010-11-13T10:19:09Z</time>
      </trkpt>
      <trkpt lat="45.69845" lon="4.57267">
        <ele>773.51806640625</ele>
        <time>2010-11-13T10:19:15Z</time>
      </trkpt>
      <trkpt lat="45.69828" lon="4.57289">
        <ele>774.47924804688</ele>
        <time>2010-11-13T10:19:21Z</time>
      </trkpt>
      <trkpt lat="45.6981" lon="4.57302">
        <ele>775.92114257812</ele>
        <time>2010-11-13T10:19:27Z</time>
      </trkpt>
      <trkpt lat="45.69788" lon="4.57304">
        <ele>776.40185546875</ele>
        <time>2010-11-13T10:19:33Z</time>
      </trkpt>
      <trkpt lat="45.69771" lon="4.57305">
        <ele>776.88256835938</ele>
        <time>2010-11-13T10:19:38Z</time>
      </trkpt>
      <trkpt lat="45.69756" lon="4.57314">
        <ele>777.84375</ele>
        <time>2010-11-13T10:19:43Z</time>
      </trkpt>
      <trkpt lat="45.69745" lon="4.57328">
        <ele>777.84375</ele>
        <time>2010-11-13T10:19:47Z</time>
      </trkpt>
      <trkpt lat="45.69738" lon="4.57339">
        <ele>778.80517578125</ele>
        <time>2010-11-13T10:19:51Z</time>
      </trkpt>
      <trkpt lat="45.69729" lon="4.5735">
        <ele>779.28564453125</ele>
        <time>2010-11-13T10:19:56Z</time>
      </trkpt>
      <trkpt lat="45.69719" lon="4.57366">
        <ele>779.76635742188</ele>
        <time>2010-11-13T10:20:01Z</time>
      </trkpt>
      <trkpt lat="45.69708" lon="4.57383">
        <ele>780.72802734375</ele>
        <time>2010-11-13T10:20:06Z</time>
      </trkpt>
      <trkpt lat="45.69697" lon="4.57407">
        <ele>781.20874023438</ele>
        <time>2010-11-13T10:20:12Z</time>
      </trkpt>
      <trkpt lat="45.6968" lon="4.57428">
        <ele>782.169921875</ele>
        <time>2010-11-13T10:20:18Z</time>
      </trkpt>
      <trkpt lat="45.69664" lon="4.57447">
        <ele>783.13110351562</ele>
        <time>2010-11-13T10:20:23Z</time>
      </trkpt>
      <trkpt lat="45.69645" lon="4.57466">
        <ele>784.09252929688</ele>
        <time>2010-11-13T10:20:29Z</time>
      </trkpt>
      <trkpt lat="45.69628" lon="4.5748">
        <ele>785.53442382812</ele>
        <time>2010-11-13T10:20:35Z</time>
      </trkpt>
      <trkpt lat="45.6959" lon="4.57504">
        <ele>786.97631835938</ele>
        <time>2010-11-13T10:20:47Z</time>
      </trkpt>
      <trkpt lat="45.69563" lon="4.57525">
        <ele>787.93774414062</ele>
        <time>2010-11-13T10:20:56Z</time>
      </trkpt>
      <trkpt lat="45.69532" lon="4.57539">
        <ele>789.37963867188</ele>
        <time>2010-11-13T10:21:07Z</time>
      </trkpt>
      <trkpt lat="45.69502" lon="4.57544">
        <ele>791.30224609375</ele>
        <time>2010-11-13T10:21:17Z</time>
      </trkpt>
      <trkpt lat="45.6948" lon="4.57534">
        <ele>791.78295898438</ele>
        <time>2010-11-13T10:21:25Z</time>
      </trkpt>
      <trkpt lat="45.69466" lon="4.5752">
        <ele>792.74438476562</ele>
        <time>2010-11-13T10:21:31Z</time>
      </trkpt>
      <trkpt lat="45.69445" lon="4.57496">
        <ele>792.263671875</ele>
        <time>2010-11-13T10:21:38Z</time>
      </trkpt>
      <trkpt lat="45.69415" lon="4.57465">
        <ele>790.34106445312</ele>
        <time>2010-11-13T10:21:46Z</time>
      </trkpt>
      <trkpt lat="45.69381" lon="4.5743">
        <ele>788.41845703125</ele>
        <time>2010-11-13T10:21:54Z</time>
      </trkpt>
      <trkpt lat="45.69377" lon="4.57426">
        <ele>787.93774414062</ele>
        <time>2010-11-13T10:21:55Z</time>
      </trkpt>
      <trkpt lat="45.69364" lon="4.57417">
        <ele>786.97631835938</ele>
        <time>2010-11-13T10:21:58Z</time>
      </trkpt>
      <trkpt lat="45.69326" lon="4.57408">
        <ele>787.93774414062</ele>
        <time>2010-11-13T10:22:05Z</time>
      </trkpt>
      <trkpt lat="45.69308" lon="4.57402">
        <ele>787.45703125</ele>
        <time>2010-11-13T10:22:08Z</time>
      </trkpt>
      <trkpt lat="45.69286" lon="4.57385">
        <ele>786.49584960938</ele>
        <time>2010-11-13T10:22:12Z</time>
      </trkpt>
      <trkpt lat="45.69273" lon="4.57366">
        <ele>786.01513671875</ele>
        <time>2010-11-13T10:22:15Z</time>
      </trkpt>
      <trkpt lat="45.6926" lon="4.57334">
        <ele>785.05395507812</ele>
        <time>2010-11-13T10:22:19Z</time>
      </trkpt>
      <trkpt lat="45.69249" lon="4.57291">
        <ele>784.09252929688</ele>
        <time>2010-11-13T10:22:24Z</time>
      </trkpt>
      <trkpt lat="45.69232" lon="4.57265">
        <ele>783.61181640625</ele>
        <time>2010-11-13T10:22:28Z</time>
      </trkpt>
      <trkpt lat="45.69213" lon="4.57264">
        <ele>783.13110351562</ele>
        <time>2010-11-13T10:22:31Z</time>
      </trkpt>
      <trkpt lat="45.69181" lon="4.57253">
        <ele>782.169921875</ele>
        <time>2010-11-13T10:22:36Z</time>
      </trkpt>
      <trkpt lat="45.69177" lon="4.57245">
        <ele>781.20874023438</ele>
        <time>2010-11-13T10:22:37Z</time>
      </trkpt>
      <trkpt lat="45.69156" lon="4.57192">
        <ele>780.72802734375</ele>
        <time>2010-11-13T10:22:43Z</time>
      </trkpt>
      <trkpt lat="45.69131" lon="4.5716">
        <ele>779.76635742188</ele>
        <time>2010-11-13T10:22:48Z</time>
      </trkpt>
      <trkpt lat="45.69111" lon="4.57166">
        <ele>778.32446289062</ele>
        <time>2010-11-13T10:22:51Z</time>
      </trkpt>
      <trkpt lat="45.69098" lon="4.57191">
        <ele>778.80517578125</ele>
        <time>2010-11-13T10:22:54Z</time>
      </trkpt>
      <trkpt lat="45.691" lon="4.57228">
        <ele>778.32446289062</ele>
        <time>2010-11-13T10:22:57Z</time>
      </trkpt>
      <trkpt lat="45.69095" lon="4.5727">
        <ele>778.32446289062</ele>
        <time>2010-11-13T10:23:01Z</time>
      </trkpt>
      <trkpt lat="45.69078" lon="4.5731">
        <ele>776.88256835938</ele>
        <time>2010-11-13T10:23:05Z</time>
      </trkpt>
      <trkpt lat="45.69065" lon="4.57322">
        <ele>777.36328125</ele>
        <time>2010-11-13T10:23:07Z</time>
      </trkpt>
      <trkpt lat="45.6904" lon="4.57348">
        <ele>776.88256835938</ele>
        <time>2010-11-13T10:23:11Z</time>
      </trkpt>
      <trkpt lat="45.69007" lon="4.57404">
        <ele>776.88256835938</ele>
        <time>2010-11-13T10:23:18Z</time>
      </trkpt>
      <trkpt lat="45.69003" lon="4.57411">
        <ele>777.36328125</ele>
        <time>2010-11-13T10:23:19Z</time>
      </trkpt>
      <trkpt lat="45.68976" lon="4.57433">
        <ele>776.88256835938</ele>
        <time>2010-11-13T10:23:24Z</time>
      </trkpt>
      <trkpt lat="45.68956" lon="4.57429">
        <ele>775.92114257812</ele>
        <time>2010-11-13T10:23:28Z</time>
      </trkpt>
      <trkpt lat="45.68945" lon="4.57421">
        <ele>775.92114257812</ele>
        <time>2010-11-13T10:23:31Z</time>
      </trkpt>
      <trkpt lat="45.68932" lon="4.57415">
        <ele>776.40185546875</ele>
        <time>2010-11-13T10:23:34Z</time>
      </trkpt>
      <trkpt lat="45.68908" lon="4.57419">
        <ele>776.40185546875</ele>
        <time>2010-11-13T10:23:39Z</time>
      </trkpt>
      <trkpt lat="45.6889" lon="4.57441">
        <ele>775.92114257812</ele>
        <time>2010-11-13T10:23:43Z</time>
      </trkpt>
      <trkpt lat="45.68883" lon="4.57466">
        <ele>775.92114257812</ele>
        <time>2010-11-13T10:23:46Z</time>
      </trkpt>
      <trkpt lat="45.68876" lon="4.57542">
        <ele>774.47924804688</ele>
        <time>2010-11-13T10:23:54Z</time>
      </trkpt>
      <trkpt lat="45.6887" lon="4.57593">
        <ele>773.03735351562</ele>
        <time>2010-11-13T10:23:59Z</time>
      </trkpt>
      <trkpt lat="45.68857" lon="4.57632">
        <ele>773.51806640625</ele>
        <time>2010-11-13T10:24:03Z</time>
      </trkpt>
      <trkpt lat="45.6884" lon="4.57648">
        <ele>772.556640625</ele>
        <time>2010-11-13T10:24:06Z</time>
      </trkpt>
      <trkpt lat="45.68792" lon="4.57679">
        <ele>773.03735351562</ele>
        <time>2010-11-13T10:24:14Z</time>
      </trkpt>
      <trkpt lat="45.68763" lon="4.5768">
        <ele>772.556640625</ele>
        <time>2010-11-13T10:24:19Z</time>
      </trkpt>
      <trkpt lat="45.68724" lon="4.57675">
        <ele>773.51806640625</ele>
        <time>2010-11-13T10:24:26Z</time>
      </trkpt>
      <trkpt lat="45.68714" lon="4.57674">
        <ele>774.47924804688</ele>
        <time>2010-11-13T10:24:28Z</time>
      </trkpt>
      <trkpt lat="45.68673" lon="4.5767">
        <ele>775.92114257812</ele>
        <time>2010-11-13T10:24:37Z</time>
      </trkpt>
      <trkpt lat="45.68641" lon="4.57665">
        <ele>775.92114257812</ele>
        <time>2010-11-13T10:24:45Z</time>
      </trkpt>
      <trkpt lat="45.68605" lon="4.57654">
        <ele>775.92114257812</ele>
        <time>2010-11-13T10:24:53Z</time>
      </trkpt>
      <trkpt lat="45.68576" lon="4.57646">
        <ele>775.4404296875</ele>
        <time>2010-11-13T10:24:59Z</time>
      </trkpt>
      <trkpt lat="45.68533" lon="4.57631">
        <ele>775.92114257812</ele>
        <time>2010-11-13T10:25:08Z</time>
      </trkpt>
      <trkpt lat="45.68502" lon="4.5762">
        <ele>776.40185546875</ele>
        <time>2010-11-13T10:25:15Z</time>
      </trkpt>
      <trkpt lat="45.68466" lon="4.57604">
        <ele>776.88256835938</ele>
        <time>2010-11-13T10:25:25Z</time>
      </trkpt>
      <trkpt lat="45.68439" lon="4.57587">
        <ele>778.80517578125</ele>
        <time>2010-11-13T10:25:33Z</time>
      </trkpt>
      <trkpt lat="45.68422" lon="4.57562">
        <ele>778.80517578125</ele>
        <time>2010-11-13T10:25:39Z</time>
      </trkpt>
      <trkpt lat="45.68391" lon="4.57519">
        <ele>778.32446289062</ele>
        <time>2010-11-13T10:25:48Z</time>
      </trkpt>
      <trkpt lat="45.68361" lon="4.57491">
        <ele>777.84375</ele>
        <time>2010-11-13T10:25:55Z</time>
      </trkpt>
      <trkpt lat="45.68315" lon="4.57468">
        <ele>777.36328125</ele>
        <time>2010-11-13T10:26:04Z</time>
      </trkpt>
      <trkpt lat="45.68295" lon="4.57457">
        <ele>776.88256835938</ele>
        <time>2010-11-13T10:26:08Z</time>
      </trkpt>
      <trkpt lat="45.6827" lon="4.57425">
        <ele>776.40185546875</ele>
        <time>2010-11-13T10:26:14Z</time>
      </trkpt>
      <trkpt lat="45.68246" lon="4.5736">
        <ele>775.92114257812</ele>
        <time>2010-11-13T10:26:23Z</time>
      </trkpt>
      <trkpt lat="45.68219" lon="4.57312">
        <ele>773.99853515625</ele>
        <time>2010-11-13T10:26:30Z</time>
      </trkpt>
      <trkpt lat="45.68198" lon="4.57278">
        <ele>772.07592773438</ele>
        <time>2010-11-13T10:26:35Z</time>
      </trkpt>
      <trkpt lat="45.68186" lon="4.57234">
        <ele>771.59521484375</ele>
        <time>2010-11-13T10:26:40Z</time>
      </trkpt>
      <trkpt lat="45.68185" lon="4.57214">
        <ele>771.11474609375</ele>
        <time>2010-11-13T10:26:42Z</time>
      </trkpt>
      <trkpt lat="45.68193" lon="4.57139">
        <ele>769.6728515625</ele>
        <time>2010-11-13T10:26:50Z</time>
      </trkpt>
      <trkpt lat="45.68207" lon="4.57091">
        <ele>768.71142578125</ele>
        <time>2010-11-13T10:26:56Z</time>
      </trkpt>
      <trkpt lat="45.68215" lon="4.57034">
        <ele>767.75</ele>
        <time>2010-11-13T10:27:03Z</time>
      </trkpt>
      <trkpt lat="45.68213" lon="4.56987">
        <ele>764.8662109375</ele>
        <time>2010-11-13T10:27:08Z</time>
      </trkpt>
      <trkpt lat="45.68204" lon="4.56895">
        <ele>763.42407226562</ele>
        <time>2010-11-13T10:27:17Z</time>
      </trkpt>
      <trkpt lat="45.68188" lon="4.56873">
        <ele>761.02075195312</ele>
        <time>2010-11-13T10:27:20Z</time>
      </trkpt>
      <trkpt lat="45.68166" lon="4.56876">
        <ele>760.05932617188</ele>
        <time>2010-11-13T10:27:23Z</time>
      </trkpt>
      <trkpt lat="45.68154" lon="4.56885">
        <ele>759.57885742188</ele>
        <time>2010-11-13T10:27:25Z</time>
      </trkpt>
      <trkpt lat="45.68142" lon="4.56896">
        <ele>759.09814453125</ele>
        <time>2010-11-13T10:27:27Z</time>
      </trkpt>
      <trkpt lat="45.68113" lon="4.56909">
        <ele>757.65625</ele>
        <time>2010-11-13T10:27:31Z</time>
      </trkpt>
      <trkpt lat="45.6809" lon="4.56904">
        <ele>756.69482421875</ele>
        <time>2010-11-13T10:27:34Z</time>
      </trkpt>
      <trkpt lat="45.68051" lon="4.56889">
        <ele>754.77221679688</ele>
        <time>2010-11-13T10:27:39Z</time>
      </trkpt>
      <trkpt lat="45.6801" lon="4.5689">
        <ele>753.33032226562</ele>
        <time>2010-11-13T10:27:44Z</time>
      </trkpt>
      <trkpt lat="45.67971" lon="4.569">
        <ele>751.40771484375</ele>
        <time>2010-11-13T10:27:49Z</time>
      </trkpt>
      <trkpt lat="45.6793" lon="4.5691">
        <ele>749.00439453125</ele>
        <time>2010-11-13T10:27:54Z</time>
      </trkpt>
      <trkpt lat="45.67896" lon="4.56901">
        <ele>747.56225585938</ele>
        <time>2010-11-13T10:27:58Z</time>
      </trkpt>
      <trkpt lat="45.67887" lon="4.56896">
        <ele>746.60107421875</ele>
        <time>2010-11-13T10:27:59Z</time>
      </trkpt>
      <trkpt lat="45.67812" lon="4.5683">
        <ele>743.71704101562</ele>
        <time>2010-11-13T10:28:09Z</time>
      </trkpt>
      <trkpt lat="45.67804" lon="4.56826">
        <ele>743.236328125</ele>
        <time>2010-11-13T10:28:10Z</time>
      </trkpt>
      <trkpt lat="45.67756" lon="4.56821">
        <ele>742.755859375</ele>
        <time>2010-11-13T10:28:16Z</time>
      </trkpt>
      <trkpt lat="45.67682" lon="4.56829">
        <ele>739.87182617188</ele>
        <time>2010-11-13T10:28:25Z</time>
      </trkpt>
      <trkpt lat="45.67674" lon="4.56829">
        <ele>739.87182617188</ele>
        <time>2010-11-13T10:28:26Z</time>
      </trkpt>
      <trkpt lat="45.67649" lon="4.56821">
        <ele>738.42993164062</ele>
        <time>2010-11-13T10:28:29Z</time>
      </trkpt>
      <trkpt lat="45.67586" lon="4.56789">
        <ele>736.98779296875</ele>
        <time>2010-11-13T10:28:37Z</time>
      </trkpt>
      <trkpt lat="45.6757" lon="4.56785">
        <ele>736.02661132812</ele>
        <time>2010-11-13T10:28:39Z</time>
      </trkpt>
      <trkpt lat="45.67521" lon="4.56782">
        <ele>735.0654296875</ele>
        <time>2010-11-13T10:28:45Z</time>
      </trkpt>
      <trkpt lat="45.67455" lon="4.56786">
        <ele>732.18139648438</ele>
        <time>2010-11-13T10:28:53Z</time>
      </trkpt>
      <trkpt lat="45.67447" lon="4.56786">
        <ele>732.18139648438</ele>
        <time>2010-11-13T10:28:54Z</time>
      </trkpt>
      <trkpt lat="45.6743" lon="4.56783">
        <ele>731.21997070312</ele>
        <time>2010-11-13T10:28:56Z</time>
      </trkpt>
      <trkpt lat="45.67408" lon="4.56765">
        <ele>731.21997070312</ele>
        <time>2010-11-13T10:28:59Z</time>
      </trkpt>
      <trkpt lat="45.67395" lon="4.56749">
        <ele>730.25854492188</ele>
        <time>2010-11-13T10:29:01Z</time>
      </trkpt>
      <trkpt lat="45.67367" lon="4.56725">
        <ele>729.29711914062</ele>
        <time>2010-11-13T10:29:05Z</time>
      </trkpt>
      <trkpt lat="45.67314" lon="4.56704">
        <ele>727.37475585938</ele>
        <time>2010-11-13T10:29:12Z</time>
      </trkpt>
      <trkpt lat="45.67307" lon="4.56703">
        <ele>727.85522460938</ele>
        <time>2010-11-13T10:29:13Z</time>
      </trkpt>
      <trkpt lat="45.67273" lon="4.56712">
        <ele>727.85522460938</ele>
        <time>2010-11-13T10:29:18Z</time>
      </trkpt>
      <trkpt lat="45.6725" lon="4.56721">
        <ele>728.81665039062</ele>
        <time>2010-11-13T10:29:22Z</time>
      </trkpt>
      <trkpt lat="45.67226" lon="4.56717">
        <ele>728.81665039062</ele>
        <time>2010-11-13T10:29:27Z</time>
      </trkpt>
      <trkpt lat="45.6721" lon="4.56697">
        <ele>730.25854492188</ele>
        <time>2010-11-13T10:29:32Z</time>
      </trkpt>
      <trkpt lat="45.67207" lon="4.56688">
        <ele>731.21997070312</ele>
        <time>2010-11-13T10:29:34Z</time>
      </trkpt>
      <trkpt lat="45.67203" lon="4.56659">
        <ele>732.18139648438</ele>
        <time>2010-11-13T10:29:40Z</time>
      </trkpt>
      <trkpt lat="45.67204" lon="4.56642">
        <ele>732.662109375</ele>
        <time>2010-11-13T10:29:44Z</time>
      </trkpt>
      <trkpt lat="45.67208" lon="4.56606">
        <ele>734.10400390625</ele>
        <time>2010-11-13T10:29:52Z</time>
      </trkpt>
      <trkpt lat="45.67217" lon="4.56559">
        <ele>735.0654296875</ele>
        <time>2010-11-13T10:30:02Z</time>
      </trkpt>
      <trkpt lat="45.6722" lon="4.56511">
        <ele>736.02661132812</ele>
        <time>2010-11-13T10:30:12Z</time>
      </trkpt>
      <trkpt lat="45.67216" lon="4.56474">
        <ele>736.50732421875</ele>
        <time>2010-11-13T10:30:20Z</time>
      </trkpt>
      <trkpt lat="45.67213" lon="4.56465">
        <ele>737.46850585938</ele>
        <time>2010-11-13T10:30:22Z</time>
      </trkpt>
      <trkpt lat="45.67196" lon="4.5644">
        <ele>737.94921875</ele>
        <time>2010-11-13T10:30:29Z</time>
      </trkpt>
      <trkpt lat="45.67173" lon="4.56426">
        <ele>738.91064453125</ele>
        <time>2010-11-13T10:30:36Z</time>
      </trkpt>
      <trkpt lat="45.67149" lon="4.56421">
        <ele>739.87182617188</ele>
        <time>2010-11-13T10:30:43Z</time>
      </trkpt>
      <trkpt lat="45.67124" lon="4.56428">
        <ele>740.8330078125</ele>
        <time>2010-11-13T10:30:50Z</time>
      </trkpt>
      <trkpt lat="45.67115" lon="4.56434">
        <ele>741.31372070312</ele>
        <time>2010-11-13T10:30:53Z</time>
      </trkpt>
      <trkpt lat="45.67108" lon="4.56423">
        <ele>741.31372070312</ele>
        <time>2010-11-13T10:30:57Z</time>
      </trkpt>
      <trkpt lat="45.67105" lon="4.56376">
        <ele>740.8330078125</ele>
        <time>2010-11-13T10:31:05Z</time>
      </trkpt>
      <trkpt lat="45.67106" lon="4.56333">
        <ele>741.31372070312</ele>
        <time>2010-11-13T10:31:12Z</time>
      </trkpt>
      <trkpt lat="45.67098" lon="4.56307">
        <ele>740.8330078125</ele>
        <time>2010-11-13T10:31:17Z</time>
      </trkpt>
      <trkpt lat="45.67095" lon="4.56302">
        <ele>740.8330078125</ele>
        <time>2010-11-13T10:31:18Z</time>
      </trkpt>
      <trkpt lat="45.6707" lon="4.56267">
        <ele>739.39111328125</ele>
        <time>2010-11-13T10:31:26Z</time>
      </trkpt>
      <trkpt lat="45.67051" lon="4.56236">
        <ele>738.91064453125</ele>
        <time>2010-11-13T10:31:32Z</time>
      </trkpt>
      <trkpt lat="45.6705" lon="4.56234">
        <ele>738.91064453125</ele>
        <time>2010-11-13T10:31:35Z</time>
      </trkpt>
      <trkpt lat="45.67044" lon="4.56226">
        <ele>738.91064453125</ele>
        <time>2010-11-13T10:31:39Z</time>
      </trkpt>
      <trkpt lat="45.6703" lon="4.56204">
        <ele>737.46850585938</ele>
        <time>2010-11-13T10:31:44Z</time>
      </trkpt>
      <trkpt lat="45.67023" lon="4.56193">
        <ele>737.46850585938</ele>
        <time>2010-11-13T10:31:46Z</time>
      </trkpt>
      <trkpt lat="45.67017" lon="4.56166">
        <ele>736.50732421875</ele>
        <time>2010-11-13T10:31:50Z</time>
      </trkpt>
      <trkpt lat="45.67014" lon="4.56128">
        <ele>736.02661132812</ele>
        <time>2010-11-13T10:31:55Z</time>
      </trkpt>
      <trkpt lat="45.67006" lon="4.56093">
        <ele>733.142578125</ele>
        <time>2010-11-13T10:31:59Z</time>
      </trkpt>
      <trkpt lat="45.66995" lon="4.56052">
        <ele>729.29711914062</ele>
        <time>2010-11-13T10:32:03Z</time>
      </trkpt>
      <trkpt lat="45.66987" lon="4.5602">
        <ele>725.45190429688</ele>
        <time>2010-11-13T10:32:06Z</time>
      </trkpt>
      <trkpt lat="45.66979" lon="4.55982">
        <ele>721.60668945312</ele>
        <time>2010-11-13T10:32:10Z</time>
      </trkpt>
      <trkpt lat="45.66971" lon="4.55959">
        <ele>719.20361328125</ele>
        <time>2010-11-13T10:32:13Z</time>
      </trkpt>
      <trkpt lat="45.66963" lon="4.55948">
        <ele>717.76147460938</ele>
        <time>2010-11-13T10:32:15Z</time>
      </trkpt>
      <trkpt lat="45.6695" lon="4.55946">
        <ele>715.35815429688</ele>
        <time>2010-11-13T10:32:17Z</time>
      </trkpt>
      <trkpt lat="45.66935" lon="4.55954">
        <ele>714.39672851562</ele>
        <time>2010-11-13T10:32:19Z</time>
      </trkpt>
      <trkpt lat="45.66923" lon="4.55965">
        <ele>713.916015625</ele>
        <time>2010-11-13T10:32:21Z</time>
      </trkpt>
      <trkpt lat="45.66905" lon="4.55989">
        <ele>713.435546875</ele>
        <time>2010-11-13T10:32:26Z</time>
      </trkpt>
      <trkpt lat="45.66895" lon="4.55988">
        <ele>712.95483398438</ele>
        <time>2010-11-13T10:32:29Z</time>
      </trkpt>
      <trkpt lat="45.66878" lon="4.56001">
        <ele>711.51293945312</ele>
        <time>2010-11-13T10:32:32Z</time>
      </trkpt>
      <trkpt lat="45.66867" lon="4.5602">
        <ele>710.55151367188</ele>
        <time>2010-11-13T10:32:34Z</time>
      </trkpt>
      <trkpt lat="45.66857" lon="4.56039">
        <ele>709.59033203125</ele>
        <time>2010-11-13T10:32:36Z</time>
      </trkpt>
      <trkpt lat="45.66845" lon="4.56107">
        <ele>706.70629882812</ele>
        <time>2010-11-13T10:32:42Z</time>
      </trkpt>
      <trkpt lat="45.66838" lon="4.56195">
        <ele>706.2255859375</ele>
        <time>2010-11-13T10:32:50Z</time>
      </trkpt>
      <trkpt lat="45.66837" lon="4.56249">
        <ele>705.26440429688</ele>
        <time>2010-11-13T10:32:56Z</time>
      </trkpt>
      <trkpt lat="45.66837" lon="4.56257">
        <ele>705.26440429688</ele>
        <time>2010-11-13T10:32:57Z</time>
      </trkpt>
      <trkpt lat="45.66826" lon="4.56285">
        <ele>706.2255859375</ele>
        <time>2010-11-13T10:33:01Z</time>
      </trkpt>
      <trkpt lat="45.66808" lon="4.56291">
        <ele>705.7451171875</ele>
        <time>2010-11-13T10:33:04Z</time>
      </trkpt>
      <trkpt lat="45.66785" lon="4.56286">
        <ele>706.2255859375</ele>
        <time>2010-11-13T10:33:08Z</time>
      </trkpt>
      <trkpt lat="45.66767" lon="4.56276">
        <ele>706.2255859375</ele>
        <time>2010-11-13T10:33:12Z</time>
      </trkpt>
      <trkpt lat="45.6675" lon="4.56268">
        <ele>706.2255859375</ele>
        <time>2010-11-13T10:33:16Z</time>
      </trkpt>
      <trkpt lat="45.66718" lon="4.56257">
        <ele>707.66772460938</ele>
        <time>2010-11-13T10:33:24Z</time>
      </trkpt>
      <trkpt lat="45.667" lon="4.56257">
        <ele>709.59033203125</ele>
        <time>2010-11-13T10:33:31Z</time>
      </trkpt>
      <trkpt lat="45.6668" lon="4.56259">
        <ele>711.51293945312</ele>
        <time>2010-11-13T10:33:40Z</time>
      </trkpt>
      <trkpt lat="45.66659" lon="4.56265">
        <ele>713.916015625</ele>
        <time>2010-11-13T10:33:50Z</time>
      </trkpt>
      <trkpt lat="45.66652" lon="4.56271">
        <ele>715.35815429688</ele>
        <time>2010-11-13T10:33:54Z</time>
      </trkpt>
      <trkpt lat="45.66641" lon="4.56285">
        <ele>717.28100585938</ele>
        <time>2010-11-13T10:34:01Z</time>
      </trkpt>
      <trkpt lat="45.66633" lon="4.56301">
        <ele>719.68432617188</ele>
        <time>2010-11-13T10:34:08Z</time>
      </trkpt>
      <trkpt lat="45.66628" lon="4.56314">
        <ele>721.12622070312</ele>
        <time>2010-11-13T10:34:14Z</time>
      </trkpt>
      <trkpt lat="45.66622" lon="4.56328">
        <ele>723.048828125</ele>
        <time>2010-11-13T10:34:20Z</time>
      </trkpt>
      <trkpt lat="45.66614" lon="4.56341">
        <ele>724.01000976562</ele>
        <time>2010-11-13T10:34:26Z</time>
      </trkpt>
      <trkpt lat="45.66603" lon="4.56353">
        <ele>725.45190429688</ele>
        <time>2010-11-13T10:34:33Z</time>
      </trkpt>
      <trkpt lat="45.6659" lon="4.56355">
        <ele>725.9326171875</ele>
        <time>2010-11-13T10:34:40Z</time>
      </trkpt>
      <trkpt lat="45.66578" lon="4.56343">
        <ele>726.89404296875</ele>
        <time>2010-11-13T10:34:47Z</time>
      </trkpt>
      <trkpt lat="45.6657" lon="4.56331">
        <ele>727.85522460938</ele>
        <time>2010-11-13T10:34:53Z</time>
      </trkpt>
      <trkpt lat="45.66559" lon="4.56315">
        <ele>730.25854492188</ele>
        <time>2010-11-13T10:35:01Z</time>
      </trkpt>
      <trkpt lat="45.66547" lon="4.56304">
        <ele>731.70043945312</ele>
        <time>2010-11-13T10:35:08Z</time>
      </trkpt>
      <trkpt lat="45.66533" lon="4.56297">
        <ele>733.62329101562</ele>
        <time>2010-11-13T10:35:15Z</time>
      </trkpt>
      <trkpt lat="45.66518" lon="4.56296">
        <ele>735.0654296875</ele>
        <time>2010-11-13T10:35:22Z</time>
      </trkpt>
      <trkpt lat="45.66499" lon="4.56292">
        <ele>735.5458984375</ele>
        <time>2010-11-13T10:35:29Z</time>
      </trkpt>
      <trkpt lat="45.66472" lon="4.56284">
        <ele>735.5458984375</ele>
        <time>2010-11-13T10:35:37Z</time>
      </trkpt>
      <trkpt lat="45.66441" lon="4.5627">
        <ele>736.02661132812</ele>
        <time>2010-11-13T10:35:46Z</time>
      </trkpt>
      <trkpt lat="45.6641" lon="4.56251">
        <ele>737.46850585938</ele>
        <time>2010-11-13T10:35:55Z</time>
      </trkpt>
      <trkpt lat="45.66378" lon="4.56227">
        <ele>737.94921875</ele>
        <time>2010-11-13T10:36:04Z</time>
      </trkpt>
      <trkpt lat="45.66364" lon="4.56213">
        <ele>737.46850585938</ele>
        <time>2010-11-13T10:36:08Z</time>
      </trkpt>
      <trkpt lat="45.66335" lon="4.56175">
        <ele>737.46850585938</ele>
        <time>2010-11-13T10:36:16Z</time>
      </trkpt>
      <trkpt lat="45.66316" lon="4.56162">
        <ele>737.46850585938</ele>
        <time>2010-11-13T10:36:20Z</time>
      </trkpt>
      <trkpt lat="45.66274" lon="4.56148">
        <ele>736.50732421875</ele>
        <time>2010-11-13T10:36:28Z</time>
      </trkpt>
      <trkpt lat="45.66249" lon="4.56139">
        <ele>736.02661132812</ele>
        <time>2010-11-13T10:36:33Z</time>
      </trkpt>
      <trkpt lat="45.66227" lon="4.56119">
        <ele>734.58471679688</ele>
        <time>2010-11-13T10:36:38Z</time>
      </trkpt>
      <trkpt lat="45.6619" lon="4.56072">
        <ele>732.662109375</ele>
        <time>2010-11-13T10:36:46Z</time>
      </trkpt>
      <trkpt lat="45.66185" lon="4.56066">
        <ele>732.18139648438</ele>
        <time>2010-11-13T10:36:47Z</time>
      </trkpt>
      <trkpt lat="45.66177" lon="4.56051">
        <ele>731.70043945312</ele>
        <time>2010-11-13T10:36:51Z</time>
      </trkpt>
      <trkpt lat="45.66177" lon="4.56051">
        <ele>731.21997070312</ele>
        <time>2010-11-13T10:36:53Z</time>
      </trkpt>
      <trkpt lat="45.66172" lon="4.5604">
        <ele>730.7392578125</ele>
        <time>2010-11-13T10:36:57Z</time>
      </trkpt>
      <trkpt lat="45.66146" lon="4.56019">
        <ele>732.18139648438</ele>
        <time>2010-11-13T10:37:05Z</time>
      </trkpt>
      <trkpt lat="45.66114" lon="4.55997">
        <ele>733.62329101562</ele>
        <time>2010-11-13T10:37:15Z</time>
      </trkpt>
      <trkpt lat="45.66099" lon="4.55986">
        <ele>734.10400390625</ele>
        <time>2010-11-13T10:37:21Z</time>
      </trkpt>
      <trkpt lat="45.66078" lon="4.55971">
        <ele>735.5458984375</ele>
        <time>2010-11-13T10:37:29Z</time>
      </trkpt>
      <trkpt lat="45.66069" lon="4.55966">
        <ele>736.50732421875</ele>
        <time>2010-11-13T10:37:33Z</time>
      </trkpt>
      <trkpt lat="45.66061" lon="4.55974">
        <ele>736.98779296875</ele>
        <time>2010-11-13T10:37:37Z</time>
      </trkpt>
      <trkpt lat="45.66046" lon="4.55998">
        <ele>739.39111328125</ele>
        <time>2010-11-13T10:37:46Z</time>
      </trkpt>
      <trkpt lat="45.66042" lon="4.56005">
        <ele>739.39111328125</ele>
        <time>2010-11-13T10:37:49Z</time>
      </trkpt>
      <trkpt lat="45.66037" lon="4.56009">
        <ele>740.3525390625</ele>
        <time>2010-11-13T10:37:53Z</time>
      </trkpt>
      <trkpt lat="45.66035" lon="4.5601">
        <ele>739.87182617188</ele>
        <time>2010-11-13T10:37:54Z</time>
      </trkpt>
      <trkpt lat="45.66027" lon="4.56009">
        <ele>740.3525390625</ele>
        <time>2010-11-13T10:37:57Z</time>
      </trkpt>
      <trkpt lat="45.66013" lon="4.56007">
        <ele>739.87182617188</ele>
        <time>2010-11-13T10:38:02Z</time>
      </trkpt>
      <trkpt lat="45.66011" lon="4.56005">
        <ele>739.87182617188</ele>
        <time>2010-11-13T10:38:03Z</time>
      </trkpt>
      <trkpt lat="45.66005" lon="4.55991">
        <ele>739.87182617188</ele>
        <time>2010-11-13T10:38:08Z</time>
      </trkpt>
      <trkpt lat="45.66005" lon="4.55985">
        <ele>739.87182617188</ele>
        <time>2010-11-13T10:38:11Z</time>
      </trkpt>
      <trkpt lat="45.66001" lon="4.55968">
        <ele>739.87182617188</ele>
        <time>2010-11-13T10:38:19Z</time>
      </trkpt>
      <trkpt lat="45.65998" lon="4.55964">
        <ele>739.87182617188</ele>
        <time>2010-11-13T10:38:21Z</time>
      </trkpt>
      <trkpt lat="45.65992" lon="4.55963">
        <ele>740.3525390625</ele>
        <time>2010-11-13T10:38:25Z</time>
      </trkpt>
      <trkpt lat="45.65987" lon="4.55955">
        <ele>739.39111328125</ele>
        <time>2010-11-13T10:38:31Z</time>
      </trkpt>
      <trkpt lat="45.65985" lon="4.55953">
        <ele>739.39111328125</ele>
        <time>2010-11-13T10:38:33Z</time>
      </trkpt>
      <trkpt lat="45.65974" lon="4.55935">
        <ele>736.98779296875</ele>
        <time>2010-11-13T10:38:38Z</time>
      </trkpt>
      <trkpt lat="45.65968" lon="4.55925">
        <ele>736.50732421875</ele>
        <time>2010-11-13T10:38:40Z</time>
      </trkpt>
      <trkpt lat="45.65954" lon="4.55903">
        <ele>734.10400390625</ele>
        <time>2010-11-13T10:38:44Z</time>
      </trkpt>
      <trkpt lat="45.65944" lon="4.55882">
        <ele>731.21997070312</ele>
        <time>2010-11-13T10:38:47Z</time>
      </trkpt>
      <trkpt lat="45.65933" lon="4.55852">
        <ele>728.3359375</ele>
        <time>2010-11-13T10:38:51Z</time>
      </trkpt>
      <trkpt lat="45.65934" lon="4.55848">
        <ele>727.85522460938</ele>
        <time>2010-11-13T10:38:53Z</time>
      </trkpt>
      <trkpt lat="45.65934" lon="4.55852">
        <ele>727.85522460938</ele>
        <time>2010-11-13T10:38:57Z</time>
      </trkpt>
      <trkpt lat="45.65937" lon="4.55858">
        <ele>728.3359375</ele>
        <time>2010-11-13T10:38:59Z</time>
      </trkpt>
      <trkpt lat="45.65932" lon="4.55868">
        <ele>728.81665039062</ele>
        <time>2010-11-13T10:39:03Z</time>
      </trkpt>
      <trkpt lat="45.65929" lon="4.55871">
        <ele>728.81665039062</ele>
        <time>2010-11-13T10:39:04Z</time>
      </trkpt>
      <trkpt lat="45.65903" lon="4.55883">
        <ele>726.41333007812</ele>
        <time>2010-11-13T10:39:10Z</time>
      </trkpt>
      <trkpt lat="45.65892" lon="4.55893">
        <ele>725.45190429688</ele>
        <time>2010-11-13T10:39:12Z</time>
      </trkpt>
      <trkpt lat="45.65882" lon="4.55908">
        <ele>724.01000976562</ele>
        <time>2010-11-13T10:39:14Z</time>
      </trkpt>
      <trkpt lat="45.65861" lon="4.55921">
        <ele>722.08740234375</ele>
        <time>2010-11-13T10:39:17Z</time>
      </trkpt>
      <trkpt lat="45.65853" lon="4.55921">
        <ele>720.6455078125</ele>
        <time>2010-11-13T10:39:18Z</time>
      </trkpt>
      <trkpt lat="45.65826" lon="4.55917">
        <ele>715.8388671875</ele>
        <time>2010-11-13T10:39:21Z</time>
      </trkpt>
      <trkpt lat="45.65799" lon="4.55913">
        <ele>711.51293945312</ele>
        <time>2010-11-13T10:39:25Z</time>
      </trkpt>
      <trkpt lat="45.65788" lon="4.5591">
        <ele>708.62890625</ele>
        <time>2010-11-13T10:39:28Z</time>
      </trkpt>
      <trkpt lat="45.65785" lon="4.55909">
        <ele>708.62890625</ele>
        <time>2010-11-13T10:39:29Z</time>
      </trkpt>
      <trkpt lat="45.65774" lon="4.55905">
        <ele>707.66772460938</ele>
        <time>2010-11-13T10:39:32Z</time>
      </trkpt>
      <trkpt lat="45.65763" lon="4.55907">
        <ele>706.70629882812</ele>
        <time>2010-11-13T10:39:34Z</time>
      </trkpt>
      <trkpt lat="45.65738" lon="4.55918">
        <ele>706.2255859375</ele>
        <time>2010-11-13T10:39:38Z</time>
      </trkpt>
      <trkpt lat="45.65725" lon="4.55916">
        <ele>707.18701171875</ele>
        <time>2010-11-13T10:39:42Z</time>
      </trkpt>
      <trkpt lat="45.65721" lon="4.55915">
        <ele>708.1484375</ele>
        <time>2010-11-13T10:39:44Z</time>
      </trkpt>
      <trkpt lat="45.65717" lon="4.55913">
        <ele>709.59033203125</ele>
        <time>2010-11-13T10:39:47Z</time>
      </trkpt>
      <trkpt lat="45.65711" lon="4.55908">
        <ele>711.0322265625</ele>
        <time>2010-11-13T10:39:51Z</time>
      </trkpt>
      <trkpt lat="45.65709" lon="4.55906">
        <ele>711.99365234375</ele>
        <time>2010-11-13T10:39:53Z</time>
      </trkpt>
      <trkpt lat="45.65697" lon="4.55903">
        <ele>714.39672851562</ele>
        <time>2010-11-13T10:40:01Z</time>
      </trkpt>
      <trkpt lat="45.65689" lon="4.55905">
        <ele>715.35815429688</ele>
        <time>2010-11-13T10:40:08Z</time>
      </trkpt>
      <trkpt lat="45.6568" lon="4.55902">
        <ele>718.2421875</ele>
        <time>2010-11-13T10:40:15Z</time>
      </trkpt>
      <trkpt lat="45.65678" lon="4.55902">
        <ele>718.2421875</ele>
        <time>2010-11-13T10:40:16Z</time>
      </trkpt>
      <trkpt lat="45.65665" lon="4.55896">
        <ele>720.6455078125</ele>
        <time>2010-11-13T10:40:25Z</time>
      </trkpt>
      <trkpt lat="45.65656" lon="4.5589">
        <ele>721.60668945312</ele>
        <time>2010-11-13T10:40:32Z</time>
      </trkpt>
      <trkpt lat="45.6565" lon="4.55887">
        <ele>722.56811523438</ele>
        <time>2010-11-13T10:40:38Z</time>
      </trkpt>
      <trkpt lat="45.65637" lon="4.55881">
        <ele>724.49072265625</ele>
        <time>2010-11-13T10:40:47Z</time>
      </trkpt>
      <trkpt lat="45.65623" lon="4.55876">
        <ele>726.41333007812</ele>
        <time>2010-11-13T10:40:56Z</time>
      </trkpt>
      <trkpt lat="45.6561" lon="4.5587">
        <ele>726.89404296875</ele>
        <time>2010-11-13T10:41:05Z</time>
      </trkpt>
      <trkpt lat="45.65597" lon="4.55869">
        <ele>729.29711914062</ele>
        <time>2010-11-13T10:41:13Z</time>
      </trkpt>
      <trkpt lat="45.65587" lon="4.5587">
        <ele>730.25854492188</ele>
        <time>2010-11-13T10:41:19Z</time>
      </trkpt>
      <trkpt lat="45.65574" lon="4.55866">
        <ele>730.25854492188</ele>
        <time>2010-11-13T10:41:27Z</time>
      </trkpt>
      <trkpt lat="45.65557" lon="4.55861">
        <ele>732.18139648438</ele>
        <time>2010-11-13T10:41:37Z</time>
      </trkpt>
      <trkpt lat="45.65545" lon="4.55857">
        <ele>734.10400390625</ele>
        <time>2010-11-13T10:41:46Z</time>
      </trkpt>
      <trkpt lat="45.65533" lon="4.55855">
        <ele>736.50732421875</ele>
        <time>2010-11-13T10:41:54Z</time>
      </trkpt>
      <trkpt lat="45.65518" lon="4.5585">
        <ele>738.91064453125</ele>
        <time>2010-11-13T10:42:03Z</time>
      </trkpt>
      <trkpt lat="45.65507" lon="4.55845">
        <ele>739.87182617188</ele>
        <time>2010-11-13T10:42:09Z</time>
      </trkpt>
      <trkpt lat="45.65494" lon="4.55834">
        <ele>740.3525390625</ele>
        <time>2010-11-13T10:42:15Z</time>
      </trkpt>
      <trkpt lat="45.65464" lon="4.55808">
        <ele>741.79443359375</ele>
        <time>2010-11-13T10:42:27Z</time>
      </trkpt>
      <trkpt lat="45.65444" lon="4.55789">
        <ele>742.755859375</ele>
        <time>2010-11-13T10:42:35Z</time>
      </trkpt>
      <trkpt lat="45.65415" lon="4.55762">
        <ele>744.19775390625</ele>
        <time>2010-11-13T10:42:45Z</time>
      </trkpt>
      <trkpt lat="45.65397" lon="4.55743">
        <ele>745.6396484375</ele>
        <time>2010-11-13T10:42:53Z</time>
      </trkpt>
      <trkpt lat="45.6539" lon="4.55734">
        <ele>745.6396484375</ele>
        <time>2010-11-13T10:42:58Z</time>
      </trkpt>
      <trkpt lat="45.65382" lon="4.55735">
        <ele>747.08154296875</ele>
        <time>2010-11-13T10:43:05Z</time>
      </trkpt>
      <trkpt lat="45.6538" lon="4.55735">
        <ele>747.56225585938</ele>
        <time>2010-11-13T10:43:06Z</time>
      </trkpt>
      <trkpt lat="45.65367" lon="4.55735">
        <ele>748.52368164062</ele>
        <time>2010-11-13T10:43:12Z</time>
      </trkpt>
      <trkpt lat="45.65357" lon="4.55738">
        <ele>749.9658203125</ele>
        <time>2010-11-13T10:43:19Z</time>
      </trkpt>
      <trkpt lat="45.65345" lon="4.55744">
        <ele>752.36889648438</ele>
        <time>2010-11-13T10:43:27Z</time>
      </trkpt>
      <trkpt lat="45.65332" lon="4.55746">
        <ele>753.33032226562</ele>
        <time>2010-11-13T10:43:34Z</time>
      </trkpt>
      <trkpt lat="45.65317" lon="4.55746">
        <ele>756.21411132812</ele>
        <time>2010-11-13T10:43:42Z</time>
      </trkpt>
      <trkpt lat="45.65304" lon="4.55744">
        <ele>757.65625</ele>
        <time>2010-11-13T10:43:49Z</time>
      </trkpt>
      <trkpt lat="45.65289" lon="4.55742">
        <ele>759.57885742188</ele>
        <time>2010-11-13T10:43:57Z</time>
      </trkpt>
      <trkpt lat="45.65276" lon="4.55738">
        <ele>761.02075195312</ele>
        <time>2010-11-13T10:44:05Z</time>
      </trkpt>
      <trkpt lat="45.65272" lon="4.55738">
        <ele>761.50146484375</ele>
        <time>2010-11-13T10:44:07Z</time>
      </trkpt>
      <trkpt lat="45.65268" lon="4.55735">
        <ele>761.98217773438</ele>
        <time>2010-11-13T10:44:09Z</time>
      </trkpt>
      <trkpt lat="45.65251" lon="4.5573">
        <ele>763.42407226562</ele>
        <time>2010-11-13T10:44:18Z</time>
      </trkpt>
      <trkpt lat="45.65234" lon="4.55727">
        <ele>765.82763671875</ele>
        <time>2010-11-13T10:44:27Z</time>
      </trkpt>
      <trkpt lat="45.65216" lon="4.55719">
        <ele>767.26953125</ele>
        <time>2010-11-13T10:44:36Z</time>
      </trkpt>
      <trkpt lat="45.65199" lon="4.55715">
        <ele>768.23071289062</ele>
        <time>2010-11-13T10:44:44Z</time>
      </trkpt>
      <trkpt lat="45.65184" lon="4.55716">
        <ele>768.23071289062</ele>
        <time>2010-11-13T10:44:51Z</time>
      </trkpt>
      <trkpt lat="45.6517" lon="4.55716">
        <ele>769.19213867188</ele>
        <time>2010-11-13T10:44:57Z</time>
      </trkpt>
      <trkpt lat="45.65167" lon="4.55717">
        <ele>769.19213867188</ele>
        <time>2010-11-13T10:44:59Z</time>
      </trkpt>
      <trkpt lat="45.65152" lon="4.55719">
        <ele>770.63403320312</ele>
        <time>2010-11-13T10:45:06Z</time>
      </trkpt>
      <trkpt lat="45.65132" lon="4.55718">
        <ele>771.11474609375</ele>
        <time>2010-11-13T10:45:15Z</time>
      </trkpt>
      <trkpt lat="45.6512" lon="4.55724">
        <ele>772.07592773438</ele>
        <time>2010-11-13T10:45:21Z</time>
      </trkpt>
      <trkpt lat="45.65119" lon="4.55735">
        <ele>771.59521484375</ele>
        <time>2010-11-13T10:45:25Z</time>
      </trkpt>
      <trkpt lat="45.65123" lon="4.55764">
        <ele>772.556640625</ele>
        <time>2010-11-13T10:45:33Z</time>
      </trkpt>
      <trkpt lat="45.65121" lon="4.55778">
        <ele>773.03735351562</ele>
        <time>2010-11-13T10:45:38Z</time>
      </trkpt>
      <trkpt lat="45.65116" lon="4.55784">
        <ele>772.556640625</ele>
        <time>2010-11-13T10:45:41Z</time>
      </trkpt>
      <trkpt lat="45.65103" lon="4.55784">
        <ele>772.07592773438</ele>
        <time>2010-11-13T10:45:45Z</time>
      </trkpt>
      <trkpt lat="45.65073" lon="4.55785">
        <ele>771.11474609375</ele>
        <time>2010-11-13T10:45:52Z</time>
      </trkpt>
      <trkpt lat="45.65028" lon="4.55783">
        <ele>769.6728515625</ele>
        <time>2010-11-13T10:46:00Z</time>
      </trkpt>
      <trkpt lat="45.64969" lon="4.55782">
        <ele>767.26953125</ele>
        <time>2010-11-13T10:46:09Z</time>
      </trkpt>
      <trkpt lat="45.64909" lon="4.55774">
        <ele>764.8662109375</ele>
        <time>2010-11-13T10:46:18Z</time>
      </trkpt>
      <trkpt lat="45.64872" lon="4.55752">
        <ele>763.90454101562</ele>
        <time>2010-11-13T10:46:24Z</time>
      </trkpt>
      <trkpt lat="45.64819" lon="4.55714">
        <ele>761.02075195312</ele>
        <time>2010-11-13T10:46:33Z</time>
      </trkpt>
      <trkpt lat="45.64799" lon="4.55707">
        <ele>760.05932617188</ele>
        <time>2010-11-13T10:46:36Z</time>
      </trkpt>
      <trkpt lat="45.6475" lon="4.55704">
        <ele>757.65625</ele>
        <time>2010-11-13T10:46:43Z</time>
      </trkpt>
      <trkpt lat="45.64687" lon="4.55706">
        <ele>754.77221679688</ele>
        <time>2010-11-13T10:46:51Z</time>
      </trkpt>
      <trkpt lat="45.64639" lon="4.55709">
        <ele>751.88842773438</ele>
        <time>2010-11-13T10:46:57Z</time>
      </trkpt>
      <trkpt lat="45.64631" lon="4.55709">
        <ele>752.36889648438</ele>
        <time>2010-11-13T10:46:58Z</time>
      </trkpt>
      <trkpt lat="45.64607" lon="4.55721">
        <ele>750.92700195312</ele>
        <time>2010-11-13T10:47:01Z</time>
      </trkpt>
      <trkpt lat="45.64589" lon="4.55749">
        <ele>749.48510742188</ele>
        <time>2010-11-13T10:47:04Z</time>
      </trkpt>
      <trkpt lat="45.64575" lon="4.55782">
        <ele>748.04321289062</ele>
        <time>2010-11-13T10:47:07Z</time>
      </trkpt>
      <trkpt lat="45.6457" lon="4.55793">
        <ele>747.08154296875</ele>
        <time>2010-11-13T10:47:08Z</time>
      </trkpt>
      <trkpt lat="45.64535" lon="4.55832">
        <ele>745.15893554688</ele>
        <time>2010-11-13T10:47:13Z</time>
      </trkpt>
      <trkpt lat="45.64527" lon="4.55836">
        <ele>745.6396484375</ele>
        <time>2010-11-13T10:47:14Z</time>
      </trkpt>
      <trkpt lat="45.64487" lon="4.55857">
        <ele>742.755859375</ele>
        <time>2010-11-13T10:47:19Z</time>
      </trkpt>
      <trkpt lat="45.64447" lon="4.55865">
        <ele>741.79443359375</ele>
        <time>2010-11-13T10:47:24Z</time>
      </trkpt>
      <trkpt lat="45.64399" lon="4.55862">
        <ele>739.87182617188</ele>
        <time>2010-11-13T10:47:30Z</time>
      </trkpt>
      <trkpt lat="45.64345" lon="4.55874">
        <ele>737.46850585938</ele>
        <time>2010-11-13T10:47:37Z</time>
      </trkpt>
      <trkpt lat="45.64274" lon="4.55897">
        <ele>734.58471679688</ele>
        <time>2010-11-13T10:47:46Z</time>
      </trkpt>
      <trkpt lat="45.64222" lon="4.55897">
        <ele>732.662109375</ele>
        <time>2010-11-13T10:47:52Z</time>
      </trkpt>
      <trkpt lat="45.64204" lon="4.5589">
        <ele>731.70043945312</ele>
        <time>2010-11-13T10:47:54Z</time>
      </trkpt>
      <trkpt lat="45.64186" lon="4.55885">
        <ele>730.7392578125</ele>
        <time>2010-11-13T10:47:56Z</time>
      </trkpt>
      <trkpt lat="45.64158" lon="4.55889">
        <ele>729.29711914062</ele>
        <time>2010-11-13T10:47:59Z</time>
      </trkpt>
      <trkpt lat="45.64149" lon="4.55894">
        <ele>728.81665039062</ele>
        <time>2010-11-13T10:48:00Z</time>
      </trkpt>
      <trkpt lat="45.64117" lon="4.55923">
        <ele>726.89404296875</ele>
        <time>2010-11-13T10:48:04Z</time>
      </trkpt>
      <trkpt lat="45.64066" lon="4.55961">
        <ele>724.97143554688</ele>
        <time>2010-11-13T10:48:10Z</time>
      </trkpt>
      <trkpt lat="45.64011" lon="4.55981">
        <ele>722.56811523438</ele>
        <time>2010-11-13T10:48:16Z</time>
      </trkpt>
      <trkpt lat="45.63973" lon="4.55979">
        <ele>720.6455078125</ele>
        <time>2010-11-13T10:48:20Z</time>
      </trkpt>
      <trkpt lat="45.63909" lon="4.55962">
        <ele>718.2421875</ele>
        <time>2010-11-13T10:48:27Z</time>
      </trkpt>
      <trkpt lat="45.63871" lon="4.55966">
        <ele>716.31958007812</ele>
        <time>2010-11-13T10:48:31Z</time>
      </trkpt>
      <trkpt lat="45.63831" lon="4.55978">
        <ele>714.39672851562</ele>
        <time>2010-11-13T10:48:35Z</time>
      </trkpt>
      <trkpt lat="45.63782" lon="4.55993">
        <ele>711.0322265625</ele>
        <time>2010-11-13T10:48:40Z</time>
      </trkpt>
      <trkpt lat="45.63704" lon="4.56023">
        <ele>708.1484375</ele>
        <time>2010-11-13T10:48:48Z</time>
      </trkpt>
      <trkpt lat="45.63686" lon="4.56036">
        <ele>706.70629882812</ele>
        <time>2010-11-13T10:48:50Z</time>
      </trkpt>
      <trkpt lat="45.63642" lon="4.56071">
        <ele>703.341796875</ele>
        <time>2010-11-13T10:48:55Z</time>
      </trkpt>
      <trkpt lat="45.63625" lon="4.56086">
        <ele>702.38037109375</ele>
        <time>2010-11-13T10:48:57Z</time>
      </trkpt>
      <trkpt lat="45.63617" lon="4.56094">
        <ele>701.89990234375</ele>
        <time>2010-11-13T10:48:58Z</time>
      </trkpt>
      <trkpt lat="45.63579" lon="4.56109">
        <ele>699.97705078125</ele>
        <time>2010-11-13T10:49:02Z</time>
      </trkpt>
      <trkpt lat="45.63558" lon="4.56107">
        <ele>699.015625</ele>
        <time>2010-11-13T10:49:04Z</time>
      </trkpt>
      <trkpt lat="45.63538" lon="4.56101">
        <ele>697.57373046875</ele>
        <time>2010-11-13T10:49:06Z</time>
      </trkpt>
      <trkpt lat="45.63508" lon="4.56092">
        <ele>696.1318359375</ele>
        <time>2010-11-13T10:49:09Z</time>
      </trkpt>
      <trkpt lat="45.63446" lon="4.56076">
        <ele>692.28662109375</ele>
        <time>2010-11-13T10:49:15Z</time>
      </trkpt>
      <trkpt lat="45.63396" lon="4.56061">
        <ele>689.40258789062</ele>
        <time>2010-11-13T10:49:20Z</time>
      </trkpt>
      <trkpt lat="45.63386" lon="4.56058">
        <ele>688.92211914062</ele>
        <time>2010-11-13T10:49:21Z</time>
      </trkpt>
      <trkpt lat="45.63366" lon="4.5605">
        <ele>687.96069335938</ele>
        <time>2010-11-13T10:49:23Z</time>
      </trkpt>
      <trkpt lat="45.63333" lon="4.56021">
        <ele>685.55737304688</ele>
        <time>2010-11-13T10:49:27Z</time>
      </trkpt>
      <trkpt lat="45.63281" lon="4.55951">
        <ele>681.7119140625</ele>
        <time>2010-11-13T10:49:34Z</time>
      </trkpt>
      <trkpt lat="45.6325" lon="4.55911">
        <ele>678.34741210938</ele>
        <time>2010-11-13T10:49:38Z</time>
      </trkpt>
      <trkpt lat="45.63242" lon="4.55901">
        <ele>678.34741210938</ele>
        <time>2010-11-13T10:49:39Z</time>
      </trkpt>
      <trkpt lat="45.63202" lon="4.55848">
        <ele>674.50219726562</ele>
        <time>2010-11-13T10:49:44Z</time>
      </trkpt>
      <trkpt lat="45.63178" lon="4.55815">
        <ele>672.57958984375</ele>
        <time>2010-11-13T10:49:47Z</time>
      </trkpt>
      <trkpt lat="45.63143" lon="4.55752">
        <ele>670.65698242188</ele>
        <time>2010-11-13T10:49:52Z</time>
      </trkpt>
      <trkpt lat="45.6312" lon="4.55721">
        <ele>667.77270507812</ele>
        <time>2010-11-13T10:49:55Z</time>
      </trkpt>
      <trkpt lat="45.63111" lon="4.55711">
        <ele>667.29223632812</ele>
        <time>2010-11-13T10:49:56Z</time>
      </trkpt>
      <trkpt lat="45.63067" lon="4.55666">
        <ele>665.36962890625</ele>
        <time>2010-11-13T10:50:01Z</time>
      </trkpt>
      <trkpt lat="45.63027" lon="4.55644">
        <ele>663.92749023438</ele>
        <time>2010-11-13T10:50:05Z</time>
      </trkpt>
      <trkpt lat="45.63007" lon="4.55639">
        <ele>662.96630859375</ele>
        <time>2010-11-13T10:50:07Z</time>
      </trkpt>
      <trkpt lat="45.62954" lon="4.55632">
        <ele>660.56298828125</ele>
        <time>2010-11-13T10:50:12Z</time>
      </trkpt>
      <trkpt lat="45.62915" lon="4.55641">
        <ele>659.12109375</ele>
        <time>2010-11-13T10:50:16Z</time>
      </trkpt>
      <trkpt lat="45.62888" lon="4.55656">
        <ele>657.19848632812</ele>
        <time>2010-11-13T10:50:19Z</time>
      </trkpt>
      <trkpt lat="45.62851" lon="4.55672">
        <ele>656.23706054688</ele>
        <time>2010-11-13T10:50:23Z</time>
      </trkpt>
      <trkpt lat="45.62816" lon="4.55667">
        <ele>655.75659179688</ele>
        <time>2010-11-13T10:50:27Z</time>
      </trkpt>
      <trkpt lat="45.62786" lon="4.55653">
        <ele>656.23706054688</ele>
        <time>2010-11-13T10:50:32Z</time>
      </trkpt>
      <trkpt lat="45.62788" lon="4.55658">
        <ele>655.75659179688</ele>
        <time>2010-11-13T10:50:35Z</time>
      </trkpt>
      <trkpt lat="45.6279" lon="4.55659">
        <ele>655.75659179688</ele>
        <time>2010-11-13T10:50:36Z</time>
      </trkpt>
      <trkpt lat="45.62812" lon="4.55671">
        <ele>655.27587890625</ele>
        <time>2010-11-13T10:50:42Z</time>
      </trkpt>
      <trkpt lat="45.62829" lon="4.55678">
        <ele>655.27587890625</ele>
        <time>2010-11-13T10:50:46Z</time>
      </trkpt>
      <trkpt lat="45.62851" lon="4.55669">
        <ele>653.833984375</ele>
        <time>2010-11-13T10:50:51Z</time>
      </trkpt>
      <trkpt lat="45.62853" lon="4.5566">
        <ele>652.87255859375</ele>
        <time>2010-11-13T10:50:52Z</time>
      </trkpt>
      <trkpt lat="45.6287" lon="4.55612">
        <ele>649.5078125</ele>
        <time>2010-11-13T10:50:57Z</time>
      </trkpt>
      <trkpt lat="45.62873" lon="4.55605">
        <ele>649.02709960938</ele>
        <time>2010-11-13T10:50:58Z</time>
      </trkpt>
      <trkpt lat="45.62877" lon="4.55598">
        <ele>649.5078125</ele>
        <time>2010-11-13T10:50:59Z</time>
      </trkpt>
      <trkpt lat="45.62868" lon="4.55578">
        <ele>649.02709960938</ele>
        <time>2010-11-13T10:51:03Z</time>
      </trkpt>
      <trkpt lat="45.62852" lon="4.55571">
        <ele>649.5078125</ele>
        <time>2010-11-13T10:51:07Z</time>
      </trkpt>
      <trkpt lat="45.62833" lon="4.55564">
        <ele>650.94970703125</ele>
        <time>2010-11-13T10:51:14Z</time>
      </trkpt>
      <trkpt lat="45.62818" lon="4.55554">
        <ele>651.9111328125</ele>
        <time>2010-11-13T10:51:21Z</time>
      </trkpt>
      <trkpt lat="45.62814" lon="4.5555">
        <ele>652.87255859375</ele>
        <time>2010-11-13T10:51:23Z</time>
      </trkpt>
      <trkpt lat="45.628" lon="4.55539">
        <ele>653.35327148438</ele>
        <time>2010-11-13T10:51:29Z</time>
      </trkpt>
      <trkpt lat="45.62783" lon="4.55519">
        <ele>653.833984375</ele>
        <time>2010-11-13T10:51:35Z</time>
      </trkpt>
      <trkpt lat="45.6277" lon="4.55502">
        <ele>653.833984375</ele>
        <time>2010-11-13T10:51:40Z</time>
      </trkpt>
      <trkpt lat="45.62751" lon="4.55482">
        <ele>653.833984375</ele>
        <time>2010-11-13T10:51:46Z</time>
      </trkpt>
      <trkpt lat="45.6274" lon="4.55478">
        <ele>653.833984375</ele>
        <time>2010-11-13T10:51:49Z</time>
      </trkpt>
      <trkpt lat="45.62726" lon="4.55475">
        <ele>653.35327148438</ele>
        <time>2010-11-13T10:51:52Z</time>
      </trkpt>
      <trkpt lat="45.62707" lon="4.55461">
        <ele>652.39184570312</ele>
        <time>2010-11-13T10:51:56Z</time>
      </trkpt>
      <trkpt lat="45.62703" lon="4.55456">
        <ele>651.9111328125</ele>
        <time>2010-11-13T10:51:57Z</time>
      </trkpt>
      <trkpt lat="45.62699" lon="4.55446">
        <ele>651.9111328125</ele>
        <time>2010-11-13T10:51:59Z</time>
      </trkpt>
      <trkpt lat="45.62693" lon="4.55453">
        <ele>650.46923828125</ele>
        <time>2010-11-13T10:52:03Z</time>
      </trkpt>
      <trkpt lat="45.62677" lon="4.55485">
        <ele>647.1044921875</ele>
        <time>2010-11-13T10:52:09Z</time>
      </trkpt>
      <trkpt lat="45.62668" lon="4.55482">
        <ele>645.66259765625</ele>
        <time>2010-11-13T10:52:12Z</time>
      </trkpt>
      <trkpt lat="45.62666" lon="4.55479">
        <ele>645.18188476562</ele>
        <time>2010-11-13T10:52:13Z</time>
      </trkpt>
      <trkpt lat="45.62654" lon="4.55453">
        <ele>643.25927734375</ele>
        <time>2010-11-13T10:52:18Z</time>
      </trkpt>
      <trkpt lat="45.62645" lon="4.55436">
        <ele>641.8173828125</ele>
        <time>2010-11-13T10:52:21Z</time>
      </trkpt>
      <trkpt lat="45.62639" lon="4.55426">
        <ele>639.89477539062</ele>
        <time>2010-11-13T10:52:23Z</time>
      </trkpt>
      <trkpt lat="45.62624" lon="4.55395">
        <ele>638.45288085938</ele>
        <time>2010-11-13T10:52:29Z</time>
      </trkpt>
      <trkpt lat="45.62608" lon="4.55375">
        <ele>636.04956054688</ele>
        <time>2010-11-13T10:52:34Z</time>
      </trkpt>
      <trkpt lat="45.62596" lon="4.55355">
        <ele>634.12670898438</ele>
        <time>2010-11-13T10:52:38Z</time>
      </trkpt>
      <trkpt lat="45.62574" lon="4.55339">
        <ele>631.72338867188</ele>
        <time>2010-11-13T10:52:43Z</time>
      </trkpt>
      <trkpt lat="45.6257" lon="4.55336">
        <ele>631.72338867188</ele>
        <time>2010-11-13T10:52:44Z</time>
      </trkpt>
      <trkpt lat="45.62546" lon="4.55311">
        <ele>630.76220703125</ele>
        <time>2010-11-13T10:52:50Z</time>
      </trkpt>
      <trkpt lat="45.62537" lon="4.55299">
        <ele>630.28149414062</ele>
        <time>2010-11-13T10:52:53Z</time>
      </trkpt>
      <trkpt lat="45.62528" lon="4.55302">
        <ele>630.28149414062</ele>
        <time>2010-11-13T10:52:57Z</time>
      </trkpt>
      <trkpt lat="45.62525" lon="4.55311">
        <ele>630.76220703125</ele>
        <time>2010-11-13T10:53:00Z</time>
      </trkpt>
      <trkpt lat="45.62521" lon="4.55305">
        <ele>630.28149414062</ele>
        <time>2010-11-13T10:53:04Z</time>
      </trkpt>
      <trkpt lat="45.6252" lon="4.55302">
        <ele>630.28149414062</ele>
        <time>2010-11-13T10:53:05Z</time>
      </trkpt>
      <trkpt lat="45.62504" lon="4.55274">
        <ele>631.24291992188</ele>
        <time>2010-11-13T10:53:14Z</time>
      </trkpt>
      <trkpt lat="45.62487" lon="4.55258">
        <ele>630.76220703125</ele>
        <time>2010-11-13T10:53:21Z</time>
      </trkpt>
      <trkpt lat="45.62464" lon="4.55241">
        <ele>631.72338867188</ele>
        <time>2010-11-13T10:53:30Z</time>
      </trkpt>
      <trkpt lat="45.62449" lon="4.55228">
        <ele>633.16528320312</ele>
        <time>2010-11-13T10:53:37Z</time>
      </trkpt>
      <trkpt lat="45.62437" lon="4.55209">
        <ele>633.64599609375</ele>
        <time>2010-11-13T10:53:44Z</time>
      </trkpt>
      <trkpt lat="45.62435" lon="4.55184">
        <ele>635.08813476562</ele>
        <time>2010-11-13T10:53:51Z</time>
      </trkpt>
      <trkpt lat="45.62439" lon="4.55157">
        <ele>636.04956054688</ele>
        <time>2010-11-13T10:53:59Z</time>
      </trkpt>
      <trkpt lat="45.62444" lon="4.55134">
        <ele>637.97216796875</ele>
        <time>2010-11-13T10:54:06Z</time>
      </trkpt>
      <trkpt lat="45.62444" lon="4.55116">
        <ele>638.45288085938</ele>
        <time>2010-11-13T10:54:12Z</time>
      </trkpt>
      <trkpt lat="45.62439" lon="4.55091">
        <ele>639.4140625</ele>
        <time>2010-11-13T10:54:20Z</time>
      </trkpt>
      <trkpt lat="45.62429" lon="4.55068">
        <ele>640.37548828125</ele>
        <time>2010-11-13T10:54:28Z</time>
      </trkpt>
      <trkpt lat="45.62419" lon="4.5504">
        <ele>641.33666992188</ele>
        <time>2010-11-13T10:54:37Z</time>
      </trkpt>
      <trkpt lat="45.62415" lon="4.55015">
        <ele>641.8173828125</ele>
        <time>2010-11-13T10:54:44Z</time>
      </trkpt>
      <trkpt lat="45.62419" lon="4.54981">
        <ele>643.73999023438</ele>
        <time>2010-11-13T10:54:54Z</time>
      </trkpt>
      <trkpt lat="45.62421" lon="4.54959">
        <ele>645.18188476562</ele>
        <time>2010-11-13T10:55:01Z</time>
      </trkpt>
      <trkpt lat="45.62421" lon="4.54937">
        <ele>646.6240234375</ele>
        <time>2010-11-13T10:55:08Z</time>
      </trkpt>
      <trkpt lat="45.62421" lon="4.54919">
        <ele>647.58520507812</ele>
        <time>2010-11-13T10:55:14Z</time>
      </trkpt>
      <trkpt lat="45.62423" lon="4.54893">
        <ele>649.98852539062</ele>
        <time>2010-11-13T10:55:23Z</time>
      </trkpt>
      <trkpt lat="45.62427" lon="4.54872">
        <ele>651.9111328125</ele>
        <time>2010-11-13T10:55:31Z</time>
      </trkpt>
      <trkpt lat="45.62429" lon="4.5485">
        <ele>654.31469726562</ele>
        <time>2010-11-13T10:55:39Z</time>
      </trkpt>
      <trkpt lat="45.6243" lon="4.54827">
        <ele>656.23706054688</ele>
        <time>2010-11-13T10:55:48Z</time>
      </trkpt>
      <trkpt lat="45.62431" lon="4.54804">
        <ele>657.19848632812</ele>
        <time>2010-11-13T10:55:57Z</time>
      </trkpt>
      <trkpt lat="45.62431" lon="4.54783">
        <ele>658.64038085938</ele>
        <time>2010-11-13T10:56:05Z</time>
      </trkpt>
      <trkpt lat="45.6243" lon="4.5476">
        <ele>660.56298828125</ele>
        <time>2010-11-13T10:56:14Z</time>
      </trkpt>
      <trkpt lat="45.62429" lon="4.54736">
        <ele>662.96630859375</ele>
        <time>2010-11-13T10:56:23Z</time>
      </trkpt>
      <trkpt lat="45.62428" lon="4.54728">
        <ele>663.92749023438</ele>
        <time>2010-11-13T10:56:26Z</time>
      </trkpt>
      <trkpt lat="45.62426" lon="4.54711">
        <ele>665.85034179688</ele>
        <time>2010-11-13T10:56:33Z</time>
      </trkpt>
      <trkpt lat="45.62426" lon="4.54683">
        <ele>668.734375</ele>
        <time>2010-11-13T10:56:44Z</time>
      </trkpt>
      <trkpt lat="45.62425" lon="4.5467">
        <ele>669.69580078125</ele>
        <time>2010-11-13T10:56:49Z</time>
      </trkpt>
      <trkpt lat="45.62416" lon="4.54664">
        <ele>669.69580078125</ele>
        <time>2010-11-13T10:56:56Z</time>
      </trkpt>
      <trkpt lat="45.62406" lon="4.54673">
        <ele>670.65698242188</ele>
        <time>2010-11-13T10:57:02Z</time>
      </trkpt>
      <trkpt lat="45.62402" lon="4.54674">
        <ele>671.1376953125</ele>
        <time>2010-11-13T10:57:04Z</time>
      </trkpt>
      <trkpt lat="45.62378" lon="4.5468">
        <ele>673.06030273438</ele>
        <time>2010-11-13T10:57:16Z</time>
      </trkpt>
      <trkpt lat="45.62363" lon="4.54685">
        <ele>674.021484375</ele>
        <time>2010-11-13T10:57:24Z</time>
      </trkpt>
      <trkpt lat="45.62355" lon="4.5469">
        <ele>674.50219726562</ele>
        <time>2010-11-13T10:57:29Z</time>
      </trkpt>
      <trkpt lat="45.62342" lon="4.54696">
        <ele>675.94409179688</ele>
        <time>2010-11-13T10:57:36Z</time>
      </trkpt>
      <trkpt lat="45.62335" lon="4.54702">
        <ele>677.38623046875</ele>
        <time>2010-11-13T10:57:41Z</time>
      </trkpt>
      <trkpt lat="45.62323" lon="4.5471">
        <ele>679.78930664062</ele>
        <time>2010-11-13T10:57:50Z</time>
      </trkpt>
      <trkpt lat="45.62312" lon="4.54717">
        <ele>680.75073242188</ele>
        <time>2010-11-13T10:57:58Z</time>
      </trkpt>
      <trkpt lat="45.62303" lon="4.54725">
        <ele>682.67333984375</ele>
        <time>2010-11-13T10:58:05Z</time>
      </trkpt>
      <trkpt lat="45.6229" lon="4.54731">
        <ele>685.55737304688</ele>
        <time>2010-11-13T10:58:15Z</time>
      </trkpt>
      <trkpt lat="45.62278" lon="4.54734">
        <ele>687.47998046875</ele>
        <time>2010-11-13T10:58:23Z</time>
      </trkpt>
      <trkpt lat="45.62263" lon="4.54738">
        <ele>687.96069335938</ele>
        <time>2010-11-13T10:58:33Z</time>
      </trkpt>
      <trkpt lat="45.62247" lon="4.54744">
        <ele>688.92211914062</ele>
        <time>2010-11-13T10:58:44Z</time>
      </trkpt>
      <trkpt lat="45.62236" lon="4.54748">
        <ele>690.84448242188</ele>
        <time>2010-11-13T10:58:51Z</time>
      </trkpt>
      <trkpt lat="45.6222" lon="4.54753">
        <ele>693.24780273438</ele>
        <time>2010-11-13T10:59:01Z</time>
      </trkpt>
      <trkpt lat="45.62208" lon="4.54757">
        <ele>694.68969726562</ele>
        <time>2010-11-13T10:59:09Z</time>
      </trkpt>
      <trkpt lat="45.62197" lon="4.54759">
        <ele>695.65112304688</ele>
        <time>2010-11-13T10:59:16Z</time>
      </trkpt>
      <trkpt lat="45.62187" lon="4.5476">
        <ele>697.09301757812</ele>
        <time>2010-11-13T10:59:23Z</time>
      </trkpt>
      <trkpt lat="45.62177" lon="4.54762">
        <ele>699.015625</ele>
        <time>2010-11-13T10:59:30Z</time>
      </trkpt>
      <trkpt lat="45.62174" lon="4.54764">
        <ele>699.49633789062</ele>
        <time>2010-11-13T10:59:32Z</time>
      </trkpt>
      <trkpt lat="45.62158" lon="4.54768">
        <ele>702.38037109375</ele>
        <time>2010-11-13T10:59:43Z</time>
      </trkpt>
      <trkpt lat="45.62144" lon="4.54771">
        <ele>703.341796875</ele>
        <time>2010-11-13T10:59:51Z</time>
      </trkpt>
      <trkpt lat="45.62135" lon="4.54774">
        <ele>706.2255859375</ele>
        <time>2010-11-13T10:59:57Z</time>
      </trkpt>
      <trkpt lat="45.62126" lon="4.54774">
        <ele>706.2255859375</ele>
        <time>2010-11-13T11:00:02Z</time>
      </trkpt>
      <trkpt lat="45.62111" lon="4.54771">
        <ele>709.10961914062</ele>
        <time>2010-11-13T11:00:11Z</time>
      </trkpt>
      <trkpt lat="45.62106" lon="4.54755">
        <ele>708.1484375</ele>
        <time>2010-11-13T11:00:16Z</time>
      </trkpt>
      <trkpt lat="45.62106" lon="4.54739">
        <ele>707.18701171875</ele>
        <time>2010-11-13T11:00:19Z</time>
      </trkpt>
      <trkpt lat="45.62107" lon="4.54714">
        <ele>706.2255859375</ele>
        <time>2010-11-13T11:00:23Z</time>
      </trkpt>
      <trkpt lat="45.62106" lon="4.54694">
        <ele>705.26440429688</ele>
        <time>2010-11-13T11:00:26Z</time>
      </trkpt>
      <trkpt lat="45.62097" lon="4.54637">
        <ele>702.86108398438</ele>
        <time>2010-11-13T11:00:33Z</time>
      </trkpt>
      <trkpt lat="45.62084" lon="4.54577">
        <ele>700.9384765625</ele>
        <time>2010-11-13T11:00:39Z</time>
      </trkpt>
      <trkpt lat="45.62077" lon="4.5453">
        <ele>700.4580078125</ele>
        <time>2010-11-13T11:00:44Z</time>
      </trkpt>
      <trkpt lat="45.62084" lon="4.54459">
        <ele>699.015625</ele>
        <time>2010-11-13T11:00:52Z</time>
      </trkpt>
      <trkpt lat="45.62084" lon="4.54409">
        <ele>698.53491210938</ele>
        <time>2010-11-13T11:00:58Z</time>
      </trkpt>
      <trkpt lat="45.62076" lon="4.54355">
        <ele>697.09301757812</ele>
        <time>2010-11-13T11:01:04Z</time>
      </trkpt>
      <trkpt lat="45.62061" lon="4.54308">
        <ele>693.728515625</ele>
        <time>2010-11-13T11:01:09Z</time>
      </trkpt>
      <trkpt lat="45.62041" lon="4.54271">
        <ele>692.28662109375</ele>
        <time>2010-11-13T11:01:13Z</time>
      </trkpt>
      <trkpt lat="45.62035" lon="4.54231">
        <ele>692.28662109375</ele>
        <time>2010-11-13T11:01:17Z</time>
      </trkpt>
      <trkpt lat="45.62043" lon="4.54217">
        <ele>692.76733398438</ele>
        <time>2010-11-13T11:01:19Z</time>
      </trkpt>
      <trkpt lat="45.62053" lon="4.5421">
        <ele>692.28662109375</ele>
        <time>2010-11-13T11:01:21Z</time>
      </trkpt>
      <trkpt lat="45.6207" lon="4.54201">
        <ele>692.76733398438</ele>
        <time>2010-11-13T11:01:26Z</time>
      </trkpt>
      <trkpt lat="45.62083" lon="4.54196">
        <ele>694.20922851562</ele>
        <time>2010-11-13T11:01:32Z</time>
      </trkpt>
      <trkpt lat="45.62098" lon="4.5419">
        <ele>696.61254882812</ele>
        <time>2010-11-13T11:01:40Z</time>
      </trkpt>
      <trkpt lat="45.62099" lon="4.54188">
        <ele>696.61254882812</ele>
        <time>2010-11-13T11:01:41Z</time>
      </trkpt>
      <trkpt lat="45.62101" lon="4.54179">
        <ele>697.57373046875</ele>
        <time>2010-11-13T11:01:45Z</time>
      </trkpt>
      <trkpt lat="45.62096" lon="4.54168">
        <ele>698.53491210938</ele>
        <time>2010-11-13T11:01:52Z</time>
      </trkpt>
      <trkpt lat="45.62086" lon="4.54159">
        <ele>699.97705078125</ele>
        <time>2010-11-13T11:02:01Z</time>
      </trkpt>
      <trkpt lat="45.6208" lon="4.54153">
        <ele>702.38037109375</ele>
        <time>2010-11-13T11:02:07Z</time>
      </trkpt>
      <trkpt lat="45.62079" lon="4.54152">
        <ele>702.38037109375</ele>
        <time>2010-11-13T11:02:08Z</time>
      </trkpt>
      <trkpt lat="45.62066" lon="4.54144">
        <ele>705.26440429688</ele>
        <time>2010-11-13T11:02:18Z</time>
      </trkpt>
      <trkpt lat="45.62064" lon="4.54142">
        <ele>706.2255859375</ele>
        <time>2010-11-13T11:02:20Z</time>
      </trkpt>
      <trkpt lat="45.62053" lon="4.54136">
        <ele>707.18701171875</ele>
        <time>2010-11-13T11:02:29Z</time>
      </trkpt>
      <trkpt lat="45.62043" lon="4.54131">
        <ele>709.10961914062</ele>
        <time>2010-11-13T11:02:37Z</time>
      </trkpt>
      <trkpt lat="45.62036" lon="4.54127">
        <ele>711.0322265625</ele>
        <time>2010-11-13T11:02:43Z</time>
      </trkpt>
      <trkpt lat="45.62024" lon="4.5412">
        <ele>712.95483398438</ele>
        <time>2010-11-13T11:02:53Z</time>
      </trkpt>
      <trkpt lat="45.62014" lon="4.54115">
        <ele>715.35815429688</ele>
        <time>2010-11-13T11:03:02Z</time>
      </trkpt>
      <trkpt lat="45.62004" lon="4.54109">
        <ele>718.2421875</ele>
        <time>2010-11-13T11:03:11Z</time>
      </trkpt>
      <trkpt lat="45.61993" lon="4.54103">
        <ele>721.12622070312</ele>
        <time>2010-11-13T11:03:21Z</time>
      </trkpt>
      <trkpt lat="45.61982" lon="4.54099">
        <ele>722.08740234375</ele>
        <time>2010-11-13T11:03:30Z</time>
      </trkpt>
      <trkpt lat="45.61972" lon="4.54096">
        <ele>724.97143554688</ele>
        <time>2010-11-13T11:03:39Z</time>
      </trkpt>
      <trkpt lat="45.61964" lon="4.54095">
        <ele>727.85522460938</ele>
        <time>2010-11-13T11:03:47Z</time>
      </trkpt>
      <trkpt lat="45.61963" lon="4.54095">
        <ele>728.3359375</ele>
        <time>2010-11-13T11:03:48Z</time>
      </trkpt>
      <trkpt lat="45.61956" lon="4.54093">
        <ele>729.29711914062</ele>
        <time>2010-11-13T11:03:55Z</time>
      </trkpt>
      <trkpt lat="45.61946" lon="4.54091">
        <ele>731.21997070312</ele>
        <time>2010-11-13T11:04:03Z</time>
      </trkpt>
      <trkpt lat="45.61938" lon="4.5409">
        <ele>733.142578125</ele>
        <time>2010-11-13T11:04:10Z</time>
      </trkpt>
      <trkpt lat="45.61926" lon="4.54088">
        <ele>736.50732421875</ele>
        <time>2010-11-13T11:04:19Z</time>
      </trkpt>
      <trkpt lat="45.61919" lon="4.54087">
        <ele>737.46850585938</ele>
        <time>2010-11-13T11:04:24Z</time>
      </trkpt>
      <trkpt lat="45.61908" lon="4.5408">
        <ele>737.46850585938</ele>
        <time>2010-11-13T11:04:33Z</time>
      </trkpt>
      <trkpt lat="45.61899" lon="4.54074">
        <ele>737.94921875</ele>
        <time>2010-11-13T11:04:40Z</time>
      </trkpt>
      <trkpt lat="45.61889" lon="4.5407">
        <ele>738.42993164062</ele>
        <time>2010-11-13T11:04:47Z</time>
      </trkpt>
      <trkpt lat="45.61875" lon="4.54073">
        <ele>739.39111328125</ele>
        <time>2010-11-13T11:04:55Z</time>
      </trkpt>
      <trkpt lat="45.61856" lon="4.54077">
        <ele>739.39111328125</ele>
        <time>2010-11-13T11:05:04Z</time>
      </trkpt>
      <trkpt lat="45.61839" lon="4.54084">
        <ele>739.87182617188</ele>
        <time>2010-11-13T11:05:12Z</time>
      </trkpt>
      <trkpt lat="45.61823" lon="4.54095">
        <ele>740.3525390625</ele>
        <time>2010-11-13T11:05:19Z</time>
      </trkpt>
      <trkpt lat="45.61811" lon="4.54113">
        <ele>740.8330078125</ele>
        <time>2010-11-13T11:05:27Z</time>
      </trkpt>
      <trkpt lat="45.61805" lon="4.54138">
        <ele>742.755859375</ele>
        <time>2010-11-13T11:05:36Z</time>
      </trkpt>
      <trkpt lat="45.61802" lon="4.54167">
        <ele>744.19775390625</ele>
        <time>2010-11-13T11:05:46Z</time>
      </trkpt>
      <trkpt lat="45.61801" lon="4.54188">
        <ele>746.12036132812</ele>
        <time>2010-11-13T11:05:55Z</time>
      </trkpt>
      <trkpt lat="45.61799" lon="4.54209">
        <ele>748.04321289062</ele>
        <time>2010-11-13T11:06:05Z</time>
      </trkpt>
      <trkpt lat="45.61797" lon="4.54228">
        <ele>749.48510742188</ele>
        <time>2010-11-13T11:06:14Z</time>
      </trkpt>
      <trkpt lat="45.61795" lon="4.54245">
        <ele>751.40771484375</ele>
        <time>2010-11-13T11:06:22Z</time>
      </trkpt>
      <trkpt lat="45.61794" lon="4.54263">
        <ele>753.33032226562</ele>
        <time>2010-11-13T11:06:31Z</time>
      </trkpt>
      <trkpt lat="45.61793" lon="4.54283">
        <ele>755.2529296875</ele>
        <time>2010-11-13T11:06:40Z</time>
      </trkpt>
      <trkpt lat="45.61792" lon="4.54299">
        <ele>756.69482421875</ele>
        <time>2010-11-13T11:06:47Z</time>
      </trkpt>
      <trkpt lat="45.61792" lon="4.5431">
        <ele>757.65625</ele>
        <time>2010-11-13T11:06:52Z</time>
      </trkpt>
      <trkpt lat="45.61794" lon="4.5433">
        <ele>758.13696289062</ele>
        <time>2010-11-13T11:07:01Z</time>
      </trkpt>
      <trkpt lat="45.61797" lon="4.54352">
        <ele>760.05932617188</ele>
        <time>2010-11-13T11:07:10Z</time>
      </trkpt>
      <trkpt lat="45.61802" lon="4.54374">
        <ele>760.5400390625</ele>
        <time>2010-11-13T11:07:18Z</time>
      </trkpt>
      <trkpt lat="45.61808" lon="4.54389">
        <ele>761.50146484375</ele>
        <time>2010-11-13T11:07:24Z</time>
      </trkpt>
      <trkpt lat="45.61813" lon="4.54411">
        <ele>761.98217773438</ele>
        <time>2010-11-13T11:07:32Z</time>
      </trkpt>
      <trkpt lat="45.61821" lon="4.54437">
        <ele>763.42407226562</ele>
        <time>2010-11-13T11:07:42Z</time>
      </trkpt>
      <trkpt lat="45.61826" lon="4.54456">
        <ele>764.8662109375</ele>
        <time>2010-11-13T11:07:50Z</time>
      </trkpt>
      <trkpt lat="45.61827" lon="4.54468">
        <ele>766.30810546875</ele>
        <time>2010-11-13T11:07:54Z</time>
      </trkpt>
      <trkpt lat="45.61819" lon="4.54473">
        <ele>767.75</ele>
        <time>2010-11-13T11:07:59Z</time>
      </trkpt>
      <trkpt lat="45.61817" lon="4.54473">
        <ele>768.23071289062</ele>
        <time>2010-11-13T11:08:00Z</time>
      </trkpt>
      <trkpt lat="45.61805" lon="4.54468">
        <ele>769.6728515625</ele>
        <time>2010-11-13T11:08:07Z</time>
      </trkpt>
      <trkpt lat="45.61795" lon="4.54463">
        <ele>770.1533203125</ele>
        <time>2010-11-13T11:08:14Z</time>
      </trkpt>
      <trkpt lat="45.61784" lon="4.54457">
        <ele>772.07592773438</ele>
        <time>2010-11-13T11:08:22Z</time>
      </trkpt>
      <trkpt lat="45.61768" lon="4.54451">
        <ele>774.47924804688</ele>
        <time>2010-11-13T11:08:33Z</time>
      </trkpt>
      <trkpt lat="45.61758" lon="4.54443">
        <ele>775.92114257812</ele>
        <time>2010-11-13T11:08:41Z</time>
      </trkpt>
      <trkpt lat="45.61757" lon="4.54442">
        <ele>775.92114257812</ele>
        <time>2010-11-13T11:08:42Z</time>
      </trkpt>
      <trkpt lat="45.61748" lon="4.54436">
        <ele>776.88256835938</ele>
        <time>2010-11-13T11:08:49Z</time>
      </trkpt>
      <trkpt lat="45.61737" lon="4.54428">
        <ele>779.76635742188</ele>
        <time>2010-11-13T11:08:57Z</time>
      </trkpt>
      <trkpt lat="45.61733" lon="4.54426">
        <ele>780.24731445312</ele>
        <time>2010-11-13T11:09:00Z</time>
      </trkpt>
      <trkpt lat="45.61728" lon="4.54423">
        <ele>781.20874023438</ele>
        <time>2010-11-13T11:09:04Z</time>
      </trkpt>
      <trkpt lat="45.61718" lon="4.54416">
        <ele>782.65063476562</ele>
        <time>2010-11-13T11:09:12Z</time>
      </trkpt>
      <trkpt lat="45.61703" lon="4.54409">
        <ele>785.05395507812</ele>
        <time>2010-11-13T11:09:23Z</time>
      </trkpt>
      <trkpt lat="45.6169" lon="4.54402">
        <ele>787.45703125</ele>
        <time>2010-11-13T11:09:33Z</time>
      </trkpt>
      <trkpt lat="45.61678" lon="4.54396">
        <ele>788.89916992188</ele>
        <time>2010-11-13T11:09:41Z</time>
      </trkpt>
      <trkpt lat="45.61664" lon="4.5439">
        <ele>791.78295898438</ele>
        <time>2010-11-13T11:09:51Z</time>
      </trkpt>
      <trkpt lat="45.6165" lon="4.54384">
        <ele>793.70556640625</ele>
        <time>2010-11-13T11:10:01Z</time>
      </trkpt>
      <trkpt lat="45.61638" lon="4.54378">
        <ele>795.62817382812</ele>
        <time>2010-11-13T11:10:10Z</time>
      </trkpt>
      <trkpt lat="45.61626" lon="4.54373">
        <ele>797.0703125</ele>
        <time>2010-11-13T11:10:18Z</time>
      </trkpt>
      <trkpt lat="45.61613" lon="4.54366">
        <ele>798.51220703125</ele>
        <time>2010-11-13T11:10:28Z</time>
      </trkpt>
      <trkpt lat="45.616" lon="4.5436">
        <ele>800.43505859375</ele>
        <time>2010-11-13T11:10:37Z</time>
      </trkpt>
      <trkpt lat="45.61586" lon="4.54353">
        <ele>802.357421875</ele>
        <time>2010-11-13T11:10:47Z</time>
      </trkpt>
      <trkpt lat="45.61574" lon="4.54346">
        <ele>804.2802734375</ele>
        <time>2010-11-13T11:10:57Z</time>
      </trkpt>
      <trkpt lat="45.61562" lon="4.5434">
        <ele>806.20263671875</ele>
        <time>2010-11-13T11:11:06Z</time>
      </trkpt>
      <trkpt lat="45.61548" lon="4.54333">
        <ele>808.60595703125</ele>
        <time>2010-11-13T11:11:16Z</time>
      </trkpt>
      <trkpt lat="45.61537" lon="4.54325">
        <ele>811.00927734375</ele>
        <time>2010-11-13T11:11:24Z</time>
      </trkpt>
      <trkpt lat="45.61528" lon="4.54313">
        <ele>811.48999023438</ele>
        <time>2010-11-13T11:11:33Z</time>
      </trkpt>
      <trkpt lat="45.61524" lon="4.54304">
        <ele>812.45141601562</ele>
        <time>2010-11-13T11:11:40Z</time>
      </trkpt>
      <trkpt lat="45.6152" lon="4.54296">
        <ele>812.93212890625</ele>
        <time>2010-11-13T11:11:46Z</time>
      </trkpt>
      <trkpt lat="45.61517" lon="4.54281">
        <ele>814.3740234375</ele>
        <time>2010-11-13T11:11:55Z</time>
      </trkpt>
      <trkpt lat="45.61512" lon="4.54271">
        <ele>816.29663085938</ele>
        <time>2010-11-13T11:12:01Z</time>
      </trkpt>
      <trkpt lat="45.61507" lon="4.54262">
        <ele>816.77734375</ele>
        <time>2010-11-13T11:12:06Z</time>
      </trkpt>
      <trkpt lat="45.61504" lon="4.54253">
        <ele>818.21923828125</ele>
        <time>2010-11-13T11:12:12Z</time>
      </trkpt>
      <trkpt lat="45.61496" lon="4.54243">
        <ele>819.66137695312</ele>
        <time>2010-11-13T11:12:17Z</time>
      </trkpt>
      <trkpt lat="45.61493" lon="4.54234">
        <ele>821.10327148438</ele>
        <time>2010-11-13T11:12:22Z</time>
      </trkpt>
      <trkpt lat="45.61485" lon="4.54223">
        <ele>822.54516601562</ele>
        <time>2010-11-13T11:12:27Z</time>
      </trkpt>
      <trkpt lat="45.61477" lon="4.54211">
        <ele>823.98706054688</ele>
        <time>2010-11-13T11:12:33Z</time>
      </trkpt>
      <trkpt lat="45.6147" lon="4.542">
        <ele>825.42895507812</ele>
        <time>2010-11-13T11:12:39Z</time>
      </trkpt>
      <trkpt lat="45.6147" lon="4.54198">
        <ele>825.42895507812</ele>
        <time>2010-11-13T11:12:40Z</time>
      </trkpt>
      <trkpt lat="45.61469" lon="4.54185">
        <ele>827.35180664062</ele>
        <time>2010-11-13T11:12:47Z</time>
      </trkpt>
      <trkpt lat="45.61469" lon="4.5418">
        <ele>827.83227539062</ele>
        <time>2010-11-13T11:12:50Z</time>
      </trkpt>
      <trkpt lat="45.61466" lon="4.54171">
        <ele>829.75512695312</ele>
        <time>2010-11-13T11:12:57Z</time>
      </trkpt>
      <trkpt lat="45.61465" lon="4.5417">
        <ele>830.23583984375</ele>
        <time>2010-11-13T11:12:58Z</time>
      </trkpt>
      <trkpt lat="45.61464" lon="4.54158">
        <ele>831.677734375</ele>
        <time>2010-11-13T11:13:04Z</time>
      </trkpt>
      <trkpt lat="45.61464" lon="4.54156">
        <ele>831.677734375</ele>
        <time>2010-11-13T11:13:05Z</time>
      </trkpt>
      <trkpt lat="45.6146" lon="4.5415">
        <ele>832.63916015625</ele>
        <time>2010-11-13T11:13:09Z</time>
      </trkpt>
      <trkpt lat="45.61457" lon="4.54138">
        <ele>833.60034179688</ele>
        <time>2010-11-13T11:13:15Z</time>
      </trkpt>
      <trkpt lat="45.61452" lon="4.54119">
        <ele>834.56176757812</ele>
        <time>2010-11-13T11:13:23Z</time>
      </trkpt>
      <trkpt lat="45.61448" lon="4.54107">
        <ele>836.00366210938</ele>
        <time>2010-11-13T11:13:28Z</time>
      </trkpt>
      <trkpt lat="45.61443" lon="4.54089">
        <ele>837.92626953125</ele>
        <time>2010-11-13T11:13:36Z</time>
      </trkpt>
      <trkpt lat="45.61442" lon="4.54086">
        <ele>837.92626953125</ele>
        <time>2010-11-13T11:13:37Z</time>
      </trkpt>
      <trkpt lat="45.61443" lon="4.54072">
        <ele>839.3681640625</ele>
        <time>2010-11-13T11:13:44Z</time>
      </trkpt>
      <trkpt lat="45.61444" lon="4.54061">
        <ele>839.84887695312</ele>
        <time>2010-11-13T11:13:49Z</time>
      </trkpt>
      <trkpt lat="45.61446" lon="4.54043">
        <ele>841.29077148438</ele>
        <time>2010-11-13T11:13:57Z</time>
      </trkpt>
      <trkpt lat="45.61446" lon="4.54035">
        <ele>842.73291015625</ele>
        <time>2010-11-13T11:14:00Z</time>
      </trkpt>
      <trkpt lat="45.61447" lon="4.54019">
        <ele>843.69409179688</ele>
        <time>2010-11-13T11:14:07Z</time>
      </trkpt>
      <trkpt lat="45.61444" lon="4.54001">
        <ele>845.13623046875</ele>
        <time>2010-11-13T11:14:15Z</time>
      </trkpt>
      <trkpt lat="45.6144" lon="4.53984">
        <ele>847.05883789062</ele>
        <time>2010-11-13T11:14:23Z</time>
      </trkpt>
      <trkpt lat="45.61435" lon="4.53965">
        <ele>849.46215820312</ele>
        <time>2010-11-13T11:14:33Z</time>
      </trkpt>
      <trkpt lat="45.6143" lon="4.5395">
        <ele>851.384765625</ele>
        <time>2010-11-13T11:14:41Z</time>
      </trkpt>
      <trkpt lat="45.61423" lon="4.53933">
        <ele>853.30737304688</ele>
        <time>2010-11-13T11:14:49Z</time>
      </trkpt>
      <trkpt lat="45.61417" lon="4.53921">
        <ele>855.22998046875</ele>
        <time>2010-11-13T11:14:55Z</time>
      </trkpt>
      <trkpt lat="45.61408" lon="4.53906">
        <ele>858.11401367188</ele>
        <time>2010-11-13T11:15:02Z</time>
      </trkpt>
      <trkpt lat="45.61404" lon="4.53894">
        <ele>859.55590820312</ele>
        <time>2010-11-13T11:15:08Z</time>
      </trkpt>
      <trkpt lat="45.61396" lon="4.53878">
        <ele>861.47875976562</ele>
        <time>2010-11-13T11:15:16Z</time>
      </trkpt>
      <trkpt lat="45.61392" lon="4.53866">
        <ele>860.998046875</ele>
        <time>2010-11-13T11:15:23Z</time>
      </trkpt>
      <trkpt lat="45.61385" lon="4.53847">
        <ele>861.95947265625</ele>
        <time>2010-11-13T11:15:30Z</time>
      </trkpt>
      <trkpt lat="45.61375" lon="4.53829">
        <ele>862.92065429688</ele>
        <time>2010-11-13T11:15:37Z</time>
      </trkpt>
      <trkpt lat="45.61359" lon="4.53809">
        <ele>863.4013671875</ele>
        <time>2010-11-13T11:15:46Z</time>
      </trkpt>
      <trkpt lat="45.6134" lon="4.53799">
        <ele>863.8818359375</ele>
        <time>2010-11-13T11:15:54Z</time>
      </trkpt>
      <trkpt lat="45.61319" lon="4.53793">
        <ele>864.36254882812</ele>
        <time>2010-11-13T11:16:02Z</time>
      </trkpt>
      <trkpt lat="45.61294" lon="4.53788">
        <ele>864.36254882812</ele>
        <time>2010-11-13T11:16:11Z</time>
      </trkpt>
      <trkpt lat="45.61273" lon="4.53783">
        <ele>865.8046875</ele>
        <time>2010-11-13T11:16:20Z</time>
      </trkpt>
      <trkpt lat="45.61246" lon="4.53773">
        <ele>867.72705078125</ele>
        <time>2010-11-13T11:16:31Z</time>
      </trkpt>
      <trkpt lat="45.61229" lon="4.53755">
        <ele>866.28515625</ele>
        <time>2010-11-13T11:16:38Z</time>
      </trkpt>
      <trkpt lat="45.61209" lon="4.5374">
        <ele>866.28515625</ele>
        <time>2010-11-13T11:16:45Z</time>
      </trkpt>
      <trkpt lat="45.61196" lon="4.53735">
        <ele>866.76586914062</ele>
        <time>2010-11-13T11:16:50Z</time>
      </trkpt>
      <trkpt lat="45.61175" lon="4.53728">
        <ele>867.72705078125</ele>
        <time>2010-11-13T11:16:58Z</time>
      </trkpt>
      <trkpt lat="45.61161" lon="4.53717">
        <ele>869.16918945312</ele>
        <time>2010-11-13T11:17:05Z</time>
      </trkpt>
      <trkpt lat="45.61145" lon="4.53699">
        <ele>870.13037109375</ele>
        <time>2010-11-13T11:17:14Z</time>
      </trkpt>
      <trkpt lat="45.61135" lon="4.53686">
        <ele>870.61108398438</ele>
        <time>2010-11-13T11:17:20Z</time>
      </trkpt>
      <trkpt lat="45.61122" lon="4.5366">
        <ele>870.61108398438</ele>
        <time>2010-11-13T11:17:27Z</time>
      </trkpt>
      <trkpt lat="45.611" lon="4.53635">
        <ele>871.572265625</ele>
        <time>2010-11-13T11:17:35Z</time>
      </trkpt>
      <trkpt lat="45.61086" lon="4.53614">
        <ele>872.05297851562</ele>
        <time>2010-11-13T11:17:41Z</time>
      </trkpt>
      <trkpt lat="45.61071" lon="4.53583">
        <ele>871.091796875</ele>
        <time>2010-11-13T11:17:48Z</time>
      </trkpt>
      <trkpt lat="45.61052" lon="4.53543">
        <ele>872.05297851562</ele>
        <time>2010-11-13T11:17:56Z</time>
      </trkpt>
      <trkpt lat="45.61039" lon="4.53509">
        <ele>872.05297851562</ele>
        <time>2010-11-13T11:18:03Z</time>
      </trkpt>
      <trkpt lat="45.61023" lon="4.5347">
        <ele>871.572265625</ele>
        <time>2010-11-13T11:18:10Z</time>
      </trkpt>
      <trkpt lat="45.61002" lon="4.53423">
        <ele>871.572265625</ele>
        <time>2010-11-13T11:18:18Z</time>
      </trkpt>
      <trkpt lat="45.60993" lon="4.53406">
        <ele>870.61108398438</ele>
        <time>2010-11-13T11:18:21Z</time>
      </trkpt>
      <trkpt lat="45.60968" lon="4.5338">
        <ele>868.20776367188</ele>
        <time>2010-11-13T11:18:27Z</time>
      </trkpt>
      <trkpt lat="45.6096" lon="4.53376">
        <ele>865.8046875</ele>
        <time>2010-11-13T11:18:29Z</time>
      </trkpt>
      <trkpt lat="45.60956" lon="4.53375">
        <ele>865.32397460938</ele>
        <time>2010-11-13T11:18:31Z</time>
      </trkpt>
      <trkpt lat="45.60953" lon="4.53375">
        <ele>864.36254882812</ele>
        <time>2010-11-13T11:18:35Z</time>
      </trkpt>
      <trkpt lat="45.60951" lon="4.53375">
        <ele>864.36254882812</ele>
        <time>2010-11-13T11:19:47Z</time>
      </trkpt>
      <trkpt lat="45.60949" lon="4.53378">
        <ele>863.8818359375</ele>
        <time>2010-11-13T11:20:17Z</time>
      </trkpt>
      <trkpt lat="45.60945" lon="4.53373">
        <ele>863.4013671875</ele>
        <time>2010-11-13T11:20:22Z</time>
      </trkpt>
      <trkpt lat="45.60928" lon="4.53363">
        <ele>861.95947265625</ele>
        <time>2010-11-13T11:20:26Z</time>
      </trkpt>
      <trkpt lat="45.60916" lon="4.53354">
        <ele>860.998046875</ele>
        <time>2010-11-13T11:20:28Z</time>
      </trkpt>
      <trkpt lat="45.6088" lon="4.53328">
        <ele>858.11401367188</ele>
        <time>2010-11-13T11:20:33Z</time>
      </trkpt>
      <trkpt lat="45.60856" lon="4.53315">
        <ele>856.671875</ele>
        <time>2010-11-13T11:20:36Z</time>
      </trkpt>
      <trkpt lat="45.60824" lon="4.53302">
        <ele>855.22998046875</ele>
        <time>2010-11-13T11:20:40Z</time>
      </trkpt>
      <trkpt lat="45.60809" lon="4.53295">
        <ele>855.22998046875</ele>
        <time>2010-11-13T11:20:42Z</time>
      </trkpt>
      <trkpt lat="45.60775" lon="4.53282">
        <ele>853.7880859375</ele>
        <time>2010-11-13T11:20:47Z</time>
      </trkpt>
      <trkpt lat="45.60735" lon="4.53252">
        <ele>852.82666015625</ele>
        <time>2010-11-13T11:20:54Z</time>
      </trkpt>
      <trkpt lat="45.607" lon="4.53214">
        <ele>852.34594726562</ele>
        <time>2010-11-13T11:21:01Z</time>
      </trkpt>
      <trkpt lat="45.60676" lon="4.53184">
        <ele>851.384765625</ele>
        <time>2010-11-13T11:21:06Z</time>
      </trkpt>
      <trkpt lat="45.60658" lon="4.53134">
        <ele>851.86547851562</ele>
        <time>2010-11-13T11:21:13Z</time>
      </trkpt>
      <trkpt lat="45.60648" lon="4.53109">
        <ele>852.34594726562</ele>
        <time>2010-11-13T11:21:17Z</time>
      </trkpt>
      <trkpt lat="45.60624" lon="4.53085">
        <ele>851.384765625</ele>
        <time>2010-11-13T11:21:24Z</time>
      </trkpt>
      <trkpt lat="45.60598" lon="4.53068">
        <ele>849.46215820312</ele>
        <time>2010-11-13T11:21:30Z</time>
      </trkpt>
      <trkpt lat="45.60587" lon="4.53058">
        <ele>848.50073242188</ele>
        <time>2010-11-13T11:21:32Z</time>
      </trkpt>
      <trkpt lat="45.60565" lon="4.53023">
        <ele>845.13623046875</ele>
        <time>2010-11-13T11:21:36Z</time>
      </trkpt>
      <trkpt lat="45.60544" lon="4.52972">
        <ele>840.32958984375</ele>
        <time>2010-11-13T11:21:40Z</time>
      </trkpt>
      <trkpt lat="45.60521" lon="4.52917">
        <ele>837.44555664062</ele>
        <time>2010-11-13T11:21:44Z</time>
      </trkpt>
      <trkpt lat="45.60489" lon="4.52839">
        <ele>834.0810546875</ele>
        <time>2010-11-13T11:21:50Z</time>
      </trkpt>
      <trkpt lat="45.60472" lon="4.52784">
        <ele>831.197265625</ele>
        <time>2010-11-13T11:21:54Z</time>
      </trkpt>
      <trkpt lat="45.6046" lon="4.52746">
        <ele>828.31323242188</ele>
        <time>2010-11-13T11:21:57Z</time>
      </trkpt>
      <trkpt lat="45.60443" lon="4.52686">
        <ele>827.83227539062</ele>
        <time>2010-11-13T11:22:02Z</time>
      </trkpt>
      <trkpt lat="45.60431" lon="4.52636">
        <ele>826.39038085938</ele>
        <time>2010-11-13T11:22:07Z</time>
      </trkpt>
      <trkpt lat="45.60419" lon="4.52589">
        <ele>826.39038085938</ele>
        <time>2010-11-13T11:22:13Z</time>
      </trkpt>
      <trkpt lat="45.6041" lon="4.52542">
        <ele>825.90966796875</ele>
        <time>2010-11-13T11:22:20Z</time>
      </trkpt>
      <trkpt lat="45.60405" lon="4.5248">
        <ele>827.35180664062</ele>
        <time>2010-11-13T11:22:30Z</time>
      </trkpt>
      <trkpt lat="45.604" lon="4.52429">
        <ele>826.87109375</ele>
        <time>2010-11-13T11:22:38Z</time>
      </trkpt>
      <trkpt lat="45.60395" lon="4.52409">
        <ele>826.87109375</ele>
        <time>2010-11-13T11:22:41Z</time>
      </trkpt>
      <trkpt lat="45.60388" lon="4.52391">
        <ele>827.35180664062</ele>
        <time>2010-11-13T11:22:44Z</time>
      </trkpt>
      <trkpt lat="45.60382" lon="4.52369">
        <ele>827.35180664062</ele>
        <time>2010-11-13T11:22:48Z</time>
      </trkpt>
      <trkpt lat="45.60376" lon="4.52344">
        <ele>827.35180664062</ele>
        <time>2010-11-13T11:22:53Z</time>
      </trkpt>
      <trkpt lat="45.60368" lon="4.5232">
        <ele>826.87109375</ele>
        <time>2010-11-13T11:22:58Z</time>
      </trkpt>
      <trkpt lat="45.60366" lon="4.52292">
        <ele>826.87109375</ele>
        <time>2010-11-13T11:23:04Z</time>
      </trkpt>
      <trkpt lat="45.6036" lon="4.52281">
        <ele>826.87109375</ele>
        <time>2010-11-13T11:23:07Z</time>
      </trkpt>
      <trkpt lat="45.60339" lon="4.52262">
        <ele>826.87109375</ele>
        <time>2010-11-13T11:23:13Z</time>
      </trkpt>
      <trkpt lat="45.60332" lon="4.52246">
        <ele>827.35180664062</ele>
        <time>2010-11-13T11:23:18Z</time>
      </trkpt>
      <trkpt lat="45.60331" lon="4.52241">
        <ele>827.35180664062</ele>
        <time>2010-11-13T11:23:20Z</time>
      </trkpt>
      <trkpt lat="45.60323" lon="4.52237">
        <ele>828.31323242188</ele>
        <time>2010-11-13T11:23:25Z</time>
      </trkpt>
      <trkpt lat="45.60321" lon="4.52238">
        <ele>828.31323242188</ele>
        <time>2010-11-13T11:23:26Z</time>
      </trkpt>
      <trkpt lat="45.60307" lon="4.52243">
        <ele>829.75512695312</ele>
        <time>2010-11-13T11:23:32Z</time>
      </trkpt>
      <trkpt lat="45.60292" lon="4.52241">
        <ele>831.197265625</ele>
        <time>2010-11-13T11:23:38Z</time>
      </trkpt>
      <trkpt lat="45.60284" lon="4.52228">
        <ele>831.197265625</ele>
        <time>2010-11-13T11:23:44Z</time>
      </trkpt>
      <trkpt lat="45.60272" lon="4.52207">
        <ele>833.11962890625</ele>
        <time>2010-11-13T11:23:52Z</time>
      </trkpt>
      <trkpt lat="45.60263" lon="4.52187">
        <ele>835.04248046875</ele>
        <time>2010-11-13T11:23:59Z</time>
      </trkpt>
      <trkpt lat="45.60259" lon="4.52172">
        <ele>836.00366210938</ele>
        <time>2010-11-13T11:24:04Z</time>
      </trkpt>
      <trkpt lat="45.6025" lon="4.52157">
        <ele>836.96484375</ele>
        <time>2010-11-13T11:24:10Z</time>
      </trkpt>
      <trkpt lat="45.60236" lon="4.52142">
        <ele>838.40698242188</ele>
        <time>2010-11-13T11:24:17Z</time>
      </trkpt>
      <trkpt lat="45.60221" lon="4.52124">
        <ele>839.3681640625</ele>
        <time>2010-11-13T11:24:25Z</time>
      </trkpt>
      <trkpt lat="45.60204" lon="4.52106">
        <ele>840.81005859375</ele>
        <time>2010-11-13T11:24:34Z</time>
      </trkpt>
      <trkpt lat="45.60188" lon="4.52101">
        <ele>842.25219726562</ele>
        <time>2010-11-13T11:24:41Z</time>
      </trkpt>
      <trkpt lat="45.60166" lon="4.52098">
        <ele>843.69409179688</ele>
        <time>2010-11-13T11:24:50Z</time>
      </trkpt>
      <trkpt lat="45.60142" lon="4.52094">
        <ele>844.65551757812</ele>
        <time>2010-11-13T11:24:59Z</time>
      </trkpt>
      <trkpt lat="45.6012" lon="4.5209">
        <ele>845.61694335938</ele>
        <time>2010-11-13T11:25:07Z</time>
      </trkpt>
      <trkpt lat="45.60099" lon="4.52086">
        <ele>846.09765625</ele>
        <time>2010-11-13T11:25:15Z</time>
      </trkpt>
      <trkpt lat="45.60083" lon="4.52078">
        <ele>847.05883789062</ele>
        <time>2010-11-13T11:25:22Z</time>
      </trkpt>
      <trkpt lat="45.6007" lon="4.52069">
        <ele>848.02026367188</ele>
        <time>2010-11-13T11:25:28Z</time>
      </trkpt>
      <trkpt lat="45.60054" lon="4.52052">
        <ele>849.46215820312</ele>
        <time>2010-11-13T11:25:36Z</time>
      </trkpt>
      <trkpt lat="45.60033" lon="4.5203">
        <ele>851.384765625</ele>
        <time>2010-11-13T11:25:46Z</time>
      </trkpt>
      <trkpt lat="45.60017" lon="4.52012">
        <ele>851.86547851562</ele>
        <time>2010-11-13T11:25:54Z</time>
      </trkpt>
      <trkpt lat="45.59994" lon="4.51988">
        <ele>853.30737304688</ele>
        <time>2010-11-13T11:26:05Z</time>
      </trkpt>
      <trkpt lat="45.59977" lon="4.51972">
        <ele>854.26879882812</ele>
        <time>2010-11-13T11:26:13Z</time>
      </trkpt>
      <trkpt lat="45.59959" lon="4.51961">
        <ele>855.71069335938</ele>
        <time>2010-11-13T11:26:21Z</time>
      </trkpt>
      <trkpt lat="45.5994" lon="4.51953">
        <ele>856.671875</ele>
        <time>2010-11-13T11:26:29Z</time>
      </trkpt>
      <trkpt lat="45.59917" lon="4.51945">
        <ele>858.11401367188</ele>
        <time>2010-11-13T11:26:38Z</time>
      </trkpt>
      <trkpt lat="45.59896" lon="4.51937">
        <ele>860.51733398438</ele>
        <time>2010-11-13T11:26:47Z</time>
      </trkpt>
      <trkpt lat="45.59874" lon="4.51924">
        <ele>860.998046875</ele>
        <time>2010-11-13T11:26:57Z</time>
      </trkpt>
      <trkpt lat="45.59853" lon="4.51907">
        <ele>862.43994140625</ele>
        <time>2010-11-13T11:27:06Z</time>
      </trkpt>
      <trkpt lat="45.59831" lon="4.51885">
        <ele>863.8818359375</ele>
        <time>2010-11-13T11:27:16Z</time>
      </trkpt>
      <trkpt lat="45.59813" lon="4.51867">
        <ele>865.32397460938</ele>
        <time>2010-11-13T11:27:25Z</time>
      </trkpt>
      <trkpt lat="45.59789" lon="4.51843">
        <ele>866.76586914062</ele>
        <time>2010-11-13T11:27:36Z</time>
      </trkpt>
      <trkpt lat="45.59766" lon="4.51826">
        <ele>868.20776367188</ele>
        <time>2010-11-13T11:27:46Z</time>
      </trkpt>
      <trkpt lat="45.59743" lon="4.51814">
        <ele>869.64990234375</ele>
        <time>2010-11-13T11:27:55Z</time>
      </trkpt>
      <trkpt lat="45.59715" lon="4.51801">
        <ele>871.572265625</ele>
        <time>2010-11-13T11:28:06Z</time>
      </trkpt>
      <trkpt lat="45.59695" lon="4.51796">
        <ele>872.53369140625</ele>
        <time>2010-11-13T11:28:14Z</time>
      </trkpt>
      <trkpt lat="45.59676" lon="4.51798">
        <ele>874.45629882812</ele>
        <time>2010-11-13T11:28:21Z</time>
      </trkpt>
      <trkpt lat="45.59652" lon="4.51807">
        <ele>874.93701171875</ele>
        <time>2010-11-13T11:28:30Z</time>
      </trkpt>
      <trkpt lat="45.59624" lon="4.51817">
        <ele>875.41748046875</ele>
        <time>2010-11-13T11:28:40Z</time>
      </trkpt>
      <trkpt lat="45.59588" lon="4.51831">
        <ele>877.82104492188</ele>
        <time>2010-11-13T11:28:53Z</time>
      </trkpt>
      <trkpt lat="45.59562" lon="4.51839">
        <ele>879.26293945312</ele>
        <time>2010-11-13T11:29:02Z</time>
      </trkpt>
      <trkpt lat="45.59538" lon="4.51843">
        <ele>880.705078125</ele>
        <time>2010-11-13T11:29:10Z</time>
      </trkpt>
      <trkpt lat="45.59504" lon="4.51851">
        <ele>881.66625976562</ele>
        <time>2010-11-13T11:29:21Z</time>
      </trkpt>
      <trkpt lat="45.59481" lon="4.5186">
        <ele>883.5888671875</ele>
        <time>2010-11-13T11:29:29Z</time>
      </trkpt>
      <trkpt lat="45.59452" lon="4.51875">
        <ele>885.03100585938</ele>
        <time>2010-11-13T11:29:39Z</time>
      </trkpt>
      <trkpt lat="45.59425" lon="4.51889">
        <ele>885.51147460938</ele>
        <time>2010-11-13T11:29:48Z</time>
      </trkpt>
      <trkpt lat="45.59406" lon="4.51897">
        <ele>885.03100585938</ele>
        <time>2010-11-13T11:29:54Z</time>
      </trkpt>
      <trkpt lat="45.59394" lon="4.51901">
        <ele>884.55029296875</ele>
        <time>2010-11-13T11:29:57Z</time>
      </trkpt>
      <trkpt lat="45.59357" lon="4.51906">
        <ele>884.06958007812</ele>
        <time>2010-11-13T11:30:06Z</time>
      </trkpt>
      <trkpt lat="45.59323" lon="4.51903">
        <ele>883.10815429688</ele>
        <time>2010-11-13T11:30:14Z</time>
      </trkpt>
      <trkpt lat="45.5929" lon="4.51893">
        <ele>882.14697265625</ele>
        <time>2010-11-13T11:30:21Z</time>
      </trkpt>
      <trkpt lat="45.59285" lon="4.51892">
        <ele>882.14697265625</ele>
        <time>2010-11-13T11:30:22Z</time>
      </trkpt>
      <trkpt lat="45.59257" lon="4.51872">
        <ele>881.66625976562</ele>
        <time>2010-11-13T11:30:29Z</time>
      </trkpt>
      <trkpt lat="45.59246" lon="4.51861">
        <ele>881.66625976562</ele>
        <time>2010-11-13T11:30:32Z</time>
      </trkpt>
      <trkpt lat="45.59215" lon="4.51814">
        <ele>881.18579101562</ele>
        <time>2010-11-13T11:30:42Z</time>
      </trkpt>
      <trkpt lat="45.59195" lon="4.5178">
        <ele>881.18579101562</ele>
        <time>2010-11-13T11:30:49Z</time>
      </trkpt>
      <trkpt lat="45.59168" lon="4.51739">
        <ele>880.705078125</ele>
        <time>2010-11-13T11:30:57Z</time>
      </trkpt>
      <trkpt lat="45.59141" lon="4.51695">
        <ele>881.66625976562</ele>
        <time>2010-11-13T11:31:06Z</time>
      </trkpt>
      <trkpt lat="45.59122" lon="4.51663">
        <ele>882.62768554688</ele>
        <time>2010-11-13T11:31:13Z</time>
      </trkpt>
      <trkpt lat="45.59096" lon="4.5162">
        <ele>883.10815429688</ele>
        <time>2010-11-13T11:31:22Z</time>
      </trkpt>
      <trkpt lat="45.5909" lon="4.51611">
        <ele>883.5888671875</ele>
        <time>2010-11-13T11:31:24Z</time>
      </trkpt>
      <trkpt lat="45.59084" lon="4.51603">
        <ele>883.10815429688</ele>
        <time>2010-11-13T11:31:26Z</time>
      </trkpt>
      <trkpt lat="45.59057" lon="4.51568">
        <ele>884.06958007812</ele>
        <time>2010-11-13T11:31:35Z</time>
      </trkpt>
      <trkpt lat="45.59028" lon="4.51522">
        <ele>885.51147460938</ele>
        <time>2010-11-13T11:31:45Z</time>
      </trkpt>
      <trkpt lat="45.59005" lon="4.51472">
        <ele>886.47290039062</ele>
        <time>2010-11-13T11:31:54Z</time>
      </trkpt>
      <trkpt lat="45.58999" lon="4.51434">
        <ele>887.43408203125</ele>
        <time>2010-11-13T11:32:00Z</time>
      </trkpt>
      <trkpt lat="45.59001" lon="4.51388">
        <ele>887.91479492188</ele>
        <time>2010-11-13T11:32:08Z</time>
      </trkpt>
      <trkpt lat="45.59007" lon="4.51335">
        <ele>889.83740234375</ele>
        <time>2010-11-13T11:32:18Z</time>
      </trkpt>
      <trkpt lat="45.59013" lon="4.51269">
        <ele>890.79858398438</ele>
        <time>2010-11-13T11:32:31Z</time>
      </trkpt>
      <trkpt lat="45.59016" lon="4.51234">
        <ele>891.76000976562</ele>
        <time>2010-11-13T11:32:38Z</time>
      </trkpt>
      <trkpt lat="45.59019" lon="4.51191">
        <ele>892.7216796875</ele>
        <time>2010-11-13T11:32:47Z</time>
      </trkpt>
      <trkpt lat="45.59011" lon="4.5116">
        <ele>893.2021484375</ele>
        <time>2010-11-13T11:32:54Z</time>
      </trkpt>
      <trkpt lat="45.58994" lon="4.51136">
        <ele>893.68286132812</ele>
        <time>2010-11-13T11:33:01Z</time>
      </trkpt>
      <trkpt lat="45.58968" lon="4.51112">
        <ele>894.64404296875</ele>
        <time>2010-11-13T11:33:10Z</time>
      </trkpt>
      <trkpt lat="45.58941" lon="4.51088">
        <ele>895.60546875</ele>
        <time>2010-11-13T11:33:20Z</time>
      </trkpt>
      <trkpt lat="45.58921" lon="4.51063">
        <ele>896.56689453125</ele>
        <time>2010-11-13T11:33:28Z</time>
      </trkpt>
      <trkpt lat="45.58898" lon="4.51032">
        <ele>897.04736328125</ele>
        <time>2010-11-13T11:33:37Z</time>
      </trkpt>
      <trkpt lat="45.58873" lon="4.50995">
        <ele>897.52807617188</ele>
        <time>2010-11-13T11:33:47Z</time>
      </trkpt>
      <trkpt lat="45.58855" lon="4.50969">
        <ele>898.0087890625</ele>
        <time>2010-11-13T11:33:54Z</time>
      </trkpt>
      <trkpt lat="45.58849" lon="4.50961">
        <ele>898.4892578125</ele>
        <time>2010-11-13T11:33:56Z</time>
      </trkpt>
      <trkpt lat="45.58821" lon="4.50923">
        <ele>898.0087890625</ele>
        <time>2010-11-13T11:34:05Z</time>
      </trkpt>
      <trkpt lat="45.58795" lon="4.50893">
        <ele>898.4892578125</ele>
        <time>2010-11-13T11:34:13Z</time>
      </trkpt>
      <trkpt lat="45.58758" lon="4.50855">
        <ele>897.52807617188</ele>
        <time>2010-11-13T11:34:22Z</time>
      </trkpt>
      <trkpt lat="45.58736" lon="4.5085">
        <ele>896.56689453125</ele>
        <time>2010-11-13T11:34:26Z</time>
      </trkpt>
      <trkpt lat="45.58719" lon="4.5086">
        <ele>896.08618164062</ele>
        <time>2010-11-13T11:34:29Z</time>
      </trkpt>
      <trkpt lat="45.58714" lon="4.50866">
        <ele>895.60546875</ele>
        <time>2010-11-13T11:34:30Z</time>
      </trkpt>
      <trkpt lat="45.58684" lon="4.50913">
        <ele>895.60546875</ele>
        <time>2010-11-13T11:34:38Z</time>
      </trkpt>
      <trkpt lat="45.58649" lon="4.50967">
        <ele>896.08618164062</ele>
        <time>2010-11-13T11:34:48Z</time>
      </trkpt>
      <trkpt lat="45.58623" lon="4.50999">
        <ele>897.04736328125</ele>
        <time>2010-11-13T11:34:55Z</time>
      </trkpt>
      <trkpt lat="45.58591" lon="4.51021">
        <ele>897.04736328125</ele>
        <time>2010-11-13T11:35:02Z</time>
      </trkpt>
      <trkpt lat="45.58553" lon="4.51031">
        <ele>897.52807617188</ele>
        <time>2010-11-13T11:35:10Z</time>
      </trkpt>
      <trkpt lat="45.58529" lon="4.51029">
        <ele>897.52807617188</ele>
        <time>2010-11-13T11:35:15Z</time>
      </trkpt>
      <trkpt lat="45.58488" lon="4.51009">
        <ele>898.0087890625</ele>
        <time>2010-11-13T11:35:24Z</time>
      </trkpt>
      <trkpt lat="45.58456" lon="4.50993">
        <ele>898.0087890625</ele>
        <time>2010-11-13T11:35:31Z</time>
      </trkpt>
      <trkpt lat="45.58418" lon="4.50973">
        <ele>898.0087890625</ele>
        <time>2010-11-13T11:35:40Z</time>
      </trkpt>
      <trkpt lat="45.58401" lon="4.50966">
        <ele>898.0087890625</ele>
        <time>2010-11-13T11:35:44Z</time>
      </trkpt>
      <trkpt lat="45.58363" lon="4.50943">
        <ele>896.56689453125</ele>
        <time>2010-11-13T11:35:52Z</time>
      </trkpt>
      <trkpt lat="45.58329" lon="4.50914">
        <ele>896.08618164062</ele>
        <time>2010-11-13T11:35:59Z</time>
      </trkpt>
      <trkpt lat="45.58281" lon="4.50871">
        <ele>894.16357421875</ele>
        <time>2010-11-13T11:36:09Z</time>
      </trkpt>
      <trkpt lat="45.58246" lon="4.50828">
        <ele>892.24096679688</ele>
        <time>2010-11-13T11:36:17Z</time>
      </trkpt>
      <trkpt lat="45.58205" lon="4.5078">
        <ele>891.76000976562</ele>
        <time>2010-11-13T11:36:25Z</time>
      </trkpt>
      <trkpt lat="45.58167" lon="4.50742">
        <ele>889.83740234375</ele>
        <time>2010-11-13T11:36:32Z</time>
      </trkpt>
      <trkpt lat="45.58119" lon="4.50704">
        <ele>888.87622070312</ele>
        <time>2010-11-13T11:36:40Z</time>
      </trkpt>
      <trkpt lat="45.58082" lon="4.50675">
        <ele>888.87622070312</ele>
        <time>2010-11-13T11:36:47Z</time>
      </trkpt>
      <trkpt lat="45.5806" lon="4.50658">
        <ele>890.79858398438</ele>
        <time>2010-11-13T11:36:53Z</time>
      </trkpt>
      <trkpt lat="45.5804" lon="4.50643">
        <ele>892.24096679688</ele>
        <time>2010-11-13T11:37:00Z</time>
      </trkpt>
      <trkpt lat="45.5802" lon="4.5063">
        <ele>893.2021484375</ele>
        <time>2010-11-13T11:37:07Z</time>
      </trkpt>
      <trkpt lat="45.58" lon="4.50621">
        <ele>894.16357421875</ele>
        <time>2010-11-13T11:37:14Z</time>
      </trkpt>
      <trkpt lat="45.57974" lon="4.50613">
        <ele>896.08618164062</ele>
        <time>2010-11-13T11:37:23Z</time>
      </trkpt>
      <trkpt lat="45.5795" lon="4.50605">
        <ele>896.56689453125</ele>
        <time>2010-11-13T11:37:31Z</time>
      </trkpt>
      <trkpt lat="45.57927" lon="4.50599">
        <ele>896.08618164062</ele>
        <time>2010-11-13T11:37:38Z</time>
      </trkpt>
      <trkpt lat="45.57898" lon="4.50594">
        <ele>895.12475585938</ele>
        <time>2010-11-13T11:37:45Z</time>
      </trkpt>
      <trkpt lat="45.57866" lon="4.50584">
        <ele>894.64404296875</ele>
        <time>2010-11-13T11:37:51Z</time>
      </trkpt>
      <trkpt lat="45.57829" lon="4.50571">
        <ele>891.76000976562</ele>
        <time>2010-11-13T11:37:57Z</time>
      </trkpt>
      <trkpt lat="45.57801" lon="4.50561">
        <ele>889.83740234375</ele>
        <time>2010-11-13T11:38:01Z</time>
      </trkpt>
      <trkpt lat="45.57763" lon="4.50549">
        <ele>888.3955078125</ele>
        <time>2010-11-13T11:38:06Z</time>
      </trkpt>
      <trkpt lat="45.57708" lon="4.5053">
        <ele>885.9921875</ele>
        <time>2010-11-13T11:38:13Z</time>
      </trkpt>
      <trkpt lat="45.57674" lon="4.505">
        <ele>885.03100585938</ele>
        <time>2010-11-13T11:38:18Z</time>
      </trkpt>
      <trkpt lat="45.57644" lon="4.50459">
        <ele>884.06958007812</ele>
        <time>2010-11-13T11:38:24Z</time>
      </trkpt>
      <trkpt lat="45.57618" lon="4.50419">
        <ele>884.06958007812</ele>
        <time>2010-11-13T11:38:30Z</time>
      </trkpt>
      <trkpt lat="45.57589" lon="4.50376">
        <ele>882.62768554688</ele>
        <time>2010-11-13T11:38:36Z</time>
      </trkpt>
      <trkpt lat="45.57561" lon="4.5033">
        <ele>879.74365234375</ele>
        <time>2010-11-13T11:38:42Z</time>
      </trkpt>
      <trkpt lat="45.57556" lon="4.50322">
        <ele>879.74365234375</ele>
        <time>2010-11-13T11:38:43Z</time>
      </trkpt>
      <trkpt lat="45.57524" lon="4.50279">
        <ele>877.82104492188</ele>
        <time>2010-11-13T11:38:49Z</time>
      </trkpt>
      <trkpt lat="45.57497" lon="4.50262">
        <ele>876.37915039062</ele>
        <time>2010-11-13T11:38:53Z</time>
      </trkpt>
      <trkpt lat="45.57433" lon="4.50243">
        <ele>873.9755859375</ele>
        <time>2010-11-13T11:39:01Z</time>
      </trkpt>
      <trkpt lat="45.57397" lon="4.50232">
        <ele>873.01440429688</ele>
        <time>2010-11-13T11:39:05Z</time>
      </trkpt>
      <trkpt lat="45.57369" lon="4.50224">
        <ele>871.091796875</ele>
        <time>2010-11-13T11:39:08Z</time>
      </trkpt>
      <trkpt lat="45.57322" lon="4.50208">
        <ele>868.6884765625</ele>
        <time>2010-11-13T11:39:13Z</time>
      </trkpt>
      <trkpt lat="45.57241" lon="4.50182">
        <ele>865.8046875</ele>
        <time>2010-11-13T11:39:22Z</time>
      </trkpt>
      <trkpt lat="45.57209" lon="4.50172">
        <ele>864.84326171875</ele>
        <time>2010-11-13T11:39:26Z</time>
      </trkpt>
      <trkpt lat="45.57183" lon="4.50168">
        <ele>862.92065429688</ele>
        <time>2010-11-13T11:39:29Z</time>
      </trkpt>
      <trkpt lat="45.57138" lon="4.50181">
        <ele>858.59448242188</ele>
        <time>2010-11-13T11:39:34Z</time>
      </trkpt>
      <trkpt lat="45.57067" lon="4.50235">
        <ele>856.19116210938</ele>
        <time>2010-11-13T11:39:43Z</time>
      </trkpt>
      <trkpt lat="45.57032" lon="4.50256">
        <ele>854.74926757812</ele>
        <time>2010-11-13T11:39:48Z</time>
      </trkpt>
      <trkpt lat="45.57001" lon="4.50255">
        <ele>852.82666015625</ele>
        <time>2010-11-13T11:39:52Z</time>
      </trkpt>
      <trkpt lat="45.56983" lon="4.5023">
        <ele>850.90405273438</ele>
        <time>2010-11-13T11:39:55Z</time>
      </trkpt>
      <trkpt lat="45.56972" lon="4.50207">
        <ele>849.46215820312</ele>
        <time>2010-11-13T11:39:57Z</time>
      </trkpt>
      <trkpt lat="45.5695" lon="4.5018">
        <ele>848.02026367188</ele>
        <time>2010-11-13T11:40:00Z</time>
      </trkpt>
      <trkpt lat="45.56913" lon="4.50161">
        <ele>845.61694335938</ele>
        <time>2010-11-13T11:40:04Z</time>
      </trkpt>
      <trkpt lat="45.56875" lon="4.5016">
        <ele>844.17504882812</ele>
        <time>2010-11-13T11:40:08Z</time>
      </trkpt>
      <trkpt lat="45.56849" lon="4.50148">
        <ele>843.21337890625</ele>
        <time>2010-11-13T11:40:11Z</time>
      </trkpt>
      <trkpt lat="45.56841" lon="4.50141">
        <ele>843.21337890625</ele>
        <time>2010-11-13T11:40:12Z</time>
      </trkpt>
      <trkpt lat="45.56826" lon="4.50127">
        <ele>841.29077148438</ele>
        <time>2010-11-13T11:40:14Z</time>
      </trkpt>
      <trkpt lat="45.56804" lon="4.50106">
        <ele>840.32958984375</ele>
        <time>2010-11-13T11:40:17Z</time>
      </trkpt>
      <trkpt lat="45.5677" lon="4.50072">
        <ele>838.40698242188</ele>
        <time>2010-11-13T11:40:22Z</time>
      </trkpt>
      <trkpt lat="45.56754" lon="4.50063">
        <ele>837.92626953125</ele>
        <time>2010-11-13T11:40:26Z</time>
      </trkpt>
      <trkpt lat="45.56752" lon="4.50062">
        <ele>837.92626953125</ele>
        <time>2010-11-13T11:40:27Z</time>
      </trkpt>
      <trkpt lat="45.56743" lon="4.50073">
        <ele>836.484375</ele>
        <time>2010-11-13T11:40:32Z</time>
      </trkpt>
      <trkpt lat="45.56722" lon="4.5009">
        <ele>835.04248046875</ele>
        <time>2010-11-13T11:40:38Z</time>
      </trkpt>
      <trkpt lat="45.56716" lon="4.50094">
        <ele>834.0810546875</ele>
        <time>2010-11-13T11:40:40Z</time>
      </trkpt>
      <trkpt lat="45.56698" lon="4.50104">
        <ele>830.71655273438</ele>
        <time>2010-11-13T11:40:45Z</time>
      </trkpt>
      <trkpt lat="45.56693" lon="4.50106">
        <ele>829.75512695312</ele>
        <time>2010-11-13T11:40:48Z</time>
      </trkpt>
      <trkpt lat="45.56693" lon="4.50103">
        <ele>830.23583984375</ele>
        <time>2010-11-13T11:40:56Z</time>
      </trkpt>
      <trkpt lat="45.56693" lon="4.50103">
        <ele>829.75512695312</ele>
        <time>2010-11-13T11:41:09Z</time>
      </trkpt>
      <trkpt lat="45.56694" lon="4.50103">
        <ele>828.7939453125</ele>
        <time>2010-11-13T11:43:30Z</time>
      </trkpt>
      <trkpt lat="45.56694" lon="4.50103">
        <ele>829.2744140625</ele>
        <time>2010-11-13T11:47:40Z</time>
      </trkpt>
      <trkpt lat="45.56696" lon="4.50106">
        <ele>829.2744140625</ele>
        <time>2010-11-13T11:47:46Z</time>
      </trkpt>
      <trkpt lat="45.56695" lon="4.50105">
        <ele>829.75512695312</ele>
        <time>2010-11-13T11:47:53Z</time>
      </trkpt>
      <trkpt lat="45.56696" lon="4.50105">
        <ele>828.7939453125</ele>
        <time>2010-11-13T11:48:00Z</time>
      </trkpt>
      <trkpt lat="45.56696" lon="4.50106">
        <ele>828.7939453125</ele>
        <time>2010-11-13T11:48:11Z</time>
      </trkpt>
      <trkpt lat="45.56706" lon="4.501">
        <ele>831.197265625</ele>
        <time>2010-11-13T11:48:17Z</time>
      </trkpt>
      <trkpt lat="45.56717" lon="4.50095">
        <ele>832.63916015625</ele>
        <time>2010-11-13T11:48:24Z</time>
      </trkpt>
      <trkpt lat="45.5673" lon="4.50087">
        <ele>834.0810546875</ele>
        <time>2010-11-13T11:48:31Z</time>
      </trkpt>
      <trkpt lat="45.56738" lon="4.50078">
        <ele>834.56176757812</ele>
        <time>2010-11-13T11:48:37Z</time>
      </trkpt>
      <trkpt lat="45.56753" lon="4.50067">
        <ele>836.00366210938</ele>
        <time>2010-11-13T11:48:46Z</time>
      </trkpt>
      <trkpt lat="45.56756" lon="4.50061">
        <ele>836.96484375</ele>
        <time>2010-11-13T11:48:49Z</time>
      </trkpt>
      <trkpt lat="45.56751" lon="4.50051">
        <ele>836.96484375</ele>
        <time>2010-11-13T11:48:53Z</time>
      </trkpt>
      <trkpt lat="45.5673" lon="4.50031">
        <ele>836.96484375</ele>
        <time>2010-11-13T11:49:02Z</time>
      </trkpt>
      <trkpt lat="45.5671" lon="4.50008">
        <ele>836.96484375</ele>
        <time>2010-11-13T11:49:09Z</time>
      </trkpt>
      <trkpt lat="45.56679" lon="4.49973">
        <ele>836.484375</ele>
        <time>2010-11-13T11:49:18Z</time>
      </trkpt>
      <trkpt lat="45.56653" lon="4.49946">
        <ele>837.44555664062</ele>
        <time>2010-11-13T11:49:26Z</time>
      </trkpt>
      <trkpt lat="45.56625" lon="4.49925">
        <ele>838.8876953125</ele>
        <time>2010-11-13T11:49:34Z</time>
      </trkpt>
      <trkpt lat="45.56618" lon="4.4992">
        <ele>839.3681640625</ele>
        <time>2010-11-13T11:49:36Z</time>
      </trkpt>
      <trkpt lat="45.56592" lon="4.49903">
        <ele>839.84887695312</ele>
        <time>2010-11-13T11:49:43Z</time>
      </trkpt>
      <trkpt lat="45.56565" lon="4.49879">
        <ele>841.29077148438</ele>
        <time>2010-11-13T11:49:51Z</time>
      </trkpt>
      <trkpt lat="45.56559" lon="4.49873">
        <ele>842.25219726562</ele>
        <time>2010-11-13T11:49:53Z</time>
      </trkpt>
      <trkpt lat="45.56528" lon="4.49848">
        <ele>843.21337890625</ele>
        <time>2010-11-13T11:50:02Z</time>
      </trkpt>
      <trkpt lat="45.56509" lon="4.49834">
        <ele>843.21337890625</ele>
        <time>2010-11-13T11:50:08Z</time>
      </trkpt>
      <trkpt lat="45.56483" lon="4.49818">
        <ele>844.17504882812</ele>
        <time>2010-11-13T11:50:15Z</time>
      </trkpt>
      <trkpt lat="45.5648" lon="4.49816">
        <ele>843.69409179688</ele>
        <time>2010-11-13T11:50:16Z</time>
      </trkpt>
      <trkpt lat="45.56452" lon="4.49791">
        <ele>844.17504882812</ele>
        <time>2010-11-13T11:50:24Z</time>
      </trkpt>
      <trkpt lat="45.56427" lon="4.49763">
        <ele>844.17504882812</ele>
        <time>2010-11-13T11:50:31Z</time>
      </trkpt>
      <trkpt lat="45.56393" lon="4.49732">
        <ele>845.13623046875</ele>
        <time>2010-11-13T11:50:39Z</time>
      </trkpt>
      <trkpt lat="45.56363" lon="4.49707">
        <ele>845.13623046875</ele>
        <time>2010-11-13T11:50:46Z</time>
      </trkpt>
      <trkpt lat="45.56328" lon="4.4968">
        <ele>844.65551757812</ele>
        <time>2010-11-13T11:50:53Z</time>
      </trkpt>
      <trkpt lat="45.56274" lon="4.49637">
        <ele>843.21337890625</ele>
        <time>2010-11-13T11:51:03Z</time>
      </trkpt>
      <trkpt lat="45.56236" lon="4.49606">
        <ele>842.73291015625</ele>
        <time>2010-11-13T11:51:11Z</time>
      </trkpt>
      <trkpt lat="45.56206" lon="4.49582">
        <ele>843.21337890625</ele>
        <time>2010-11-13T11:51:18Z</time>
      </trkpt>
      <trkpt lat="45.5617" lon="4.49552">
        <ele>843.69409179688</ele>
        <time>2010-11-13T11:51:26Z</time>
      </trkpt>
      <trkpt lat="45.56131" lon="4.49519">
        <ele>845.13623046875</ele>
        <time>2010-11-13T11:51:35Z</time>
      </trkpt>
      <trkpt lat="45.56088" lon="4.49491">
        <ele>848.02026367188</ele>
        <time>2010-11-13T11:51:45Z</time>
      </trkpt>
      <trkpt lat="45.56047" lon="4.49476">
        <ele>850.42358398438</ele>
        <time>2010-11-13T11:51:54Z</time>
      </trkpt>
      <trkpt lat="45.5601" lon="4.49471">
        <ele>850.42358398438</ele>
        <time>2010-11-13T11:52:02Z</time>
      </trkpt>
      <trkpt lat="45.55966" lon="4.49469">
        <ele>852.34594726562</ele>
        <time>2010-11-13T11:52:11Z</time>
      </trkpt>
      <trkpt lat="45.55917" lon="4.4947">
        <ele>851.86547851562</ele>
        <time>2010-11-13T11:52:20Z</time>
      </trkpt>
      <trkpt lat="45.55878" lon="4.49475">
        <ele>851.86547851562</ele>
        <time>2010-11-13T11:52:27Z</time>
      </trkpt>
      <trkpt lat="45.5585" lon="4.49478">
        <ele>851.384765625</ele>
        <time>2010-11-13T11:52:32Z</time>
      </trkpt>
      <trkpt lat="45.5581" lon="4.49472">
        <ele>851.86547851562</ele>
        <time>2010-11-13T11:52:39Z</time>
      </trkpt>
      <trkpt lat="45.55793" lon="4.49461">
        <ele>851.86547851562</ele>
        <time>2010-11-13T11:52:42Z</time>
      </trkpt>
      <trkpt lat="45.55767" lon="4.49423">
        <ele>852.82666015625</ele>
        <time>2010-11-13T11:52:48Z</time>
      </trkpt>
      <trkpt lat="45.55751" lon="4.49391">
        <ele>853.30737304688</ele>
        <time>2010-11-13T11:52:53Z</time>
      </trkpt>
      <trkpt lat="45.55723" lon="4.4934">
        <ele>854.74926757812</ele>
        <time>2010-11-13T11:53:01Z</time>
      </trkpt>
      <trkpt lat="45.55684" lon="4.49288">
        <ele>854.26879882812</ele>
        <time>2010-11-13T11:53:09Z</time>
      </trkpt>
      <trkpt lat="45.55647" lon="4.49224">
        <ele>853.7880859375</ele>
        <time>2010-11-13T11:53:17Z</time>
      </trkpt>
      <trkpt lat="45.55614" lon="4.49157">
        <ele>854.26879882812</ele>
        <time>2010-11-13T11:53:25Z</time>
      </trkpt>
      <trkpt lat="45.55574" lon="4.49083">
        <ele>855.22998046875</ele>
        <time>2010-11-13T11:53:34Z</time>
      </trkpt>
      <trkpt lat="45.55541" lon="4.49043">
        <ele>855.22998046875</ele>
        <time>2010-11-13T11:53:40Z</time>
      </trkpt>
      <trkpt lat="45.55502" lon="4.49007">
        <ele>854.74926757812</ele>
        <time>2010-11-13T11:53:46Z</time>
      </trkpt>
      <trkpt lat="45.55457" lon="4.48984">
        <ele>852.82666015625</ele>
        <time>2010-11-13T11:53:52Z</time>
      </trkpt>
      <trkpt lat="45.5544" lon="4.48982">
        <ele>851.86547851562</ele>
        <time>2010-11-13T11:53:54Z</time>
      </trkpt>
      <trkpt lat="45.55407" lon="4.48989">
        <ele>851.384765625</ele>
        <time>2010-11-13T11:53:58Z</time>
      </trkpt>
      <trkpt lat="45.55399" lon="4.48994">
        <ele>851.384765625</ele>
        <time>2010-11-13T11:53:59Z</time>
      </trkpt>
      <trkpt lat="45.55346" lon="4.49042">
        <ele>850.90405273438</ele>
        <time>2010-11-13T11:54:07Z</time>
      </trkpt>
      <trkpt lat="45.55313" lon="4.49083">
        <ele>850.90405273438</ele>
        <time>2010-11-13T11:54:13Z</time>
      </trkpt>
      <trkpt lat="45.55283" lon="4.49143">
        <ele>850.42358398438</ele>
        <time>2010-11-13T11:54:20Z</time>
      </trkpt>
      <trkpt lat="45.55275" lon="4.49161">
        <ele>849.94287109375</ele>
        <time>2010-11-13T11:54:22Z</time>
      </trkpt>
      <trkpt lat="45.55265" lon="4.49178">
        <ele>848.9814453125</ele>
        <time>2010-11-13T11:54:24Z</time>
      </trkpt>
      <trkpt lat="45.55242" lon="4.49186">
        <ele>848.02026367188</ele>
        <time>2010-11-13T11:54:27Z</time>
      </trkpt>
      <trkpt lat="45.55218" lon="4.4918">
        <ele>848.02026367188</ele>
        <time>2010-11-13T11:54:30Z</time>
      </trkpt>
      <trkpt lat="45.55166" lon="4.49146">
        <ele>846.09765625</ele>
        <time>2010-11-13T11:54:37Z</time>
      </trkpt>
      <trkpt lat="45.55119" lon="4.49118">
        <ele>845.61694335938</ele>
        <time>2010-11-13T11:54:43Z</time>
      </trkpt>
      <trkpt lat="45.55087" lon="4.49115">
        <ele>845.13623046875</ele>
        <time>2010-11-13T11:54:47Z</time>
      </trkpt>
      <trkpt lat="45.55063" lon="4.49118">
        <ele>844.65551757812</ele>
        <time>2010-11-13T11:54:50Z</time>
      </trkpt>
      <trkpt lat="45.55026" lon="4.49103">
        <ele>843.21337890625</ele>
        <time>2010-11-13T11:54:55Z</time>
      </trkpt>
      <trkpt lat="45.54978" lon="4.49058">
        <ele>843.69409179688</ele>
        <time>2010-11-13T11:55:03Z</time>
      </trkpt>
      <trkpt lat="45.54933" lon="4.4901">
        <ele>844.17504882812</ele>
        <time>2010-11-13T11:55:12Z</time>
      </trkpt>
      <trkpt lat="45.54901" lon="4.48969">
        <ele>844.65551757812</ele>
        <time>2010-11-13T11:55:19Z</time>
      </trkpt>
      <trkpt lat="45.54878" lon="4.48922">
        <ele>843.69409179688</ele>
        <time>2010-11-13T11:55:25Z</time>
      </trkpt>
      <trkpt lat="45.5486" lon="4.48875">
        <ele>840.81005859375</ele>
        <time>2010-11-13T11:55:30Z</time>
      </trkpt>
      <trkpt lat="45.54837" lon="4.48826">
        <ele>839.3681640625</ele>
        <time>2010-11-13T11:55:35Z</time>
      </trkpt>
      <trkpt lat="45.54803" lon="4.48788">
        <ele>836.96484375</ele>
        <time>2010-11-13T11:55:40Z</time>
      </trkpt>
      <trkpt lat="45.54776" lon="4.48779">
        <ele>835.52294921875</ele>
        <time>2010-11-13T11:55:43Z</time>
      </trkpt>
      <trkpt lat="45.54719" lon="4.48775">
        <ele>832.63916015625</ele>
        <time>2010-11-13T11:55:49Z</time>
      </trkpt>
      <trkpt lat="45.54674" lon="4.48771">
        <ele>831.197265625</ele>
        <time>2010-11-13T11:55:54Z</time>
      </trkpt>
      <trkpt lat="45.54607" lon="4.48765">
        <ele>827.83227539062</ele>
        <time>2010-11-13T11:56:02Z</time>
      </trkpt>
      <trkpt lat="45.54582" lon="4.48764">
        <ele>826.87109375</ele>
        <time>2010-11-13T11:56:05Z</time>
      </trkpt>
      <trkpt lat="45.54556" lon="4.48751">
        <ele>826.39038085938</ele>
        <time>2010-11-13T11:56:09Z</time>
      </trkpt>
      <trkpt lat="45.5455" lon="4.48735">
        <ele>825.90966796875</ele>
        <time>2010-11-13T11:56:11Z</time>
      </trkpt>
      <trkpt lat="45.54545" lon="4.48712">
        <ele>826.39038085938</ele>
        <time>2010-11-13T11:56:14Z</time>
      </trkpt>
      <trkpt lat="45.54543" lon="4.48714">
        <ele>826.39038085938</ele>
        <time>2010-11-13T11:56:17Z</time>
      </trkpt>
      <trkpt lat="45.54544" lon="4.48719">
        <ele>825.90966796875</ele>
        <time>2010-11-13T11:56:18Z</time>
      </trkpt>
      <trkpt lat="45.54551" lon="4.48747">
        <ele>825.90966796875</ele>
        <time>2010-11-13T11:56:22Z</time>
      </trkpt>
      <trkpt lat="45.5456" lon="4.48767">
        <ele>825.42895507812</ele>
        <time>2010-11-13T11:56:26Z</time>
      </trkpt>
      <trkpt lat="45.54557" lon="4.4877">
        <ele>824.94848632812</ele>
        <time>2010-11-13T11:56:28Z</time>
      </trkpt>
      <trkpt lat="45.54552" lon="4.48764">
        <ele>824.4677734375</ele>
        <time>2010-11-13T11:56:30Z</time>
      </trkpt>
      <trkpt lat="45.54526" lon="4.48732">
        <ele>822.064453125</ele>
        <time>2010-11-13T11:56:36Z</time>
      </trkpt>
      <trkpt lat="45.5452" lon="4.48727">
        <ele>822.064453125</ele>
        <time>2010-11-13T11:56:37Z</time>
      </trkpt>
      <trkpt lat="45.54502" lon="4.48695">
        <ele>822.064453125</ele>
        <time>2010-11-13T11:56:42Z</time>
      </trkpt>
      <trkpt lat="45.54493" lon="4.48674">
        <ele>822.064453125</ele>
        <time>2010-11-13T11:56:46Z</time>
      </trkpt>
      <trkpt lat="45.5448" lon="4.48656">
        <ele>820.62255859375</ele>
        <time>2010-11-13T11:56:50Z</time>
      </trkpt>
      <trkpt lat="45.54462" lon="4.48628">
        <ele>818.21923828125</ele>
        <time>2010-11-13T11:56:55Z</time>
      </trkpt>
      <trkpt lat="45.54459" lon="4.4862">
        <ele>818.69995117188</ele>
        <time>2010-11-13T11:56:56Z</time>
      </trkpt>
      <trkpt lat="45.54451" lon="4.48585">
        <ele>814.3740234375</ele>
        <time>2010-11-13T11:57:01Z</time>
      </trkpt>
      <trkpt lat="45.5445" lon="4.4858">
        <ele>814.3740234375</ele>
        <time>2010-11-13T11:57:02Z</time>
      </trkpt>
      <trkpt lat="45.54452" lon="4.48567">
        <ele>813.41284179688</ele>
        <time>2010-11-13T11:57:04Z</time>
      </trkpt>
      <trkpt lat="45.54452" lon="4.48528">
        <ele>809.5673828125</ele>
        <time>2010-11-13T11:57:09Z</time>
      </trkpt>
      <trkpt lat="45.54439" lon="4.48509">
        <ele>808.12548828125</ele>
        <time>2010-11-13T11:57:13Z</time>
      </trkpt>
      <trkpt lat="45.54421" lon="4.48513">
        <ele>807.64477539062</ele>
        <time>2010-11-13T11:57:16Z</time>
      </trkpt>
      <trkpt lat="45.5438" lon="4.48522">
        <ele>805.24145507812</ele>
        <time>2010-11-13T11:57:22Z</time>
      </trkpt>
      <trkpt lat="45.5436" lon="4.48528">
        <ele>803.31884765625</ele>
        <time>2010-11-13T11:57:25Z</time>
      </trkpt>
      <trkpt lat="45.5434" lon="4.4853">
        <ele>801.876953125</ele>
        <time>2010-11-13T11:57:28Z</time>
      </trkpt>
      <trkpt lat="45.54305" lon="4.48546">
        <ele>796.10913085938</ele>
        <time>2010-11-13T11:57:33Z</time>
      </trkpt>
      <trkpt lat="45.54282" lon="4.4854">
        <ele>792.74438476562</ele>
        <time>2010-11-13T11:57:36Z</time>
      </trkpt>
      <trkpt lat="45.54269" lon="4.4852">
        <ele>790.34106445312</ele>
        <time>2010-11-13T11:57:38Z</time>
      </trkpt>
      <trkpt lat="45.54265" lon="4.48508">
        <ele>790.34106445312</ele>
        <time>2010-11-13T11:57:39Z</time>
      </trkpt>
      <trkpt lat="45.54234" lon="4.48437">
        <ele>786.01513671875</ele>
        <time>2010-11-13T11:57:45Z</time>
      </trkpt>
      <trkpt lat="45.54226" lon="4.48425">
        <ele>784.5732421875</ele>
        <time>2010-11-13T11:57:46Z</time>
      </trkpt>
      <trkpt lat="45.54195" lon="4.4839">
        <ele>779.76635742188</ele>
        <time>2010-11-13T11:57:49Z</time>
      </trkpt>
      <trkpt lat="45.5417" lon="4.48371">
        <ele>775.92114257812</ele>
        <time>2010-11-13T11:57:51Z</time>
      </trkpt>
      <trkpt lat="45.54144" lon="4.48353">
        <ele>772.556640625</ele>
        <time>2010-11-13T11:57:53Z</time>
      </trkpt>
      <trkpt lat="45.54107" lon="4.48304">
        <ele>771.11474609375</ele>
        <time>2010-11-13T11:57:57Z</time>
      </trkpt>
      <trkpt lat="45.54081" lon="4.48235">
        <ele>769.6728515625</ele>
        <time>2010-11-13T11:58:02Z</time>
      </trkpt>
      <trkpt lat="45.54078" lon="4.48176">
        <ele>768.71142578125</ele>
        <time>2010-11-13T11:58:06Z</time>
      </trkpt>
      <trkpt lat="45.54078" lon="4.48145">
        <ele>767.75</ele>
        <time>2010-11-13T11:58:08Z</time>
      </trkpt>
      <trkpt lat="45.54063" lon="4.48085">
        <ele>762.46264648438</ele>
        <time>2010-11-13T11:58:12Z</time>
      </trkpt>
      <trkpt lat="45.54035" lon="4.48031">
        <ele>756.69482421875</ele>
        <time>2010-11-13T11:58:16Z</time>
      </trkpt>
      <trkpt lat="45.54012" lon="4.47996">
        <ele>753.33032226562</ele>
        <time>2010-11-13T11:58:19Z</time>
      </trkpt>
      <trkpt lat="45.53984" lon="4.47943">
        <ele>749.00439453125</ele>
        <time>2010-11-13T11:58:23Z</time>
      </trkpt>
      <trkpt lat="45.53974" lon="4.47918">
        <ele>745.6396484375</ele>
        <time>2010-11-13T11:58:25Z</time>
      </trkpt>
      <trkpt lat="45.5397" lon="4.47906">
        <ele>744.19775390625</ele>
        <time>2010-11-13T11:58:26Z</time>
      </trkpt>
      <trkpt lat="45.53947" lon="4.47864">
        <ele>738.91064453125</ele>
        <time>2010-11-13T11:58:30Z</time>
      </trkpt>
      <trkpt lat="45.53938" lon="4.47854">
        <ele>737.94921875</ele>
        <time>2010-11-13T11:58:31Z</time>
      </trkpt>
      <trkpt lat="45.5391" lon="4.47828">
        <ele>732.662109375</ele>
        <time>2010-11-13T11:58:34Z</time>
      </trkpt>
      <trkpt lat="45.53879" lon="4.47813">
        <ele>728.81665039062</ele>
        <time>2010-11-13T11:58:37Z</time>
      </trkpt>
      <trkpt lat="45.53856" lon="4.47814">
        <ele>725.9326171875</ele>
        <time>2010-11-13T11:58:39Z</time>
      </trkpt>
      <trkpt lat="45.5382" lon="4.47825">
        <ele>719.20361328125</ele>
        <time>2010-11-13T11:58:42Z</time>
      </trkpt>
      <trkpt lat="45.53756" lon="4.47828">
        <ele>717.76147460938</ele>
        <time>2010-11-13T11:58:47Z</time>
      </trkpt>
      <trkpt lat="45.53697" lon="4.4783">
        <ele>714.39672851562</ele>
        <time>2010-11-13T11:58:52Z</time>
      </trkpt>
      <trkpt lat="45.53674" lon="4.4783">
        <ele>711.51293945312</ele>
        <time>2010-11-13T11:58:54Z</time>
      </trkpt>
      <trkpt lat="45.5363" lon="4.47812">
        <ele>707.66772460938</ele>
        <time>2010-11-13T11:58:58Z</time>
      </trkpt>
      <trkpt lat="45.536" lon="4.47794">
        <ele>704.30322265625</ele>
        <time>2010-11-13T11:59:01Z</time>
      </trkpt>
      <trkpt lat="45.53582" lon="4.4777">
        <ele>702.38037109375</ele>
        <time>2010-11-13T11:59:04Z</time>
      </trkpt>
      <trkpt lat="45.53579" lon="4.47759">
        <ele>702.38037109375</ele>
        <time>2010-11-13T11:59:05Z</time>
      </trkpt>
      <trkpt lat="45.53557" lon="4.47723">
        <ele>702.86108398438</ele>
        <time>2010-11-13T11:59:10Z</time>
      </trkpt>
      <trkpt lat="45.5355" lon="4.47717">
        <ele>701.41918945312</ele>
        <time>2010-11-13T11:59:13Z</time>
      </trkpt>
      <trkpt lat="45.53545" lon="4.477">
        <ele>701.41918945312</ele>
        <time>2010-11-13T11:59:18Z</time>
      </trkpt>
      <trkpt lat="45.53534" lon="4.47684">
        <ele>701.89990234375</ele>
        <time>2010-11-13T11:59:23Z</time>
      </trkpt>
      <trkpt lat="45.53519" lon="4.47673">
        <ele>701.41918945312</ele>
        <time>2010-11-13T11:59:27Z</time>
      </trkpt>
      <trkpt lat="45.53472" lon="4.47654">
        <ele>699.97705078125</ele>
        <time>2010-11-13T11:59:37Z</time>
      </trkpt>
      <trkpt lat="45.53428" lon="4.47641">
        <ele>699.97705078125</ele>
        <time>2010-11-13T11:59:44Z</time>
      </trkpt>
      <trkpt lat="45.53408" lon="4.47628">
        <ele>699.49633789062</ele>
        <time>2010-11-13T11:59:47Z</time>
      </trkpt>
      <trkpt lat="45.53354" lon="4.47575">
        <ele>697.09301757812</ele>
        <time>2010-11-13T11:59:55Z</time>
      </trkpt>
      <trkpt lat="45.53312" lon="4.47553">
        <ele>696.1318359375</ele>
        <time>2010-11-13T12:00:00Z</time>
      </trkpt>
      <trkpt lat="45.53238" lon="4.4753">
        <ele>694.20922851562</ele>
        <time>2010-11-13T12:00:08Z</time>
      </trkpt>
      <trkpt lat="45.53191" lon="4.47537">
        <ele>692.28662109375</ele>
        <time>2010-11-13T12:00:13Z</time>
      </trkpt>
      <trkpt lat="45.5313" lon="4.47549">
        <ele>690.84448242188</ele>
        <time>2010-11-13T12:00:20Z</time>
      </trkpt>
      <trkpt lat="45.53052" lon="4.47549">
        <ele>688.92211914062</ele>
        <time>2010-11-13T12:00:29Z</time>
      </trkpt>
      <trkpt lat="45.53017" lon="4.47531">
        <ele>686.51879882812</ele>
        <time>2010-11-13T12:00:33Z</time>
      </trkpt>
      <trkpt lat="45.53001" lon="4.47496">
        <ele>685.07690429688</ele>
        <time>2010-11-13T12:00:36Z</time>
      </trkpt>
      <trkpt lat="45.52995" lon="4.47467">
        <ele>684.59619140625</ele>
        <time>2010-11-13T12:00:38Z</time>
      </trkpt>
      <trkpt lat="45.52975" lon="4.47338">
        <ele>682.67333984375</ele>
        <time>2010-11-13T12:00:47Z</time>
      </trkpt>
      <trkpt lat="45.5295" lon="4.47278">
        <ele>681.7119140625</ele>
        <time>2010-11-13T12:00:52Z</time>
      </trkpt>
      <trkpt lat="45.52926" lon="4.4723">
        <ele>679.78930664062</ele>
        <time>2010-11-13T12:00:56Z</time>
      </trkpt>
      <trkpt lat="45.52914" lon="4.47175">
        <ele>677.38623046875</ele>
        <time>2010-11-13T12:01:00Z</time>
      </trkpt>
      <trkpt lat="45.52917" lon="4.47145">
        <ele>676.4248046875</ele>
        <time>2010-11-13T12:01:02Z</time>
      </trkpt>
      <trkpt lat="45.52935" lon="4.47108">
        <ele>675.46337890625</ele>
        <time>2010-11-13T12:01:05Z</time>
      </trkpt>
      <trkpt lat="45.52987" lon="4.47021">
        <ele>672.57958984375</ele>
        <time>2010-11-13T12:01:13Z</time>
      </trkpt>
      <trkpt lat="45.53003" lon="4.46988">
        <ele>671.6181640625</ele>
        <time>2010-11-13T12:01:16Z</time>
      </trkpt>
      <trkpt lat="45.53017" lon="4.46924">
        <ele>670.17626953125</ele>
        <time>2010-11-13T12:01:21Z</time>
      </trkpt>
      <trkpt lat="45.53019" lon="4.46911">
        <ele>670.65698242188</ele>
        <time>2010-11-13T12:01:22Z</time>
      </trkpt>
      <trkpt lat="45.53016" lon="4.46845">
        <ele>669.21508789062</ele>
        <time>2010-11-13T12:01:27Z</time>
      </trkpt>
      <trkpt lat="45.53011" lon="4.46779">
        <ele>666.8115234375</ele>
        <time>2010-11-13T12:01:32Z</time>
      </trkpt>
      <trkpt lat="45.53016" lon="4.46724">
        <ele>665.85034179688</ele>
        <time>2010-11-13T12:01:36Z</time>
      </trkpt>
      <trkpt lat="45.53016" lon="4.46695">
        <ele>664.88891601562</ele>
        <time>2010-11-13T12:01:38Z</time>
      </trkpt>
      <trkpt lat="45.53007" lon="4.46651">
        <ele>662.96630859375</ele>
        <time>2010-11-13T12:01:41Z</time>
      </trkpt>
      <trkpt lat="45.52981" lon="4.4657">
        <ele>661.5244140625</ele>
        <time>2010-11-13T12:01:47Z</time>
      </trkpt>
      <trkpt lat="45.52951" lon="4.46529">
        <ele>659.60180664062</ele>
        <time>2010-11-13T12:01:51Z</time>
      </trkpt>
      <trkpt lat="45.5293" lon="4.46516">
        <ele>658.64038085938</ele>
        <time>2010-11-13T12:01:53Z</time>
      </trkpt>
      <trkpt lat="45.52899" lon="4.46504">
        <ele>657.19848632812</ele>
        <time>2010-11-13T12:01:56Z</time>
      </trkpt>
      <trkpt lat="45.52862" lon="4.46474">
        <ele>655.75659179688</ele>
        <time>2010-11-13T12:02:00Z</time>
      </trkpt>
      <trkpt lat="45.52845" lon="4.46454">
        <ele>654.79516601562</ele>
        <time>2010-11-13T12:02:02Z</time>
      </trkpt>
      <trkpt lat="45.52808" lon="4.46427">
        <ele>652.39184570312</ele>
        <time>2010-11-13T12:02:06Z</time>
      </trkpt>
      <trkpt lat="45.52787" lon="4.46421">
        <ele>651.9111328125</ele>
        <time>2010-11-13T12:02:08Z</time>
      </trkpt>
      <trkpt lat="45.52721" lon="4.46409">
        <ele>649.5078125</ele>
        <time>2010-11-13T12:02:15Z</time>
      </trkpt>
      <trkpt lat="45.52687" lon="4.46391">
        <ele>648.54638671875</ele>
        <time>2010-11-13T12:02:19Z</time>
      </trkpt>
      <trkpt lat="45.52672" lon="4.46376">
        <ele>648.06591796875</ele>
        <time>2010-11-13T12:02:21Z</time>
      </trkpt>
      <trkpt lat="45.52654" lon="4.46344">
        <ele>647.1044921875</ele>
        <time>2010-11-13T12:02:24Z</time>
      </trkpt>
      <trkpt lat="45.52623" lon="4.46274">
        <ele>645.18188476562</ele>
        <time>2010-11-13T12:02:30Z</time>
      </trkpt>
      <trkpt lat="45.52588" lon="4.46227">
        <ele>644.220703125</ele>
        <time>2010-11-13T12:02:35Z</time>
      </trkpt>
      <trkpt lat="45.52575" lon="4.46209">
        <ele>643.25927734375</ele>
        <time>2010-11-13T12:02:37Z</time>
      </trkpt>
      <trkpt lat="45.52559" lon="4.46162">
        <ele>641.8173828125</ele>
        <time>2010-11-13T12:02:41Z</time>
      </trkpt>
      <trkpt lat="45.52559" lon="4.46148">
        <ele>641.33666992188</ele>
        <time>2010-11-13T12:02:42Z</time>
      </trkpt>
      <trkpt lat="45.52571" lon="4.4611">
        <ele>640.37548828125</ele>
        <time>2010-11-13T12:02:45Z</time>
      </trkpt>
      <trkpt lat="45.52578" lon="4.46099">
        <ele>640.37548828125</ele>
        <time>2010-11-13T12:02:46Z</time>
      </trkpt>
      <trkpt lat="45.52603" lon="4.46039">
        <ele>638.93359375</ele>
        <time>2010-11-13T12:02:51Z</time>
      </trkpt>
      <trkpt lat="45.52608" lon="4.45985">
        <ele>637.49145507812</ele>
        <time>2010-11-13T12:02:55Z</time>
      </trkpt>
      <trkpt lat="45.52602" lon="4.45947">
        <ele>636.5302734375</ele>
        <time>2010-11-13T12:02:58Z</time>
      </trkpt>
      <trkpt lat="45.52585" lon="4.45872">
        <ele>634.607421875</ele>
        <time>2010-11-13T12:03:04Z</time>
      </trkpt>
      <trkpt lat="45.52582" lon="4.45846">
        <ele>632.68481445312</ele>
        <time>2010-11-13T12:03:06Z</time>
      </trkpt>
      <trkpt lat="45.52589" lon="4.45794">
        <ele>631.24291992188</ele>
        <time>2010-11-13T12:03:10Z</time>
      </trkpt>
      <trkpt lat="45.52594" lon="4.45781">
        <ele>631.24291992188</ele>
        <time>2010-11-13T12:03:11Z</time>
      </trkpt>
      <trkpt lat="45.52596" lon="4.45739">
        <ele>628.83959960938</ele>
        <time>2010-11-13T12:03:14Z</time>
      </trkpt>
      <trkpt lat="45.52593" lon="4.45725">
        <ele>628.83959960938</ele>
        <time>2010-11-13T12:03:15Z</time>
      </trkpt>
      <trkpt lat="45.52577" lon="4.45706">
        <ele>626.9169921875</ele>
        <time>2010-11-13T12:03:17Z</time>
      </trkpt>
      <trkpt lat="45.52566" lon="4.45697">
        <ele>626.43627929688</ele>
        <time>2010-11-13T12:03:18Z</time>
      </trkpt>
      <trkpt lat="45.5254" lon="4.45673">
        <ele>625.47485351562</ele>
        <time>2010-11-13T12:03:21Z</time>
      </trkpt>
      <trkpt lat="45.52515" lon="4.45624">
        <ele>623.55249023438</ele>
        <time>2010-11-13T12:03:25Z</time>
      </trkpt>
      <trkpt lat="45.5249" lon="4.45574">
        <ele>620.66845703125</ele>
        <time>2010-11-13T12:03:29Z</time>
      </trkpt>
      <trkpt lat="45.52483" lon="4.45562">
        <ele>620.66845703125</ele>
        <time>2010-11-13T12:03:30Z</time>
      </trkpt>
      <trkpt lat="45.52454" lon="4.45495">
        <ele>618.26489257812</ele>
        <time>2010-11-13T12:03:35Z</time>
      </trkpt>
      <trkpt lat="45.52429" lon="4.45441">
        <ele>616.34228515625</ele>
        <time>2010-11-13T12:03:39Z</time>
      </trkpt>
      <trkpt lat="45.52398" lon="4.45395">
        <ele>614.900390625</ele>
        <time>2010-11-13T12:03:43Z</time>
      </trkpt>
      <trkpt lat="45.52386" lon="4.45369">
        <ele>613.93896484375</ele>
        <time>2010-11-13T12:03:45Z</time>
      </trkpt>
      <trkpt lat="45.52355" lon="4.45277">
        <ele>612.0166015625</ele>
        <time>2010-11-13T12:03:52Z</time>
      </trkpt>
      <trkpt lat="45.52328" lon="4.45201">
        <ele>608.65185546875</ele>
        <time>2010-11-13T12:03:58Z</time>
      </trkpt>
      <trkpt lat="45.523" lon="4.45135">
        <ele>607.2099609375</ele>
        <time>2010-11-13T12:04:04Z</time>
      </trkpt>
      <trkpt lat="45.52295" lon="4.45124">
        <ele>607.2099609375</ele>
        <time>2010-11-13T12:04:05Z</time>
      </trkpt>
      <trkpt lat="45.52258" lon="4.45081">
        <ele>604.806640625</ele>
        <time>2010-11-13T12:04:10Z</time>
      </trkpt>
      <trkpt lat="45.5224" lon="4.4507">
        <ele>604.806640625</ele>
        <time>2010-11-13T12:04:12Z</time>
      </trkpt>
      <trkpt lat="45.52187" lon="4.45043">
        <ele>601.92260742188</ele>
        <time>2010-11-13T12:04:18Z</time>
      </trkpt>
      <trkpt lat="45.52161" lon="4.45028">
        <ele>601.44189453125</ele>
        <time>2010-11-13T12:04:21Z</time>
      </trkpt>
      <trkpt lat="45.52125" lon="4.44983">
        <ele>600</ele>
        <time>2010-11-13T12:04:26Z</time>
      </trkpt>
      <trkpt lat="45.52112" lon="4.44947">
        <ele>599.51928710938</ele>
        <time>2010-11-13T12:04:29Z</time>
      </trkpt>
      <trkpt lat="45.52091" lon="4.44886">
        <ele>598.07739257812</ele>
        <time>2010-11-13T12:04:34Z</time>
      </trkpt>
      <trkpt lat="45.52062" lon="4.44852">
        <ele>596.63549804688</ele>
        <time>2010-11-13T12:04:38Z</time>
      </trkpt>
      <trkpt lat="45.52045" lon="4.44842">
        <ele>596.63549804688</ele>
        <time>2010-11-13T12:04:40Z</time>
      </trkpt>
      <trkpt lat="45.52012" lon="4.44833">
        <ele>595.193359375</ele>
        <time>2010-11-13T12:04:44Z</time>
      </trkpt>
      <trkpt lat="45.5198" lon="4.44815">
        <ele>593.27075195312</ele>
        <time>2010-11-13T12:04:48Z</time>
      </trkpt>
      <trkpt lat="45.51958" lon="4.44792">
        <ele>592.79028320312</ele>
        <time>2010-11-13T12:04:51Z</time>
      </trkpt>
      <trkpt lat="45.51894" lon="4.44708">
        <ele>590.86743164062</ele>
        <time>2010-11-13T12:05:00Z</time>
      </trkpt>
      <trkpt lat="45.51839" lon="4.44655">
        <ele>588.46435546875</ele>
        <time>2010-11-13T12:05:07Z</time>
      </trkpt>
      <trkpt lat="45.51785" lon="4.44596">
        <ele>587.02197265625</ele>
        <time>2010-11-13T12:05:14Z</time>
      </trkpt>
      <trkpt lat="45.51771" lon="4.44577">
        <ele>586.06079101562</ele>
        <time>2010-11-13T12:05:16Z</time>
      </trkpt>
      <trkpt lat="45.51754" lon="4.4453">
        <ele>585.099609375</ele>
        <time>2010-11-13T12:05:20Z</time>
      </trkpt>
      <trkpt lat="45.51738" lon="4.44475">
        <ele>583.65747070312</ele>
        <time>2010-11-13T12:05:25Z</time>
      </trkpt>
      <trkpt lat="45.51722" lon="4.44467">
        <ele>583.65747070312</ele>
        <time>2010-11-13T12:05:27Z</time>
      </trkpt>
      <trkpt lat="45.51708" lon="4.44473">
        <ele>583.65747070312</ele>
        <time>2010-11-13T12:05:29Z</time>
      </trkpt>
      <trkpt lat="45.51693" lon="4.44482">
        <ele>583.1767578125</ele>
        <time>2010-11-13T12:05:31Z</time>
      </trkpt>
      <trkpt lat="45.51662" lon="4.44484">
        <ele>582.21557617188</ele>
        <time>2010-11-13T12:05:35Z</time>
      </trkpt>
      <trkpt lat="45.51641" lon="4.44465">
        <ele>581.25439453125</ele>
        <time>2010-11-13T12:05:38Z</time>
      </trkpt>
      <trkpt lat="45.51591" lon="4.44395">
        <ele>580.29296875</ele>
        <time>2010-11-13T12:05:46Z</time>
      </trkpt>
      <trkpt lat="45.5155" lon="4.44337">
        <ele>578.85107421875</ele>
        <time>2010-11-13T12:05:53Z</time>
      </trkpt>
      <trkpt lat="45.51513" lon="4.44296">
        <ele>576.92846679688</ele>
        <time>2010-11-13T12:05:59Z</time>
      </trkpt>
      <trkpt lat="45.51476" lon="4.44271">
        <ele>576.92846679688</ele>
        <time>2010-11-13T12:06:04Z</time>
      </trkpt>
      <trkpt lat="45.51424" lon="4.44257">
        <ele>573.08325195312</ele>
        <time>2010-11-13T12:06:11Z</time>
      </trkpt>
      <trkpt lat="45.51382" lon="4.44245">
        <ele>573.56396484375</ele>
        <time>2010-11-13T12:06:17Z</time>
      </trkpt>
      <trkpt lat="45.51323" lon="4.44225">
        <ele>571.64086914062</ele>
        <time>2010-11-13T12:06:25Z</time>
      </trkpt>
      <trkpt lat="45.51256" lon="4.44202">
        <ele>571.64086914062</ele>
        <time>2010-11-13T12:06:34Z</time>
      </trkpt>
      <trkpt lat="45.51218" lon="4.44175">
        <ele>571.64086914062</ele>
        <time>2010-11-13T12:06:40Z</time>
      </trkpt>
      <trkpt lat="45.51185" lon="4.44133">
        <ele>572.12182617188</ele>
        <time>2010-11-13T12:06:46Z</time>
      </trkpt>
      <trkpt lat="45.51147" lon="4.4408">
        <ele>572.6025390625</ele>
        <time>2010-11-13T12:06:53Z</time>
      </trkpt>
      <trkpt lat="45.51094" lon="4.4401">
        <ele>573.56396484375</ele>
        <time>2010-11-13T12:07:03Z</time>
      </trkpt>
      <trkpt lat="45.51058" lon="4.43977">
        <ele>573.56396484375</ele>
        <time>2010-11-13T12:07:09Z</time>
      </trkpt>
      <trkpt lat="45.51017" lon="4.43959">
        <ele>574.04443359375</ele>
        <time>2010-11-13T12:07:15Z</time>
      </trkpt>
      <trkpt lat="45.50991" lon="4.43953">
        <ele>572.6025390625</ele>
        <time>2010-11-13T12:07:19Z</time>
      </trkpt>
      <trkpt lat="45.50948" lon="4.43945">
        <ele>571.16040039062</ele>
        <time>2010-11-13T12:07:25Z</time>
      </trkpt>
      <trkpt lat="45.50895" lon="4.43935">
        <ele>568.75708007812</ele>
        <time>2010-11-13T12:07:31Z</time>
      </trkpt>
      <trkpt lat="45.5083" lon="4.43922">
        <ele>565.87329101562</ele>
        <time>2010-11-13T12:07:38Z</time>
      </trkpt>
      <trkpt lat="45.50792" lon="4.43916">
        <ele>562.50854492188</ele>
        <time>2010-11-13T12:07:42Z</time>
      </trkpt>
      <trkpt lat="45.50752" lon="4.43906">
        <ele>560.10522460938</ele>
        <time>2010-11-13T12:07:46Z</time>
      </trkpt>
      <trkpt lat="45.50732" lon="4.43897">
        <ele>559.14404296875</ele>
        <time>2010-11-13T12:07:48Z</time>
      </trkpt>
      <trkpt lat="45.50685" lon="4.43853">
        <ele>555.779296875</ele>
        <time>2010-11-13T12:07:53Z</time>
      </trkpt>
      <trkpt lat="45.50668" lon="4.43831">
        <ele>554.81787109375</ele>
        <time>2010-11-13T12:07:55Z</time>
      </trkpt>
      <trkpt lat="45.5062" lon="4.43771">
        <ele>553.85668945312</ele>
        <time>2010-11-13T12:08:01Z</time>
      </trkpt>
      <trkpt lat="45.50571" lon="4.43726">
        <ele>553.3759765625</ele>
        <time>2010-11-13T12:08:07Z</time>
      </trkpt>
      <trkpt lat="45.50531" lon="4.43698">
        <ele>552.89526367188</ele>
        <time>2010-11-13T12:08:12Z</time>
      </trkpt>
      <trkpt lat="45.50486" lon="4.43673">
        <ele>551.93408203125</ele>
        <time>2010-11-13T12:08:18Z</time>
      </trkpt>
      <trkpt lat="45.5043" lon="4.43648">
        <ele>550.4921875</ele>
        <time>2010-11-13T12:08:26Z</time>
      </trkpt>
      <trkpt lat="45.50384" lon="4.43626">
        <ele>548.5693359375</ele>
        <time>2010-11-13T12:08:33Z</time>
      </trkpt>
      <trkpt lat="45.50377" lon="4.43623">
        <ele>548.0888671875</ele>
        <time>2010-11-13T12:08:34Z</time>
      </trkpt>
      <trkpt lat="45.50314" lon="4.43596">
        <ele>549.05004882812</ele>
        <time>2010-11-13T12:08:43Z</time>
      </trkpt>
      <trkpt lat="45.50273" lon="4.43573">
        <ele>549.05004882812</ele>
        <time>2010-11-13T12:08:50Z</time>
      </trkpt>
      <trkpt lat="45.50248" lon="4.43556">
        <ele>549.05004882812</ele>
        <time>2010-11-13T12:08:55Z</time>
      </trkpt>
      <trkpt lat="45.50218" lon="4.43532">
        <ele>549.05004882812</ele>
        <time>2010-11-13T12:09:03Z</time>
      </trkpt>
      <trkpt lat="45.50208" lon="4.43517">
        <ele>549.53076171875</ele>
        <time>2010-11-13T12:09:09Z</time>
      </trkpt>
      <trkpt lat="45.50202" lon="4.43503">
        <ele>549.53076171875</ele>
        <time>2010-11-13T12:09:14Z</time>
      </trkpt>
      <trkpt lat="45.50185" lon="4.43494">
        <ele>549.53076171875</ele>
        <time>2010-11-13T12:09:18Z</time>
      </trkpt>
      <trkpt lat="45.50151" lon="4.43477">
        <ele>549.53076171875</ele>
        <time>2010-11-13T12:09:24Z</time>
      </trkpt>
      <trkpt lat="45.50099" lon="4.43448">
        <ele>548.0888671875</ele>
        <time>2010-11-13T12:09:32Z</time>
      </trkpt>
      <trkpt lat="45.50062" lon="4.43434">
        <ele>547.60815429688</ele>
        <time>2010-11-13T12:09:37Z</time>
      </trkpt>
      <trkpt lat="45.50014" lon="4.43429">
        <ele>546.16625976562</ele>
        <time>2010-11-13T12:09:43Z</time>
      </trkpt>
      <trkpt lat="45.49955" lon="4.43437">
        <ele>544.72424316406</ele>
        <time>2010-11-13T12:09:50Z</time>
      </trkpt>
      <trkpt lat="45.49883" lon="4.43447">
        <ele>542.80151367188</ele>
        <time>2010-11-13T12:09:58Z</time>
      </trkpt>
      <trkpt lat="45.49821" lon="4.43456">
        <ele>541.84020996094</ele>
        <time>2010-11-13T12:10:05Z</time>
      </trkpt>
      <trkpt lat="45.49733" lon="4.43467">
        <ele>539.91760253906</ele>
        <time>2010-11-13T12:10:14Z</time>
      </trkpt>
      <trkpt lat="45.4967" lon="4.43477">
        <ele>538.95629882812</ele>
        <time>2010-11-13T12:10:21Z</time>
      </trkpt>
      <trkpt lat="45.49614" lon="4.43484">
        <ele>538.95629882812</ele>
        <time>2010-11-13T12:10:28Z</time>
      </trkpt>
      <trkpt lat="45.49544" lon="4.43494">
        <ele>537.99499511719</ele>
        <time>2010-11-13T12:10:37Z</time>
      </trkpt>
      <trkpt lat="45.49469" lon="4.43504">
        <ele>537.51428222656</ele>
        <time>2010-11-13T12:10:47Z</time>
      </trkpt>
      <trkpt lat="45.49391" lon="4.43517">
        <ele>537.03369140625</ele>
        <time>2010-11-13T12:10:58Z</time>
      </trkpt>
      <trkpt lat="45.49353" lon="4.43521">
        <ele>536.07238769531</ele>
        <time>2010-11-13T12:11:04Z</time>
      </trkpt>
      <trkpt lat="45.49347" lon="4.43523">
        <ele>536.07238769531</ele>
        <time>2010-11-13T12:11:06Z</time>
      </trkpt>
      <trkpt lat="45.49341" lon="4.43523">
        <ele>536.07238769531</ele>
        <time>2010-11-13T12:11:13Z</time>
      </trkpt>
      <trkpt lat="45.4934" lon="4.43523">
        <ele>536.07238769531</ele>
        <time>2010-11-13T12:11:14Z</time>
      </trkpt>
      <trkpt lat="45.4933" lon="4.43525">
        <ele>536.07238769531</ele>
        <time>2010-11-13T12:11:20Z</time>
      </trkpt>
      <trkpt lat="45.49311" lon="4.43527">
        <ele>536.07238769531</ele>
        <time>2010-11-13T12:11:24Z</time>
      </trkpt>
      <trkpt lat="45.4926" lon="4.43534">
        <ele>536.07238769531</ele>
        <time>2010-11-13T12:11:33Z</time>
      </trkpt>
      <trkpt lat="45.49198" lon="4.43543">
        <ele>535.59155273438</ele>
        <time>2010-11-13T12:11:43Z</time>
      </trkpt>
      <trkpt lat="45.49153" lon="4.43549">
        <ele>536.07238769531</ele>
        <time>2010-11-13T12:11:50Z</time>
      </trkpt>
      <trkpt lat="45.49086" lon="4.43559">
        <ele>535.59155273438</ele>
        <time>2010-11-13T12:12:00Z</time>
      </trkpt>
      <trkpt lat="45.49018" lon="4.43566">
        <ele>535.11096191406</ele>
        <time>2010-11-13T12:12:10Z</time>
      </trkpt>
      <trkpt lat="45.48949" lon="4.43577">
        <ele>534.63037109375</ele>
        <time>2010-11-13T12:12:20Z</time>
      </trkpt>
      <trkpt lat="45.48886" lon="4.43586">
        <ele>533.6689453125</ele>
        <time>2010-11-13T12:12:29Z</time>
      </trkpt>
      <trkpt lat="45.48822" lon="4.43595">
        <ele>532.70776367188</ele>
        <time>2010-11-13T12:12:38Z</time>
      </trkpt>
      <trkpt lat="45.48767" lon="4.43601">
        <ele>532.22705078125</ele>
        <time>2010-11-13T12:12:46Z</time>
      </trkpt>
      <trkpt lat="45.48722" lon="4.4361">
        <ele>532.22705078125</ele>
        <time>2010-11-13T12:12:53Z</time>
      </trkpt>
      <trkpt lat="45.48699" lon="4.43612">
        <ele>531.26574707031</ele>
        <time>2010-11-13T12:12:57Z</time>
      </trkpt>
      <trkpt lat="45.48682" lon="4.43608">
        <ele>531.26574707031</ele>
        <time>2010-11-13T12:13:00Z</time>
      </trkpt>
      <trkpt lat="45.48662" lon="4.43614">
        <ele>531.74633789062</ele>
        <time>2010-11-13T12:13:04Z</time>
      </trkpt>
      <trkpt lat="45.48625" lon="4.43623">
        <ele>530.78515625</ele>
        <time>2010-11-13T12:13:10Z</time>
      </trkpt>
      <trkpt lat="45.48552" lon="4.43634">
        <ele>530.30444335938</ele>
        <time>2010-11-13T12:13:21Z</time>
      </trkpt>
      <trkpt lat="45.48498" lon="4.43639">
        <ele>527.90100097656</ele>
        <time>2010-11-13T12:13:29Z</time>
      </trkpt>
      <trkpt lat="45.4846" lon="4.43638">
        <ele>527.90100097656</ele>
        <time>2010-11-13T12:13:35Z</time>
      </trkpt>
      <trkpt lat="45.4841" lon="4.43632">
        <ele>527.42041015625</ele>
        <time>2010-11-13T12:13:42Z</time>
      </trkpt>
      <trkpt lat="45.48352" lon="4.43611">
        <ele>525.97839355469</ele>
        <time>2010-11-13T12:13:50Z</time>
      </trkpt>
      <trkpt lat="45.48312" lon="4.43585">
        <ele>524.53649902344</ele>
        <time>2010-11-13T12:13:56Z</time>
      </trkpt>
      <trkpt lat="45.48278" lon="4.43535">
        <ele>524.53649902344</ele>
        <time>2010-11-13T12:14:02Z</time>
      </trkpt>
      <trkpt lat="45.48234" lon="4.43465">
        <ele>523.5751953125</ele>
        <time>2010-11-13T12:14:11Z</time>
      </trkpt>
      <trkpt lat="45.48205" lon="4.43426">
        <ele>523.09460449219</ele>
        <time>2010-11-13T12:14:17Z</time>
      </trkpt>
      <trkpt lat="45.48179" lon="4.43377">
        <ele>522.61389160156</ele>
        <time>2010-11-13T12:14:24Z</time>
      </trkpt>
      <trkpt lat="45.48169" lon="4.43363">
        <ele>522.61389160156</ele>
        <time>2010-11-13T12:14:26Z</time>
      </trkpt>
      <trkpt lat="45.48141" lon="4.43321">
        <ele>522.13317871094</ele>
        <time>2010-11-13T12:14:33Z</time>
      </trkpt>
      <trkpt lat="45.48105" lon="4.4327">
        <ele>521.65258789062</ele>
        <time>2010-11-13T12:14:41Z</time>
      </trkpt>
      <trkpt lat="45.48071" lon="4.43225">
        <ele>521.17199707031</ele>
        <time>2010-11-13T12:14:48Z</time>
      </trkpt>
      <trkpt lat="45.48054" lon="4.43198">
        <ele>520.21057128906</ele>
        <time>2010-11-13T12:14:52Z</time>
      </trkpt>
      <trkpt lat="45.48013" lon="4.43133">
        <ele>518.7685546875</ele>
        <time>2010-11-13T12:15:01Z</time>
      </trkpt>
      <trkpt lat="45.48005" lon="4.43119">
        <ele>518.7685546875</ele>
        <time>2010-11-13T12:15:03Z</time>
      </trkpt>
      <trkpt lat="45.47984" lon="4.43108">
        <ele>517.80725097656</ele>
        <time>2010-11-13T12:15:07Z</time>
      </trkpt>
      <trkpt lat="45.4798" lon="4.43099">
        <ele>517.32666015625</ele>
        <time>2010-11-13T12:15:09Z</time>
      </trkpt>
      <trkpt lat="45.47976" lon="4.43086">
        <ele>517.80725097656</ele>
        <time>2010-11-13T12:15:11Z</time>
      </trkpt>
      <trkpt lat="45.47973" lon="4.43074">
        <ele>517.80725097656</ele>
        <time>2010-11-13T12:15:13Z</time>
      </trkpt>
      <trkpt lat="45.47972" lon="4.43045">
        <ele>517.80725097656</ele>
        <time>2010-11-13T12:15:17Z</time>
      </trkpt>
      <trkpt lat="45.47966" lon="4.43027">
        <ele>517.80725097656</ele>
        <time>2010-11-13T12:15:20Z</time>
      </trkpt>
      <trkpt lat="45.47961" lon="4.43025">
        <ele>516.84594726562</ele>
        <time>2010-11-13T12:15:21Z</time>
      </trkpt>
      <trkpt lat="45.47917" lon="4.43008">
        <ele>516.84594726562</ele>
        <time>2010-11-13T12:15:28Z</time>
      </trkpt>
      <trkpt lat="45.47896" lon="4.42997">
        <ele>515.40405273438</ele>
        <time>2010-11-13T12:15:31Z</time>
      </trkpt>
      <trkpt lat="45.47872" lon="4.42983">
        <ele>513.96203613281</ele>
        <time>2010-11-13T12:15:34Z</time>
      </trkpt>
      <trkpt lat="45.47847" lon="4.4297">
        <ele>512.52001953125</ele>
        <time>2010-11-13T12:15:37Z</time>
      </trkpt>
      <trkpt lat="45.47799" lon="4.42944">
        <ele>510.11669921875</ele>
        <time>2010-11-13T12:15:43Z</time>
      </trkpt>
      <trkpt lat="45.4779" lon="4.4294">
        <ele>509.63610839844</ele>
        <time>2010-11-13T12:15:44Z</time>
      </trkpt>
      <trkpt lat="45.47765" lon="4.42926">
        <ele>508.19409179688</ele>
        <time>2010-11-13T12:15:47Z</time>
      </trkpt>
      <trkpt lat="45.4774" lon="4.42911">
        <ele>506.271484375</ele>
        <time>2010-11-13T12:15:50Z</time>
      </trkpt>
      <trkpt lat="45.47697" lon="4.42871">
        <ele>504.34887695312</ele>
        <time>2010-11-13T12:15:55Z</time>
      </trkpt>
      <trkpt lat="45.47689" lon="4.42861">
        <ele>504.34887695312</ele>
        <time>2010-11-13T12:15:56Z</time>
      </trkpt>
      <trkpt lat="45.47631" lon="4.42794">
        <ele>502.42614746094</ele>
        <time>2010-11-13T12:16:03Z</time>
      </trkpt>
      <trkpt lat="45.47581" lon="4.42735">
        <ele>500.98413085938</ele>
        <time>2010-11-13T12:16:10Z</time>
      </trkpt>
      <trkpt lat="45.4755" lon="4.42696">
        <ele>500.50354003906</ele>
        <time>2010-11-13T12:16:15Z</time>
      </trkpt>
      <trkpt lat="45.47502" lon="4.42647">
        <ele>500.50354003906</ele>
        <time>2010-11-13T12:16:23Z</time>
      </trkpt>
      <trkpt lat="45.47457" lon="4.42608">
        <ele>500.50354003906</ele>
        <time>2010-11-13T12:16:31Z</time>
      </trkpt>
      <trkpt lat="45.47407" lon="4.42572">
        <ele>500.98413085938</ele>
        <time>2010-11-13T12:16:40Z</time>
      </trkpt>
      <trkpt lat="45.47346" lon="4.42532">
        <ele>501.94555664062</ele>
        <time>2010-11-13T12:16:51Z</time>
      </trkpt>
      <trkpt lat="45.47306" lon="4.42505">
        <ele>502.42614746094</ele>
        <time>2010-11-13T12:16:59Z</time>
      </trkpt>
      <trkpt lat="45.47275" lon="4.42482">
        <ele>502.90673828125</ele>
        <time>2010-11-13T12:17:06Z</time>
      </trkpt>
      <trkpt lat="45.4725" lon="4.42462">
        <ele>504.34887695312</ele>
        <time>2010-11-13T12:17:13Z</time>
      </trkpt>
      <trkpt lat="45.47217" lon="4.42433">
        <ele>506.271484375</ele>
        <time>2010-11-13T12:17:24Z</time>
      </trkpt>
      <trkpt lat="45.47192" lon="4.4241">
        <ele>509.63610839844</ele>
        <time>2010-11-13T12:17:33Z</time>
      </trkpt>
      <trkpt lat="45.47165" lon="4.42385">
        <ele>512.52001953125</ele>
        <time>2010-11-13T12:17:43Z</time>
      </trkpt>
      <trkpt lat="45.47147" lon="4.42369">
        <ele>513.4814453125</ele>
        <time>2010-11-13T12:17:50Z</time>
      </trkpt>
      <trkpt lat="45.47131" lon="4.42354">
        <ele>516.84594726562</ele>
        <time>2010-11-13T12:17:56Z</time>
      </trkpt>
      <trkpt lat="45.47128" lon="4.42352">
        <ele>516.84594726562</ele>
        <time>2010-11-13T12:17:57Z</time>
      </trkpt>
      <trkpt lat="45.47104" lon="4.4233">
        <ele>518.28784179688</ele>
        <time>2010-11-13T12:18:06Z</time>
      </trkpt>
      <trkpt lat="45.47076" lon="4.42306">
        <ele>522.13317871094</ele>
        <time>2010-11-13T12:18:17Z</time>
      </trkpt>
      <trkpt lat="45.47058" lon="4.4229">
        <ele>524.53649902344</ele>
        <time>2010-11-13T12:18:24Z</time>
      </trkpt>
      <trkpt lat="45.47046" lon="4.42282">
        <ele>525.97839355469</ele>
        <time>2010-11-13T12:18:28Z</time>
      </trkpt>
      <trkpt lat="45.47031" lon="4.42271">
        <ele>527.42041015625</ele>
        <time>2010-11-13T12:18:34Z</time>
      </trkpt>
      <trkpt lat="45.47007" lon="4.42256">
        <ele>529.34313964844</ele>
        <time>2010-11-13T12:18:42Z</time>
      </trkpt>
      <trkpt lat="45.46985" lon="4.42246">
        <ele>530.30444335938</ele>
        <time>2010-11-13T12:18:49Z</time>
      </trkpt>
      <trkpt lat="45.46957" lon="4.42235">
        <ele>531.26574707031</ele>
        <time>2010-11-13T12:18:57Z</time>
      </trkpt>
      <trkpt lat="45.46954" lon="4.42234">
        <ele>531.26574707031</ele>
        <time>2010-11-13T12:18:58Z</time>
      </trkpt>
      <trkpt lat="45.46916" lon="4.42228">
        <ele>531.26574707031</ele>
        <time>2010-11-13T12:19:07Z</time>
      </trkpt>
      <trkpt lat="45.46904" lon="4.42209">
        <ele>530.78515625</ele>
        <time>2010-11-13T12:19:11Z</time>
      </trkpt>
      <trkpt lat="45.46892" lon="4.42181">
        <ele>530.78515625</ele>
        <time>2010-11-13T12:19:15Z</time>
      </trkpt>
      <trkpt lat="45.46887" lon="4.42175">
        <ele>530.78515625</ele>
        <time>2010-11-13T12:19:16Z</time>
      </trkpt>
      <trkpt lat="45.46843" lon="4.42125">
        <ele>529.34313964844</ele>
        <time>2010-11-13T12:19:25Z</time>
      </trkpt>
      <trkpt lat="45.46804" lon="4.42084">
        <ele>529.82373046875</ele>
        <time>2010-11-13T12:19:33Z</time>
      </trkpt>
      <trkpt lat="45.46799" lon="4.4208">
        <ele>530.30444335938</ele>
        <time>2010-11-13T12:19:34Z</time>
      </trkpt>
      <trkpt lat="45.46763" lon="4.42062">
        <ele>530.78515625</ele>
        <time>2010-11-13T12:19:41Z</time>
      </trkpt>
      <trkpt lat="45.46758" lon="4.4206">
        <ele>531.26574707031</ele>
        <time>2010-11-13T12:19:42Z</time>
      </trkpt>
      <trkpt lat="45.46736" lon="4.42062">
        <ele>531.74633789062</ele>
        <time>2010-11-13T12:19:47Z</time>
      </trkpt>
      <trkpt lat="45.46727" lon="4.42066">
        <ele>531.26574707031</ele>
        <time>2010-11-13T12:19:49Z</time>
      </trkpt>
      <trkpt lat="45.46717" lon="4.4207">
        <ele>531.26574707031</ele>
        <time>2010-11-13T12:19:51Z</time>
      </trkpt>
      <trkpt lat="45.46701" lon="4.42072">
        <ele>531.74633789062</ele>
        <time>2010-11-13T12:19:54Z</time>
      </trkpt>
      <trkpt lat="45.46669" lon="4.42058">
        <ele>531.74633789062</ele>
        <time>2010-11-13T12:20:00Z</time>
      </trkpt>
      <trkpt lat="45.46622" lon="4.4203">
        <ele>529.82373046875</ele>
        <time>2010-11-13T12:20:08Z</time>
      </trkpt>
      <trkpt lat="45.46593" lon="4.42003">
        <ele>530.30444335938</ele>
        <time>2010-11-13T12:20:13Z</time>
      </trkpt>
      <trkpt lat="45.4658" lon="4.42003">
        <ele>529.82373046875</ele>
        <time>2010-11-13T12:20:15Z</time>
      </trkpt>
      <trkpt lat="45.46545" lon="4.42007">
        <ele>528.86254882812</ele>
        <time>2010-11-13T12:20:20Z</time>
      </trkpt>
      <trkpt lat="45.46449" lon="4.41978">
        <ele>528.3818359375</ele>
        <time>2010-11-13T12:20:34Z</time>
      </trkpt>
      <trkpt lat="45.4641" lon="4.41955">
        <ele>526.93981933594</ele>
        <time>2010-11-13T12:20:40Z</time>
      </trkpt>
      <trkpt lat="45.46368" lon="4.41933">
        <ele>525.01721191406</ele>
        <time>2010-11-13T12:20:46Z</time>
      </trkpt>
      <trkpt lat="45.46312" lon="4.41901">
        <ele>521.65258789062</ele>
        <time>2010-11-13T12:20:53Z</time>
      </trkpt>
      <trkpt lat="45.46275" lon="4.41878">
        <ele>518.28784179688</ele>
        <time>2010-11-13T12:20:57Z</time>
      </trkpt>
      <trkpt lat="45.46241" lon="4.41839">
        <ele>515.40405273438</ele>
        <time>2010-11-13T12:21:01Z</time>
      </trkpt>
      <trkpt lat="45.46203" lon="4.41756">
        <ele>513.96203613281</ele>
        <time>2010-11-13T12:21:08Z</time>
      </trkpt>
      <trkpt lat="45.46194" lon="4.41734">
        <ele>513.96203613281</ele>
        <time>2010-11-13T12:21:10Z</time>
      </trkpt>
      <trkpt lat="45.46184" lon="4.41692">
        <ele>513.4814453125</ele>
        <time>2010-11-13T12:21:14Z</time>
      </trkpt>
      <trkpt lat="45.46171" lon="4.41687">
        <ele>513.96203613281</ele>
        <time>2010-11-13T12:21:16Z</time>
      </trkpt>
      <trkpt lat="45.46143" lon="4.41691">
        <ele>513.00073242188</ele>
        <time>2010-11-13T12:21:20Z</time>
      </trkpt>
      <trkpt lat="45.46123" lon="4.41686">
        <ele>512.03942871094</ele>
        <time>2010-11-13T12:21:23Z</time>
      </trkpt>
      <trkpt lat="45.46065" lon="4.41687">
        <ele>512.03942871094</ele>
        <time>2010-11-13T12:21:31Z</time>
      </trkpt>
      <trkpt lat="45.46021" lon="4.41687">
        <ele>512.03942871094</ele>
        <time>2010-11-13T12:21:38Z</time>
      </trkpt>
      <trkpt lat="45.45966" lon="4.41678">
        <ele>512.03942871094</ele>
        <time>2010-11-13T12:21:47Z</time>
      </trkpt>
      <trkpt lat="45.45913" lon="4.4166">
        <ele>512.52001953125</ele>
        <time>2010-11-13T12:21:56Z</time>
      </trkpt>
      <trkpt lat="45.45856" lon="4.41627">
        <ele>512.52001953125</ele>
        <time>2010-11-13T12:22:06Z</time>
      </trkpt>
      <trkpt lat="45.45815" lon="4.41593">
        <ele>513.4814453125</ele>
        <time>2010-11-13T12:22:14Z</time>
      </trkpt>
      <trkpt lat="45.45784" lon="4.41561">
        <ele>513.96203613281</ele>
        <time>2010-11-13T12:22:20Z</time>
      </trkpt>
      <trkpt lat="45.45749" lon="4.41528">
        <ele>515.88464355469</ele>
        <time>2010-11-13T12:22:27Z</time>
      </trkpt>
      <trkpt lat="45.4573" lon="4.41516">
        <ele>517.32666015625</ele>
        <time>2010-11-13T12:22:31Z</time>
      </trkpt>
      <trkpt lat="45.45705" lon="4.41504">
        <ele>519.24926757812</ele>
        <time>2010-11-13T12:22:36Z</time>
      </trkpt>
      <trkpt lat="45.45692" lon="4.41486">
        <ele>520.69128417969</ele>
        <time>2010-11-13T12:22:40Z</time>
      </trkpt>
      <trkpt lat="45.45686" lon="4.41471">
        <ele>521.17199707031</ele>
        <time>2010-11-13T12:22:43Z</time>
      </trkpt>
      <trkpt lat="45.45671" lon="4.41458">
        <ele>521.65258789062</ele>
        <time>2010-11-13T12:22:47Z</time>
      </trkpt>
      <trkpt lat="45.45658" lon="4.41462">
        <ele>521.65258789062</ele>
        <time>2010-11-13T12:22:50Z</time>
      </trkpt>
      <trkpt lat="45.45637" lon="4.41458">
        <ele>521.17199707031</ele>
        <time>2010-11-13T12:22:55Z</time>
      </trkpt>
      <trkpt lat="45.45626" lon="4.41441">
        <ele>521.17199707031</ele>
        <time>2010-11-13T12:22:58Z</time>
      </trkpt>
      <trkpt lat="45.45596" lon="4.41393">
        <ele>519.72985839844</ele>
        <time>2010-11-13T12:23:05Z</time>
      </trkpt>
      <trkpt lat="45.45568" lon="4.41348">
        <ele>516.365234375</ele>
        <time>2010-11-13T12:23:11Z</time>
      </trkpt>
      <trkpt lat="45.45562" lon="4.41338">
        <ele>515.88464355469</ele>
        <time>2010-11-13T12:23:13Z</time>
      </trkpt>
      <trkpt lat="45.45556" lon="4.41325">
        <ele>514.92333984375</ele>
        <time>2010-11-13T12:23:17Z</time>
      </trkpt>
      <trkpt lat="45.45549" lon="4.41316">
        <ele>513.96203613281</ele>
        <time>2010-11-13T12:23:21Z</time>
      </trkpt>
      <trkpt lat="45.45533" lon="4.41293">
        <ele>512.03942871094</ele>
        <time>2010-11-13T12:23:25Z</time>
      </trkpt>
      <trkpt lat="45.45528" lon="4.41287">
        <ele>512.52001953125</ele>
        <time>2010-11-13T12:23:26Z</time>
      </trkpt>
      <trkpt lat="45.45511" lon="4.41269">
        <ele>510.11669921875</ele>
        <time>2010-11-13T12:23:29Z</time>
      </trkpt>
      <trkpt lat="45.45482" lon="4.41241">
        <ele>507.71350097656</ele>
        <time>2010-11-13T12:23:33Z</time>
      </trkpt>
      <trkpt lat="45.45452" lon="4.41199">
        <ele>506.75207519531</ele>
        <time>2010-11-13T12:23:38Z</time>
      </trkpt>
      <trkpt lat="45.45422" lon="4.41188">
        <ele>505.79089355469</ele>
        <time>2010-11-13T12:23:42Z</time>
      </trkpt>
      <trkpt lat="45.45406" lon="4.41213">
        <ele>506.271484375</ele>
        <time>2010-11-13T12:23:45Z</time>
      </trkpt>
      <trkpt lat="45.45384" lon="4.41262">
        <ele>506.75207519531</ele>
        <time>2010-11-13T12:23:51Z</time>
      </trkpt>
      <trkpt lat="45.45369" lon="4.41293">
        <ele>507.71350097656</ele>
        <time>2010-11-13T12:23:56Z</time>
      </trkpt>
      <trkpt lat="45.45358" lon="4.41319">
        <ele>509.63610839844</ele>
        <time>2010-11-13T12:24:00Z</time>
      </trkpt>
      <trkpt lat="45.45353" lon="4.41332">
        <ele>510.59729003906</ele>
        <time>2010-11-13T12:24:02Z</time>
      </trkpt>
      <trkpt lat="45.45334" lon="4.41372">
        <ele>512.52001953125</ele>
        <time>2010-11-13T12:24:09Z</time>
      </trkpt>
      <trkpt lat="45.45315" lon="4.41416">
        <ele>514.92333984375</ele>
        <time>2010-11-13T12:24:17Z</time>
      </trkpt>
      <trkpt lat="45.4529" lon="4.41469">
        <ele>517.32666015625</ele>
        <time>2010-11-13T12:24:27Z</time>
      </trkpt>
      <trkpt lat="45.45271" lon="4.41514">
        <ele>518.28784179688</ele>
        <time>2010-11-13T12:24:36Z</time>
      </trkpt>
      <trkpt lat="45.45264" lon="4.41526">
        <ele>518.28784179688</ele>
        <time>2010-11-13T12:24:39Z</time>
      </trkpt>
      <trkpt lat="45.45248" lon="4.4157">
        <ele>520.21057128906</ele>
        <time>2010-11-13T12:24:47Z</time>
      </trkpt>
      <trkpt lat="45.45229" lon="4.41607">
        <ele>521.65258789062</ele>
        <time>2010-11-13T12:24:54Z</time>
      </trkpt>
      <trkpt lat="45.452" lon="4.4166">
        <ele>523.09460449219</ele>
        <time>2010-11-13T12:25:04Z</time>
      </trkpt>
      <trkpt lat="45.45178" lon="4.41701">
        <ele>524.53649902344</ele>
        <time>2010-11-13T12:25:13Z</time>
      </trkpt>
      <trkpt lat="45.45172" lon="4.41708">
        <ele>525.49780273438</ele>
        <time>2010-11-13T12:25:15Z</time>
      </trkpt>
      <trkpt lat="45.45155" lon="4.41702">
        <ele>525.49780273438</ele>
        <time>2010-11-13T12:25:20Z</time>
      </trkpt>
      <trkpt lat="45.45125" lon="4.41684">
        <ele>525.49780273438</ele>
        <time>2010-11-13T12:25:27Z</time>
      </trkpt>
      <trkpt lat="45.45082" lon="4.41657">
        <ele>525.49780273438</ele>
        <time>2010-11-13T12:25:35Z</time>
      </trkpt>
      <trkpt lat="45.45029" lon="4.41623">
        <ele>524.53649902344</ele>
        <time>2010-11-13T12:25:44Z</time>
      </trkpt>
      <trkpt lat="45.44987" lon="4.41602">
        <ele>524.53649902344</ele>
        <time>2010-11-13T12:25:51Z</time>
      </trkpt>
      <trkpt lat="45.44963" lon="4.41602">
        <ele>524.05578613281</ele>
        <time>2010-11-13T12:25:55Z</time>
      </trkpt>
      <trkpt lat="45.44942" lon="4.41591">
        <ele>523.5751953125</ele>
        <time>2010-11-13T12:25:59Z</time>
      </trkpt>
      <trkpt lat="45.44928" lon="4.41564">
        <ele>523.09460449219</ele>
        <time>2010-11-13T12:26:03Z</time>
      </trkpt>
      <trkpt lat="45.44909" lon="4.41561">
        <ele>522.13317871094</ele>
        <time>2010-11-13T12:26:06Z</time>
      </trkpt>
      <trkpt lat="45.44888" lon="4.41565">
        <ele>521.65258789062</ele>
        <time>2010-11-13T12:26:09Z</time>
      </trkpt>
      <trkpt lat="45.44844" lon="4.41581">
        <ele>520.69128417969</ele>
        <time>2010-11-13T12:26:15Z</time>
      </trkpt>
      <trkpt lat="45.44773" lon="4.41609">
        <ele>518.28784179688</ele>
        <time>2010-11-13T12:26:24Z</time>
      </trkpt>
      <trkpt lat="45.44718" lon="4.41616">
        <ele>518.28784179688</ele>
        <time>2010-11-13T12:26:31Z</time>
      </trkpt>
      <trkpt lat="45.44664" lon="4.4163">
        <ele>518.7685546875</ele>
        <time>2010-11-13T12:26:39Z</time>
      </trkpt>
      <trkpt lat="45.44615" lon="4.41645">
        <ele>520.21057128906</ele>
        <time>2010-11-13T12:26:47Z</time>
      </trkpt>
      <trkpt lat="45.44569" lon="4.41676">
        <ele>520.69128417969</ele>
        <time>2010-11-13T12:26:56Z</time>
      </trkpt>
      <trkpt lat="45.4454" lon="4.41711">
        <ele>521.17199707031</ele>
        <time>2010-11-13T12:27:03Z</time>
      </trkpt>
      <trkpt lat="45.4452" lon="4.41749">
        <ele>521.65258789062</ele>
        <time>2010-11-13T12:27:09Z</time>
      </trkpt>
      <trkpt lat="45.44503" lon="4.418">
        <ele>521.65258789062</ele>
        <time>2010-11-13T12:27:16Z</time>
      </trkpt>
      <trkpt lat="45.44485" lon="4.41867">
        <ele>522.13317871094</ele>
        <time>2010-11-13T12:27:25Z</time>
      </trkpt>
      <trkpt lat="45.44478" lon="4.41922">
        <ele>522.13317871094</ele>
        <time>2010-11-13T12:27:32Z</time>
      </trkpt>
      <trkpt lat="45.44473" lon="4.41961">
        <ele>523.09460449219</ele>
        <time>2010-11-13T12:27:38Z</time>
      </trkpt>
      <trkpt lat="45.44465" lon="4.42">
        <ele>525.01721191406</ele>
        <time>2010-11-13T12:27:46Z</time>
      </trkpt>
      <trkpt lat="45.44462" lon="4.42002">
        <ele>525.01721191406</ele>
        <time>2010-11-13T12:27:47Z</time>
      </trkpt>
      <trkpt lat="45.44448" lon="4.41995">
        <ele>525.97839355469</ele>
        <time>2010-11-13T12:27:51Z</time>
      </trkpt>
      <trkpt lat="45.44412" lon="4.41952">
        <ele>525.97839355469</ele>
        <time>2010-11-13T12:28:01Z</time>
      </trkpt>
      <trkpt lat="45.44408" lon="4.41948">
        <ele>525.97839355469</ele>
        <time>2010-11-13T12:28:02Z</time>
      </trkpt>
      <trkpt lat="45.444" lon="4.41916">
        <ele>525.97839355469</ele>
        <time>2010-11-13T12:28:07Z</time>
      </trkpt>
      <trkpt lat="45.44394" lon="4.41885">
        <ele>525.01721191406</ele>
        <time>2010-11-13T12:28:11Z</time>
      </trkpt>
      <trkpt lat="45.44388" lon="4.41846">
        <ele>527.90100097656</ele>
        <time>2010-11-13T12:28:17Z</time>
      </trkpt>
      <trkpt lat="45.44391" lon="4.41799">
        <ele>529.34313964844</ele>
        <time>2010-11-13T12:28:25Z</time>
      </trkpt>
      <trkpt lat="45.44395" lon="4.4175">
        <ele>530.30444335938</ele>
        <time>2010-11-13T12:28:33Z</time>
      </trkpt>
      <trkpt lat="45.44397" lon="4.41678">
        <ele>532.22705078125</ele>
        <time>2010-11-13T12:28:44Z</time>
      </trkpt>
      <trkpt lat="45.44392" lon="4.41611">
        <ele>535.11096191406</ele>
        <time>2010-11-13T12:28:54Z</time>
      </trkpt>
      <trkpt lat="45.44379" lon="4.4155">
        <ele>536.55310058594</ele>
        <time>2010-11-13T12:29:03Z</time>
      </trkpt>
      <trkpt lat="45.44363" lon="4.41486">
        <ele>538.95629882812</ele>
        <time>2010-11-13T12:29:13Z</time>
      </trkpt>
      <trkpt lat="45.4435" lon="4.41433">
        <ele>539.91760253906</ele>
        <time>2010-11-13T12:29:21Z</time>
      </trkpt>
      <trkpt lat="45.44339" lon="4.41388">
        <ele>539.91760253906</ele>
        <time>2010-11-13T12:29:28Z</time>
      </trkpt>
      <trkpt lat="45.44334" lon="4.41365">
        <ele>538.95629882812</ele>
        <time>2010-11-13T12:29:33Z</time>
      </trkpt>
      <trkpt lat="45.44329" lon="4.41347">
        <ele>539.43688964844</ele>
        <time>2010-11-13T12:29:37Z</time>
      </trkpt>
      <trkpt lat="45.44321" lon="4.41306">
        <ele>537.99499511719</ele>
        <time>2010-11-13T12:29:42Z</time>
      </trkpt>
      <trkpt lat="45.44313" lon="4.41269">
        <ele>536.55310058594</ele>
        <time>2010-11-13T12:29:46Z</time>
      </trkpt>
      <trkpt lat="45.44299" lon="4.41214">
        <ele>534.63037109375</ele>
        <time>2010-11-13T12:29:51Z</time>
      </trkpt>
      <trkpt lat="45.44284" lon="4.4115">
        <ele>530.78515625</ele>
        <time>2010-11-13T12:29:56Z</time>
      </trkpt>
      <trkpt lat="45.44281" lon="4.41136">
        <ele>530.78515625</ele>
        <time>2010-11-13T12:29:57Z</time>
      </trkpt>
      <trkpt lat="45.44256" lon="4.41025">
        <ele>527.42041015625</ele>
        <time>2010-11-13T12:30:05Z</time>
      </trkpt>
      <trkpt lat="45.44241" lon="4.40958">
        <ele>525.97839355469</ele>
        <time>2010-11-13T12:30:10Z</time>
      </trkpt>
      <trkpt lat="45.44226" lon="4.40898">
        <ele>524.53649902344</ele>
        <time>2010-11-13T12:30:15Z</time>
      </trkpt>
      <trkpt lat="45.44217" lon="4.40846">
        <ele>523.09460449219</ele>
        <time>2010-11-13T12:30:20Z</time>
      </trkpt>
      <trkpt lat="45.44204" lon="4.40788">
        <ele>524.05578613281</ele>
        <time>2010-11-13T12:30:26Z</time>
      </trkpt>
      <trkpt lat="45.44181" lon="4.40697">
        <ele>525.49780273438</ele>
        <time>2010-11-13T12:30:36Z</time>
      </trkpt>
      <trkpt lat="45.44167" lon="4.40629">
        <ele>526.93981933594</ele>
        <time>2010-11-13T12:30:44Z</time>
      </trkpt>
      <trkpt lat="45.44155" lon="4.40574">
        <ele>528.86254882812</ele>
        <time>2010-11-13T12:30:52Z</time>
      </trkpt>
      <trkpt lat="45.44152" lon="4.40553">
        <ele>528.86254882812</ele>
        <time>2010-11-13T12:30:56Z</time>
      </trkpt>
      <trkpt lat="45.44164" lon="4.40539">
        <ele>529.82373046875</ele>
        <time>2010-11-13T12:31:00Z</time>
      </trkpt>
      <trkpt lat="45.44205" lon="4.40517">
        <ele>529.82373046875</ele>
        <time>2010-11-13T12:31:08Z</time>
      </trkpt>
      <trkpt lat="45.44219" lon="4.40493">
        <ele>528.3818359375</ele>
        <time>2010-11-13T12:31:12Z</time>
      </trkpt>
      <trkpt lat="45.4422" lon="4.40484">
        <ele>528.3818359375</ele>
        <time>2010-11-13T12:31:13Z</time>
      </trkpt>
      <trkpt lat="45.4423" lon="4.40418">
        <ele>527.42041015625</ele>
        <time>2010-11-13T12:31:20Z</time>
      </trkpt>
      <trkpt lat="45.44243" lon="4.40339">
        <ele>526.93981933594</ele>
        <time>2010-11-13T12:31:28Z</time>
      </trkpt>
      <trkpt lat="45.44257" lon="4.40259">
        <ele>525.49780273438</ele>
        <time>2010-11-13T12:31:36Z</time>
      </trkpt>
      <trkpt lat="45.44278" lon="4.40145">
        <ele>523.09460449219</ele>
        <time>2010-11-13T12:31:47Z</time>
      </trkpt>
      <trkpt lat="45.44287" lon="4.40077">
        <ele>521.65258789062</ele>
        <time>2010-11-13T12:31:54Z</time>
      </trkpt>
      <trkpt lat="45.44294" lon="4.40044">
        <ele>521.17199707031</ele>
        <time>2010-11-13T12:31:58Z</time>
      </trkpt>
      <trkpt lat="45.44288" lon="4.40025">
        <ele>521.65258789062</ele>
        <time>2010-11-13T12:32:02Z</time>
      </trkpt>
      <trkpt lat="45.44292" lon="4.4001">
        <ele>522.13317871094</ele>
        <time>2010-11-13T12:32:05Z</time>
      </trkpt>
      <trkpt lat="45.44297" lon="4.40002">
        <ele>521.65258789062</ele>
        <time>2010-11-13T12:32:07Z</time>
      </trkpt>
      <trkpt lat="45.44311" lon="4.39958">
        <ele>522.13317871094</ele>
        <time>2010-11-13T12:32:15Z</time>
      </trkpt>
      <trkpt lat="45.44315" lon="4.39943">
        <ele>521.65258789062</ele>
        <time>2010-11-13T12:32:18Z</time>
      </trkpt>
    </trkseg>
  </trk>
</gpx>